<?xml version='1.0' encoding='UTF-8'?><gpx version="1.1" creator="JPX - https://github.com/jenetics/jpx" xmlns="http://www.topografix.com/GPX/1/1"><trk><trkseg><trkpt lat="38.29380410744981" lon="15.54397046611156"><ele>108.0</ele><time>2026-04-30T15:08:05Z</time></trkpt><trkpt lat="38.29389069226585" lon="15.543992725584488"><ele>108.0</ele><time>2026-04-30T15:10:56.999Z</time></trkpt><trkpt lat="38.2939541410759" lon="15.544003945340615"><ele>108.0</ele><time>2026-04-30T15:10:59.999Z</time></trkpt><trkpt lat="38.294036009775574" lon="15.543954573553307"><ele>108.0</ele><time>2026-04-30T15:11:03.999Z</time></trkpt><trkpt lat="38.29409172175112" lon="15.54382782032004"><ele>108.0</ele><time>2026-04-30T15:11:05.999Z</time></trkpt><trkpt lat="38.29411958215471" lon="15.543729627198223"><ele>108.0</ele><time>2026-04-30T15:11:06.999Z</time></trkpt><trkpt lat="38.294163837572945" lon="15.543613865137194"><ele>107.5</ele><time>2026-04-30T15:11:07.999Z</time></trkpt><trkpt lat="38.294210726444405" lon="15.54350929686773"><ele>107.0</ele><time>2026-04-30T15:11:08.999Z</time></trkpt><trkpt lat="38.29425491029426" lon="15.543425703534297"><ele>106.5</ele><time>2026-04-30T15:11:09.999Z</time></trkpt><trkpt lat="38.2942973524318" lon="15.54334900032701"><ele>106.0</ele><time>2026-04-30T15:11:10.999Z</time></trkpt><trkpt lat="38.29433292053134" lon="15.543281116368648"><ele>105.5</ele><time>2026-04-30T15:11:11.999Z</time></trkpt><trkpt lat="38.29442460466175" lon="15.543176805140954"><ele>105.0</ele><time>2026-04-30T15:11:13.999Z</time></trkpt><trkpt lat="38.29447006365986" lon="15.54310693350267"><ele>105.0</ele><time>2026-04-30T15:11:14.999Z</time></trkpt><trkpt lat="38.2945136017198" lon="15.543043714441728"><ele>105.0</ele><time>2026-04-30T15:11:15.999Z</time></trkpt><trkpt lat="38.29456047521079" lon="15.5429756519808"><ele>105.0</ele><time>2026-04-30T15:11:21.999Z</time></trkpt><trkpt lat="38.294540724227716" lon="15.542855080917919"><ele>105.0</ele><time>2026-04-30T15:11:22.999Z</time></trkpt><trkpt lat="38.294514556531325" lon="15.542772535167433"><ele>105.0</ele><time>2026-04-30T15:11:23.999Z</time></trkpt><trkpt lat="38.29450418145792" lon="15.542656312039929"><ele>105.0</ele><time>2026-04-30T15:11:24.999Z</time></trkpt><trkpt lat="38.29448897670949" lon="15.542526607356134"><ele>104.75</ele><time>2026-04-30T15:11:25.999Z</time></trkpt><trkpt lat="38.29447314248809" lon="15.54237748926891"><ele>104.5</ele><time>2026-04-30T15:11:26.999Z</time></trkpt><trkpt lat="38.29445280500543" lon="15.542227436438028"><ele>104.25</ele><time>2026-04-30T15:11:27.999Z</time></trkpt><trkpt lat="38.294429786550104" lon="15.542061379951528"><ele>104.0</ele><time>2026-04-30T15:11:28.999Z</time></trkpt><trkpt lat="38.29441068987114" lon="15.541887430549226"><ele>104.0</ele><time>2026-04-30T15:11:29.999Z</time></trkpt><trkpt lat="38.294379396631385" lon="15.541700031490464"><ele>104.0</ele><time>2026-04-30T15:11:30.999Z</time></trkpt><trkpt lat="38.29435189249991" lon="15.54150139320431"><ele>104.0</ele><time>2026-04-30T15:11:31.999Z</time></trkpt><trkpt lat="38.29432823521879" lon="15.541319892265797"><ele>103.80000000000001</ele><time>2026-04-30T15:11:32.999Z</time></trkpt><trkpt lat="38.294308755725574" lon="15.541159024977905"><ele>103.60000000000001</ele><time>2026-04-30T15:11:33.999Z</time></trkpt><trkpt lat="38.29428928975199" lon="15.54101375306077"><ele>103.4</ele><time>2026-04-30T15:11:34.999Z</time></trkpt><trkpt lat="38.29427160206352" lon="15.54087764578247"><ele>103.2</ele><time>2026-04-30T15:11:35.999Z</time></trkpt><trkpt lat="38.29426261463139" lon="15.540755346106582"><ele>103.0</ele><time>2026-04-30T15:11:36.999Z</time></trkpt><trkpt lat="38.2942585325746" lon="15.540635618518813"><ele>103.00000000000001</ele><time>2026-04-30T15:11:37.999Z</time></trkpt><trkpt lat="38.29426130497859" lon="15.540522475274186"><ele>103.0</ele><time>2026-04-30T15:11:38.999Z</time></trkpt><trkpt lat="38.29427626171479" lon="15.540416641197055"><ele>103.0</ele><time>2026-04-30T15:11:39.999Z</time></trkpt><trkpt lat="38.29418424976282" lon="15.540300239238375"><ele>103.0</ele><time>2026-04-30T15:11:40.999Z</time></trkpt><trkpt lat="38.2941755242735" lon="15.540208126052725"><ele>103.00000000000001</ele><time>2026-04-30T15:11:41.999Z</time></trkpt><trkpt lat="38.29416489632678" lon="15.540126903586915"><ele>103.0</ele><time>2026-04-30T15:11:42.999Z</time></trkpt><trkpt lat="38.29414443582893" lon="15.539977165671768"><ele>102.75</ele><time>2026-04-30T15:11:44.999Z</time></trkpt><trkpt lat="38.29412101583109" lon="15.53983705021369"><ele>102.5</ele><time>2026-04-30T15:11:46.999Z</time></trkpt><trkpt lat="38.2941042259921" lon="15.539632103682408"><ele>102.25</ele><time>2026-04-30T15:11:48.999Z</time></trkpt><trkpt lat="38.294086160712894" lon="15.539488497210282"><ele>102.0</ele><time>2026-04-30T15:11:49.999Z</time></trkpt><trkpt lat="38.29407193407316" lon="15.539392622412233"><ele>101.6</ele><time>2026-04-30T15:11:50.999Z</time></trkpt><trkpt lat="38.29407864611745" lon="15.539275541370682"><ele>101.19999999999999</ele><time>2026-04-30T15:11:52.999Z</time></trkpt><trkpt lat="38.29403945523087" lon="15.539189939879702"><ele>100.8</ele><time>2026-04-30T15:12:34.999Z</time></trkpt><trkpt lat="38.294017117405055" lon="15.539091116463586"><ele>100.4</ele><time>2026-04-30T15:12:35.999Z</time></trkpt><trkpt lat="38.29400030668327" lon="15.538974799010788"><ele>100.0</ele><time>2026-04-30T15:12:36.999Z</time></trkpt><trkpt lat="38.293985208284326" lon="15.538836185324426"><ele>99.75</ele><time>2026-04-30T15:12:37.999Z</time></trkpt><trkpt lat="38.29396984236248" lon="15.538674634818214"><ele>99.5</ele><time>2026-04-30T15:12:38.999Z</time></trkpt><trkpt lat="38.29394390518221" lon="15.538498961666024"><ele>99.25</ele><time>2026-04-30T15:12:39.999Z</time></trkpt><trkpt lat="38.29391343336082" lon="15.538305076196176"><ele>99.0</ele><time>2026-04-30T15:12:40.999Z</time></trkpt><trkpt lat="38.2938847547429" lon="15.538098947868027"><ele>100.66666666666666</ele><time>2026-04-30T15:12:41.999Z</time></trkpt><trkpt lat="38.2938583068595" lon="15.537879216252207"><ele>102.33333333333333</ele><time>2026-04-30T15:12:42.999Z</time></trkpt><trkpt lat="38.293825380754434" lon="15.537649858662338"><ele>104.0</ele><time>2026-04-30T15:12:43.999Z</time></trkpt><trkpt lat="38.29378816955758" lon="15.537390873725426"><ele>104.0</ele><time>2026-04-30T15:12:44.999Z</time></trkpt><trkpt lat="38.2937538524266" lon="15.5371348859395"><ele>104.0</ele><time>2026-04-30T15:12:45.999Z</time></trkpt><trkpt lat="38.29371993751175" lon="15.536879289257708"><ele>104.0</ele><time>2026-04-30T15:12:46.999Z</time></trkpt><trkpt lat="38.29368346969246" lon="15.536619341721867"><ele>103.66666666666666</ele><time>2026-04-30T15:12:47.999Z</time></trkpt><trkpt lat="38.293643899756745" lon="15.536351822787674"><ele>103.33333333333334</ele><time>2026-04-30T15:12:48.999Z</time></trkpt><trkpt lat="38.29360297056624" lon="15.536072762111193"><ele>103.0</ele><time>2026-04-30T15:12:49.999Z</time></trkpt><trkpt lat="38.29355845948736" lon="15.535772735822395"><ele>103.0</ele><time>2026-04-30T15:12:50.999Z</time></trkpt><trkpt lat="38.29352057266714" lon="15.53547430390605"><ele>103.0</ele><time>2026-04-30T15:12:51.999Z</time></trkpt><trkpt lat="38.293479664641005" lon="15.535189387828108"><ele>102.5</ele><time>2026-04-30T15:12:52.999Z</time></trkpt><trkpt lat="38.293437988103314" lon="15.53488839169972"><ele>102.0</ele><time>2026-04-30T15:12:53.999Z</time></trkpt><trkpt lat="38.29339970043827" lon="15.534592749764158"><ele>102.5</ele><time>2026-04-30T15:12:54.999Z</time></trkpt><trkpt lat="38.293354251259736" lon="15.534290655876687"><ele>103.0</ele><time>2026-04-30T15:12:55.999Z</time></trkpt><trkpt lat="38.29331174380211" lon="15.533989269625595"><ele>103.5</ele><time>2026-04-30T15:12:56.999Z</time></trkpt><trkpt lat="38.29327164654081" lon="15.533686796952113"><ele>104.0</ele><time>2026-04-30T15:12:57.999Z</time></trkpt><trkpt lat="38.293230536194024" lon="15.533390751115045"><ele>104.0</ele><time>2026-04-30T15:12:58.999Z</time></trkpt><trkpt lat="38.293191758182154" lon="15.53308325496174"><ele>104.0</ele><time>2026-04-30T15:12:59.999Z</time></trkpt><trkpt lat="38.29314928974939" lon="15.532777459663055"><ele>103.5</ele><time>2026-04-30T15:13:00.999Z</time></trkpt><trkpt lat="38.29310428203093" lon="15.532470451184826"><ele>103.0</ele><time>2026-04-30T15:13:01.999Z</time></trkpt><trkpt lat="38.293063884613886" lon="15.532163609722456"><ele>106.0</ele><time>2026-04-30T15:13:02.999Z</time></trkpt><trkpt lat="38.29302326757993" lon="15.531855932144792"><ele>109.0</ele><time>2026-04-30T15:13:03.999Z</time></trkpt><trkpt lat="38.29298685622093" lon="15.531549745487862"><ele>109.0</ele><time>2026-04-30T15:13:04.999Z</time></trkpt><trkpt lat="38.29294583894181" lon="15.531242970872276"><ele>109.0</ele><time>2026-04-30T15:13:05.999Z</time></trkpt><trkpt lat="38.292896648049044" lon="15.530932634413219"><ele>107.0</ele><time>2026-04-30T15:13:06.999Z</time></trkpt><trkpt lat="38.29285919760673" lon="15.530622278103476"><ele>105.0</ele><time>2026-04-30T15:13:07.999Z</time></trkpt><trkpt lat="38.29281298075792" lon="15.530305637658296"><ele>103.5</ele><time>2026-04-30T15:13:08.999Z</time></trkpt><trkpt lat="38.29277736674182" lon="15.529981454767631"><ele>102.0</ele><time>2026-04-30T15:13:09.999Z</time></trkpt><trkpt lat="38.29272659876189" lon="15.529656141514444"><ele>103.0</ele><time>2026-04-30T15:13:10.999Z</time></trkpt><trkpt lat="38.292689963902404" lon="15.529343481367395"><ele>104.0</ele><time>2026-04-30T15:13:11.999Z</time></trkpt><trkpt lat="38.29265020212195" lon="15.52904290958399"><ele>104.0</ele><time>2026-04-30T15:13:12.999Z</time></trkpt><trkpt lat="38.29261267850823" lon="15.528776939330939"><ele>104.0</ele><time>2026-04-30T15:13:13.999Z</time></trkpt><trkpt lat="38.29257559415114" lon="15.528550549062254"><ele>104.0</ele><time>2026-04-30T15:13:14.999Z</time></trkpt><trkpt lat="38.29254862451115" lon="15.528335688335982"><ele>103.5</ele><time>2026-04-30T15:13:15.999Z</time></trkpt><trkpt lat="38.29252112233865" lon="15.528148927696718"><ele>103.0</ele><time>2026-04-30T15:13:16.999Z</time></trkpt><trkpt lat="38.29248702559234" lon="15.527991628683615"><ele>102.5</ele><time>2026-04-30T15:13:17.999Z</time></trkpt><trkpt lat="38.29243903028346" lon="15.527865601398595"><ele>102.0</ele><time>2026-04-30T15:13:18.999Z</time></trkpt><trkpt lat="38.29237803356999" lon="15.527699340694156"><ele>101.75</ele><time>2026-04-30T15:13:19.999Z</time></trkpt><trkpt lat="38.29227931514908" lon="15.527593990126716"><ele>101.5</ele><time>2026-04-30T15:13:20.999Z</time></trkpt><trkpt lat="38.292146270948734" lon="15.52751373239335"><ele>101.25</ele><time>2026-04-30T15:13:21.999Z</time></trkpt><trkpt lat="38.29200154306839" lon="15.527443832732303"><ele>101.0</ele><time>2026-04-30T15:13:22.999Z</time></trkpt><trkpt lat="38.29186164873182" lon="15.527383014392408"><ele>101.0</ele><time>2026-04-30T15:13:23.999Z</time></trkpt><trkpt lat="38.29177613853788" lon="15.527291936802834"><ele>101.0</ele><time>2026-04-30T15:13:24.999Z</time></trkpt><trkpt lat="38.29172553069301" lon="15.52720036516258"><ele>101.0</ele><time>2026-04-30T15:13:25.999Z</time></trkpt><trkpt lat="38.29170391398541" lon="15.527080040024794"><ele>101.0</ele><time>2026-04-30T15:13:26.999Z</time></trkpt><trkpt lat="38.291679521250835" lon="15.526933112359206"><ele>101.0</ele><time>2026-04-30T15:13:27.999Z</time></trkpt><trkpt lat="38.291693567049236" lon="15.526767878331386"><ele>101.0</ele><time>2026-04-30T15:13:28.999Z</time></trkpt><trkpt lat="38.29174573556022" lon="15.526627832830165"><ele>101.0</ele><time>2026-04-30T15:13:29.999Z</time></trkpt><trkpt lat="38.29183407553784" lon="15.52652872509415"><ele>101.0</ele><time>2026-04-30T15:13:30.999Z</time></trkpt><trkpt lat="38.29195123746449" lon="15.52646404776684"><ele>101.0</ele><time>2026-04-30T15:13:31.999Z</time></trkpt><trkpt lat="38.29208895280686" lon="15.526428140507134"><ele>101.0</ele><time>2026-04-30T15:13:32.999Z</time></trkpt><trkpt lat="38.29224740424531" lon="15.526381803030597"><ele>101.0</ele><time>2026-04-30T15:13:33.999Z</time></trkpt><trkpt lat="38.29240950303147" lon="15.52632156508225"><ele>101.0</ele><time>2026-04-30T15:13:34.999Z</time></trkpt><trkpt lat="38.292570933665246" lon="15.526256074968328"><ele>100.66666666666666</ele><time>2026-04-30T15:13:35.999Z</time></trkpt><trkpt lat="38.29271598858257" lon="15.526163817477075"><ele>100.33333333333334</ele><time>2026-04-30T15:13:36.999Z</time></trkpt><trkpt lat="38.29283543281968" lon="15.52602930680375"><ele>100.0</ele><time>2026-04-30T15:13:37.999Z</time></trkpt><trkpt lat="38.29293051353213" lon="15.52586736466282"><ele>100.0</ele><time>2026-04-30T15:13:38.999Z</time></trkpt><trkpt lat="38.29300117898556" lon="15.52567053001269"><ele>100.0</ele><time>2026-04-30T15:13:39.999Z</time></trkpt><trkpt lat="38.29302959756681" lon="15.525471065267265"><ele>100.0</ele><time>2026-04-30T15:13:40.999Z</time></trkpt><trkpt lat="38.293020855247" lon="15.525248184021875"><ele>100.33333333333334</ele><time>2026-04-30T15:13:41.999Z</time></trkpt><trkpt lat="38.293003346480745" lon="15.525028277592224"><ele>100.66666666666666</ele><time>2026-04-30T15:13:42.999Z</time></trkpt><trkpt lat="38.292994842711984" lon="15.524798640608505"><ele>101.0</ele><time>2026-04-30T15:13:43.999Z</time></trkpt><trkpt lat="38.29299296049213" lon="15.52456478934122"><ele>100.33333333333333</ele><time>2026-04-30T15:13:44.999Z</time></trkpt><trkpt lat="38.29299450871193" lon="15.524328083336162"><ele>99.66666666666666</ele><time>2026-04-30T15:13:45.999Z</time></trkpt><trkpt lat="38.29299325341918" lon="15.524085106427199"><ele>99.0</ele><time>2026-04-30T15:13:46.999Z</time></trkpt><trkpt lat="38.29298957914487" lon="15.523826679490229"><ele>98.33333333333334</ele><time>2026-04-30T15:13:47.999Z</time></trkpt><trkpt lat="38.292986810748815" lon="15.523551898053716"><ele>97.66666666666667</ele><time>2026-04-30T15:13:48.999Z</time></trkpt><trkpt lat="38.292980880565636" lon="15.52326108765962"><ele>97.0</ele><time>2026-04-30T15:13:49.999Z</time></trkpt><trkpt lat="38.292975624856176" lon="15.522971794708194"><ele>96.5</ele><time>2026-04-30T15:13:50.999Z</time></trkpt><trkpt lat="38.29297141755523" lon="15.52266613999101"><ele>96.0</ele><time>2026-04-30T15:13:51.999Z</time></trkpt><trkpt lat="38.29296960168163" lon="15.522360009189619"><ele>96.0</ele><time>2026-04-30T15:13:52.999Z</time></trkpt><trkpt lat="38.292964405812846" lon="15.522070350364793"><ele>96.0</ele><time>2026-04-30T15:13:53.999Z</time></trkpt><trkpt lat="38.29296662711297" lon="15.521814271154229"><ele>96.0</ele><time>2026-04-30T15:13:54.999Z</time></trkpt><trkpt lat="38.292961622788596" lon="15.521582773033588"><ele>95.4</ele><time>2026-04-30T15:13:55.999Z</time></trkpt><trkpt lat="38.29295568821905" lon="15.521386042487457"><ele>94.8</ele><time>2026-04-30T15:13:56.999Z</time></trkpt><trkpt lat="38.292959700897406" lon="15.521221133290636"><ele>94.2</ele><time>2026-04-30T15:13:57.999Z</time></trkpt><trkpt lat="38.29296648753366" lon="15.521120039316083"><ele>93.60000000000001</ele><time>2026-04-30T15:13:58.999Z</time></trkpt><trkpt lat="38.29299329064777" lon="15.521037252414333"><ele>93.0</ele><time>2026-04-30T15:14:00.999Z</time></trkpt><trkpt lat="38.29296701883341" lon="15.520934953890515"><ele>92.80000000000001</ele><time>2026-04-30T15:16:04.999Z</time></trkpt><trkpt lat="38.29296057434489" lon="15.520846457375754"><ele>92.6</ele><time>2026-04-30T15:16:05.999Z</time></trkpt><trkpt lat="38.29296900800809" lon="15.520724875772164"><ele>92.4</ele><time>2026-04-30T15:16:06.999Z</time></trkpt><trkpt lat="38.2929701509528" lon="15.520580041913094"><ele>92.19999999999999</ele><time>2026-04-30T15:16:07.999Z</time></trkpt><trkpt lat="38.29296511989759" lon="15.520420897839143"><ele>92.0</ele><time>2026-04-30T15:16:08.999Z</time></trkpt><trkpt lat="38.29295852813252" lon="15.520256371086074"><ele>92.0</ele><time>2026-04-30T15:16:09.999Z</time></trkpt><trkpt lat="38.29294514538284" lon="15.520079292028253"><ele>92.0</ele><time>2026-04-30T15:16:10.999Z</time></trkpt><trkpt lat="38.292902696817855" lon="15.519906018262903"><ele>92.0</ele><time>2026-04-30T15:16:11.999Z</time></trkpt><trkpt lat="38.29285777253832" lon="15.519716254184075"><ele>92.0</ele><time>2026-04-30T15:16:12.999Z</time></trkpt><trkpt lat="38.29277640310861" lon="15.519546797027653"><ele>90.0</ele><time>2026-04-30T15:16:13.999Z</time></trkpt><trkpt lat="38.29266260006509" lon="15.519395541562238"><ele>88.0</ele><time>2026-04-30T15:16:14.998Z</time></trkpt><trkpt lat="38.292502181882924" lon="15.519266775180363"><ele>86.0</ele><time>2026-04-30T15:16:15.998Z</time></trkpt><trkpt lat="38.292290204712224" lon="15.519126441723328"><ele>86.75</ele><time>2026-04-30T15:16:16.998Z</time></trkpt><trkpt lat="38.29223804465725" lon="15.519073794774386"><ele>87.5</ele><time>2026-04-30T15:16:17.998Z</time></trkpt><trkpt lat="38.292065845193044" lon="15.519007283637386"><ele>88.25</ele><time>2026-04-30T15:16:18.998Z</time></trkpt><trkpt lat="38.29191545740722" lon="15.518923465242393"><ele>89.0</ele><time>2026-04-30T15:16:19.998Z</time></trkpt><trkpt lat="38.29179425617787" lon="15.518830292471465"><ele>88.0</ele><time>2026-04-30T15:16:20.998Z</time></trkpt><trkpt lat="38.291702999621194" lon="15.518693283333095"><ele>87.0</ele><time>2026-04-30T15:16:21.998Z</time></trkpt><trkpt lat="38.29161577882286" lon="15.518548369539195"><ele>86.0</ele><time>2026-04-30T15:16:22.998Z</time></trkpt><trkpt lat="38.29154606945915" lon="15.518388770283272"><ele>85.0</ele><time>2026-04-30T15:16:23.998Z</time></trkpt><trkpt lat="38.291495020703266" lon="15.518223954245572"><ele>85.0</ele><time>2026-04-30T15:16:24.998Z</time></trkpt><trkpt lat="38.2914637466439" lon="15.518059810417954"><ele>85.0</ele><time>2026-04-30T15:16:25.998Z</time></trkpt><trkpt lat="38.29145022957796" lon="15.517898686002622"><ele>85.0</ele><time>2026-04-30T15:16:26.998Z</time></trkpt><trkpt lat="38.29145390293773" lon="15.517745947062242"><ele>85.0</ele><time>2026-04-30T15:16:27.999Z</time></trkpt><trkpt lat="38.29147089114914" lon="15.517597087482615"><ele>84.0</ele><time>2026-04-30T15:16:28.999Z</time></trkpt><trkpt lat="38.29150090131293" lon="15.517448072527658"><ele>83.0</ele><time>2026-04-30T15:16:29.999Z</time></trkpt><trkpt lat="38.29153307941225" lon="15.517298392409247"><ele>82.0</ele><time>2026-04-30T15:16:30.999Z</time></trkpt><trkpt lat="38.291566410459126" lon="15.517159138893339"><ele>81.0</ele><time>2026-04-30T15:16:31.999Z</time></trkpt><trkpt lat="38.29159169618591" lon="15.51698512721048"><ele>80.0</ele><time>2026-04-30T15:16:32.999Z</time></trkpt><trkpt lat="38.291642947508414" lon="15.516792331707336"><ele>79.0</ele><time>2026-04-30T15:16:33.999Z</time></trkpt><trkpt lat="38.29169943827886" lon="15.516568764124417"><ele>78.0</ele><time>2026-04-30T15:16:34.999Z</time></trkpt><trkpt lat="38.29176631785423" lon="15.516318210294994"><ele>77.66666666666667</ele><time>2026-04-30T15:16:35.999Z</time></trkpt><trkpt lat="38.29181906089938" lon="15.516094557035377"><ele>77.33333333333334</ele><time>2026-04-30T15:16:36.999Z</time></trkpt><trkpt lat="38.291853374733336" lon="15.51589692640115"><ele>77.0</ele><time>2026-04-30T15:16:37.999Z</time></trkpt><trkpt lat="38.2918692107065" lon="15.515723529945435"><ele>77.0</ele><time>2026-04-30T15:16:38.999Z</time></trkpt><trkpt lat="38.29184197166073" lon="15.515564257242412"><ele>77.0</ele><time>2026-04-30T15:16:39.999Z</time></trkpt><trkpt lat="38.29177204931463" lon="15.515408136248123"><ele>77.0</ele><time>2026-04-30T15:16:40.999Z</time></trkpt><trkpt lat="38.29166727491493" lon="15.515279105416468"><ele>77.0</ele><time>2026-04-30T15:16:41.999Z</time></trkpt><trkpt lat="38.29153774615964" lon="15.515176954320408"><ele>67.66666666666667</ele><time>2026-04-30T15:16:42.999Z</time></trkpt><trkpt lat="38.291392253517564" lon="15.515122004028953"><ele>58.33333333333333</ele><time>2026-04-30T15:16:43.999Z</time></trkpt><trkpt lat="38.29124599679826" lon="15.515114001178791"><ele>49.0</ele><time>2026-04-30T15:16:44.999Z</time></trkpt><trkpt lat="38.29109656974004" lon="15.515159303912045"><ele>49.0</ele><time>2026-04-30T15:16:45.999Z</time></trkpt><trkpt lat="38.29095275107543" lon="15.515238964862487"><ele>49.0</ele><time>2026-04-30T15:16:46.999Z</time></trkpt><trkpt lat="38.29084055241436" lon="15.515396675353134"><ele>49.0</ele><time>2026-04-30T15:16:47.999Z</time></trkpt><trkpt lat="38.29074478450846" lon="15.51556177524933"><ele>49.666666666666664</ele><time>2026-04-30T15:16:48.999Z</time></trkpt><trkpt lat="38.29064504994237" lon="15.515743611780124"><ele>50.33333333333333</ele><time>2026-04-30T15:16:49.999Z</time></trkpt><trkpt lat="38.290529011588205" lon="15.515946094077794"><ele>51.0</ele><time>2026-04-30T15:16:50.999Z</time></trkpt><trkpt lat="38.290389326960295" lon="15.516177894195163"><ele>56.0</ele><time>2026-04-30T15:16:51.999Z</time></trkpt><trkpt lat="38.290257261060454" lon="15.516393210021795"><ele>61.0</ele><time>2026-04-30T15:16:52.999Z</time></trkpt><trkpt lat="38.290121304391775" lon="15.516615757941882"><ele>66.0</ele><time>2026-04-30T15:16:53.999Z</time></trkpt><trkpt lat="38.28999173567946" lon="15.516829432816419"><ele>66.0</ele><time>2026-04-30T15:16:54.999Z</time></trkpt><trkpt lat="38.28986030588707" lon="15.517013192605644"><ele>66.0</ele><time>2026-04-30T15:16:55.999Z</time></trkpt><trkpt lat="38.28974966375164" lon="15.517196449724526"><ele>66.0</ele><time>2026-04-30T15:16:56.999Z</time></trkpt><trkpt lat="38.28965538007815" lon="15.517343499330165"><ele>66.0</ele><time>2026-04-30T15:16:57.999Z</time></trkpt><trkpt lat="38.28955728167311" lon="15.517467435286811"><ele>66.0</ele><time>2026-04-30T15:16:58.999Z</time></trkpt><trkpt lat="38.28945218382926" lon="15.517541820569827"><ele>66.0</ele><time>2026-04-30T15:16:59.999Z</time></trkpt><trkpt lat="38.2893391000237" lon="15.517589009793884"><ele>66.0</ele><time>2026-04-30T15:17:00.999Z</time></trkpt><trkpt lat="38.28921842414831" lon="15.517595850380566"><ele>66.0</ele><time>2026-04-30T15:17:01.999Z</time></trkpt><trkpt lat="38.289093128868736" lon="15.517570855496304"><ele>66.0</ele><time>2026-04-30T15:17:02.999Z</time></trkpt><trkpt lat="38.2889832738607" lon="15.517490881984127"><ele>66.0</ele><time>2026-04-30T15:17:03.999Z</time></trkpt><trkpt lat="38.28888043049686" lon="15.517391732097641"><ele>66.0</ele><time>2026-04-30T15:17:04.999Z</time></trkpt><trkpt lat="38.288794006261895" lon="15.517263712832648"><ele>67.5</ele><time>2026-04-30T15:17:05.999Z</time></trkpt><trkpt lat="38.288722058274715" lon="15.51713175183677"><ele>69.0</ele><time>2026-04-30T15:17:06.999Z</time></trkpt><trkpt lat="38.28870267298883" lon="15.51698326739662"><ele>70.5</ele><time>2026-04-30T15:17:07.999Z</time></trkpt><trkpt lat="38.28872619272226" lon="15.516832460284053"><ele>72.0</ele><time>2026-04-30T15:17:08.999Z</time></trkpt><trkpt lat="38.28874664818596" lon="15.516674745567174"><ele>72.0</ele><time>2026-04-30T15:17:09.999Z</time></trkpt><trkpt lat="38.2888185950544" lon="15.516516245185638"><ele>72.0</ele><time>2026-04-30T15:17:10.999Z</time></trkpt><trkpt lat="38.28892016323353" lon="15.516344551949654"><ele>72.0</ele><time>2026-04-30T15:17:11.999Z</time></trkpt><trkpt lat="38.289046499124765" lon="15.516155443689355"><ele>72.0</ele><time>2026-04-30T15:17:12.999Z</time></trkpt><trkpt lat="38.289173600133225" lon="15.515954564784188"><ele>72.0</ele><time>2026-04-30T15:17:13.999Z</time></trkpt><trkpt lat="38.28930945671187" lon="15.515744382672379"><ele>72.0</ele><time>2026-04-30T15:17:14.999Z</time></trkpt><trkpt lat="38.289430051171024" lon="15.515533846700974"><ele>75.33333333333333</ele><time>2026-04-30T15:17:15.999Z</time></trkpt><trkpt lat="38.2895265488627" lon="15.515314711145"><ele>78.66666666666666</ele><time>2026-04-30T15:17:16.999Z</time></trkpt><trkpt lat="38.289597586756784" lon="15.515076600403836"><ele>82.0</ele><time>2026-04-30T15:17:17.999Z</time></trkpt><trkpt lat="38.28965968468102" lon="15.51480934580313"><ele>83.66666666666666</ele><time>2026-04-30T15:17:18.999Z</time></trkpt><trkpt lat="38.28970218950498" lon="15.514567283656854"><ele>85.33333333333333</ele><time>2026-04-30T15:17:19.999Z</time></trkpt><trkpt lat="38.28975060047759" lon="15.514359890832905"><ele>87.0</ele><time>2026-04-30T15:17:20.999Z</time></trkpt><trkpt lat="38.28985346974411" lon="15.514189339679211"><ele>77.66666666666667</ele><time>2026-04-30T15:17:21.999Z</time></trkpt><trkpt lat="38.28996236173101" lon="15.514018400796886"><ele>68.33333333333334</ele><time>2026-04-30T15:17:22.999Z</time></trkpt><trkpt lat="38.29012268635089" lon="15.513911594574918"><ele>59.0</ele><time>2026-04-30T15:17:23.999Z</time></trkpt><trkpt lat="38.29029301278507" lon="15.513788598962362"><ele>54.0</ele><time>2026-04-30T15:17:24.999Z</time></trkpt><trkpt lat="38.2904771985167" lon="15.513677392208665"><ele>49.0</ele><time>2026-04-30T15:17:25.999Z</time></trkpt><trkpt lat="38.29062836124004" lon="15.513550191214572"><ele>44.0</ele><time>2026-04-30T15:17:26.999Z</time></trkpt><trkpt lat="38.290747899076116" lon="15.513394488786219"><ele>44.0</ele><time>2026-04-30T15:17:27.999Z</time></trkpt><trkpt lat="38.29085327858499" lon="15.51320401355767"><ele>44.0</ele><time>2026-04-30T15:17:28.999Z</time></trkpt><trkpt lat="38.29092957821773" lon="15.51298737328081"><ele>44.0</ele><time>2026-04-30T15:17:29.999Z</time></trkpt><trkpt lat="38.29097922632737" lon="15.512745157750834"><ele>43.0</ele><time>2026-04-30T15:17:30.999Z</time></trkpt><trkpt lat="38.29099404783348" lon="15.51249779635367"><ele>42.0</ele><time>2026-04-30T15:17:31.999Z</time></trkpt><trkpt lat="38.29097329706622" lon="15.512254907873341"><ele>41.0</ele><time>2026-04-30T15:17:32.999Z</time></trkpt><trkpt lat="38.29092489078622" lon="15.512010571288632"><ele>41.0</ele><time>2026-04-30T15:17:33.999Z</time></trkpt><trkpt lat="38.29085682282568" lon="15.511779848224956"><ele>41.0</ele><time>2026-04-30T15:17:34.999Z</time></trkpt><trkpt lat="38.2907707105716" lon="15.511575518687897"><ele>41.0</ele><time>2026-04-30T15:17:35.999Z</time></trkpt><trkpt lat="38.29066061734965" lon="15.511384992344826"><ele>42.0</ele><time>2026-04-30T15:17:36.999Z</time></trkpt><trkpt lat="38.29052648741249" lon="15.511214882360795"><ele>43.0</ele><time>2026-04-30T15:17:37.999Z</time></trkpt><trkpt lat="38.290368304381296" lon="15.511056271720843"><ele>44.0</ele><time>2026-04-30T15:17:38.999Z</time></trkpt><trkpt lat="38.290192894773895" lon="15.510908637016925"><ele>44.0</ele><time>2026-04-30T15:17:39.999Z</time></trkpt><trkpt lat="38.29003741412114" lon="15.51076137603103"><ele>44.0</ele><time>2026-04-30T15:17:40.999Z</time></trkpt><trkpt lat="38.28992483713964" lon="15.510590444579849"><ele>44.0</ele><time>2026-04-30T15:17:41.999Z</time></trkpt><trkpt lat="38.28986187590818" lon="15.510375163493014"><ele>39.0</ele><time>2026-04-30T15:17:42.999Z</time></trkpt><trkpt lat="38.289806080703286" lon="15.510149433055098"><ele>34.0</ele><time>2026-04-30T15:17:43.999Z</time></trkpt><trkpt lat="38.28973846060306" lon="15.509894572877934"><ele>29.0</ele><time>2026-04-30T15:17:44.999Z</time></trkpt><trkpt lat="38.289675582264614" lon="15.50960965215105"><ele>34.33333333333333</ele><time>2026-04-30T15:17:45.999Z</time></trkpt><trkpt lat="38.2896118641081" lon="15.509362397844107"><ele>39.666666666666664</ele><time>2026-04-30T15:17:46.999Z</time></trkpt><trkpt lat="38.28952931836891" lon="15.50914559272812"><ele>45.0</ele><time>2026-04-30T15:17:47.999Z</time></trkpt><trkpt lat="38.289412570288924" lon="15.508943527251907"><ele>45.0</ele><time>2026-04-30T15:17:48.999Z</time></trkpt><trkpt lat="38.28927759821525" lon="15.508758042619574"><ele>45.0</ele><time>2026-04-30T15:17:49.999Z</time></trkpt><trkpt lat="38.28913168963052" lon="15.508566712149786"><ele>45.0</ele><time>2026-04-30T15:17:50.999Z</time></trkpt><trkpt lat="38.28897929726418" lon="15.508370490640115"><ele>37.0</ele><time>2026-04-30T15:17:51.999Z</time></trkpt><trkpt lat="38.2888179333" lon="15.508164886815226"><ele>29.0</ele><time>2026-04-30T15:17:52.999Z</time></trkpt><trkpt lat="38.28866153271887" lon="15.507956157932318"><ele>26.5</ele><time>2026-04-30T15:17:53.999Z</time></trkpt><trkpt lat="38.28850109123594" lon="15.507745171006185"><ele>24.0</ele><time>2026-04-30T15:17:54.999Z</time></trkpt><trkpt lat="38.288331907528445" lon="15.507536634641957"><ele>24.0</ele><time>2026-04-30T15:17:55.999Z</time></trkpt><trkpt lat="38.28815516518245" lon="15.507330609485669"><ele>24.0</ele><time>2026-04-30T15:17:56.999Z</time></trkpt><trkpt lat="38.28797479744944" lon="15.507130484164477"><ele>27.0</ele><time>2026-04-30T15:17:57.999Z</time></trkpt><trkpt lat="38.28779299284307" lon="15.506936727915775"><ele>30.0</ele><time>2026-04-30T15:17:58.999Z</time></trkpt><trkpt lat="38.28760050383536" lon="15.506742963078597"><ele>30.0</ele><time>2026-04-30T15:17:59.999Z</time></trkpt><trkpt lat="38.28741314639486" lon="15.506544589555183"><ele>30.0</ele><time>2026-04-30T15:18:00.999Z</time></trkpt><trkpt lat="38.28722017814034" lon="15.506344260710263"><ele>28.0</ele><time>2026-04-30T15:18:01.999Z</time></trkpt><trkpt lat="38.2870278272846" lon="15.506153742503432"><ele>26.0</ele><time>2026-04-30T15:18:02.999Z</time></trkpt><trkpt lat="38.28683242774636" lon="15.505953066743363"><ele>26.0</ele><time>2026-04-30T15:18:03.999Z</time></trkpt><trkpt lat="38.2866452841235" lon="15.505759938373345"><ele>26.0</ele><time>2026-04-30T15:18:04.999Z</time></trkpt><trkpt lat="38.28646630371809" lon="15.505545413403132"><ele>22.0</ele><time>2026-04-30T15:18:05.999Z</time></trkpt><trkpt lat="38.2862757959281" lon="15.505347284508092"><ele>18.0</ele><time>2026-04-30T15:18:06.999Z</time></trkpt><trkpt lat="38.286082188143425" lon="15.50514456676649"><ele>18.0</ele><time>2026-04-30T15:18:07.999Z</time></trkpt><trkpt lat="38.285884388271604" lon="15.50496334866226"><ele>18.0</ele><time>2026-04-30T15:18:08.999Z</time></trkpt><trkpt lat="38.285695175600864" lon="15.504760022405423"><ele>22.0</ele><time>2026-04-30T15:18:09.999Z</time></trkpt><trkpt lat="38.28550650159223" lon="15.504565089007253"><ele>26.0</ele><time>2026-04-30T15:18:10.999Z</time></trkpt><trkpt lat="38.28531673837877" lon="15.504368316927264"><ele>26.0</ele><time>2026-04-30T15:18:11.999Z</time></trkpt><trkpt lat="38.28513024967076" lon="15.504174500503936"><ele>26.0</ele><time>2026-04-30T15:18:12.999Z</time></trkpt><trkpt lat="38.28494631859079" lon="15.503977442527294"><ele>26.5</ele><time>2026-04-30T15:18:13.999Z</time></trkpt><trkpt lat="38.28475263036579" lon="15.50377283307554"><ele>27.0</ele><time>2026-04-30T15:18:14.999Z</time></trkpt><trkpt lat="38.28455137257192" lon="15.503566172703442"><ele>27.0</ele><time>2026-04-30T15:18:15.999Z</time></trkpt><trkpt lat="38.28435565710848" lon="15.503364542375088"><ele>27.0</ele><time>2026-04-30T15:18:16.999Z</time></trkpt><trkpt lat="38.28416014465994" lon="15.503164011736512"><ele>27.0</ele><time>2026-04-30T15:18:17.999Z</time></trkpt><trkpt lat="38.28397505589334" lon="15.502965217685011"><ele>27.0</ele><time>2026-04-30T15:18:18.999Z</time></trkpt><trkpt lat="38.2838041633365" lon="15.502768005614211"><ele>28.5</ele><time>2026-04-30T15:18:19.999Z</time></trkpt><trkpt lat="38.28363805036704" lon="15.502557321089407"><ele>30.0</ele><time>2026-04-30T15:18:20.998Z</time></trkpt><trkpt lat="38.28348861623816" lon="15.502338113949431"><ele>30.0</ele><time>2026-04-30T15:18:21.998Z</time></trkpt><trkpt lat="38.283362884847016" lon="15.502102028501765"><ele>30.0</ele><time>2026-04-30T15:18:22.998Z</time></trkpt><trkpt lat="38.28324017556856" lon="15.501842027063994"><ele>25.5</ele><time>2026-04-30T15:18:23.998Z</time></trkpt><trkpt lat="38.28312786004118" lon="15.501581517039666"><ele>21.0</ele><time>2026-04-30T15:18:24.998Z</time></trkpt><trkpt lat="38.28302637449069" lon="15.501325108673338"><ele>27.0</ele><time>2026-04-30T15:18:25.998Z</time></trkpt><trkpt lat="38.28293142737287" lon="15.501064910077815"><ele>33.0</ele><time>2026-04-30T15:18:26.998Z</time></trkpt><trkpt lat="38.28283599536638" lon="15.500792238302575"><ele>33.0</ele><time>2026-04-30T15:18:27.998Z</time></trkpt><trkpt lat="38.282749715861904" lon="15.50053705623251"><ele>33.0</ele><time>2026-04-30T15:18:28.998Z</time></trkpt><trkpt lat="38.28266108810019" lon="15.500285873160434"><ele>33.0</ele><time>2026-04-30T15:18:29.998Z</time></trkpt><trkpt lat="38.28256780468899" lon="15.50001273278489"><ele>30.5</ele><time>2026-04-30T15:18:30.998Z</time></trkpt><trkpt lat="38.2824758901715" lon="15.49972993145628"><ele>28.0</ele><time>2026-04-30T15:18:31.998Z</time></trkpt><trkpt lat="38.28237681410893" lon="15.499443824756812"><ele>24.0</ele><time>2026-04-30T15:18:32.998Z</time></trkpt><trkpt lat="38.28227171037591" lon="15.499144360594178"><ele>20.0</ele><time>2026-04-30T15:18:33.998Z</time></trkpt><trkpt lat="38.28216740284277" lon="15.498845030164148"><ele>25.0</ele><time>2026-04-30T15:18:34.998Z</time></trkpt><trkpt lat="38.28206731706975" lon="15.49855358327899"><ele>30.0</ele><time>2026-04-30T15:18:35.998Z</time></trkpt><trkpt lat="38.281976771443155" lon="15.498284699623198"><ele>30.0</ele><time>2026-04-30T15:18:36.998Z</time></trkpt><trkpt lat="38.28189217025823" lon="15.49804779158073"><ele>30.0</ele><time>2026-04-30T15:18:37.999Z</time></trkpt><trkpt lat="38.28179498294418" lon="15.497839544463538"><ele>30.0</ele><time>2026-04-30T15:18:38.999Z</time></trkpt><trkpt lat="38.28167232831815" lon="15.497651013212993"><ele>29.333333333333336</ele><time>2026-04-30T15:18:39.999Z</time></trkpt><trkpt lat="38.28152246660224" lon="15.49747909605952"><ele>28.666666666666668</ele><time>2026-04-30T15:18:40.999Z</time></trkpt><trkpt lat="38.28135833948318" lon="15.497311552632413"><ele>28.0</ele><time>2026-04-30T15:18:41.999Z</time></trkpt><trkpt lat="38.281190993207076" lon="15.497123727679663"><ele>26.5</ele><time>2026-04-30T15:18:42.999Z</time></trkpt><trkpt lat="38.28102009534698" lon="15.496926127446773"><ele>25.0</ele><time>2026-04-30T15:18:43.999Z</time></trkpt><trkpt lat="38.28084058443195" lon="15.49671798052691"><ele>25.0</ele><time>2026-04-30T15:18:44.999Z</time></trkpt><trkpt lat="38.28065539039764" lon="15.496502174715074"><ele>25.0</ele><time>2026-04-30T15:18:45.999Z</time></trkpt><trkpt lat="38.28046588978932" lon="15.496283276989036"><ele>27.5</ele><time>2026-04-30T15:18:46.999Z</time></trkpt><trkpt lat="38.28027824850724" lon="15.49606409653532"><ele>30.0</ele><time>2026-04-30T15:18:47.999Z</time></trkpt><trkpt lat="38.28010401081795" lon="15.49585070783953"><ele>30.0</ele><time>2026-04-30T15:18:48.999Z</time></trkpt><trkpt lat="38.27995203929271" lon="15.495650686928325"><ele>30.0</ele><time>2026-04-30T15:18:49.999Z</time></trkpt><trkpt lat="38.279857178302706" lon="15.49551006708967"><ele>30.0</ele><time>2026-04-30T15:18:50.999Z</time></trkpt><trkpt lat="38.27981652925817" lon="15.495429814647972"><ele>30.0</ele><time>2026-04-30T15:18:51.999Z</time></trkpt><trkpt lat="38.279827673454314" lon="15.495542711373721"><ele>30.0</ele><time>2026-04-30T15:21:04.999Z</time></trkpt><trkpt lat="38.27990028120844" lon="15.495677769276396"><ele>30.0</ele><time>2026-04-30T15:21:05.999Z</time></trkpt><trkpt lat="38.27985497794268" lon="15.49578036068747"><ele>30.0</ele><time>2026-04-30T15:21:06.999Z</time></trkpt><trkpt lat="38.27947762588215" lon="15.49506658943647"><ele>28.75</ele><time>2026-04-30T15:21:09.999Z</time></trkpt><trkpt lat="38.27937575682644" lon="15.495064505055852"><ele>27.5</ele><time>2026-04-30T15:21:10.999Z</time></trkpt><trkpt lat="38.27929792156186" lon="15.495064940329938"><ele>26.25</ele><time>2026-04-30T15:21:11.999Z</time></trkpt><trkpt lat="38.27920376522154" lon="15.494951462170816"><ele>25.0</ele><time>2026-04-30T15:21:13.999Z</time></trkpt><trkpt lat="38.27939713603742" lon="15.494661072491105"><ele>25.0</ele><time>2026-04-30T15:21:14.999Z</time></trkpt><trkpt lat="38.279346651549744" lon="15.49460374258899"><ele>25.0</ele><time>2026-04-30T15:21:16.999Z</time></trkpt><trkpt lat="38.27929769171228" lon="15.494513001687979"><ele>25.0</ele><time>2026-04-30T15:21:18.999Z</time></trkpt><trkpt lat="38.27926465961767" lon="15.49442646896515"><ele>25.0</ele><time>2026-04-30T15:21:20Z</time></trkpt><trkpt lat="38.27919496681102" lon="15.49430690814757"><ele>25.0</ele><time>2026-04-30T15:21:21Z</time></trkpt><trkpt lat="38.279110862496466" lon="15.494150357041685"><ele>23.666666666666668</ele><time>2026-04-30T15:21:22Z</time></trkpt><trkpt lat="38.27901048717256" lon="15.493978558592964"><ele>22.333333333333336</ele><time>2026-04-30T15:21:23Z</time></trkpt><trkpt lat="38.278895837450044" lon="15.493792958699977"><ele>21.0</ele><time>2026-04-30T15:21:24Z</time></trkpt><trkpt lat="38.27878102132024" lon="15.493590362145676"><ele>27.666666666666664</ele><time>2026-04-30T15:21:25Z</time></trkpt><trkpt lat="38.27865432821537" lon="15.493378450217158"><ele>34.33333333333333</ele><time>2026-04-30T15:21:26Z</time></trkpt><trkpt lat="38.27853077202486" lon="15.4931589930721"><ele>41.0</ele><time>2026-04-30T15:21:27Z</time></trkpt><trkpt lat="38.278399442395845" lon="15.492934023441567"><ele>40.0</ele><time>2026-04-30T15:21:28Z</time></trkpt><trkpt lat="38.27826350799999" lon="15.492727077531514"><ele>39.0</ele><time>2026-04-30T15:21:29Z</time></trkpt><trkpt lat="38.278116888950194" lon="15.492527436976257"><ele>38.0</ele><time>2026-04-30T15:21:30Z</time></trkpt><trkpt lat="38.2779562285315" lon="15.492332051025185"><ele>38.0</ele><time>2026-04-30T15:21:31Z</time></trkpt><trkpt lat="38.27777674237006" lon="15.492141514091607"><ele>38.0</ele><time>2026-04-30T15:21:32Z</time></trkpt><trkpt lat="38.27761273299753" lon="15.49194156959432"><ele>28.0</ele><time>2026-04-30T15:21:33Z</time></trkpt><trkpt lat="38.27744376352742" lon="15.491743550715718"><ele>18.0</ele><time>2026-04-30T15:21:34Z</time></trkpt><trkpt lat="38.27727406384969" lon="15.49154758267335"><ele>17.5</ele><time>2026-04-30T15:21:35Z</time></trkpt><trkpt lat="38.27710108690142" lon="15.491346376721191"><ele>17.0</ele><time>2026-04-30T15:21:36Z</time></trkpt><trkpt lat="38.276934919980874" lon="15.491143713403192"><ele>17.0</ele><time>2026-04-30T15:21:37Z</time></trkpt><trkpt lat="38.27676369182379" lon="15.49094078495088"><ele>17.0</ele><time>2026-04-30T15:21:38Z</time></trkpt><trkpt lat="38.276595489513376" lon="15.490743746163467"><ele>22.5</ele><time>2026-04-30T15:21:39Z</time></trkpt><trkpt lat="38.27642169853656" lon="15.490541139061012"><ele>28.0</ele><time>2026-04-30T15:21:40Z</time></trkpt><trkpt lat="38.276257262116005" lon="15.490339885385934"><ele>28.0</ele><time>2026-04-30T15:21:41Z</time></trkpt><trkpt lat="38.27609226589446" lon="15.490135848928853"><ele>28.0</ele><time>2026-04-30T15:21:42Z</time></trkpt><trkpt lat="38.27593293137928" lon="15.489930548820622"><ele>28.0</ele><time>2026-04-30T15:21:43Z</time></trkpt><trkpt lat="38.27577967936859" lon="15.489709510750533"><ele>28.0</ele><time>2026-04-30T15:21:44Z</time></trkpt><trkpt lat="38.275633452272956" lon="15.489474777927645"><ele>34.5</ele><time>2026-04-30T15:21:45Z</time></trkpt><trkpt lat="38.27548351187502" lon="15.489212079854713"><ele>41.0</ele><time>2026-04-30T15:21:46Z</time></trkpt><trkpt lat="38.275317053450024" lon="15.488929691614866"><ele>32.5</ele><time>2026-04-30T15:21:47Z</time></trkpt><trkpt lat="38.275164835010614" lon="15.488663220354683"><ele>24.0</ele><time>2026-04-30T15:21:48Z</time></trkpt><trkpt lat="38.27501783212319" lon="15.48840927294777"><ele>24.0</ele><time>2026-04-30T15:21:49Z</time></trkpt><trkpt lat="38.27487716531453" lon="15.488164907997634"><ele>24.0</ele><time>2026-04-30T15:21:50Z</time></trkpt><trkpt lat="38.27475467799144" lon="15.48795775493326"><ele>24.0</ele><time>2026-04-30T15:21:51Z</time></trkpt><trkpt lat="38.274626735331886" lon="15.487769106117275"><ele>25.333333333333336</ele><time>2026-04-30T15:21:52Z</time></trkpt><trkpt lat="38.27447514982627" lon="15.487598672182443"><ele>26.666666666666668</ele><time>2026-04-30T15:21:53Z</time></trkpt><trkpt lat="38.27429943013132" lon="15.487432918769514"><ele>28.0</ele><time>2026-04-30T15:21:54Z</time></trkpt><trkpt lat="38.27411172724593" lon="15.487264926431312"><ele>25.5</ele><time>2026-04-30T15:21:55Z</time></trkpt><trkpt lat="38.273914780883814" lon="15.487094228223523"><ele>23.0</ele><time>2026-04-30T15:21:56Z</time></trkpt><trkpt lat="38.27374236263716" lon="15.486909941461855"><ele>23.0</ele><time>2026-04-30T15:21:57Z</time></trkpt><trkpt lat="38.27358532834514" lon="15.486770785024614"><ele>23.0</ele><time>2026-04-30T15:21:58Z</time></trkpt><trkpt lat="38.273434142128416" lon="15.486598123503075"><ele>23.0</ele><time>2026-04-30T15:21:59Z</time></trkpt><trkpt lat="38.27327962480518" lon="15.486417698593273"><ele>21.333333333333336</ele><time>2026-04-30T15:22:00Z</time></trkpt><trkpt lat="38.2731194582734" lon="15.486222014049414"><ele>19.666666666666668</ele><time>2026-04-30T15:22:01Z</time></trkpt><trkpt lat="38.27296037015975" lon="15.486019242431492"><ele>18.0</ele><time>2026-04-30T15:22:02Z</time></trkpt><trkpt lat="38.27279171803951" lon="15.485812179638767"><ele>18.0</ele><time>2026-04-30T15:22:03Z</time></trkpt><trkpt lat="38.27262064257538" lon="15.485603189273899"><ele>18.0</ele><time>2026-04-30T15:22:04Z</time></trkpt><trkpt lat="38.27244775544761" lon="15.48539460475949"><ele>24.5</ele><time>2026-04-30T15:22:05Z</time></trkpt><trkpt lat="38.2722728756639" lon="15.48518311146393"><ele>31.0</ele><time>2026-04-30T15:22:06Z</time></trkpt><trkpt lat="38.27208902084512" lon="15.484962563814806"><ele>31.0</ele><time>2026-04-30T15:22:07Z</time></trkpt><trkpt lat="38.27190655662189" lon="15.484742840987147"><ele>31.0</ele><time>2026-04-30T15:22:08Z</time></trkpt><trkpt lat="38.27172647241666" lon="15.484514465101693"><ele>30.0</ele><time>2026-04-30T15:22:09Z</time></trkpt><trkpt lat="38.271544720424814" lon="15.484291958930315"><ele>29.0</ele><time>2026-04-30T15:22:10Z</time></trkpt><trkpt lat="38.27136145624386" lon="15.484068219625037"><ele>29.0</ele><time>2026-04-30T15:22:11Z</time></trkpt><trkpt lat="38.271186230085846" lon="15.483854007238824"><ele>29.0</ele><time>2026-04-30T15:22:12Z</time></trkpt><trkpt lat="38.271049762841386" lon="15.483674793367806"><ele>29.0</ele><time>2026-04-30T15:22:13Z</time></trkpt><trkpt lat="38.270952913507394" lon="15.483542657814125"><ele>31.666666666666664</ele><time>2026-04-30T15:22:14Z</time></trkpt><trkpt lat="38.2708418792138" lon="15.483404154281029"><ele>34.333333333333336</ele><time>2026-04-30T15:22:15Z</time></trkpt><trkpt lat="38.27072176035852" lon="15.483246398419906"><ele>37.0</ele><time>2026-04-30T15:22:16Z</time></trkpt><trkpt lat="38.270584030429106" lon="15.483075541603226"><ele>33.333333333333336</ele><time>2026-04-30T15:22:17Z</time></trkpt><trkpt lat="38.27044315126265" lon="15.482885410515333"><ele>29.666666666666664</ele><time>2026-04-30T15:22:18Z</time></trkpt><trkpt lat="38.2702895623653" lon="15.482678269890034"><ele>26.0</ele><time>2026-04-30T15:22:19Z</time></trkpt><trkpt lat="38.270128103116164" lon="15.482463573061688"><ele>26.0</ele><time>2026-04-30T15:22:20Z</time></trkpt><trkpt lat="38.2699585539563" lon="15.482247942026687"><ele>26.0</ele><time>2026-04-30T15:22:21Z</time></trkpt><trkpt lat="38.269783181455885" lon="15.482040861083172"><ele>26.0</ele><time>2026-04-30T15:22:22Z</time></trkpt><trkpt lat="38.26959679898293" lon="15.481837311625862"><ele>26.0</ele><time>2026-04-30T15:22:23Z</time></trkpt><trkpt lat="38.26940526297951" lon="15.481643740457075"><ele>26.0</ele><time>2026-04-30T15:22:24Z</time></trkpt><trkpt lat="38.26921899680024" lon="15.481457896046267"><ele>26.0</ele><time>2026-04-30T15:22:25Z</time></trkpt><trkpt lat="38.26905599039218" lon="15.48129383970356"><ele>26.0</ele><time>2026-04-30T15:22:26Z</time></trkpt><trkpt lat="38.26890397825848" lon="15.481137685946445"><ele>26.0</ele><time>2026-04-30T15:22:27Z</time></trkpt><trkpt lat="38.26875526808629" lon="15.4810350977327"><ele>26.0</ele><time>2026-04-30T15:22:28Z</time></trkpt><trkpt lat="38.268598918814575" lon="15.480943814436777"><ele>26.0</ele><time>2026-04-30T15:22:29Z</time></trkpt><trkpt lat="38.26842143884729" lon="15.480890883067156"><ele>26.0</ele><time>2026-04-30T15:22:30Z</time></trkpt><trkpt lat="38.26823504123615" lon="15.480862278299734"><ele>26.0</ele><time>2026-04-30T15:22:31Z</time></trkpt><trkpt lat="38.26806481039136" lon="15.480825204408994"><ele>26.0</ele><time>2026-04-30T15:22:31.999Z</time></trkpt><trkpt lat="38.26790122319067" lon="15.480772159905262"><ele>28.0</ele><time>2026-04-30T15:22:32.999Z</time></trkpt><trkpt lat="38.26775218418765" lon="15.480797939101578"><ele>30.0</ele><time>2026-04-30T15:22:33.999Z</time></trkpt><trkpt lat="38.267581988218645" lon="15.480767322323405"><ele>32.0</ele><time>2026-04-30T15:22:34.999Z</time></trkpt><trkpt lat="38.26743134985377" lon="15.480723309256161"><ele>32.0</ele><time>2026-04-30T15:22:35.999Z</time></trkpt><trkpt lat="38.267304911716764" lon="15.480655442240069"><ele>32.0</ele><time>2026-04-30T15:22:36.999Z</time></trkpt><trkpt lat="38.26719726826008" lon="15.480567143415056"><ele>32.0</ele><time>2026-04-30T15:22:37.999Z</time></trkpt><trkpt lat="38.267109815658586" lon="15.480439119646684"><ele>32.0</ele><time>2026-04-30T15:22:38.999Z</time></trkpt><trkpt lat="38.267038744299924" lon="15.480278013275393"><ele>34.25</ele><time>2026-04-30T15:22:39.999Z</time></trkpt><trkpt lat="38.26700157572638" lon="15.480110833256578"><ele>36.5</ele><time>2026-04-30T15:22:40.999Z</time></trkpt><trkpt lat="38.26698804797079" lon="15.479922891620008"><ele>38.75</ele><time>2026-04-30T15:22:41.999Z</time></trkpt><trkpt lat="38.267000340513796" lon="15.479716878816909"><ele>41.0</ele><time>2026-04-30T15:22:42.999Z</time></trkpt><trkpt lat="38.2670459251675" lon="15.479492453077357"><ele>40.666666666666664</ele><time>2026-04-30T15:22:43.999Z</time></trkpt><trkpt lat="38.26709251796396" lon="15.479238636788143"><ele>40.333333333333336</ele><time>2026-04-30T15:22:44.999Z</time></trkpt><trkpt lat="38.26712063094308" lon="15.478983767643777"><ele>40.0</ele><time>2026-04-30T15:22:45.999Z</time></trkpt><trkpt lat="38.267112204926185" lon="15.478734197066421"><ele>40.0</ele><time>2026-04-30T15:22:46.999Z</time></trkpt><trkpt lat="38.26706608710455" lon="15.478498482989963"><ele>40.0</ele><time>2026-04-30T15:22:47.999Z</time></trkpt><trkpt lat="38.26698948500624" lon="15.47825053271398"><ele>40.0</ele><time>2026-04-30T15:22:48.999Z</time></trkpt><trkpt lat="38.26689473056196" lon="15.477978786078106"><ele>34.0</ele><time>2026-04-30T15:22:49.999Z</time></trkpt><trkpt lat="38.26679619237507" lon="15.477693174101802"><ele>28.0</ele><time>2026-04-30T15:22:50.999Z</time></trkpt><trkpt lat="38.26669905011517" lon="15.477393789292485"><ele>23.0</ele><time>2026-04-30T15:22:51.999Z</time></trkpt><trkpt lat="38.26660004973157" lon="15.477097424548932"><ele>18.0</ele><time>2026-04-30T15:22:52.999Z</time></trkpt><trkpt lat="38.26649844542879" lon="15.476808040198035"><ele>32.5</ele><time>2026-04-30T15:22:53.999Z</time></trkpt><trkpt lat="38.266397179564045" lon="15.476510955657726"><ele>47.0</ele><time>2026-04-30T15:22:54.999Z</time></trkpt><trkpt lat="38.26628667662543" lon="15.476207929100214"><ele>47.0</ele><time>2026-04-30T15:22:55.999Z</time></trkpt><trkpt lat="38.26619315852687" lon="15.475905912768045"><ele>47.0</ele><time>2026-04-30T15:22:56.999Z</time></trkpt><trkpt lat="38.266092583184694" lon="15.475612784675477"><ele>35.5</ele><time>2026-04-30T15:22:57.999Z</time></trkpt><trkpt lat="38.26598906120373" lon="15.475324721619453"><ele>24.0</ele><time>2026-04-30T15:22:58.999Z</time></trkpt><trkpt lat="38.26587327989835" lon="15.475050190751615"><ele>24.0</ele><time>2026-04-30T15:22:59.999Z</time></trkpt><trkpt lat="38.26573283750793" lon="15.474789950571726"><ele>24.0</ele><time>2026-04-30T15:23:00.999Z</time></trkpt><trkpt lat="38.26558416137465" lon="15.474536465352104"><ele>22.5</ele><time>2026-04-30T15:23:01.999Z</time></trkpt><trkpt lat="38.26543253370335" lon="15.4742830866144"><ele>21.0</ele><time>2026-04-30T15:23:02.999Z</time></trkpt><trkpt lat="38.26527836546786" lon="15.474033198231389"><ele>21.0</ele><time>2026-04-30T15:23:03.999Z</time></trkpt><trkpt lat="38.265117750774195" lon="15.473786905711373"><ele>21.0</ele><time>2026-04-30T15:23:04.999Z</time></trkpt><trkpt lat="38.264947905251574" lon="15.473561324221999"><ele>27.0</ele><time>2026-04-30T15:23:05.999Z</time></trkpt><trkpt lat="38.26476569032707" lon="15.473355353858686"><ele>33.0</ele><time>2026-04-30T15:23:06.999Z</time></trkpt><trkpt lat="38.26455599517921" lon="15.473147162867516"><ele>33.0</ele><time>2026-04-30T15:23:07.999Z</time></trkpt><trkpt lat="38.26434917960858" lon="15.472955812474703"><ele>33.0</ele><time>2026-04-30T15:23:08.999Z</time></trkpt><trkpt lat="38.26413887984099" lon="15.472762467192718"><ele>33.0</ele><time>2026-04-30T15:23:09.999Z</time></trkpt><trkpt lat="38.26394363037838" lon="15.472563098200206"><ele>33.0</ele><time>2026-04-30T15:23:10.999Z</time></trkpt><trkpt lat="38.26377370692168" lon="15.472354288500307"><ele>33.0</ele><time>2026-04-30T15:23:11.999Z</time></trkpt><trkpt lat="38.26361506720955" lon="15.472116503663441"><ele>33.0</ele><time>2026-04-30T15:23:12.999Z</time></trkpt><trkpt lat="38.263495116921085" lon="15.471879747871338"><ele>30.0</ele><time>2026-04-30T15:23:13.999Z</time></trkpt><trkpt lat="38.26338028629855" lon="15.471622536745873"><ele>27.0</ele><time>2026-04-30T15:23:14.999Z</time></trkpt><trkpt lat="38.26325428487095" lon="15.471343474711393"><ele>21.5</ele><time>2026-04-30T15:23:15.999Z</time></trkpt><trkpt lat="38.26312358439438" lon="15.471053202389278"><ele>16.0</ele><time>2026-04-30T15:23:16.999Z</time></trkpt><trkpt lat="38.263004651501106" lon="15.470771391244408"><ele>21.333333333333332</ele><time>2026-04-30T15:23:17.999Z</time></trkpt><trkpt lat="38.26290207736796" lon="15.470494445885247"><ele>26.666666666666664</ele><time>2026-04-30T15:23:18.999Z</time></trkpt><trkpt lat="38.26282127746861" lon="15.470253947515296"><ele>32.0</ele><time>2026-04-30T15:23:19.999Z</time></trkpt><trkpt lat="38.262751939754544" lon="15.470038009040936"><ele>32.0</ele><time>2026-04-30T15:23:20.999Z</time></trkpt><trkpt lat="38.262666636144864" lon="15.46983975889585"><ele>32.0</ele><time>2026-04-30T15:23:21.999Z</time></trkpt><trkpt lat="38.262545722648866" lon="15.4696361393832"><ele>32.0</ele><time>2026-04-30T15:23:22.999Z</time></trkpt><trkpt lat="38.262398785809985" lon="15.469433523408952"><ele>33.5</ele><time>2026-04-30T15:23:23.999Z</time></trkpt><trkpt lat="38.262229102809826" lon="15.469236582087436"><ele>35.0</ele><time>2026-04-30T15:23:24.999Z</time></trkpt><trkpt lat="38.2620383789388" lon="15.469044634558072"><ele>35.0</ele><time>2026-04-30T15:23:25.999Z</time></trkpt><trkpt lat="38.26185355628685" lon="15.468851483324181"><ele>35.0</ele><time>2026-04-30T15:23:26.999Z</time></trkpt><trkpt lat="38.26166089783958" lon="15.468649553351392"><ele>33.5</ele><time>2026-04-30T15:23:27.999Z</time></trkpt><trkpt lat="38.26145789906726" lon="15.46843972695909"><ele>32.0</ele><time>2026-04-30T15:23:28.999Z</time></trkpt><trkpt lat="38.26125509795856" lon="15.4682338532463"><ele>32.0</ele><time>2026-04-30T15:23:29.999Z</time></trkpt><trkpt lat="38.26105911938862" lon="15.468027793727636"><ele>32.0</ele><time>2026-04-30T15:23:30.999Z</time></trkpt><trkpt lat="38.26087932271653" lon="15.467816153432628"><ele>26.333333333333332</ele><time>2026-04-30T15:23:31.999Z</time></trkpt><trkpt lat="38.260725081848165" lon="15.467606288275134"><ele>20.666666666666664</ele><time>2026-04-30T15:23:32.999Z</time></trkpt><trkpt lat="38.26058069343037" lon="15.467395125650013"><ele>15.0</ele><time>2026-04-30T15:23:33.999Z</time></trkpt><trkpt lat="38.260434923847455" lon="15.467185143739963"><ele>15.0</ele><time>2026-04-30T15:23:34.999Z</time></trkpt><trkpt lat="38.260288229241844" lon="15.466981847649826"><ele>15.0</ele><time>2026-04-30T15:23:35.999Z</time></trkpt><trkpt lat="38.26015799170671" lon="15.466799151446482"><ele>15.0</ele><time>2026-04-30T15:23:36.999Z</time></trkpt><trkpt lat="38.260038718774815" lon="15.466638655345074"><ele>15.0</ele><time>2026-04-30T15:23:37.999Z</time></trkpt><trkpt lat="38.25991296052956" lon="15.466468171490131"><ele>15.0</ele><time>2026-04-30T15:23:38.999Z</time></trkpt><trkpt lat="38.25977960384842" lon="15.466304756587313"><ele>15.0</ele><time>2026-04-30T15:23:39.999Z</time></trkpt><trkpt lat="38.259629026375386" lon="15.466130287751401"><ele>17.333333333333332</ele><time>2026-04-30T15:23:40.999Z</time></trkpt><trkpt lat="38.259469519909075" lon="15.465960940679087"><ele>19.666666666666664</ele><time>2026-04-30T15:23:41.999Z</time></trkpt><trkpt lat="38.25927771542226" lon="15.465785445992589"><ele>22.0</ele><time>2026-04-30T15:23:42.999Z</time></trkpt><trkpt lat="38.25907931704098" lon="15.465619564217016"><ele>22.0</ele><time>2026-04-30T15:23:44Z</time></trkpt><trkpt lat="38.25887407148418" lon="15.465469377497206"><ele>22.0</ele><time>2026-04-30T15:23:45Z</time></trkpt><trkpt lat="38.258688943212746" lon="15.465314890001675"><ele>22.0</ele><time>2026-04-30T15:23:46Z</time></trkpt><trkpt lat="38.25854273976815" lon="15.465125987080022"><ele>22.0</ele><time>2026-04-30T15:23:47Z</time></trkpt><trkpt lat="38.25839461502879" lon="15.464912555582655"><ele>22.0</ele><time>2026-04-30T15:23:48Z</time></trkpt><trkpt lat="38.25822926196359" lon="15.464694007676387"><ele>25.0</ele><time>2026-04-30T15:23:49Z</time></trkpt><trkpt lat="38.25807843160343" lon="15.464463292569546"><ele>28.0</ele><time>2026-04-30T15:23:50Z</time></trkpt><trkpt lat="38.25794408851259" lon="15.464257345160908"><ele>31.0</ele><time>2026-04-30T15:23:51Z</time></trkpt><trkpt lat="38.257825145876105" lon="15.464078655865064"><ele>31.0</ele><time>2026-04-30T15:23:52Z</time></trkpt><trkpt lat="38.25771200122502" lon="15.463914779636829"><ele>31.0</ele><time>2026-04-30T15:23:53Z</time></trkpt><trkpt lat="38.257587773172396" lon="15.463755131234901"><ele>31.0</ele><time>2026-04-30T15:23:54Z</time></trkpt><trkpt lat="38.25743618627614" lon="15.463543458617837"><ele>31.5</ele><time>2026-04-30T15:23:55Z</time></trkpt><trkpt lat="38.257242966358824" lon="15.463336108582489"><ele>32.0</ele><time>2026-04-30T15:23:56Z</time></trkpt><trkpt lat="38.25706422009971" lon="15.463117766524682"><ele>24.5</ele><time>2026-04-30T15:23:57Z</time></trkpt><trkpt lat="38.256883286024845" lon="15.462909442277391"><ele>17.0</ele><time>2026-04-30T15:23:58Z</time></trkpt><trkpt lat="38.256702531513284" lon="15.46270336893976"><ele>17.0</ele><time>2026-04-30T15:23:59Z</time></trkpt><trkpt lat="38.256517682762635" lon="15.462496633164568"><ele>17.0</ele><time>2026-04-30T15:24:00Z</time></trkpt><trkpt lat="38.25633991566513" lon="15.462307318131685"><ele>16.333333333333336</ele><time>2026-04-30T15:24:01Z</time></trkpt><trkpt lat="38.256159738926144" lon="15.462153267068254"><ele>15.666666666666668</ele><time>2026-04-30T15:24:02Z</time></trkpt><trkpt lat="38.25596617273731" lon="15.462011696515283"><ele>15.0</ele><time>2026-04-30T15:24:03Z</time></trkpt><trkpt lat="38.25576884261485" lon="15.46186775902982"><ele>16.666666666666668</ele><time>2026-04-30T15:24:04Z</time></trkpt><trkpt lat="38.255589418262545" lon="15.46171262190582"><ele>18.333333333333336</ele><time>2026-04-30T15:24:05Z</time></trkpt><trkpt lat="38.255439995719655" lon="15.461574682240574"><ele>20.0</ele><time>2026-04-30T15:24:06Z</time></trkpt><trkpt lat="38.25530899737786" lon="15.461438888218005"><ele>18.333333333333336</ele><time>2026-04-30T15:24:07Z</time></trkpt><trkpt lat="38.25519546278692" lon="15.461272816729043"><ele>16.666666666666668</ele><time>2026-04-30T15:24:08Z</time></trkpt><trkpt lat="38.25508904587069" lon="15.46107845911836"><ele>15.0</ele><time>2026-04-30T15:24:09Z</time></trkpt><trkpt lat="38.2549976668319" lon="15.460866331024127"><ele>15.0</ele><time>2026-04-30T15:24:10Z</time></trkpt><trkpt lat="38.25489616069688" lon="15.460656027346289"><ele>15.0</ele><time>2026-04-30T15:24:11Z</time></trkpt><trkpt lat="38.25479762605332" lon="15.46046628177736"><ele>15.0</ele><time>2026-04-30T15:24:12Z</time></trkpt><trkpt lat="38.25469448489213" lon="15.460305626779848"><ele>16.666666666666668</ele><time>2026-04-30T15:24:13Z</time></trkpt><trkpt lat="38.25458379675761" lon="15.46018186124474"><ele>18.333333333333336</ele><time>2026-04-30T15:24:14Z</time></trkpt><trkpt lat="38.25444310756427" lon="15.46005965695642"><ele>20.0</ele><time>2026-04-30T15:24:15Z</time></trkpt><trkpt lat="38.25427647457896" lon="15.459943350353088"><ele>20.0</ele><time>2026-04-30T15:24:16Z</time></trkpt><trkpt lat="38.25410736201079" lon="15.459825253795847"><ele>20.0</ele><time>2026-04-30T15:24:17Z</time></trkpt><trkpt lat="38.25395638464328" lon="15.4597006131198"><ele>20.0</ele><time>2026-04-30T15:24:18Z</time></trkpt><trkpt lat="38.25383353833647" lon="15.459583928383331"><ele>19.666666666666668</ele><time>2026-04-30T15:24:19Z</time></trkpt><trkpt lat="38.25371373706272" lon="15.459456787007742"><ele>19.333333333333332</ele><time>2026-04-30T15:24:20Z</time></trkpt><trkpt lat="38.25359382145053" lon="15.459332012082486"><ele>19.0</ele><time>2026-04-30T15:24:21Z</time></trkpt><trkpt lat="38.253489195933795" lon="15.459214992933742"><ele>19.0</ele><time>2026-04-30T15:24:22Z</time></trkpt><trkpt lat="38.253396389506506" lon="15.459112712204018"><ele>19.0</ele><time>2026-04-30T15:24:23Z</time></trkpt><trkpt lat="38.25330780135774" lon="15.45902503756783"><ele>19.0</ele><time>2026-04-30T15:24:24Z</time></trkpt><trkpt lat="38.25324126212932" lon="15.45894306706418"><ele>19.0</ele><time>2026-04-30T15:24:25Z</time></trkpt><trkpt lat="38.253191290246434" lon="15.458870296343271"><ele>19.0</ele><time>2026-04-30T15:24:26Z</time></trkpt><trkpt lat="38.25312474307965" lon="15.458822910493687"><ele>18.8</ele><time>2026-04-30T15:24:27Z</time></trkpt><trkpt lat="38.253062271093704" lon="15.458772410941236"><ele>18.599999999999998</ele><time>2026-04-30T15:24:28Z</time></trkpt><trkpt lat="38.252992388582676" lon="15.458718956202503"><ele>18.4</ele><time>2026-04-30T15:24:29Z</time></trkpt><trkpt lat="38.2528927221881" lon="15.458624782472999"><ele>18.2</ele><time>2026-04-30T15:24:30Z</time></trkpt><trkpt lat="38.252786295030006" lon="15.458494897885123"><ele>18.0</ele><time>2026-04-30T15:24:31Z</time></trkpt><trkpt lat="38.252663458621136" lon="15.458352503386532"><ele>18.0</ele><time>2026-04-30T15:24:32Z</time></trkpt><trkpt lat="38.25254914631234" lon="15.458228367154284"><ele>18.0</ele><time>2026-04-30T15:24:33Z</time></trkpt><trkpt lat="38.25244597340209" lon="15.458122686402682"><ele>18.0</ele><time>2026-04-30T15:24:34Z</time></trkpt><trkpt lat="38.25233368114202" lon="15.458000712292833"><ele>18.0</ele><time>2026-04-30T15:24:35Z</time></trkpt><trkpt lat="38.2522189902166" lon="15.457876325392153"><ele>18.25</ele><time>2026-04-30T15:24:36Z</time></trkpt><trkpt lat="38.252113944726176" lon="15.45775110918752"><ele>18.5</ele><time>2026-04-30T15:24:37Z</time></trkpt><trkpt lat="38.252011282839874" lon="15.457630603011722"><ele>18.75</ele><time>2026-04-30T15:24:37.999Z</time></trkpt><trkpt lat="38.251910932342284" lon="15.457516267811123"><ele>19.0</ele><time>2026-04-30T15:24:38.999Z</time></trkpt><trkpt lat="38.25183300540978" lon="15.457428453042647"><ele>19.0</ele><time>2026-04-30T15:24:39.999Z</time></trkpt><trkpt lat="38.25176535720042" lon="15.457340299065478"><ele>19.0</ele><time>2026-04-30T15:24:40.999Z</time></trkpt><trkpt lat="38.251703046337845" lon="15.45725195396518"><ele>19.0</ele><time>2026-04-30T15:24:41.999Z</time></trkpt><trkpt lat="38.25164083644134" lon="15.457169688911248"><ele>19.0</ele><time>2026-04-30T15:24:42.999Z</time></trkpt><trkpt lat="38.25157165099936" lon="15.457086092758022"><ele>19.0</ele><time>2026-04-30T15:24:43.999Z</time></trkpt><trkpt lat="38.25150504565182" lon="15.456997707387496"><ele>20.2</ele><time>2026-04-30T15:24:44.999Z</time></trkpt><trkpt lat="38.25143290574891" lon="15.456911969820855"><ele>21.4</ele><time>2026-04-30T15:24:45.999Z</time></trkpt><trkpt lat="38.25137004985148" lon="15.456831239741796"><ele>22.6</ele><time>2026-04-30T15:24:46.999Z</time></trkpt><trkpt lat="38.25130710714396" lon="15.456756264027103"><ele>23.8</ele><time>2026-04-30T15:24:47.999Z</time></trkpt><trkpt lat="38.25124420743738" lon="15.456677228236433"><ele>25.0</ele><time>2026-04-30T15:24:48.999Z</time></trkpt><trkpt lat="38.251180318316834" lon="15.456596187476908"><ele>25.0</ele><time>2026-04-30T15:24:49.999Z</time></trkpt><trkpt lat="38.25111642652933" lon="15.456508357831003"><ele>25.0</ele><time>2026-04-30T15:24:50.999Z</time></trkpt><trkpt lat="38.25104919820139" lon="15.456420884618703"><ele>25.0</ele><time>2026-04-30T15:24:51.999Z</time></trkpt><trkpt lat="38.250964348467306" lon="15.456313753941897"><ele>25.0</ele><time>2026-04-30T15:24:52.999Z</time></trkpt><trkpt lat="38.25086250710852" lon="15.456189636785847"><ele>25.0</ele><time>2026-04-30T15:24:53.999Z</time></trkpt><trkpt lat="38.250752882810104" lon="15.456051859998235"><ele>25.0</ele><time>2026-04-30T15:24:54.999Z</time></trkpt><trkpt lat="38.25063053845344" lon="15.455911597525745"><ele>25.0</ele><time>2026-04-30T15:24:55.999Z</time></trkpt><trkpt lat="38.25049346097284" lon="15.455757086369132"><ele>25.0</ele><time>2026-04-30T15:24:56.999Z</time></trkpt><trkpt lat="38.25034983723336" lon="15.455595575202947"><ele>25.0</ele><time>2026-04-30T15:24:57.999Z</time></trkpt><trkpt lat="38.25019911138716" lon="15.455421514213242"><ele>25.0</ele><time>2026-04-30T15:24:58.999Z</time></trkpt><trkpt lat="38.250043417056474" lon="15.455245412333035"><ele>25.666666666666668</ele><time>2026-04-30T15:24:59.999Z</time></trkpt><trkpt lat="38.24988169155267" lon="15.455071544200075"><ele>26.333333333333336</ele><time>2026-04-30T15:25:00.999Z</time></trkpt><trkpt lat="38.2497325557011" lon="15.454911804459249"><ele>27.0</ele><time>2026-04-30T15:25:01.999Z</time></trkpt><trkpt lat="38.249612287548224" lon="15.45478070171518"><ele>27.0</ele><time>2026-04-30T15:25:02.999Z</time></trkpt><trkpt lat="38.249512515082984" lon="15.454673346520263"><ele>27.000000000000004</ele><time>2026-04-30T15:25:04Z</time></trkpt><trkpt lat="38.24943918813435" lon="15.454581417092333"><ele>27.000000000000004</ele><time>2026-04-30T15:25:05Z</time></trkpt><trkpt lat="38.249366719206016" lon="15.454504609340942"><ele>27.0</ele><time>2026-04-30T15:25:06Z</time></trkpt><trkpt lat="38.249314544870664" lon="15.454452110136204"><ele>27.0</ele><time>2026-04-30T15:25:07Z</time></trkpt><trkpt lat="38.24924120261935" lon="15.454379076225456"><ele>26.200000000000003</ele><time>2026-04-30T15:25:09Z</time></trkpt><trkpt lat="38.24917889811841" lon="15.454307608640995"><ele>25.400000000000002</ele><time>2026-04-30T15:25:11Z</time></trkpt><trkpt lat="38.24909953271403" lon="15.454234152359044"><ele>24.6</ele><time>2026-04-30T15:25:14Z</time></trkpt><trkpt lat="38.24902023035183" lon="15.454157049403749"><ele>23.799999999999997</ele><time>2026-04-30T15:25:16Z</time></trkpt><trkpt lat="38.24895361267652" lon="15.454107039187772"><ele>23.0</ele><time>2026-04-30T15:25:17Z</time></trkpt><trkpt lat="38.24884555737075" lon="15.454006781033431"><ele>23.0</ele><time>2026-04-30T15:25:18Z</time></trkpt><trkpt lat="38.248689179900374" lon="15.453847287119954"><ele>23.0</ele><time>2026-04-30T15:25:19Z</time></trkpt><trkpt lat="38.24852582695225" lon="15.453695822331696"><ele>23.0</ele><time>2026-04-30T15:25:20Z</time></trkpt><trkpt lat="38.24836759577749" lon="15.453537327598093"><ele>21.666666666666668</ele><time>2026-04-30T15:25:21Z</time></trkpt><trkpt lat="38.24821491714208" lon="15.45341221607532"><ele>20.333333333333332</ele><time>2026-04-30T15:25:22Z</time></trkpt><trkpt lat="38.248066168845796" lon="15.453271253141713"><ele>19.0</ele><time>2026-04-30T15:25:23Z</time></trkpt><trkpt lat="38.24791828520174" lon="15.453133382573334"><ele>20.333333333333332</ele><time>2026-04-30T15:25:24Z</time></trkpt><trkpt lat="38.24777393406561" lon="15.452991724175382"><ele>21.666666666666668</ele><time>2026-04-30T15:25:25Z</time></trkpt><trkpt lat="38.24764247432397" lon="15.452833742173269"><ele>23.0</ele><time>2026-04-30T15:25:26Z</time></trkpt><trkpt lat="38.24750907518153" lon="15.45263922706017"><ele>23.0</ele><time>2026-04-30T15:25:27Z</time></trkpt><trkpt lat="38.24738470047974" lon="15.452440932065773"><ele>23.0</ele><time>2026-04-30T15:25:28Z</time></trkpt><trkpt lat="38.24725428515966" lon="15.452246139613052"><ele>23.0</ele><time>2026-04-30T15:25:29Z</time></trkpt><trkpt lat="38.24712415235237" lon="15.452049230638632"><ele>24.333333333333336</ele><time>2026-04-30T15:25:30Z</time></trkpt><trkpt lat="38.24698030002749" lon="15.451851852684964"><ele>25.666666666666668</ele><time>2026-04-30T15:25:31Z</time></trkpt><trkpt lat="38.246821395494045" lon="15.451668845563434"><ele>27.0</ele><time>2026-04-30T15:25:32Z</time></trkpt><trkpt lat="38.2466547650177" lon="15.451489355271406"><ele>27.0</ele><time>2026-04-30T15:25:33Z</time></trkpt><trkpt lat="38.24649120284585" lon="15.451311217576052"><ele>27.0</ele><time>2026-04-30T15:25:34Z</time></trkpt><trkpt lat="38.24633624639527" lon="15.451138417454397"><ele>27.0</ele><time>2026-04-30T15:25:35Z</time></trkpt><trkpt lat="38.246199172447184" lon="15.450985723631558"><ele>27.333333333333336</ele><time>2026-04-30T15:25:36Z</time></trkpt><trkpt lat="38.24607438660249" lon="15.450854261450957"><ele>27.666666666666668</ele><time>2026-04-30T15:25:37Z</time></trkpt><trkpt lat="38.24596249691615" lon="15.450727167713723"><ele>28.0</ele><time>2026-04-30T15:25:38Z</time></trkpt><trkpt lat="38.24584452766791" lon="15.450610490346262"><ele>28.0</ele><time>2026-04-30T15:25:39Z</time></trkpt><trkpt lat="38.245749348116185" lon="15.450474313419152"><ele>28.0</ele><time>2026-04-30T15:25:40Z</time></trkpt><trkpt lat="38.245648960179054" lon="15.450362446387693"><ele>28.0</ele><time>2026-04-30T15:25:41Z</time></trkpt><trkpt lat="38.24555896788131" lon="15.450271141448175"><ele>28.0</ele><time>2026-04-30T15:25:42Z</time></trkpt><trkpt lat="38.24548056612144" lon="15.450182010539901"><ele>27.799999999999997</ele><time>2026-04-30T15:25:43Z</time></trkpt><trkpt lat="38.24540233352447" lon="15.450103998347304"><ele>27.599999999999998</ele><time>2026-04-30T15:25:44Z</time></trkpt><trkpt lat="38.245335124109836" lon="15.450021693614167"><ele>27.400000000000002</ele><time>2026-04-30T15:25:45Z</time></trkpt><trkpt lat="38.24526294259082" lon="15.449944061495335"><ele>27.200000000000003</ele><time>2026-04-30T15:25:46Z</time></trkpt><trkpt lat="38.245183492031025" lon="15.449859126196978"><ele>27.0</ele><time>2026-04-30T15:25:47Z</time></trkpt><trkpt lat="38.2450759910659" lon="15.44974518156475"><ele>27.0</ele><time>2026-04-30T15:25:48Z</time></trkpt><trkpt lat="38.24496212531597" lon="15.449633057588175"><ele>27.0</ele><time>2026-04-30T15:25:49Z</time></trkpt><trkpt lat="38.24484275176338" lon="15.449514687097672"><ele>27.0</ele><time>2026-04-30T15:25:50Z</time></trkpt><trkpt lat="38.24473612162922" lon="15.449394842164718"><ele>27.0</ele><time>2026-04-30T15:25:51Z</time></trkpt><trkpt lat="38.244634010252064" lon="15.449279797616782"><ele>27.5</ele><time>2026-04-30T15:25:52Z</time></trkpt><trkpt lat="38.244532116610976" lon="15.449134432698312"><ele>28.0</ele><time>2026-04-30T15:25:53Z</time></trkpt><trkpt lat="38.24443793243247" lon="15.448990806469661"><ele>28.5</ele><time>2026-04-30T15:25:54Z</time></trkpt><trkpt lat="38.24433481905196" lon="15.448908749827583"><ele>29.0</ele><time>2026-04-30T15:25:55Z</time></trkpt><trkpt lat="38.24426262864523" lon="15.44883850070696"><ele>29.75</ele><time>2026-04-30T15:25:56Z</time></trkpt><trkpt lat="38.24415192642919" lon="15.448725881712258"><ele>30.5</ele><time>2026-04-30T15:25:58Z</time></trkpt><trkpt lat="38.24405662841533" lon="15.44860825358556"><ele>31.25</ele><time>2026-04-30T15:25:59Z</time></trkpt><trkpt lat="38.2439315120675" lon="15.448457399550861"><ele>32.0</ele><time>2026-04-30T15:26:00Z</time></trkpt><trkpt lat="38.243788024203624" lon="15.448303873749193"><ele>32.0</ele><time>2026-04-30T15:26:01Z</time></trkpt><trkpt lat="38.24363872126821" lon="15.448135304788151"><ele>32.0</ele><time>2026-04-30T15:26:02Z</time></trkpt><trkpt lat="38.24348756778488" lon="15.44797082398566"><ele>32.0</ele><time>2026-04-30T15:26:03Z</time></trkpt><trkpt lat="38.243336838433116" lon="15.447800346991267"><ele>32.33333333333333</ele><time>2026-04-30T15:26:04Z</time></trkpt><trkpt lat="38.243178963429585" lon="15.447632077348398"><ele>32.666666666666664</ele><time>2026-04-30T15:26:05Z</time></trkpt><trkpt lat="38.24303123292012" lon="15.44746711167109"><ele>33.0</ele><time>2026-04-30T15:26:06Z</time></trkpt><trkpt lat="38.24291653067048" lon="15.447345781924541"><ele>33.0</ele><time>2026-04-30T15:26:07Z</time></trkpt><trkpt lat="38.242829644370524" lon="15.447253518366427"><ele>33.0</ele><time>2026-04-30T15:26:08Z</time></trkpt><trkpt lat="38.24276982236633" lon="15.447191618953255"><ele>33.0</ele><time>2026-04-30T15:26:09Z</time></trkpt><trkpt lat="38.24271073797442" lon="15.447114744355588"><ele>33.0</ele><time>2026-04-30T15:26:11Z</time></trkpt><trkpt lat="38.24262172615044" lon="15.447022184880602"><ele>33.0</ele><time>2026-04-30T15:26:13Z</time></trkpt><trkpt lat="38.242576981287684" lon="15.44695589513853"><ele>31.799999999999997</ele><time>2026-04-30T15:26:14Z</time></trkpt><trkpt lat="38.24251059492479" lon="15.446878784001665"><ele>30.599999999999998</ele><time>2026-04-30T15:26:19.001Z</time></trkpt><trkpt lat="38.2424162080478" lon="15.446778257258053"><ele>29.400000000000002</ele><time>2026-04-30T15:26:21.001Z</time></trkpt><trkpt lat="38.242339685798854" lon="15.44670718726108"><ele>28.200000000000003</ele><time>2026-04-30T15:26:22.001Z</time></trkpt><trkpt lat="38.24225663690238" lon="15.446611300558844"><ele>27.0</ele><time>2026-04-30T15:26:23.001Z</time></trkpt><trkpt lat="38.24220469772675" lon="15.446550026746957"><ele>26.200000000000003</ele><time>2026-04-30T15:26:24.001Z</time></trkpt><trkpt lat="38.24211701909168" lon="15.446433469926632"><ele>25.400000000000002</ele><time>2026-04-30T15:26:26.001Z</time></trkpt><trkpt lat="38.242038423200896" lon="15.446346901330381"><ele>24.6</ele><time>2026-04-30T15:26:27.001Z</time></trkpt><trkpt lat="38.24197888545698" lon="15.446280977219514"><ele>23.799999999999997</ele><time>2026-04-30T15:26:28.001Z</time></trkpt><trkpt lat="38.24191013815289" lon="15.446209057939097"><ele>23.0</ele><time>2026-04-30T15:26:29.001Z</time></trkpt><trkpt lat="38.241820668483015" lon="15.446121284105716"><ele>22.25</ele><time>2026-04-30T15:26:30.001Z</time></trkpt><trkpt lat="38.24172808918222" lon="15.446021366179766"><ele>21.5</ele><time>2026-04-30T15:26:31.001Z</time></trkpt><trkpt lat="38.24164474794008" lon="15.445882104467826"><ele>20.75</ele><time>2026-04-30T15:26:32.001Z</time></trkpt><trkpt lat="38.241542442990145" lon="15.445723279210943"><ele>20.0</ele><time>2026-04-30T15:26:33.001Z</time></trkpt><trkpt lat="38.24146557513127" lon="15.445552316155796"><ele>20.6</ele><time>2026-04-30T15:26:34.001Z</time></trkpt><trkpt lat="38.24141273735372" lon="15.445424159927756"><ele>21.2</ele><time>2026-04-30T15:26:35.001Z</time></trkpt><trkpt lat="38.24136952192075" lon="15.445329322710881"><ele>21.799999999999997</ele><time>2026-04-30T15:26:36.001Z</time></trkpt><trkpt lat="38.241333363108566" lon="15.445242077825798"><ele>22.4</ele><time>2026-04-30T15:26:37.001Z</time></trkpt><trkpt lat="38.241286916628574" lon="15.445121186679708"><ele>23.0</ele><time>2026-04-30T15:26:38.001Z</time></trkpt><trkpt lat="38.24123804586456" lon="15.444954105492373"><ele>23.0</ele><time>2026-04-30T15:26:39.001Z</time></trkpt><trkpt lat="38.24120194549064" lon="15.444795677547727"><ele>23.0</ele><time>2026-04-30T15:26:40.001Z</time></trkpt><trkpt lat="38.241172559088554" lon="15.444651201382959"><ele>23.0</ele><time>2026-04-30T15:26:41.001Z</time></trkpt><trkpt lat="38.24114192443844" lon="15.444500588297611"><ele>23.0</ele><time>2026-04-30T15:26:42.001Z</time></trkpt><trkpt lat="38.24111762986785" lon="15.444381145743623"><ele>22.4</ele><time>2026-04-30T15:26:43.001Z</time></trkpt><trkpt lat="38.24108911087136" lon="15.444279367465006"><ele>21.799999999999997</ele><time>2026-04-30T15:26:44.999Z</time></trkpt><trkpt lat="38.241072547816636" lon="15.4441068303977"><ele>21.2</ele><time>2026-04-30T15:26:46.999Z</time></trkpt><trkpt lat="38.24104833000605" lon="15.443966147361675"><ele>20.6</ele><time>2026-04-30T15:26:47.999Z</time></trkpt><trkpt lat="38.241035414565914" lon="15.443833862245194"><ele>20.0</ele><time>2026-04-30T15:26:48.999Z</time></trkpt><trkpt lat="38.24103216903996" lon="15.443748326925656"><ele>20.0</ele><time>2026-04-30T15:26:49.999Z</time></trkpt><trkpt lat="38.241016265410636" lon="15.44366420159579"><ele>20.0</ele><time>2026-04-30T15:26:50.999Z</time></trkpt><trkpt lat="38.24099920073777" lon="15.443545822576683"><ele>20.0</ele><time>2026-04-30T15:26:51.999Z</time></trkpt><trkpt lat="38.24098963675462" lon="15.443381436417546"><ele>20.0</ele><time>2026-04-30T15:26:52.999Z</time></trkpt><trkpt lat="38.2409840128586" lon="15.443212393296067"><ele>20.0</ele><time>2026-04-30T15:26:53.999Z</time></trkpt><trkpt lat="38.24099439631229" lon="15.443043968077614"><ele>19.5</ele><time>2026-04-30T15:26:54.999Z</time></trkpt><trkpt lat="38.24096707745778" lon="15.442915635913211"><ele>19.0</ele><time>2026-04-30T15:26:55.999Z</time></trkpt><trkpt lat="38.24097868891667" lon="15.44283411979361"><ele>18.5</ele><time>2026-04-30T15:26:56.999Z</time></trkpt><trkpt lat="38.2409737292957" lon="15.442745437035327"><ele>18.0</ele><time>2026-04-30T15:26:58.999Z</time></trkpt><trkpt lat="38.24096449528088" lon="15.442636923876654"><ele>17.5</ele><time>2026-04-30T15:27:00.999Z</time></trkpt><trkpt lat="38.240941980951696" lon="15.442543783337461"><ele>17.0</ele><time>2026-04-30T15:27:02.999Z</time></trkpt><trkpt lat="38.24091572884844" lon="15.442438680193769"><ele>17.0</ele><time>2026-04-30T15:27:03.999Z</time></trkpt><trkpt lat="38.240892517985465" lon="15.442332115626769"><ele>17.0</ele><time>2026-04-30T15:27:04.999Z</time></trkpt><trkpt lat="38.24086164462401" lon="15.442180942408395"><ele>17.0</ele><time>2026-04-30T15:27:06.999Z</time></trkpt><trkpt lat="38.24084890913856" lon="15.442084965867918"><ele>17.0</ele><time>2026-04-30T15:27:07.999Z</time></trkpt><trkpt lat="38.24085001274034" lon="15.441996933537833"><ele>17.0</ele><time>2026-04-30T15:27:08.999Z</time></trkpt><trkpt lat="38.24084993745499" lon="15.441904559293436"><ele>17.0</ele><time>2026-04-30T15:27:09.999Z</time></trkpt><trkpt lat="38.24085098653012" lon="15.441787930271712"><ele>16.75</ele><time>2026-04-30T15:27:10.999Z</time></trkpt><trkpt lat="38.24085266624067" lon="15.44160119173952"><ele>16.5</ele><time>2026-04-30T15:27:11.999Z</time></trkpt><trkpt lat="38.240854600107134" lon="15.441386197924436"><ele>16.25</ele><time>2026-04-30T15:27:12.999Z</time></trkpt><trkpt lat="38.240851869538965" lon="15.441227548722761"><ele>16.0</ele><time>2026-04-30T15:27:13.999Z</time></trkpt><trkpt lat="38.240841211569936" lon="15.441053144591349"><ele>16.0</ele><time>2026-04-30T15:27:14.999Z</time></trkpt><trkpt lat="38.24080500683909" lon="15.44083790257349"><ele>16.0</ele><time>2026-04-30T15:27:15.999Z</time></trkpt><trkpt lat="38.240738101603085" lon="15.44064660192617"><ele>16.0</ele><time>2026-04-30T15:27:16.999Z</time></trkpt><trkpt lat="38.240718023322415" lon="15.440445660516595"><ele>15.0</ele><time>2026-04-30T15:27:18Z</time></trkpt><trkpt lat="38.240697694422785" lon="15.440224582087419"><ele>14.0</ele><time>2026-04-30T15:27:19Z</time></trkpt><trkpt lat="38.240682644733006" lon="15.439962914054629"><ele>13.0</ele><time>2026-04-30T15:27:20Z</time></trkpt><trkpt lat="38.24066976792006" lon="15.439736899216426"><ele>13.0</ele><time>2026-04-30T15:27:21Z</time></trkpt><trkpt lat="38.240647349331866" lon="15.439536991250595"><ele>13.0</ele><time>2026-04-30T15:27:22Z</time></trkpt><trkpt lat="38.24060484694371" lon="15.439341034511346"><ele>13.0</ele><time>2026-04-30T15:27:23Z</time></trkpt><trkpt lat="38.24055080027182" lon="15.439137788896744"><ele>13.0</ele><time>2026-04-30T15:27:24Z</time></trkpt><trkpt lat="38.24048424683402" lon="15.438957086577686"><ele>13.0</ele><time>2026-04-30T15:27:25Z</time></trkpt><trkpt lat="38.240425671258215" lon="15.438817071268366"><ele>13.0</ele><time>2026-04-30T15:27:26Z</time></trkpt><trkpt lat="38.24036035229578" lon="15.438694079808185"><ele>13.0</ele><time>2026-04-30T15:27:27Z</time></trkpt><trkpt lat="38.24029439499177" lon="15.438564252330139"><ele>13.0</ele><time>2026-04-30T15:27:28Z</time></trkpt><trkpt lat="38.240240532129405" lon="15.438429259996813"><ele>13.0</ele><time>2026-04-30T15:27:29Z</time></trkpt><trkpt lat="38.240172273157874" lon="15.43826556822784"><ele>13.0</ele><time>2026-04-30T15:27:30Z</time></trkpt><trkpt lat="38.24008204916187" lon="15.438067830673354"><ele>13.0</ele><time>2026-04-30T15:27:31Z</time></trkpt><trkpt lat="38.240005344423366" lon="15.437895807390158"><ele>13.0</ele><time>2026-04-30T15:27:32Z</time></trkpt><trkpt lat="38.23993791404315" lon="15.43774931280427"><ele>13.0</ele><time>2026-04-30T15:27:33Z</time></trkpt><trkpt lat="38.2398786406763" lon="15.437627900134673"><ele>13.0</ele><time>2026-04-30T15:27:34Z</time></trkpt><trkpt lat="38.23981098858106" lon="15.43750946465293"><ele>13.0</ele><time>2026-04-30T15:27:35Z</time></trkpt><trkpt lat="38.239746470621405" lon="15.43739694577507"><ele>13.8</ele><time>2026-04-30T15:27:36Z</time></trkpt><trkpt lat="38.23967588814835" lon="15.437289494486437"><ele>14.600000000000001</ele><time>2026-04-30T15:27:37Z</time></trkpt><trkpt lat="38.239624581464106" lon="15.437181115502938"><ele>15.399999999999999</ele><time>2026-04-30T15:27:38Z</time></trkpt><trkpt lat="38.23958031355131" lon="15.437110241095814"><ele>16.2</ele><time>2026-04-30T15:27:39Z</time></trkpt><trkpt lat="38.23950698386806" lon="15.43699283780011"><ele>17.0</ele><time>2026-04-30T15:27:41Z</time></trkpt><trkpt lat="38.239440702197605" lon="15.436886718395225"><ele>17.0</ele><time>2026-04-30T15:27:42Z</time></trkpt><trkpt lat="38.23940006670342" lon="15.436823224430373"><ele>17.0</ele><time>2026-04-30T15:27:57Z</time></trkpt><trkpt lat="38.23935916224254" lon="15.436756224983936"><ele>17.0</ele><time>2026-04-30T15:28:01Z</time></trkpt><trkpt lat="38.2393042131255" lon="15.436666220961841"><ele>17.0</ele><time>2026-04-30T15:28:03Z</time></trkpt><trkpt lat="38.23924860986281" lon="15.436569923908365"><ele>17.0</ele><time>2026-04-30T15:28:04Z</time></trkpt><trkpt lat="38.23916765990173" lon="15.436448467172134"><ele>17.0</ele><time>2026-04-30T15:28:05Z</time></trkpt><trkpt lat="38.239061853377535" lon="15.436348170276466"><ele>17.666666666666668</ele><time>2026-04-30T15:28:06Z</time></trkpt><trkpt lat="38.238956929710966" lon="15.4362471887422"><ele>18.333333333333332</ele><time>2026-04-30T15:28:07Z</time></trkpt><trkpt lat="38.238824291414524" lon="15.43612138072123"><ele>19.0</ele><time>2026-04-30T15:28:08Z</time></trkpt><trkpt lat="38.238696261395496" lon="15.435995831255047"><ele>19.0</ele><time>2026-04-30T15:28:09Z</time></trkpt><trkpt lat="38.23855496179552" lon="15.435891654100502"><ele>19.0</ele><time>2026-04-30T15:28:10Z</time></trkpt><trkpt lat="38.23839893185125" lon="15.43581167372408"><ele>19.0</ele><time>2026-04-30T15:28:11Z</time></trkpt><trkpt lat="38.23823093021892" lon="15.435737852639404"><ele>19.666666666666664</ele><time>2026-04-30T15:28:12Z</time></trkpt><trkpt lat="38.23805804746922" lon="15.435662296921127"><ele>20.333333333333332</ele><time>2026-04-30T15:28:13Z</time></trkpt><trkpt lat="38.23788310067834" lon="15.435580046355643"><ele>21.0</ele><time>2026-04-30T15:28:14Z</time></trkpt><trkpt lat="38.23769663925003" lon="15.435522412955695"><ele>21.333333333333332</ele><time>2026-04-30T15:28:15Z</time></trkpt><trkpt lat="38.23754459734549" lon="15.435418384228997"><ele>21.666666666666664</ele><time>2026-04-30T15:28:16Z</time></trkpt><trkpt lat="38.23740774801218" lon="15.43529954169334"><ele>22.0</ele><time>2026-04-30T15:28:17Z</time></trkpt><trkpt lat="38.23726220869572" lon="15.4351524901973"><ele>22.0</ele><time>2026-04-30T15:28:18Z</time></trkpt><trkpt lat="38.23712282989178" lon="15.435019241174283"><ele>22.0</ele><time>2026-04-30T15:28:19Z</time></trkpt><trkpt lat="38.23699519825075" lon="15.434901958807247"><ele>22.0</ele><time>2026-04-30T15:28:20Z</time></trkpt><trkpt lat="38.23690159449968" lon="15.434798705507857"><ele>22.0</ele><time>2026-04-30T15:28:21Z</time></trkpt><trkpt lat="38.23682996441189" lon="15.4347175643008"><ele>22.0</ele><time>2026-04-30T15:28:22Z</time></trkpt><trkpt lat="38.236790297491936" lon="15.434627089629535"><ele>22.0</ele><time>2026-04-30T15:28:23Z</time></trkpt><trkpt lat="38.23674115271448" lon="15.434547630848583"><ele>22.0</ele><time>2026-04-30T15:28:24Z</time></trkpt><trkpt lat="38.23669063389161" lon="15.43444506052735"><ele>22.0</ele><time>2026-04-30T15:28:25Z</time></trkpt><trkpt lat="38.23662772481639" lon="15.434321381751937"><ele>22.200000000000003</ele><time>2026-04-30T15:28:26Z</time></trkpt><trkpt lat="38.236589136370625" lon="15.434150738273049"><ele>22.4</ele><time>2026-04-30T15:28:27Z</time></trkpt><trkpt lat="38.23655810636553" lon="15.43401079585748"><ele>22.6</ele><time>2026-04-30T15:28:28Z</time></trkpt><trkpt lat="38.236522171433776" lon="15.43390728157415"><ele>22.799999999999997</ele><time>2026-04-30T15:28:29Z</time></trkpt><trkpt lat="38.236482676458174" lon="15.43380149981808"><ele>23.0</ele><time>2026-04-30T15:28:30Z</time></trkpt><trkpt lat="38.23646290037682" lon="15.433692497323575"><ele>23.75</ele><time>2026-04-30T15:28:33Z</time></trkpt><trkpt lat="38.23641734103027" lon="15.433530571621253"><ele>24.5</ele><time>2026-04-30T15:28:35.001Z</time></trkpt><trkpt lat="38.236376688417515" lon="15.433384401980058"><ele>25.25</ele><time>2026-04-30T15:28:37.001Z</time></trkpt><trkpt lat="38.2363400296828" lon="15.433250928737143"><ele>26.0</ele><time>2026-04-30T15:28:38.001Z</time></trkpt><trkpt lat="38.23628564399091" lon="15.433087737448904"><ele>26.25</ele><time>2026-04-30T15:28:39.001Z</time></trkpt><trkpt lat="38.2362404950783" lon="15.432919876987475"><ele>26.5</ele><time>2026-04-30T15:28:40.001Z</time></trkpt><trkpt lat="38.236186792239884" lon="15.432750129272433"><ele>26.75</ele><time>2026-04-30T15:28:41.001Z</time></trkpt><trkpt lat="38.23614672203743" lon="15.43261655922767"><ele>27.0</ele><time>2026-04-30T15:28:42.001Z</time></trkpt><trkpt lat="38.23612451862545" lon="15.432505015912609"><ele>27.0</ele><time>2026-04-30T15:28:43.001Z</time></trkpt><trkpt lat="38.236097817643795" lon="15.432409928471664"><ele>27.000000000000004</ele><time>2026-04-30T15:28:44.001Z</time></trkpt><trkpt lat="38.236065047347516" lon="15.43231993518419"><ele>27.000000000000004</ele><time>2026-04-30T15:28:45.001Z</time></trkpt><trkpt lat="38.23600002220431" lon="15.432147716666591"><ele>27.0</ele><time>2026-04-30T15:28:47.001Z</time></trkpt><trkpt lat="38.23597283807828" lon="15.432023527352703"><ele>27.0</ele><time>2026-04-30T15:28:48.001Z</time></trkpt><trkpt lat="38.23595351697047" lon="15.431941153753103"><ele>26.8</ele><time>2026-04-30T15:28:49.001Z</time></trkpt><trkpt lat="38.235889502398926" lon="15.43178496125388"><ele>26.6</ele><time>2026-04-30T15:28:50.999Z</time></trkpt><trkpt lat="38.23585497960152" lon="15.431639177433372"><ele>26.400000000000002</ele><time>2026-04-30T15:28:51.999Z</time></trkpt><trkpt lat="38.235811878977174" lon="15.431493507111155"><ele>26.200000000000003</ele><time>2026-04-30T15:28:52.999Z</time></trkpt><trkpt lat="38.23579022639886" lon="15.431410157315387"><ele>26.0</ele><time>2026-04-30T15:28:53.999Z</time></trkpt><trkpt lat="38.23575065829683" lon="15.431270627908741"><ele>26.333333333333332</ele><time>2026-04-30T15:28:56.999Z</time></trkpt><trkpt lat="38.23572600361918" lon="15.431184675536105"><ele>26.666666666666664</ele><time>2026-04-30T15:28:57.999Z</time></trkpt><trkpt lat="38.23568693191601" lon="15.43110948448055"><ele>27.0</ele><time>2026-04-30T15:28:59.999Z</time></trkpt><trkpt lat="38.23567667205907" lon="15.431012693167997"><ele>27.333333333333336</ele><time>2026-04-30T15:29:06Z</time></trkpt><trkpt lat="38.23564778643873" lon="15.43091293802522"><ele>27.666666666666668</ele><time>2026-04-30T15:29:07Z</time></trkpt><trkpt lat="38.23560895853835" lon="15.43079405914387"><ele>28.0</ele><time>2026-04-30T15:29:08Z</time></trkpt><trkpt lat="38.235564250965226" lon="15.430717190422083"><ele>28.0</ele><time>2026-04-30T15:29:09Z</time></trkpt><trkpt lat="38.23550736284901" lon="15.430652951913556"><ele>27.999999999999996</ele><time>2026-04-30T15:29:10Z</time></trkpt><trkpt lat="38.23543393257439" lon="15.43059490509336"><ele>27.999999999999996</ele><time>2026-04-30T15:29:11Z</time></trkpt><trkpt lat="38.235340390084644" lon="15.430547781251434"><ele>28.0</ele><time>2026-04-30T15:29:12Z</time></trkpt><trkpt lat="38.23522094165258" lon="15.430497676207152"><ele>28.0</ele><time>2026-04-30T15:29:13Z</time></trkpt><trkpt lat="38.235115200151625" lon="15.430455226833226"><ele>28.166666666666668</ele><time>2026-04-30T15:29:14Z</time></trkpt><trkpt lat="38.23503313143325" lon="15.430422436056269"><ele>28.333333333333336</ele><time>2026-04-30T15:29:15Z</time></trkpt><trkpt lat="38.2349700136881" lon="15.43039469935752"><ele>28.5</ele><time>2026-04-30T15:29:16Z</time></trkpt><trkpt lat="38.234849964805356" lon="15.430345958141437"><ele>28.666666666666664</ele><time>2026-04-30T15:29:18Z</time></trkpt><trkpt lat="38.23479642933649" lon="15.430277260180654"><ele>28.833333333333332</ele><time>2026-04-30T15:29:21Z</time></trkpt><trkpt lat="38.23476228070364" lon="15.430198049114505"><ele>29.0</ele><time>2026-04-30T15:29:24Z</time></trkpt><trkpt lat="38.234754980354886" lon="15.43006956119294"><ele>29.0</ele><time>2026-04-30T15:29:26Z</time></trkpt><trkpt lat="38.23474936370661" lon="15.429972317185054"><ele>29.0</ele><time>2026-04-30T15:29:27Z</time></trkpt><trkpt lat="38.23473855082812" lon="15.429797132710684"><ele>29.0</ele><time>2026-04-30T15:29:29Z</time></trkpt><trkpt lat="38.23472817969458" lon="15.429680975952305"><ele>29.0</ele><time>2026-04-30T15:29:32Z</time></trkpt><trkpt lat="38.23470353967884" lon="15.429579488804729"><ele>29.0</ele><time>2026-04-30T15:29:35Z</time></trkpt><trkpt lat="38.23469999458907" lon="15.429476686672347"><ele>28.333333333333332</ele><time>2026-04-30T15:29:36Z</time></trkpt><trkpt lat="38.23469743658651" lon="15.42934964519811"><ele>27.666666666666664</ele><time>2026-04-30T15:29:39Z</time></trkpt><trkpt lat="38.234688940796865" lon="15.42925987194833"><ele>27.0</ele><time>2026-04-30T15:29:40Z</time></trkpt><trkpt lat="38.234678667547406" lon="15.429151316656341"><ele>26.333333333333336</ele><time>2026-04-30T15:29:41Z</time></trkpt><trkpt lat="38.2346562192889" lon="15.429024611259585"><ele>25.666666666666668</ele><time>2026-04-30T15:29:42Z</time></trkpt><trkpt lat="38.23464930307859" lon="15.428911005556838"><ele>25.0</ele><time>2026-04-30T15:29:43Z</time></trkpt><trkpt lat="38.234641385651685" lon="15.428795624125723"><ele>24.333333333333336</ele><time>2026-04-30T15:29:44Z</time></trkpt><trkpt lat="38.23462914878192" lon="15.428673690995454"><ele>23.666666666666668</ele><time>2026-04-30T15:29:45Z</time></trkpt><trkpt lat="38.23462530911961" lon="15.428560568808495"><ele>23.0</ele><time>2026-04-30T15:29:47Z</time></trkpt><trkpt lat="38.23461140543599" lon="15.428459648562212"><ele>22.333333333333336</ele><time>2026-04-30T15:29:49Z</time></trkpt><trkpt lat="38.23459508024535" lon="15.428350783294444"><ele>21.666666666666668</ele><time>2026-04-30T15:29:50Z</time></trkpt><trkpt lat="38.23458119531114" lon="15.428237086478486"><ele>21.0</ele><time>2026-04-30T15:29:51Z</time></trkpt><trkpt lat="38.23457716447629" lon="15.42813622053753"><ele>21.0</ele><time>2026-04-30T15:29:52Z</time></trkpt><trkpt lat="38.234562125140044" lon="15.428017564340184"><ele>21.0</ele><time>2026-04-30T15:29:53Z</time></trkpt><trkpt lat="38.234537347028635" lon="15.427891421386093"><ele>21.0</ele><time>2026-04-30T15:29:54Z</time></trkpt><trkpt lat="38.23452137796995" lon="15.427786237183936"><ele>21.0</ele><time>2026-04-30T15:29:55Z</time></trkpt><trkpt lat="38.23450929294376" lon="15.427702260863317"><ele>21.0</ele><time>2026-04-30T15:29:58Z</time></trkpt><trkpt lat="38.23448927690137" lon="15.427620184355629"><ele>21.0</ele><time>2026-04-30T15:30:00Z</time></trkpt><trkpt lat="38.234451113526625" lon="15.427501315380002"><ele>20.8</ele><time>2026-04-30T15:30:02Z</time></trkpt><trkpt lat="38.23442401995951" lon="15.427409450083976"><ele>20.6</ele><time>2026-04-30T15:30:03Z</time></trkpt><trkpt lat="38.234389697113734" lon="15.427312397530223"><ele>20.4</ele><time>2026-04-30T15:30:04Z</time></trkpt><trkpt lat="38.23434936628594" lon="15.427177668899033"><ele>20.2</ele><time>2026-04-30T15:30:06Z</time></trkpt><trkpt lat="38.2343079584623" lon="15.427080060713564"><ele>20.0</ele><time>2026-04-30T15:30:07.001Z</time></trkpt><trkpt lat="38.23425892872875" lon="15.426948719834382"><ele>20.0</ele><time>2026-04-30T15:30:08.001Z</time></trkpt><trkpt lat="38.23421172396878" lon="15.42682053506442"><ele>20.0</ele><time>2026-04-30T15:30:09.001Z</time></trkpt><trkpt lat="38.23416356587491" lon="15.426650814932632"><ele>20.0</ele><time>2026-04-30T15:30:10.001Z</time></trkpt><trkpt lat="38.2341214395108" lon="15.42647718912717"><ele>20.0</ele><time>2026-04-30T15:30:11.001Z</time></trkpt><trkpt lat="38.234093238285595" lon="15.426312177803473"><ele>19.5</ele><time>2026-04-30T15:30:12.001Z</time></trkpt><trkpt lat="38.234055503372936" lon="15.426152717801191"><ele>19.0</ele><time>2026-04-30T15:30:13.001Z</time></trkpt><trkpt lat="38.23402358543153" lon="15.425977388031008"><ele>18.5</ele><time>2026-04-30T15:30:14.001Z</time></trkpt><trkpt lat="38.233998201840315" lon="15.425786768811593"><ele>18.0</ele><time>2026-04-30T15:30:15.001Z</time></trkpt><trkpt lat="38.233963965153016" lon="15.425601491424475"><ele>18.8</ele><time>2026-04-30T15:30:16.001Z</time></trkpt><trkpt lat="38.23392957461127" lon="15.425439658926152"><ele>19.6</ele><time>2026-04-30T15:30:17.001Z</time></trkpt><trkpt lat="38.23388857760117" lon="15.425325681881937"><ele>20.400000000000002</ele><time>2026-04-30T15:30:18.001Z</time></trkpt><trkpt lat="38.23383800672861" lon="15.425213374331786"><ele>21.200000000000003</ele><time>2026-04-30T15:30:19.001Z</time></trkpt><trkpt lat="38.23375685277311" lon="15.425111937977954"><ele>22.0</ele><time>2026-04-30T15:30:20.001Z</time></trkpt><trkpt lat="38.23368612312574" lon="15.42501107573451"><ele>22.0</ele><time>2026-04-30T15:30:21.001Z</time></trkpt><trkpt lat="38.23362083988091" lon="15.424927737647245"><ele>22.0</ele><time>2026-04-30T15:30:22.001Z</time></trkpt><trkpt lat="38.233537084597444" lon="15.424824419113122"><ele>22.0</ele><time>2026-04-30T15:30:23.001Z</time></trkpt><trkpt lat="38.233449114754166" lon="15.424718085900189"><ele>22.0</ele><time>2026-04-30T15:30:24.001Z</time></trkpt><trkpt lat="38.23337125718208" lon="15.424626354486108"><ele>22.0</ele><time>2026-04-30T15:30:25.001Z</time></trkpt><trkpt lat="38.233271758683074" lon="15.424523412109137"><ele>22.333333333333332</ele><time>2026-04-30T15:30:26.001Z</time></trkpt><trkpt lat="38.233152375247826" lon="15.42436730506417"><ele>22.666666666666668</ele><time>2026-04-30T15:30:27.001Z</time></trkpt><trkpt lat="38.2330432715461" lon="15.424236350577491"><ele>23.0</ele><time>2026-04-30T15:30:28.001Z</time></trkpt><trkpt lat="38.23294995841962" lon="15.424121549008124"><ele>23.0</ele><time>2026-04-30T15:30:29.001Z</time></trkpt><trkpt lat="38.232891502107435" lon="15.42402228810841"><ele>23.0</ele><time>2026-04-30T15:30:30.001Z</time></trkpt><trkpt lat="38.23284746783524" lon="15.423917993296664"><ele>23.0</ele><time>2026-04-30T15:30:31.001Z</time></trkpt><trkpt lat="38.2328191005385" lon="15.423794043368085"><ele>23.0</ele><time>2026-04-30T15:30:32.001Z</time></trkpt><trkpt lat="38.23281740471517" lon="15.423688095850396"><ele>23.0</ele><time>2026-04-30T15:30:33.001Z</time></trkpt><trkpt lat="38.23281430980899" lon="15.423577908656847"><ele>23.0</ele><time>2026-04-30T15:30:34.001Z</time></trkpt><trkpt lat="38.23280788495918" lon="15.423436831874563"><ele>23.0</ele><time>2026-04-30T15:30:35.001Z</time></trkpt><trkpt lat="38.232790853119496" lon="15.423240520631234"><ele>23.0</ele><time>2026-04-30T15:30:36.001Z</time></trkpt><trkpt lat="38.232778502535375" lon="15.423005310809799"><ele>23.0</ele><time>2026-04-30T15:30:37.001Z</time></trkpt><trkpt lat="38.23277142370116" lon="15.422754482316787"><ele>23.0</ele><time>2026-04-30T15:30:38.001Z</time></trkpt><trkpt lat="38.23276124136391" lon="15.422521677705573"><ele>23.0</ele><time>2026-04-30T15:30:39.001Z</time></trkpt><trkpt lat="38.23274966209244" lon="15.422315166857876"><ele>23.0</ele><time>2026-04-30T15:30:40.001Z</time></trkpt><trkpt lat="38.232742309658335" lon="15.422124301701313"><ele>23.0</ele><time>2026-04-30T15:30:41.001Z</time></trkpt><trkpt lat="38.23273574619728" lon="15.42193419017383"><ele>23.0</ele><time>2026-04-30T15:30:42.001Z</time></trkpt><trkpt lat="38.232717337566804" lon="15.421738311988586"><ele>23.0</ele><time>2026-04-30T15:30:43.001Z</time></trkpt><trkpt lat="38.23272941025839" lon="15.42153792900121"><ele>23.0</ele><time>2026-04-30T15:30:44.001Z</time></trkpt><trkpt lat="38.23274166773296" lon="15.42130811430421"><ele>23.0</ele><time>2026-04-30T15:30:45.001Z</time></trkpt><trkpt lat="38.2327685034488" lon="15.421085516250656"><ele>22.5</ele><time>2026-04-30T15:30:46.001Z</time></trkpt><trkpt lat="38.2328048107435" lon="15.420876822041725"><ele>22.0</ele><time>2026-04-30T15:30:47.001Z</time></trkpt><trkpt lat="38.23283133860054" lon="15.420692630121401"><ele>21.5</ele><time>2026-04-30T15:30:48.001Z</time></trkpt><trkpt lat="38.232870908182" lon="15.420534341700803"><ele>21.0</ele><time>2026-04-30T15:30:49.001Z</time></trkpt><trkpt lat="38.232914861269066" lon="15.420383778419593"><ele>20.833333333333332</ele><time>2026-04-30T15:30:50.001Z</time></trkpt><trkpt lat="38.232951564717936" lon="15.420242847527238"><ele>20.666666666666668</ele><time>2026-04-30T15:30:51.001Z</time></trkpt><trkpt lat="38.232968496524954" lon="15.420131156282029"><ele>20.5</ele><time>2026-04-30T15:30:52.001Z</time></trkpt><trkpt lat="38.23299168788452" lon="15.420055266664422"><ele>20.333333333333336</ele><time>2026-04-30T15:30:53.001Z</time></trkpt><trkpt lat="38.23302957911781" lon="15.419965914066498"><ele>20.166666666666668</ele><time>2026-04-30T15:30:56Z</time></trkpt><trkpt lat="38.233073563519525" lon="15.41989371404933"><ele>20.0</ele><time>2026-04-30T15:30:58Z</time></trkpt><trkpt lat="38.23296469111163" lon="15.419705814334536"><ele>20.0</ele><time>2026-04-30T15:31:07Z</time></trkpt><trkpt lat="38.232911855000594" lon="15.420022451850999"><ele>20.0</ele><time>2026-04-30T15:31:08Z</time></trkpt><trkpt lat="38.232900147784996" lon="15.420112996116835"><ele>20.0</ele><time>2026-04-30T15:31:11Z</time></trkpt><trkpt lat="38.23291614292155" lon="15.42019869373992"><ele>20.0</ele><time>2026-04-30T15:31:18Z</time></trkpt><trkpt lat="38.23291139934887" lon="15.420293795183163"><ele>20.0</ele><time>2026-04-30T15:31:19Z</time></trkpt><trkpt lat="38.23288018220799" lon="15.420367116984266"><ele>20.0</ele><time>2026-04-30T15:31:20Z</time></trkpt><trkpt lat="38.23296265406902" lon="15.420439329887419"><ele>20.0</ele><time>2026-04-30T15:31:23Z</time></trkpt><trkpt lat="38.233058458819755" lon="15.420397638431433"><ele>20.0</ele><time>2026-04-30T15:31:25Z</time></trkpt><trkpt lat="38.23311792040186" lon="15.420273704918719"><ele>20.0</ele><time>2026-04-30T15:31:27Z</time></trkpt><trkpt lat="38.23316135965591" lon="15.420205686526609"><ele>19.8</ele><time>2026-04-30T15:31:28Z</time></trkpt><trkpt lat="38.23320690510692" lon="15.420121282759707"><ele>19.6</ele><time>2026-04-30T15:31:29Z</time></trkpt><trkpt lat="38.23325709570107" lon="15.420045401976857"><ele>19.4</ele><time>2026-04-30T15:31:30Z</time></trkpt><trkpt lat="38.23331376361886" lon="15.419980232066235"><ele>19.2</ele><time>2026-04-30T15:31:32Z</time></trkpt><trkpt lat="38.233411829817896" lon="15.420021994627838"><ele>19.0</ele><time>2026-04-30T15:31:36Z</time></trkpt><trkpt lat="38.23331805848647" lon="15.420143450480712"><ele>19.0</ele><time>2026-04-30T15:31:38Z</time></trkpt><trkpt lat="38.23326247029234" lon="15.420212784787543"><ele>19.0</ele><time>2026-04-30T15:31:39Z</time></trkpt><trkpt lat="38.23320386302247" lon="15.420294517108802"><ele>19.0</ele><time>2026-04-30T15:31:40Z</time></trkpt><trkpt lat="38.233161366725604" lon="15.420406208438926"><ele>19.0</ele><time>2026-04-30T15:31:41Z</time></trkpt><trkpt lat="38.233115520270346" lon="15.420504955130879"><ele>19.0</ele><time>2026-04-30T15:31:42Z</time></trkpt><trkpt lat="38.23309317872484" lon="15.420587663256494"><ele>19.0</ele><time>2026-04-30T15:31:43Z</time></trkpt><trkpt lat="38.2330788999319" lon="15.420681467440685"><ele>19.333333333333332</ele><time>2026-04-30T15:31:46Z</time></trkpt><trkpt lat="38.23307103268797" lon="15.420781603756879"><ele>19.666666666666664</ele><time>2026-04-30T15:31:48.001Z</time></trkpt><trkpt lat="38.2330685006259" lon="15.42087430112825"><ele>20.0</ele><time>2026-04-30T15:31:49.001Z</time></trkpt><trkpt lat="38.23306584205611" lon="15.42098358525007"><ele>20.333333333333332</ele><time>2026-04-30T15:31:50.001Z</time></trkpt><trkpt lat="38.23305966087003" lon="15.421096658916044"><ele>20.666666666666668</ele><time>2026-04-30T15:31:51.001Z</time></trkpt><trkpt lat="38.23305409952298" lon="15.421194047313278"><ele>21.0</ele><time>2026-04-30T15:31:52.001Z</time></trkpt><trkpt lat="38.233040849434516" lon="15.421273110043522"><ele>21.4</ele><time>2026-04-30T15:31:55.001Z</time></trkpt><trkpt lat="38.23303922735449" lon="15.421417286734435"><ele>21.8</ele><time>2026-04-30T15:31:57.001Z</time></trkpt><trkpt lat="38.23303945005409" lon="15.421524376982807"><ele>22.2</ele><time>2026-04-30T15:31:58.001Z</time></trkpt><trkpt lat="38.233039791307405" lon="15.421625968218901"><ele>22.599999999999998</ele><time>2026-04-30T15:32:00.001Z</time></trkpt><trkpt lat="38.233039469145154" lon="15.421530061159178"><ele>23.0</ele><time>2026-04-30T15:32:15.001Z</time></trkpt><trkpt lat="38.233241620897644" lon="15.421397013340425"><ele>22.599999999999998</ele><time>2026-04-30T15:32:16.001Z</time></trkpt><trkpt lat="38.23324263000393" lon="15.421254672159408"><ele>22.2</ele><time>2026-04-30T15:32:17.001Z</time></trkpt><trkpt lat="38.233241544656536" lon="15.42109892525333"><ele>21.8</ele><time>2026-04-30T15:32:18.001Z</time></trkpt><trkpt lat="38.23324069841511" lon="15.420977490460588"><ele>21.4</ele><time>2026-04-30T15:32:19.001Z</time></trkpt><trkpt lat="38.23323983650514" lon="15.420853807079624"><ele>21.0</ele><time>2026-04-30T15:32:20.001Z</time></trkpt><trkpt lat="38.23307606518689" lon="15.42074872434628"><ele>21.0</ele><time>2026-04-30T15:32:21.001Z</time></trkpt><trkpt lat="38.23308274141796" lon="15.420640045815308"><ele>21.0</ele><time>2026-04-30T15:32:22.001Z</time></trkpt><trkpt lat="38.23309584412483" lon="15.42055021563635"><ele>21.0</ele><time>2026-04-30T15:32:23.001Z</time></trkpt><trkpt lat="38.233153257723444" lon="15.420397789559809"><ele>21.0</ele><time>2026-04-30T15:32:25.001Z</time></trkpt><trkpt lat="38.23322403029208" lon="15.420310344578345"><ele>21.0</ele><time>2026-04-30T15:32:27.001Z</time></trkpt><trkpt lat="38.2332801108513" lon="15.420243244620753"><ele>20.666666666666668</ele><time>2026-04-30T15:32:29.001Z</time></trkpt><trkpt lat="38.233331267880054" lon="15.420186149624708"><ele>20.333333333333332</ele><time>2026-04-30T15:32:31.001Z</time></trkpt><trkpt lat="38.23338547207869" lon="15.420131665225906"><ele>20.0</ele><time>2026-04-30T15:32:38.001Z</time></trkpt><trkpt lat="38.23343594873778" lon="15.420064704700303"><ele>19.666666666666664</ele><time>2026-04-30T15:32:49.001Z</time></trkpt><trkpt lat="38.23351306213137" lon="15.419979780509843"><ele>19.333333333333332</ele><time>2026-04-30T15:32:51.001Z</time></trkpt><trkpt lat="38.23355604014159" lon="15.419901776940987"><ele>19.0</ele><time>2026-04-30T15:32:54.001Z</time></trkpt><trkpt lat="38.2333902064533" lon="15.419658791971717"><ele>19.0</ele><time>2026-04-30T15:32:55.001Z</time></trkpt><trkpt lat="38.23331582287582" lon="15.4195738677072"><ele>19.0</ele><time>2026-04-30T15:32:56.001Z</time></trkpt><trkpt lat="38.23323521781978" lon="15.41949097963276"><ele>19.0</ele><time>2026-04-30T15:32:57.001Z</time></trkpt><trkpt lat="38.23319091813388" lon="15.419413597085084"><ele>19.0</ele><time>2026-04-30T15:32:59.001Z</time></trkpt><trkpt lat="38.23317271674932" lon="15.419313486866287"><ele>19.0</ele><time>2026-04-30T15:33:11Z</time></trkpt><trkpt lat="38.233097464257796" lon="15.419290644834955"><ele>19.0</ele><time>2026-04-30T15:34:08.001Z</time></trkpt><trkpt lat="38.23307217017438" lon="15.419413842063129"><ele>19.0</ele><time>2026-04-30T15:34:10.001Z</time></trkpt><trkpt lat="38.233062822843046" lon="15.419516578062707"><ele>19.0</ele><time>2026-04-30T15:34:11.001Z</time></trkpt><trkpt lat="38.23304866468436" lon="15.419603543947314"><ele>19.0</ele><time>2026-04-30T15:34:13.001Z</time></trkpt><trkpt lat="38.233034434509314" lon="15.41969095223107"><ele>19.0</ele><time>2026-04-30T15:34:19.001Z</time></trkpt><trkpt lat="38.23317478789236" lon="15.419780838539655"><ele>19.0</ele><time>2026-04-30T15:34:20.001Z</time></trkpt><trkpt lat="38.23326455472556" lon="15.419861703438137"><ele>19.0</ele><time>2026-04-30T15:34:21.001Z</time></trkpt><trkpt lat="38.233354301652994" lon="15.41995888013668"><ele>19.0</ele><time>2026-04-30T15:34:22.001Z</time></trkpt><trkpt lat="38.233421574837195" lon="15.420052378217578"><ele>19.0</ele><time>2026-04-30T15:34:23.001Z</time></trkpt><trkpt lat="38.23349619629208" lon="15.420124366458637"><ele>19.0</ele><time>2026-04-30T15:34:24.001Z</time></trkpt><trkpt lat="38.23353907026003" lon="15.420191338969454"><ele>19.0</ele><time>2026-04-30T15:34:25.001Z</time></trkpt><trkpt lat="38.233606697428485" lon="15.420312443886365"><ele>19.0</ele><time>2026-04-30T15:34:27.001Z</time></trkpt><trkpt lat="38.233668518369484" lon="15.420435446653713"><ele>19.0</ele><time>2026-04-30T15:34:29.001Z</time></trkpt><trkpt lat="38.2337155705077" lon="15.420533576594092"><ele>19.0</ele><time>2026-04-30T15:34:30.001Z</time></trkpt><trkpt lat="38.23376982684609" lon="15.420659068235642"><ele>19.0</ele><time>2026-04-30T15:34:31.001Z</time></trkpt><trkpt lat="38.23383037745512" lon="15.42081569675976"><ele>19.0</ele><time>2026-04-30T15:34:32.001Z</time></trkpt><trkpt lat="38.23385939865177" lon="15.42093779208427"><ele>19.0</ele><time>2026-04-30T15:34:33.001Z</time></trkpt><trkpt lat="38.23386816058099" lon="15.421047980185097"><ele>19.0</ele><time>2026-04-30T15:34:34.001Z</time></trkpt><trkpt lat="38.23384517254233" lon="15.421168854075095"><ele>19.0</ele><time>2026-04-30T15:34:35.001Z</time></trkpt><trkpt lat="38.23379024690152" lon="15.421296196062114"><ele>19.0</ele><time>2026-04-30T15:34:36.001Z</time></trkpt><trkpt lat="38.23369998574941" lon="15.421436137004383"><ele>19.0</ele><time>2026-04-30T15:34:37.001Z</time></trkpt><trkpt lat="38.233593173331165" lon="15.421572132365524"><ele>19.0</ele><time>2026-04-30T15:34:38.001Z</time></trkpt><trkpt lat="38.233461710051685" lon="15.421682541055802"><ele>19.0</ele><time>2026-04-30T15:34:39.001Z</time></trkpt><trkpt lat="38.233313136370974" lon="15.421779929828679"><ele>19.0</ele><time>2026-04-30T15:34:40.001Z</time></trkpt><trkpt lat="38.23316329583037" lon="15.42184379567068"><ele>19.0</ele><time>2026-04-30T15:34:41.001Z</time></trkpt><trkpt lat="38.233003143118964" lon="15.421868714939587"><ele>19.0</ele><time>2026-04-30T15:34:42.001Z</time></trkpt><trkpt lat="38.23284484929556" lon="15.421853156425433"><ele>20.333333333333332</ele><time>2026-04-30T15:34:43.001Z</time></trkpt><trkpt lat="38.23268290333023" lon="15.421814310830516"><ele>21.666666666666668</ele><time>2026-04-30T15:34:44.001Z</time></trkpt><trkpt lat="38.23252196125967" lon="15.421745367711104"><ele>23.0</ele><time>2026-04-30T15:34:45.001Z</time></trkpt><trkpt lat="38.23238017061322" lon="15.421660071828805"><ele>23.25</ele><time>2026-04-30T15:34:46.001Z</time></trkpt><trkpt lat="38.23230258822773" lon="15.4215366932998"><ele>23.5</ele><time>2026-04-30T15:34:47.001Z</time></trkpt><trkpt lat="38.23224372338545" lon="15.421421914931743"><ele>23.75</ele><time>2026-04-30T15:34:48.001Z</time></trkpt><trkpt lat="38.23218671601214" lon="15.421281699330923"><ele>24.0</ele><time>2026-04-30T15:34:49.001Z</time></trkpt><trkpt lat="38.23211356600122" lon="15.421102752265917"><ele>24.0</ele><time>2026-04-30T15:34:50.001Z</time></trkpt><trkpt lat="38.23203038608509" lon="15.420914198949808"><ele>24.0</ele><time>2026-04-30T15:34:51.001Z</time></trkpt><trkpt lat="38.23195360879342" lon="15.420705071073183"><ele>24.0</ele><time>2026-04-30T15:34:52.001Z</time></trkpt><trkpt lat="38.2318637772121" lon="15.420476214962589"><ele>24.0</ele><time>2026-04-30T15:34:53.001Z</time></trkpt><trkpt lat="38.23180360100749" lon="15.420296049771938"><ele>24.0</ele><time>2026-04-30T15:34:54.001Z</time></trkpt><trkpt lat="38.23175651459536" lon="15.42013575466565"><ele>24.0</ele><time>2026-04-30T15:34:55.001Z</time></trkpt><trkpt lat="38.23172976251686" lon="15.41997641399367"><ele>24.0</ele><time>2026-04-30T15:34:56.001Z</time></trkpt><trkpt lat="38.231718224811544" lon="15.419797698895755"><ele>24.25</ele><time>2026-04-30T15:34:57.001Z</time></trkpt><trkpt lat="38.23172749139792" lon="15.419628263324054"><ele>24.5</ele><time>2026-04-30T15:34:58.001Z</time></trkpt><trkpt lat="38.2317579964925" lon="15.419463259875183"><ele>24.75</ele><time>2026-04-30T15:34:59.001Z</time></trkpt><trkpt lat="38.231792058772285" lon="15.419285207683263"><ele>25.0</ele><time>2026-04-30T15:35:00.001Z</time></trkpt><trkpt lat="38.231820761500664" lon="15.419108495634813"><ele>25.0</ele><time>2026-04-30T15:35:01.001Z</time></trkpt><trkpt lat="38.23185832471894" lon="15.418940181192859"><ele>25.0</ele><time>2026-04-30T15:35:02.001Z</time></trkpt><trkpt lat="38.231899347401296" lon="15.418774889939064"><ele>25.0</ele><time>2026-04-30T15:35:03.001Z</time></trkpt><trkpt lat="38.23192775887345" lon="15.418601594742967"><ele>25.0</ele><time>2026-04-30T15:35:04.001Z</time></trkpt><trkpt lat="38.231946429771426" lon="15.418417520525455"><ele>28.333333333333336</ele><time>2026-04-30T15:35:05.001Z</time></trkpt><trkpt lat="38.2319562371458" lon="15.41820779252421"><ele>31.666666666666664</ele><time>2026-04-30T15:35:06.001Z</time></trkpt><trkpt lat="38.23196230941576" lon="15.417951623878634"><ele>35.0</ele><time>2026-04-30T15:35:07.001Z</time></trkpt><trkpt lat="38.23197111570527" lon="15.417627586173687"><ele>35.5</ele><time>2026-04-30T15:35:08Z</time></trkpt><trkpt lat="38.23196779607286" lon="15.417277543006172"><ele>36.0</ele><time>2026-04-30T15:35:09Z</time></trkpt><trkpt lat="38.23195303234073" lon="15.416915219097412"><ele>36.0</ele><time>2026-04-30T15:35:10Z</time></trkpt><trkpt lat="38.23193071771381" lon="15.41652888958626"><ele>36.0</ele><time>2026-04-30T15:35:11Z</time></trkpt><trkpt lat="38.23189732062883" lon="15.416160183372519"><ele>34.0</ele><time>2026-04-30T15:35:12Z</time></trkpt><trkpt lat="38.23184829200074" lon="15.415798379329493"><ele>32.0</ele><time>2026-04-30T15:35:13Z</time></trkpt><trkpt lat="38.23178232693741" lon="15.415422565025311"><ele>28.0</ele><time>2026-04-30T15:35:14Z</time></trkpt><trkpt lat="38.231700790135136" lon="15.41505943640679"><ele>24.0</ele><time>2026-04-30T15:35:15Z</time></trkpt><trkpt lat="38.23160530459506" lon="15.414706595639288"><ele>22.0</ele><time>2026-04-30T15:35:16Z</time></trkpt><trkpt lat="38.23149293518692" lon="15.414370816990813"><ele>20.0</ele><time>2026-04-30T15:35:17Z</time></trkpt><trkpt lat="38.23136233564377" lon="15.414032586338083"><ele>26.5</ele><time>2026-04-30T15:35:18Z</time></trkpt><trkpt lat="38.2312158121055" lon="15.413683171385227"><ele>33.0</ele><time>2026-04-30T15:35:19Z</time></trkpt><trkpt lat="38.23106133153891" lon="15.413325298568608"><ele>26.0</ele><time>2026-04-30T15:35:20Z</time></trkpt><trkpt lat="38.23089772255956" lon="15.41296801390358"><ele>19.0</ele><time>2026-04-30T15:35:21Z</time></trkpt><trkpt lat="38.230735340856775" lon="15.412623332389686"><ele>24.5</ele><time>2026-04-30T15:35:22Z</time></trkpt><trkpt lat="38.23057355915201" lon="15.412286316252516"><ele>30.0</ele><time>2026-04-30T15:35:23Z</time></trkpt><trkpt lat="38.230413298703354" lon="15.411945899111005"><ele>30.0</ele><time>2026-04-30T15:35:24Z</time></trkpt><trkpt lat="38.230247912415166" lon="15.411621571276674"><ele>30.0</ele><time>2026-04-30T15:35:25Z</time></trkpt><trkpt lat="38.230096070236705" lon="15.411287171922156"><ele>26.0</ele><time>2026-04-30T15:35:26Z</time></trkpt><trkpt lat="38.22993451107686" lon="15.410965347788512"><ele>22.0</ele><time>2026-04-30T15:35:27Z</time></trkpt><trkpt lat="38.22977115589594" lon="15.410646968374794"><ele>23.0</ele><time>2026-04-30T15:35:28Z</time></trkpt><trkpt lat="38.229601032234335" lon="15.410332461293063"><ele>24.0</ele><time>2026-04-30T15:35:29Z</time></trkpt><trkpt lat="38.229431794609916" lon="15.410014332931574"><ele>24.0</ele><time>2026-04-30T15:35:30Z</time></trkpt><trkpt lat="38.22926744464012" lon="15.409698147365866"><ele>24.0</ele><time>2026-04-30T15:35:31Z</time></trkpt><trkpt lat="38.22910886990072" lon="15.409383471478172"><ele>25.5</ele><time>2026-04-30T15:35:32Z</time></trkpt><trkpt lat="38.22897523954031" lon="15.40905571189747"><ele>27.0</ele><time>2026-04-30T15:35:33Z</time></trkpt><trkpt lat="38.22886334814466" lon="15.40872899889018"><ele>34.5</ele><time>2026-04-30T15:35:34Z</time></trkpt><trkpt lat="38.228759832213825" lon="15.408390112841294"><ele>42.0</ele><time>2026-04-30T15:35:35Z</time></trkpt><trkpt lat="38.228664970283695" lon="15.408049520112693"><ele>39.5</ele><time>2026-04-30T15:35:36Z</time></trkpt><trkpt lat="38.22857234937698" lon="15.407695489907908"><ele>37.0</ele><time>2026-04-30T15:35:37Z</time></trkpt><trkpt lat="38.22848636153521" lon="15.407340328385635"><ele>31.0</ele><time>2026-04-30T15:35:38Z</time></trkpt><trkpt lat="38.22840534397663" lon="15.406973244189775"><ele>25.0</ele><time>2026-04-30T15:35:39Z</time></trkpt><trkpt lat="38.22831412888348" lon="15.406608660527873"><ele>22.0</ele><time>2026-04-30T15:35:40Z</time></trkpt><trkpt lat="38.228175017387876" lon="15.406299651920767"><ele>19.0</ele><time>2026-04-30T15:35:41Z</time></trkpt><trkpt lat="38.228066371778105" lon="15.405962291567509"><ele>24.0</ele><time>2026-04-30T15:35:42Z</time></trkpt><trkpt lat="38.22796036544151" lon="15.405630255719723"><ele>29.0</ele><time>2026-04-30T15:35:43Z</time></trkpt><trkpt lat="38.22785312396146" lon="15.405302953330686"><ele>29.0</ele><time>2026-04-30T15:35:44Z</time></trkpt><trkpt lat="38.22774361167787" lon="15.404986258820008"><ele>29.0</ele><time>2026-04-30T15:35:45Z</time></trkpt><trkpt lat="38.22763010238778" lon="15.404667424967991"><ele>25.5</ele><time>2026-04-30T15:35:46Z</time></trkpt><trkpt lat="38.22751965790163" lon="15.404344316672065"><ele>22.0</ele><time>2026-04-30T15:35:47Z</time></trkpt><trkpt lat="38.22741603333934" lon="15.404024134240371"><ele>19.5</ele><time>2026-04-30T15:35:48Z</time></trkpt><trkpt lat="38.22731060358262" lon="15.403704844174616"><ele>17.0</ele><time>2026-04-30T15:35:49Z</time></trkpt><trkpt lat="38.22720654988127" lon="15.403390249448824"><ele>26.0</ele><time>2026-04-30T15:35:50Z</time></trkpt><trkpt lat="38.22710498778169" lon="15.403079886582093"><ele>35.0</ele><time>2026-04-30T15:35:51Z</time></trkpt><trkpt lat="38.227000279307184" lon="15.402768294105993"><ele>35.0</ele><time>2026-04-30T15:35:52Z</time></trkpt><trkpt lat="38.22689287794437" lon="15.402451140538803"><ele>35.0</ele><time>2026-04-30T15:35:53Z</time></trkpt><trkpt lat="38.22678714022308" lon="15.402124034005729"><ele>30.5</ele><time>2026-04-30T15:35:54Z</time></trkpt><trkpt lat="38.22668452858044" lon="15.401812482206052"><ele>26.0</ele><time>2026-04-30T15:35:55Z</time></trkpt><trkpt lat="38.226580190158714" lon="15.401509931994461"><ele>25.5</ele><time>2026-04-30T15:35:56Z</time></trkpt><trkpt lat="38.22646866788844" lon="15.40120642840447"><ele>25.0</ele><time>2026-04-30T15:35:57Z</time></trkpt><trkpt lat="38.22635952886299" lon="15.400900172984818"><ele>25.0</ele><time>2026-04-30T15:35:58Z</time></trkpt><trkpt lat="38.22626074879256" lon="15.400572304209165"><ele>25.0</ele><time>2026-04-30T15:35:59Z</time></trkpt><trkpt lat="38.22615077680113" lon="15.400243109019284"><ele>28.0</ele><time>2026-04-30T15:36:00Z</time></trkpt><trkpt lat="38.22603618866859" lon="15.399911978559777"><ele>31.0</ele><time>2026-04-30T15:36:01Z</time></trkpt><trkpt lat="38.225920846459985" lon="15.399573934811775"><ele>39.5</ele><time>2026-04-30T15:36:02Z</time></trkpt><trkpt lat="38.22579007255446" lon="15.399239573456317"><ele>48.0</ele><time>2026-04-30T15:36:03Z</time></trkpt><trkpt lat="38.225661300956155" lon="15.398907363001712"><ele>62.5</ele><time>2026-04-30T15:36:04Z</time></trkpt><trkpt lat="38.22551682162181" lon="15.398580604833452"><ele>77.0</ele><time>2026-04-30T15:36:05Z</time></trkpt><trkpt lat="38.225381601852234" lon="15.398255527091946"><ele>67.5</ele><time>2026-04-30T15:36:06Z</time></trkpt><trkpt lat="38.225242305147574" lon="15.397926300747107"><ele>58.0</ele><time>2026-04-30T15:36:07Z</time></trkpt><trkpt lat="38.22510293326872" lon="15.397596160685538"><ele>58.0</ele><time>2026-04-30T15:36:08Z</time></trkpt><trkpt lat="38.22498257638797" lon="15.397203196960463"><ele>58.0</ele><time>2026-04-30T15:36:09.068Z</time></trkpt><trkpt lat="38.22484631761985" lon="15.396871774660347"><ele>16.0</ele><time>2026-04-30T15:36:10.066Z</time></trkpt><trkpt lat="38.224961387031264" lon="15.396146699083223"><ele>16.0</ele><time>2026-04-30T15:36:12Z</time></trkpt><trkpt lat="38.224952484926995" lon="15.395729897013569"><ele>16.0</ele><time>2026-04-30T15:36:13Z</time></trkpt><trkpt lat="38.224885496622065" lon="15.39535542395426"><ele>16.5</ele><time>2026-04-30T15:36:14Z</time></trkpt><trkpt lat="38.2248241143092" lon="15.394966990527077"><ele>17.0</ele><time>2026-04-30T15:36:15Z</time></trkpt><trkpt lat="38.22475312455141" lon="15.394594113253303"><ele>32.0</ele><time>2026-04-30T15:36:16Z</time></trkpt><trkpt lat="38.224674038495344" lon="15.394216246323351"><ele>47.0</ele><time>2026-04-30T15:36:17Z</time></trkpt><trkpt lat="38.22458041258511" lon="15.393848951315139"><ele>45.0</ele><time>2026-04-30T15:36:18Z</time></trkpt><trkpt lat="38.22448266777964" lon="15.39349308265892"><ele>43.0</ele><time>2026-04-30T15:36:19Z</time></trkpt><trkpt lat="38.22438214133494" lon="15.393131114899937"><ele>41.5</ele><time>2026-04-30T15:36:20Z</time></trkpt><trkpt lat="38.22427239391307" lon="15.392765928447073"><ele>40.0</ele><time>2026-04-30T15:36:21Z</time></trkpt><trkpt lat="38.224150953938135" lon="15.392404396720874"><ele>38.5</ele><time>2026-04-30T15:36:22Z</time></trkpt><trkpt lat="38.22403181726029" lon="15.392037025069161"><ele>37.0</ele><time>2026-04-30T15:36:23Z</time></trkpt><trkpt lat="38.22390324072452" lon="15.391679216269809"><ele>38.5</ele><time>2026-04-30T15:36:24Z</time></trkpt><trkpt lat="38.22378405526495" lon="15.391325158447076"><ele>40.0</ele><time>2026-04-30T15:36:25Z</time></trkpt><trkpt lat="38.22365634939312" lon="15.390963068688563"><ele>40.0</ele><time>2026-04-30T15:36:26Z</time></trkpt><trkpt lat="38.223531236328505" lon="15.390609220526361"><ele>40.0</ele><time>2026-04-30T15:36:27Z</time></trkpt><trkpt lat="38.223414505708654" lon="15.39026561918517"><ele>35.0</ele><time>2026-04-30T15:36:28Z</time></trkpt><trkpt lat="38.223289678956704" lon="15.389927432779253"><ele>30.0</ele><time>2026-04-30T15:36:29Z</time></trkpt><trkpt lat="38.22316415328243" lon="15.389584584190803"><ele>37.5</ele><time>2026-04-30T15:36:30Z</time></trkpt><trkpt lat="38.223026047122914" lon="15.389257039680318"><ele>45.0</ele><time>2026-04-30T15:36:31Z</time></trkpt><trkpt lat="38.22287597115308" lon="15.388927132420212"><ele>57.0</ele><time>2026-04-30T15:36:32Z</time></trkpt><trkpt lat="38.22271946343572" lon="15.388604016797602"><ele>69.0</ele><time>2026-04-30T15:36:33Z</time></trkpt><trkpt lat="38.22255908819474" lon="15.388302350046063"><ele>69.0</ele><time>2026-04-30T15:36:34Z</time></trkpt><trkpt lat="38.22239992899205" lon="15.38800747636763"><ele>69.0</ele><time>2026-04-30T15:36:35Z</time></trkpt><trkpt lat="38.22223220504181" lon="15.38771603003394"><ele>66.5</ele><time>2026-04-30T15:36:36Z</time></trkpt><trkpt lat="38.22207041079722" lon="15.38742870893634"><ele>64.0</ele><time>2026-04-30T15:36:37Z</time></trkpt><trkpt lat="38.221907395102754" lon="15.387140884300615"><ele>64.0</ele><time>2026-04-30T15:36:38Z</time></trkpt><trkpt lat="38.221742492824056" lon="15.386854482762391"><ele>64.0</ele><time>2026-04-30T15:36:39Z</time></trkpt><trkpt lat="38.22157051612687" lon="15.386546353573543"><ele>56.5</ele><time>2026-04-30T15:36:40.065Z</time></trkpt><trkpt lat="38.22140930195747" lon="15.386265986967127"><ele>49.0</ele><time>2026-04-30T15:36:41.064Z</time></trkpt><trkpt lat="38.220592139485206" lon="15.385486704118133"><ele>46.0</ele><time>2026-04-30T15:36:44Z</time></trkpt><trkpt lat="38.2203461850894" lon="15.38530450268047"><ele>43.0</ele><time>2026-04-30T15:36:45Z</time></trkpt><trkpt lat="38.22010116436427" lon="15.385125581121281"><ele>43.0</ele><time>2026-04-30T15:36:46Z</time></trkpt><trkpt lat="38.219867338304674" lon="15.38493309036174"><ele>43.0</ele><time>2026-04-30T15:36:47Z</time></trkpt><trkpt lat="38.21964705943995" lon="15.384737509871846"><ele>44.0</ele><time>2026-04-30T15:36:48Z</time></trkpt><trkpt lat="38.219426452526704" lon="15.38453499100602"><ele>45.0</ele><time>2026-04-30T15:36:49Z</time></trkpt><trkpt lat="38.21921265273927" lon="15.384334676874827"><ele>45.0</ele><time>2026-04-30T15:36:50Z</time></trkpt><trkpt lat="38.219006015807345" lon="15.38414851759325"><ele>45.0</ele><time>2026-04-30T15:36:51Z</time></trkpt><trkpt lat="38.21880110321833" lon="15.383963255397285"><ele>43.0</ele><time>2026-04-30T15:36:52.001Z</time></trkpt><trkpt lat="38.21861082102993" lon="15.383783953458414"><ele>41.0</ele><time>2026-04-30T15:36:53.001Z</time></trkpt><trkpt lat="38.2184035059595" lon="15.383593183140912"><ele>41.0</ele><time>2026-04-30T15:36:54.001Z</time></trkpt><trkpt lat="38.21817298270036" lon="15.383365690721437"><ele>41.0</ele><time>2026-04-30T15:36:55.001Z</time></trkpt><trkpt lat="38.217922930087944" lon="15.383128268300387"><ele>46.0</ele><time>2026-04-30T15:36:56.001Z</time></trkpt><trkpt lat="38.217666677995034" lon="15.382888924569361"><ele>51.0</ele><time>2026-04-30T15:36:57.001Z</time></trkpt><trkpt lat="38.217402423696065" lon="15.382639440604308"><ele>54.5</ele><time>2026-04-30T15:36:58.001Z</time></trkpt><trkpt lat="38.21713774982097" lon="15.382394245574611"><ele>58.0</ele><time>2026-04-30T15:36:59.001Z</time></trkpt><trkpt lat="38.21686550305797" lon="15.382139440051661"><ele>59.0</ele><time>2026-04-30T15:37:00.001Z</time></trkpt><trkpt lat="38.21658906843856" lon="15.381876523392124"><ele>60.0</ele><time>2026-04-30T15:37:01.001Z</time></trkpt><trkpt lat="38.21631055365765" lon="15.38161503038687"><ele>60.5</ele><time>2026-04-30T15:37:02.001Z</time></trkpt><trkpt lat="38.21602880450202" lon="15.381355090736536"><ele>61.0</ele><time>2026-04-30T15:37:03.001Z</time></trkpt><trkpt lat="38.21575430330806" lon="15.381094616431637"><ele>57.0</ele><time>2026-04-30T15:37:04.001Z</time></trkpt><trkpt lat="38.21549395904345" lon="15.380834346279594"><ele>53.0</ele><time>2026-04-30T15:37:05.001Z</time></trkpt><trkpt lat="38.215243668427334" lon="15.380558389620216"><ele>51.0</ele><time>2026-04-30T15:37:06.001Z</time></trkpt><trkpt lat="38.21500096376939" lon="15.380283999275598"><ele>49.0</ele><time>2026-04-30T15:37:07.001Z</time></trkpt><trkpt lat="38.21476378548434" lon="15.380009703237631"><ele>57.0</ele><time>2026-04-30T15:37:08.001Z</time></trkpt><trkpt lat="38.21453925379454" lon="15.379723973736693"><ele>65.0</ele><time>2026-04-30T15:37:09.001Z</time></trkpt><trkpt lat="38.21432259717619" lon="15.379438831950415"><ele>67.0</ele><time>2026-04-30T15:37:10.001Z</time></trkpt><trkpt lat="38.21412138717724" lon="15.379145550937817"><ele>69.0</ele><time>2026-04-30T15:37:11.001Z</time></trkpt><trkpt lat="38.213928732115065" lon="15.378852284174963"><ele>79.5</ele><time>2026-04-30T15:37:12.001Z</time></trkpt><trkpt lat="38.21374273718146" lon="15.378556726272395"><ele>90.0</ele><time>2026-04-30T15:37:13.001Z</time></trkpt><trkpt lat="38.21355750679718" lon="15.378262847377842"><ele>90.5</ele><time>2026-04-30T15:37:14Z</time></trkpt><trkpt lat="38.21336920687724" lon="15.377968936885427"><ele>91.0</ele><time>2026-04-30T15:37:15Z</time></trkpt><trkpt lat="38.21317938176474" lon="15.377675677975802"><ele>91.5</ele><time>2026-04-30T15:37:16Z</time></trkpt><trkpt lat="38.213054885103205" lon="15.377357073016224"><ele>92.0</ele><time>2026-04-30T15:37:17Z</time></trkpt><trkpt lat="38.21291930569536" lon="15.377023737693948"><ele>83.0</ele><time>2026-04-30T15:37:18.07Z</time></trkpt><trkpt lat="38.21279618491053" lon="15.376706229353577"><ele>74.0</ele><time>2026-04-30T15:37:19.069Z</time></trkpt><trkpt lat="38.212675382793115" lon="15.376368262422648"><ele>49.0</ele><time>2026-04-30T15:37:20.067Z</time></trkpt><trkpt lat="38.212277491911735" lon="15.37578744649131"><ele>45.0</ele><time>2026-04-30T15:37:22Z</time></trkpt><trkpt lat="38.21233520420517" lon="15.375245022445013"><ele>41.0</ele><time>2026-04-30T15:37:23Z</time></trkpt><trkpt lat="38.21227010160972" lon="15.374844076274544"><ele>46.5</ele><time>2026-04-30T15:37:24Z</time></trkpt><trkpt lat="38.212193466874595" lon="15.374455958904695"><ele>52.0</ele><time>2026-04-30T15:37:25Z</time></trkpt><trkpt lat="38.2121068309407" lon="15.37408146273702"><ele>61.0</ele><time>2026-04-30T15:37:26Z</time></trkpt><trkpt lat="38.21200944780512" lon="15.373700852620622"><ele>70.0</ele><time>2026-04-30T15:37:27Z</time></trkpt><trkpt lat="38.211910564383444" lon="15.373333211993613"><ele>79.0</ele><time>2026-04-30T15:37:28Z</time></trkpt><trkpt lat="38.21180855441256" lon="15.372942698224392"><ele>88.0</ele><time>2026-04-30T15:37:29Z</time></trkpt><trkpt lat="38.21171236512141" lon="15.372599359734991"><ele>88.0</ele><time>2026-04-30T15:37:30Z</time></trkpt><trkpt lat="38.21163384679793" lon="15.372255121682294"><ele>88.0</ele><time>2026-04-30T15:37:31Z</time></trkpt><trkpt lat="38.21156221944691" lon="15.371871372844474"><ele>82.5</ele><time>2026-04-30T15:37:32Z</time></trkpt><trkpt lat="38.21148769286625" lon="15.371491444291147"><ele>77.0</ele><time>2026-04-30T15:37:33Z</time></trkpt><trkpt lat="38.21139177420329" lon="15.371125164401397"><ele>68.5</ele><time>2026-04-30T15:37:34Z</time></trkpt><trkpt lat="38.21123894914806" lon="15.370718796601741"><ele>60.0</ele><time>2026-04-30T15:37:35Z</time></trkpt><trkpt lat="38.2111343022272" lon="15.370317182254954"><ele>60.0</ele><time>2026-04-30T15:37:36Z</time></trkpt><trkpt lat="38.21101261882493" lon="15.369928898718795"><ele>60.0</ele><time>2026-04-30T15:37:37Z</time></trkpt><trkpt lat="38.21089180151705" lon="15.369548269594736"><ele>62.0</ele><time>2026-04-30T15:37:38Z</time></trkpt><trkpt lat="38.210771072507036" lon="15.369173614038928"><ele>64.0</ele><time>2026-04-30T15:37:39Z</time></trkpt><trkpt lat="38.210664086780035" lon="15.368810547089632"><ele>65.5</ele><time>2026-04-30T15:37:40.001Z</time></trkpt><trkpt lat="38.210529301810475" lon="15.36844262851407"><ele>67.0</ele><time>2026-04-30T15:37:41.001Z</time></trkpt><trkpt lat="38.21038551871528" lon="15.368081458202447"><ele>62.5</ele><time>2026-04-30T15:37:42.001Z</time></trkpt><trkpt lat="38.21023663328539" lon="15.367730997226987"><ele>58.0</ele><time>2026-04-30T15:37:43.001Z</time></trkpt><trkpt lat="38.210078559142794" lon="15.367383139910695"><ele>52.0</ele><time>2026-04-30T15:37:44.001Z</time></trkpt><trkpt lat="38.20992202912573" lon="15.367040066585744"><ele>46.0</ele><time>2026-04-30T15:37:45.001Z</time></trkpt><trkpt lat="38.20975052204234" lon="15.366692473220148"><ele>43.0</ele><time>2026-04-30T15:37:46.001Z</time></trkpt><trkpt lat="38.209579636258105" lon="15.36634466205461"><ele>40.0</ele><time>2026-04-30T15:37:47.001Z</time></trkpt><trkpt lat="38.20941913180449" lon="15.365994740668976"><ele>40.0</ele><time>2026-04-30T15:37:48.001Z</time></trkpt><trkpt lat="38.20927158054651" lon="15.36563877551814"><ele>40.0</ele><time>2026-04-30T15:37:49.001Z</time></trkpt><trkpt lat="38.20912890759709" lon="15.365275264024305"><ele>45.5</ele><time>2026-04-30T15:37:50.001Z</time></trkpt><trkpt lat="38.208996771470574" lon="15.364911350035465"><ele>51.0</ele><time>2026-04-30T15:37:51.001Z</time></trkpt><trkpt lat="38.20886254558759" lon="15.364551250578211"><ele>67.5</ele><time>2026-04-30T15:37:52.001Z</time></trkpt><trkpt lat="38.20875144477299" lon="15.364199356013444"><ele>84.0</ele><time>2026-04-30T15:37:53.001Z</time></trkpt><trkpt lat="38.20862827957941" lon="15.36383570354993"><ele>90.0</ele><time>2026-04-30T15:37:54.001Z</time></trkpt><trkpt lat="38.20849620073496" lon="15.3634588233225"><ele>96.0</ele><time>2026-04-30T15:37:55.001Z</time></trkpt><trkpt lat="38.208439564661994" lon="15.36307067564162"><ele>95.0</ele><time>2026-04-30T15:37:56.001Z</time></trkpt><trkpt lat="38.208383542616176" lon="15.362690707784475"><ele>94.0</ele><time>2026-04-30T15:37:57.001Z</time></trkpt><trkpt lat="38.208339061066276" lon="15.362303724572541"><ele>86.0</ele><time>2026-04-30T15:37:58.001Z</time></trkpt><trkpt lat="38.20829613863488" lon="15.36187542829577"><ele>78.0</ele><time>2026-04-30T15:37:59.072Z</time></trkpt><trkpt lat="38.20825638318739" lon="15.361470408022686"><ele>61.0</ele><time>2026-04-30T15:38:00.075Z</time></trkpt><trkpt lat="38.20808734875677" lon="15.359864046871516"><ele>64.0</ele><time>2026-04-30T15:38:04.001Z</time></trkpt><trkpt lat="38.20803367108418" lon="15.359434193547305"><ele>67.0</ele><time>2026-04-30T15:38:05.001Z</time></trkpt><trkpt lat="38.207994163706594" lon="15.35898411068744"><ele>38.0</ele><time>2026-04-30T15:38:06.001Z</time></trkpt><trkpt lat="38.20755296329069" lon="15.3569364220509"><ele>38.0</ele><time>2026-04-30T15:38:11.001Z</time></trkpt><trkpt lat="38.207464509789304" lon="15.356534719350867"><ele>38.0</ele><time>2026-04-30T15:38:12.001Z</time></trkpt><trkpt lat="38.20728657908212" lon="15.356050378437423"><ele>35.0</ele><time>2026-04-30T15:38:13.001Z</time></trkpt><trkpt lat="38.207177510820536" lon="15.355610182288066"><ele>32.0</ele><time>2026-04-30T15:38:14.001Z</time></trkpt><trkpt lat="38.207070942985624" lon="15.355200895903135"><ele>32.0</ele><time>2026-04-30T15:38:15.001Z</time></trkpt><trkpt lat="38.2069726059461" lon="15.354793836639798"><ele>32.0</ele><time>2026-04-30T15:38:16.001Z</time></trkpt><trkpt lat="38.20687609697095" lon="15.354394814518631"><ele>32.5</ele><time>2026-04-30T15:38:17.001Z</time></trkpt><trkpt lat="38.206785812302336" lon="15.353984098524451"><ele>33.0</ele><time>2026-04-30T15:38:18.001Z</time></trkpt><trkpt lat="38.20670794175156" lon="15.35358634965236"><ele>30.5</ele><time>2026-04-30T15:38:19.001Z</time></trkpt><trkpt lat="38.20664387915329" lon="15.35319184455543"><ele>28.0</ele><time>2026-04-30T15:38:20.001Z</time></trkpt><trkpt lat="38.20658826730606" lon="15.352797510954948"><ele>26.0</ele><time>2026-04-30T15:38:21.001Z</time></trkpt><trkpt lat="38.206544229418085" lon="15.352400175680067"><ele>24.0</ele><time>2026-04-30T15:38:22.001Z</time></trkpt><trkpt lat="38.2065178890453" lon="15.35196275768123"><ele>23.5</ele><time>2026-04-30T15:38:23.001Z</time></trkpt><trkpt lat="38.20649523021581" lon="15.35158270496698"><ele>23.0</ele><time>2026-04-30T15:38:24.001Z</time></trkpt><trkpt lat="38.20647906134055" lon="15.351171005822916"><ele>21.5</ele><time>2026-04-30T15:38:25.001Z</time></trkpt><trkpt lat="38.206457950161855" lon="15.350754979743153"><ele>20.0</ele><time>2026-04-30T15:38:26.001Z</time></trkpt><trkpt lat="38.206441109486114" lon="15.350345124042303"><ele>20.0</ele><time>2026-04-30T15:38:27.001Z</time></trkpt><trkpt lat="38.206423891704425" lon="15.349947374120687"><ele>20.0</ele><time>2026-04-30T15:38:28.001Z</time></trkpt><trkpt lat="38.20640072529275" lon="15.349562046440651"><ele>20.0</ele><time>2026-04-30T15:38:29.001Z</time></trkpt><trkpt lat="38.20637564112744" lon="15.3491854410506"><ele>20.0</ele><time>2026-04-30T15:38:30.001Z</time></trkpt><trkpt lat="38.2063341473193" lon="15.34879112198661"><ele>20.0</ele><time>2026-04-30T15:38:31.001Z</time></trkpt><trkpt lat="38.206282001521316" lon="15.34841962693982"><ele>20.0</ele><time>2026-04-30T15:38:32.001Z</time></trkpt><trkpt lat="38.20621399323787" lon="15.348043297429633"><ele>18.5</ele><time>2026-04-30T15:38:33.001Z</time></trkpt><trkpt lat="38.206135356000274" lon="15.347667758201325"><ele>17.0</ele><time>2026-04-30T15:38:34.001Z</time></trkpt><trkpt lat="38.206044101267004" lon="15.347276382002352"><ele>17.5</ele><time>2026-04-30T15:38:35.001Z</time></trkpt><trkpt lat="38.205939766782365" lon="15.346897054270473"><ele>18.0</ele><time>2026-04-30T15:38:36.001Z</time></trkpt><trkpt lat="38.20582290608574" lon="15.346537800842857"><ele>18.0</ele><time>2026-04-30T15:38:37.001Z</time></trkpt><trkpt lat="38.20569387669458" lon="15.34618202894002"><ele>18.0</ele><time>2026-04-30T15:38:38.001Z</time></trkpt><trkpt lat="38.20554558584799" lon="15.345833347400728"><ele>18.0</ele><time>2026-04-30T15:38:39.001Z</time></trkpt><trkpt lat="38.20538366348758" lon="15.345489237551176"><ele>18.0</ele><time>2026-04-30T15:38:40.001Z</time></trkpt><trkpt lat="38.20520937510215" lon="15.345150406895451"><ele>18.0</ele><time>2026-04-30T15:38:41.001Z</time></trkpt><trkpt lat="38.205016799322756" lon="15.344819047967405"><ele>18.0</ele><time>2026-04-30T15:38:42.001Z</time></trkpt><trkpt lat="38.20481783366835" lon="15.344500665454865"><ele>18.0</ele><time>2026-04-30T15:38:43.001Z</time></trkpt><trkpt lat="38.20461194965137" lon="15.344173875745438"><ele>18.0</ele><time>2026-04-30T15:38:44.001Z</time></trkpt><trkpt lat="38.204413412374564" lon="15.343847767843423"><ele>17.5</ele><time>2026-04-30T15:38:45.001Z</time></trkpt><trkpt lat="38.20421287035577" lon="15.343514272711982"><ele>17.0</ele><time>2026-04-30T15:38:46.001Z</time></trkpt><trkpt lat="38.20401296455569" lon="15.343183896968016"><ele>18.0</ele><time>2026-04-30T15:38:47.001Z</time></trkpt><trkpt lat="38.20381177751991" lon="15.342848226476319"><ele>19.0</ele><time>2026-04-30T15:38:48.001Z</time></trkpt><trkpt lat="38.20362464331134" lon="15.342518566382896"><ele>18.0</ele><time>2026-04-30T15:38:49.001Z</time></trkpt><trkpt lat="38.203451076611934" lon="15.342178234702903"><ele>17.0</ele><time>2026-04-30T15:38:50.001Z</time></trkpt><trkpt lat="38.203285880153324" lon="15.341829712003063"><ele>19.0</ele><time>2026-04-30T15:38:51.001Z</time></trkpt><trkpt lat="38.20313349991065" lon="15.341482959634027"><ele>21.0</ele><time>2026-04-30T15:38:52.001Z</time></trkpt><trkpt lat="38.202986519046725" lon="15.341125372469754"><ele>21.0</ele><time>2026-04-30T15:38:53.001Z</time></trkpt><trkpt lat="38.20285639329638" lon="15.34077020184982"><ele>21.0</ele><time>2026-04-30T15:38:54.001Z</time></trkpt><trkpt lat="38.20273168862809" lon="15.340398209111646"><ele>20.5</ele><time>2026-04-30T15:38:55.001Z</time></trkpt><trkpt lat="38.20260763704569" lon="15.340017282197637"><ele>20.0</ele><time>2026-04-30T15:38:56.001Z</time></trkpt><trkpt lat="38.20248476196308" lon="15.339628429246634"><ele>19.5</ele><time>2026-04-30T15:38:57.001Z</time></trkpt><trkpt lat="38.20236250378724" lon="15.339243441949593"><ele>19.0</ele><time>2026-04-30T15:38:58.001Z</time></trkpt><trkpt lat="38.202240542733975" lon="15.338854284181297"><ele>19.0</ele><time>2026-04-30T15:38:59.002Z</time></trkpt><trkpt lat="38.20211572410868" lon="15.33845996615378"><ele>19.0</ele><time>2026-04-30T15:39:00.002Z</time></trkpt><trkpt lat="38.20198704267885" lon="15.338056274486386"><ele>19.0</ele><time>2026-04-30T15:39:01.002Z</time></trkpt><trkpt lat="38.20185493895338" lon="15.33765622748593"><ele>19.0</ele><time>2026-04-30T15:39:02.002Z</time></trkpt><trkpt lat="38.2017196854025" lon="15.337251676308133"><ele>19.5</ele><time>2026-04-30T15:39:03.002Z</time></trkpt><trkpt lat="38.201581726641656" lon="15.336849201737035"><ele>20.0</ele><time>2026-04-30T15:39:04.002Z</time></trkpt><trkpt lat="38.20144505882195" lon="15.336460244667858"><ele>21.0</ele><time>2026-04-30T15:39:05.002Z</time></trkpt><trkpt lat="38.20130986745736" lon="15.33609108190234"><ele>22.0</ele><time>2026-04-30T15:39:06.002Z</time></trkpt><trkpt lat="38.201176206774" lon="15.335726597103786"><ele>20.5</ele><time>2026-04-30T15:39:07.002Z</time></trkpt><trkpt lat="38.201043015201066" lon="15.335371248926023"><ele>19.0</ele><time>2026-04-30T15:39:08.002Z</time></trkpt><trkpt lat="38.200912692699305" lon="15.335016034272007"><ele>18.5</ele><time>2026-04-30T15:39:09.002Z</time></trkpt><trkpt lat="38.20077763681775" lon="15.334655468062584"><ele>18.0</ele><time>2026-04-30T15:39:10.002Z</time></trkpt><trkpt lat="38.20064601115202" lon="15.334303700893662"><ele>20.5</ele><time>2026-04-30T15:39:11.002Z</time></trkpt><trkpt lat="38.200515484161436" lon="15.333956899559846"><ele>23.0</ele><time>2026-04-30T15:39:12.002Z</time></trkpt><trkpt lat="38.200389470329945" lon="15.333622042164444"><ele>23.0</ele><time>2026-04-30T15:39:13.002Z</time></trkpt><trkpt lat="38.20026808986195" lon="15.333297322986489"><ele>23.0</ele><time>2026-04-30T15:39:14.002Z</time></trkpt><trkpt lat="38.200150734583836" lon="15.332979249469302"><ele>22.5</ele><time>2026-04-30T15:39:15.002Z</time></trkpt><trkpt lat="38.200039747525516" lon="15.33265712392831"><ele>22.0</ele><time>2026-04-30T15:39:16.002Z</time></trkpt><trkpt lat="38.19993968116738" lon="15.332341738779217"><ele>24.5</ele><time>2026-04-30T15:39:17.002Z</time></trkpt><trkpt lat="38.199851944809176" lon="15.332025568463635"><ele>27.0</ele><time>2026-04-30T15:39:18.002Z</time></trkpt><trkpt lat="38.19977297067026" lon="15.331707577431475"><ele>39.0</ele><time>2026-04-30T15:39:19.002Z</time></trkpt><trkpt lat="38.19969643003007" lon="15.331386330265714"><ele>51.0</ele><time>2026-04-30T15:39:20.001Z</time></trkpt><trkpt lat="38.19962626042496" lon="15.33107013069919"><ele>51.0</ele><time>2026-04-30T15:39:21.001Z</time></trkpt><trkpt lat="38.199562403513376" lon="15.33075910255048"><ele>51.0</ele><time>2026-04-30T15:39:22.001Z</time></trkpt><trkpt lat="38.19950295995805" lon="15.330450753926202"><ele>58.0</ele><time>2026-04-30T15:39:23.001Z</time></trkpt><trkpt lat="38.19944722287205" lon="15.330143350000085"><ele>65.0</ele><time>2026-04-30T15:39:24.001Z</time></trkpt><trkpt lat="38.19938890879054" lon="15.329832192806768"><ele>72.5</ele><time>2026-04-30T15:39:25.001Z</time></trkpt><trkpt lat="38.199330579281565" lon="15.32951949762694"><ele>80.0</ele><time>2026-04-30T15:39:26.001Z</time></trkpt><trkpt lat="38.19929888508485" lon="15.329179954219144"><ele>80.0</ele><time>2026-04-30T15:39:27.001Z</time></trkpt><trkpt lat="38.19927267071558" lon="15.328822021935014"><ele>80.0</ele><time>2026-04-30T15:39:28.071Z</time></trkpt><trkpt lat="38.19925404802932" lon="15.328499867196351"><ele>80.0</ele><time>2026-04-30T15:39:29.068Z</time></trkpt><trkpt lat="38.1992394907813" lon="15.328189400923035"><ele>80.0</ele><time>2026-04-30T15:39:30.068Z</time></trkpt><trkpt lat="38.199226582422334" lon="15.327896600127573"><ele>74.0</ele><time>2026-04-30T15:39:31.066Z</time></trkpt><trkpt lat="38.199214165460965" lon="15.327591875685112"><ele>68.0</ele><time>2026-04-30T15:39:32.063Z</time></trkpt><trkpt lat="38.19912345206105" lon="15.324924258464655"><ele>44.5</ele><time>2026-04-30T15:39:39.001Z</time></trkpt><trkpt lat="38.19908805302859" lon="15.3246244756613"><ele>21.0</ele><time>2026-04-30T15:39:40.001Z</time></trkpt><trkpt lat="38.19904672521692" lon="15.324318993776547"><ele>21.333333333333332</ele><time>2026-04-30T15:39:41.001Z</time></trkpt><trkpt lat="38.198986177517135" lon="15.324074306571115"><ele>21.666666666666664</ele><time>2026-04-30T15:39:42.001Z</time></trkpt><trkpt lat="38.198932008036785" lon="15.32382998853221"><ele>22.0</ele><time>2026-04-30T15:39:43.001Z</time></trkpt><trkpt lat="38.19888147180935" lon="15.323582597232802"><ele>21.333333333333332</ele><time>2026-04-30T15:39:44.001Z</time></trkpt><trkpt lat="38.19884171320973" lon="15.323384096259574"><ele>20.666666666666668</ele><time>2026-04-30T15:39:45.001Z</time></trkpt><trkpt lat="38.198783880064695" lon="15.323172122707799"><ele>20.0</ele><time>2026-04-30T15:39:46.001Z</time></trkpt><trkpt lat="38.19873123141573" lon="15.322980815516926"><ele>20.0</ele><time>2026-04-30T15:39:47.001Z</time></trkpt><trkpt lat="38.19866227148755" lon="15.32277331458336"><ele>20.0</ele><time>2026-04-30T15:39:48.001Z</time></trkpt><trkpt lat="38.198604819338776" lon="15.322538625153145"><ele>20.0</ele><time>2026-04-30T15:39:49.001Z</time></trkpt><trkpt lat="38.19853192274204" lon="15.322317496726177"><ele>19.666666666666668</ele><time>2026-04-30T15:39:50.001Z</time></trkpt><trkpt lat="38.19844529641213" lon="15.322084758797319"><ele>19.333333333333332</ele><time>2026-04-30T15:39:51.001Z</time></trkpt><trkpt lat="38.198353137480254" lon="15.321842037279293"><ele>19.0</ele><time>2026-04-30T15:39:52.001Z</time></trkpt><trkpt lat="38.1982629284671" lon="15.321616266201843"><ele>20.0</ele><time>2026-04-30T15:39:53.001Z</time></trkpt><trkpt lat="38.19816760400033" lon="15.321356802164306"><ele>21.0</ele><time>2026-04-30T15:39:54.001Z</time></trkpt><trkpt lat="38.19806882657544" lon="15.321084068212087"><ele>21.0</ele><time>2026-04-30T15:39:55.001Z</time></trkpt><trkpt lat="38.197958456441874" lon="15.320789867475845"><ele>21.0</ele><time>2026-04-30T15:39:56.001Z</time></trkpt><trkpt lat="38.19784564495151" lon="15.320476662301983"><ele>21.5</ele><time>2026-04-30T15:39:57.001Z</time></trkpt><trkpt lat="38.197758585989284" lon="15.320200572609279"><ele>22.0</ele><time>2026-04-30T15:39:58.001Z</time></trkpt><trkpt lat="38.19764872661172" lon="15.31991932388099"><ele>21.666666666666664</ele><time>2026-04-30T15:39:59.001Z</time></trkpt><trkpt lat="38.19754444650598" lon="15.319660350673178"><ele>21.333333333333332</ele><time>2026-04-30T15:40:00.001Z</time></trkpt><trkpt lat="38.197454499302104" lon="15.319431570727765"><ele>21.0</ele><time>2026-04-30T15:40:01.001Z</time></trkpt><trkpt lat="38.19736026363784" lon="15.319176979279886"><ele>21.5</ele><time>2026-04-30T15:40:02.001Z</time></trkpt><trkpt lat="38.19726255289141" lon="15.318898616537963"><ele>22.0</ele><time>2026-04-30T15:40:03.001Z</time></trkpt><trkpt lat="38.19714743207392" lon="15.318604138998149"><ele>22.0</ele><time>2026-04-30T15:40:04.001Z</time></trkpt><trkpt lat="38.197033543091194" lon="15.318314828151331"><ele>22.0</ele><time>2026-04-30T15:40:05.001Z</time></trkpt><trkpt lat="38.196913892426686" lon="15.318001182536188"><ele>23.0</ele><time>2026-04-30T15:40:06.001Z</time></trkpt><trkpt lat="38.19678931499927" lon="15.317666567120236"><ele>24.0</ele><time>2026-04-30T15:40:07.001Z</time></trkpt><trkpt lat="38.19665843032682" lon="15.317334103714709"><ele>25.0</ele><time>2026-04-30T15:40:08.001Z</time></trkpt><trkpt lat="38.19652400169962" lon="15.317010008886013"><ele>26.0</ele><time>2026-04-30T15:40:09.001Z</time></trkpt><trkpt lat="38.19639751706279" lon="15.316685906716845"><ele>28.5</ele><time>2026-04-30T15:40:10.001Z</time></trkpt><trkpt lat="38.1962800231178" lon="15.31635532425611"><ele>31.0</ele><time>2026-04-30T15:40:11.001Z</time></trkpt><trkpt lat="38.19617881550818" lon="15.316024457238028"><ele>31.0</ele><time>2026-04-30T15:40:12.001Z</time></trkpt><trkpt lat="38.196088615492464" lon="15.315698203618142"><ele>31.0</ele><time>2026-04-30T15:40:13.001Z</time></trkpt><trkpt lat="38.19600835853418" lon="15.31537069588008"><ele>35.0</ele><time>2026-04-30T15:40:14.001Z</time></trkpt><trkpt lat="38.19593173529884" lon="15.31501617722747"><ele>39.0</ele><time>2026-04-30T15:40:15.001Z</time></trkpt><trkpt lat="38.19587405180157" lon="15.314653921021186"><ele>46.0</ele><time>2026-04-30T15:40:16.001Z</time></trkpt><trkpt lat="38.19582036760416" lon="15.31428636861365"><ele>53.0</ele><time>2026-04-30T15:40:17.001Z</time></trkpt><trkpt lat="38.19578113340438" lon="15.313926976298216"><ele>59.5</ele><time>2026-04-30T15:40:18.001Z</time></trkpt><trkpt lat="38.19575384984418" lon="15.313570333170773"><ele>66.0</ele><time>2026-04-30T15:40:19.001Z</time></trkpt><trkpt lat="38.195730089269546" lon="15.313212334946073"><ele>67.5</ele><time>2026-04-30T15:40:20.001Z</time></trkpt><trkpt lat="38.19570445290495" lon="15.312857601990453"><ele>69.0</ele><time>2026-04-30T15:40:21.001Z</time></trkpt><trkpt lat="38.19567802130855" lon="15.312504850464757"><ele>65.0</ele><time>2026-04-30T15:40:22.001Z</time></trkpt><trkpt lat="38.19568962318134" lon="15.312162030763787"><ele>61.0</ele><time>2026-04-30T15:40:23.001Z</time></trkpt><trkpt lat="38.19571340962685" lon="15.311843475497511"><ele>61.0</ele><time>2026-04-30T15:40:24.001Z</time></trkpt><trkpt lat="38.195746563180876" lon="15.311484449821632"><ele>61.0</ele><time>2026-04-30T15:40:25.001Z</time></trkpt><trkpt lat="38.19580318186322" lon="15.31110284819533"><ele>58.5</ele><time>2026-04-30T15:40:26.001Z</time></trkpt><trkpt lat="38.19586297496322" lon="15.310754064181548"><ele>56.0</ele><time>2026-04-30T15:40:27.001Z</time></trkpt><trkpt lat="38.195905850742314" lon="15.310386173097065"><ele>56.0</ele><time>2026-04-30T15:40:28.001Z</time></trkpt><trkpt lat="38.19594829010773" lon="15.310012902458128"><ele>56.0</ele><time>2026-04-30T15:40:29.001Z</time></trkpt><trkpt lat="38.19597318273543" lon="15.309645536673537"><ele>57.0</ele><time>2026-04-30T15:40:30.001Z</time></trkpt><trkpt lat="38.195981387420396" lon="15.309275729507611"><ele>58.0</ele><time>2026-04-30T15:40:31.001Z</time></trkpt><trkpt lat="38.19597525562054" lon="15.308913196705571"><ele>59.0</ele><time>2026-04-30T15:40:32.001Z</time></trkpt><trkpt lat="38.19595058207605" lon="15.308542952091665"><ele>60.0</ele><time>2026-04-30T15:40:33.001Z</time></trkpt><trkpt lat="38.19591521299182" lon="15.308168316549517"><ele>59.0</ele><time>2026-04-30T15:40:34.001Z</time></trkpt><trkpt lat="38.195865948405604" lon="15.307779589954118"><ele>58.0</ele><time>2026-04-30T15:40:35.001Z</time></trkpt><trkpt lat="38.19581213269953" lon="15.307389598525173"><ele>55.0</ele><time>2026-04-30T15:40:36.001Z</time></trkpt><trkpt lat="38.195756515984336" lon="15.3070055218986"><ele>52.0</ele><time>2026-04-30T15:40:37.001Z</time></trkpt><trkpt lat="38.19569501327528" lon="15.30658546698353"><ele>51.0</ele><time>2026-04-30T15:40:38.001Z</time></trkpt><trkpt lat="38.195628983860146" lon="15.306133706287879"><ele>50.0</ele><time>2026-04-30T15:40:39.001Z</time></trkpt><trkpt lat="38.19556084840372" lon="15.305658149996647"><ele>49.0</ele><time>2026-04-30T15:40:40.001Z</time></trkpt><trkpt lat="38.19549628473244" lon="15.305177573385814"><ele>48.0</ele><time>2026-04-30T15:40:41.001Z</time></trkpt><trkpt lat="38.19543271090117" lon="15.304702566464636"><ele>47.5</ele><time>2026-04-30T15:40:42.001Z</time></trkpt><trkpt lat="38.195372663280445" lon="15.304259050248259"><ele>47.0</ele><time>2026-04-30T15:40:43.001Z</time></trkpt><trkpt lat="38.1953122460696" lon="15.303820077250494"><ele>46.5</ele><time>2026-04-30T15:40:44.001Z</time></trkpt><trkpt lat="38.19525007470294" lon="15.303390380677037"><ele>46.0</ele><time>2026-04-30T15:40:45.001Z</time></trkpt><trkpt lat="38.19518925744193" lon="15.302958521882152"><ele>46.0</ele><time>2026-04-30T15:40:46.001Z</time></trkpt><trkpt lat="38.19512725730376" lon="15.302524278948658"><ele>46.0</ele><time>2026-04-30T15:40:47.001Z</time></trkpt><trkpt lat="38.19506769106435" lon="15.302078316549267"><ele>44.5</ele><time>2026-04-30T15:40:48.001Z</time></trkpt><trkpt lat="38.19500932636834" lon="15.301632513811843"><ele>43.0</ele><time>2026-04-30T15:40:49.001Z</time></trkpt><trkpt lat="38.19496076267134" lon="15.301198637478038"><ele>43.0</ele><time>2026-04-30T15:40:50.001Z</time></trkpt><trkpt lat="38.19492128678231" lon="15.300783354510388"><ele>43.0</ele><time>2026-04-30T15:40:51.001Z</time></trkpt><trkpt lat="38.19489732692707" lon="15.300361328148757"><ele>42.5</ele><time>2026-04-30T15:40:52.001Z</time></trkpt><trkpt lat="38.1948936490132" lon="15.299950347397614"><ele>42.0</ele><time>2026-04-30T15:40:53.001Z</time></trkpt><trkpt lat="38.19490765296808" lon="15.299525868664771"><ele>41.0</ele><time>2026-04-30T15:40:54.001Z</time></trkpt><trkpt lat="38.19492604157734" lon="15.299082801599337"><ele>40.0</ele><time>2026-04-30T15:40:55.001Z</time></trkpt><trkpt lat="38.19495385898542" lon="15.298624303213462"><ele>39.0</ele><time>2026-04-30T15:40:56.001Z</time></trkpt><trkpt lat="38.19498908077641" lon="15.298146252440217"><ele>38.0</ele><time>2026-04-30T15:40:57.001Z</time></trkpt><trkpt lat="38.19502301502131" lon="15.297666699060061"><ele>34.5</ele><time>2026-04-30T15:40:58.001Z</time></trkpt><trkpt lat="38.19505915102181" lon="15.297188548476408"><ele>31.0</ele><time>2026-04-30T15:40:59.001Z</time></trkpt><trkpt lat="38.19509127096212" lon="15.296725501263138"><ele>32.0</ele><time>2026-04-30T15:41:00.001Z</time></trkpt><trkpt lat="38.19512210750399" lon="15.29627024730088"><ele>33.0</ele><time>2026-04-30T15:41:01.001Z</time></trkpt><trkpt lat="38.195148421703955" lon="15.295835141122325"><ele>32.5</ele><time>2026-04-30T15:41:02.001Z</time></trkpt><trkpt lat="38.19517822293307" lon="15.295395742967456"><ele>32.0</ele><time>2026-04-30T15:41:03.001Z</time></trkpt><trkpt lat="38.19520429996843" lon="15.294963090790036"><ele>31.0</ele><time>2026-04-30T15:41:04.001Z</time></trkpt><trkpt lat="38.19522618514774" lon="15.294517571345459"><ele>30.0</ele><time>2026-04-30T15:41:05.001Z</time></trkpt><trkpt lat="38.195239867983396" lon="15.29407991939611"><ele>28.5</ele><time>2026-04-30T15:41:06.002Z</time></trkpt><trkpt lat="38.195237489059515" lon="15.29365762851853"><ele>27.0</ele><time>2026-04-30T15:41:07.002Z</time></trkpt><trkpt lat="38.19522060640382" lon="15.293248007994347"><ele>26.5</ele><time>2026-04-30T15:41:08.002Z</time></trkpt><trkpt lat="38.19519287943074" lon="15.292830779222696"><ele>26.0</ele><time>2026-04-30T15:41:09.002Z</time></trkpt><trkpt lat="38.195152042635705" lon="15.292396509336735"><ele>26.5</ele><time>2026-04-30T15:41:10.002Z</time></trkpt><trkpt lat="38.195100135908014" lon="15.291988582949172"><ele>27.0</ele><time>2026-04-30T15:41:11.002Z</time></trkpt><trkpt lat="38.19503780025718" lon="15.29155402036936"><ele>24.0</ele><time>2026-04-30T15:41:12.002Z</time></trkpt><trkpt lat="38.194967906944626" lon="15.291129688512596"><ele>21.0</ele><time>2026-04-30T15:41:13.002Z</time></trkpt><trkpt lat="38.19489641341628" lon="15.290714767429636"><ele>25.5</ele><time>2026-04-30T15:41:14.002Z</time></trkpt><trkpt lat="38.19482445139348" lon="15.29028567169444"><ele>30.0</ele><time>2026-04-30T15:41:15.002Z</time></trkpt><trkpt lat="38.19475768996628" lon="15.289881260062973"><ele>37.5</ele><time>2026-04-30T15:41:16.002Z</time></trkpt><trkpt lat="38.194693454907245" lon="15.289459248721428"><ele>45.0</ele><time>2026-04-30T15:41:17.002Z</time></trkpt><trkpt lat="38.194625210514744" lon="15.289050724508906"><ele>51.0</ele><time>2026-04-30T15:41:18.002Z</time></trkpt><trkpt lat="38.194556548870395" lon="15.288651421928135"><ele>57.0</ele><time>2026-04-30T15:41:19.002Z</time></trkpt><trkpt lat="38.19448235894641" lon="15.288251259439892"><ele>61.0</ele><time>2026-04-30T15:41:20.002Z</time></trkpt><trkpt lat="38.19440561486802" lon="15.287854487624836"><ele>65.0</ele><time>2026-04-30T15:41:21.002Z</time></trkpt><trkpt lat="38.19432794399614" lon="15.287461573691296"><ele>61.5</ele><time>2026-04-30T15:41:22.002Z</time></trkpt><trkpt lat="38.19424823822239" lon="15.287069808255193"><ele>58.0</ele><time>2026-04-30T15:41:23.002Z</time></trkpt><trkpt lat="38.19417894751621" lon="15.286679627589198"><ele>53.0</ele><time>2026-04-30T15:41:24.002Z</time></trkpt><trkpt lat="38.19410131401821" lon="15.286264339478233"><ele>48.0</ele><time>2026-04-30T15:41:25.068Z</time></trkpt><trkpt lat="38.19402525745217" lon="15.285876598740389"><ele>49.0</ele><time>2026-04-30T15:41:26.07Z</time></trkpt><trkpt lat="38.19399336098769" lon="15.2855557884574"><ele>50.0</ele><time>2026-04-30T15:41:27.002Z</time></trkpt><trkpt lat="38.193941509141276" lon="15.285122088404366"><ele>53.5</ele><time>2026-04-30T15:41:28.001Z</time></trkpt><trkpt lat="38.19383202130536" lon="15.284744345381391"><ele>57.0</ele><time>2026-04-30T15:41:29.001Z</time></trkpt><trkpt lat="38.19373053609018" lon="15.284369417413432"><ele>57.0</ele><time>2026-04-30T15:41:30.001Z</time></trkpt><trkpt lat="38.19362391884972" lon="15.283988625089542"><ele>57.0</ele><time>2026-04-30T15:41:31.001Z</time></trkpt><trkpt lat="38.193508214045075" lon="15.28359740089203"><ele>52.0</ele><time>2026-04-30T15:41:32.001Z</time></trkpt><trkpt lat="38.19339466400108" lon="15.28319038374258"><ele>47.0</ele><time>2026-04-30T15:41:33.001Z</time></trkpt><trkpt lat="38.19328625622688" lon="15.282787871572761"><ele>47.5</ele><time>2026-04-30T15:41:34.001Z</time></trkpt><trkpt lat="38.19317965654613" lon="15.282390799970138"><ele>48.0</ele><time>2026-04-30T15:41:35.001Z</time></trkpt><trkpt lat="38.19308380124851" lon="15.281998858264007"><ele>48.0</ele><time>2026-04-30T15:41:36.001Z</time></trkpt><trkpt lat="38.19299478224687" lon="15.281606478785076"><ele>48.0</ele><time>2026-04-30T15:41:37.001Z</time></trkpt><trkpt lat="38.192914967952476" lon="15.281207891099964"><ele>43.5</ele><time>2026-04-30T15:41:38.001Z</time></trkpt><trkpt lat="38.192848151639645" lon="15.280808866350073"><ele>39.0</ele><time>2026-04-30T15:41:39.001Z</time></trkpt><trkpt lat="38.19279367320378" lon="15.280417240566239"><ele>37.5</ele><time>2026-04-30T15:41:40.001Z</time></trkpt><trkpt lat="38.19276009777537" lon="15.280028886914758"><ele>36.0</ele><time>2026-04-30T15:41:41.001Z</time></trkpt><trkpt lat="38.19273272748767" lon="15.279639273246973"><ele>36.0</ele><time>2026-04-30T15:41:42.001Z</time></trkpt><trkpt lat="38.19271134181548" lon="15.279265001549328"><ele>36.0</ele><time>2026-04-30T15:41:43.001Z</time></trkpt><trkpt lat="38.19269539879038" lon="15.278901828336002"><ele>36.0</ele><time>2026-04-30T15:41:44.001Z</time></trkpt><trkpt lat="38.19268378454358" lon="15.278532410695368"><ele>36.0</ele><time>2026-04-30T15:41:45.001Z</time></trkpt><trkpt lat="38.19267402680998" lon="15.27815336556363"><ele>34.5</ele><time>2026-04-30T15:41:46.001Z</time></trkpt><trkpt lat="38.192660477566" lon="15.277759715248182"><ele>33.0</ele><time>2026-04-30T15:41:47.001Z</time></trkpt><trkpt lat="38.19264787615502" lon="15.277366629305735"><ele>32.5</ele><time>2026-04-30T15:41:48.001Z</time></trkpt><trkpt lat="38.192636020996275" lon="15.276995291609033"><ele>32.0</ele><time>2026-04-30T15:41:49.001Z</time></trkpt><trkpt lat="38.192623599624824" lon="15.276638068188683"><ele>31.0</ele><time>2026-04-30T15:41:50.001Z</time></trkpt><trkpt lat="38.192602848441425" lon="15.276285945820737"><ele>30.0</ele><time>2026-04-30T15:41:51.001Z</time></trkpt><trkpt lat="38.19256857928771" lon="15.275938425753946"><ele>30.5</ele><time>2026-04-30T15:41:52.001Z</time></trkpt><trkpt lat="38.19251898992455" lon="15.275575193743533"><ele>31.0</ele><time>2026-04-30T15:41:53.001Z</time></trkpt><trkpt lat="38.192459502488965" lon="15.275217773676571"><ele>31.0</ele><time>2026-04-30T15:41:54.001Z</time></trkpt><trkpt lat="38.19238925429796" lon="15.274872088998606"><ele>31.0</ele><time>2026-04-30T15:41:55.001Z</time></trkpt><trkpt lat="38.1923073133957" lon="15.27453551152917"><ele>31.5</ele><time>2026-04-30T15:41:56.001Z</time></trkpt><trkpt lat="38.192216908897564" lon="15.27419756520894"><ele>32.0</ele><time>2026-04-30T15:41:57.001Z</time></trkpt><trkpt lat="38.19211932251017" lon="15.273868383068356"><ele>32.0</ele><time>2026-04-30T15:41:58.001Z</time></trkpt><trkpt lat="38.19201012094728" lon="15.273547341904383"><ele>32.0</ele><time>2026-04-30T15:41:59.001Z</time></trkpt><trkpt lat="38.1918879323968" lon="15.273229466900737"><ele>32.5</ele><time>2026-04-30T15:42:00.001Z</time></trkpt><trkpt lat="38.19175737396918" lon="15.272916841983484"><ele>33.0</ele><time>2026-04-30T15:42:01.001Z</time></trkpt><trkpt lat="38.19161784671366" lon="15.272606223143121"><ele>33.0</ele><time>2026-04-30T15:42:02.001Z</time></trkpt><trkpt lat="38.19146959259484" lon="15.272299020999045"><ele>33.0</ele><time>2026-04-30T15:42:03.001Z</time></trkpt><trkpt lat="38.191308427156336" lon="15.2719828699042"><ele>33.5</ele><time>2026-04-30T15:42:04.001Z</time></trkpt><trkpt lat="38.19114598935777" lon="15.271671819899963"><ele>34.0</ele><time>2026-04-30T15:42:05.001Z</time></trkpt><trkpt lat="38.19099036342986" lon="15.271373972155457"><ele>35.0</ele><time>2026-04-30T15:42:06.001Z</time></trkpt><trkpt lat="38.190833218986796" lon="15.271065687044372"><ele>36.0</ele><time>2026-04-30T15:42:07.001Z</time></trkpt><trkpt lat="38.1906779557031" lon="15.270761269458252"><ele>34.5</ele><time>2026-04-30T15:42:08.001Z</time></trkpt><trkpt lat="38.19053067934421" lon="15.270476813501492"><ele>33.0</ele><time>2026-04-30T15:42:09.001Z</time></trkpt><trkpt lat="38.190369837912655" lon="15.270169774574644"><ele>33.0</ele><time>2026-04-30T15:42:10.001Z</time></trkpt><trkpt lat="38.190201976597606" lon="15.269862746122737"><ele>33.0</ele><time>2026-04-30T15:42:11.001Z</time></trkpt><trkpt lat="38.19002854028255" lon="15.269567091043953"><ele>33.0</ele><time>2026-04-30T15:42:12.001Z</time></trkpt><trkpt lat="38.18985988558381" lon="15.269262762626022"><ele>33.0</ele><time>2026-04-30T15:42:13.001Z</time></trkpt><trkpt lat="38.18969447637826" lon="15.26894326172376"><ele>34.0</ele><time>2026-04-30T15:42:14.001Z</time></trkpt><trkpt lat="38.189532113555735" lon="15.268625181725813"><ele>35.0</ele><time>2026-04-30T15:42:15.001Z</time></trkpt><trkpt lat="38.189368356208526" lon="15.268309178874917"><ele>34.5</ele><time>2026-04-30T15:42:16.001Z</time></trkpt><trkpt lat="38.1892046752272" lon="15.26798999828955"><ele>34.0</ele><time>2026-04-30T15:42:17.001Z</time></trkpt><trkpt lat="38.189044140276785" lon="15.267678709811607"><ele>34.5</ele><time>2026-04-30T15:42:18.001Z</time></trkpt><trkpt lat="38.18890046657938" lon="15.267403787440935"><ele>35.0</ele><time>2026-04-30T15:42:19.001Z</time></trkpt><trkpt lat="38.18875562241493" lon="15.2671288752038"><ele>37.0</ele><time>2026-04-30T15:42:20.001Z</time></trkpt><trkpt lat="38.18860675749431" lon="15.266841202405478"><ele>39.0</ele><time>2026-04-30T15:42:21.001Z</time></trkpt><trkpt lat="38.188449275884444" lon="15.266538999747937"><ele>39.5</ele><time>2026-04-30T15:42:22.001Z</time></trkpt><trkpt lat="38.18827040127263" lon="15.26619216612915"><ele>40.0</ele><time>2026-04-30T15:42:23.001Z</time></trkpt><trkpt lat="38.18808003561347" lon="15.265817189704947"><ele>41.5</ele><time>2026-04-30T15:42:24.001Z</time></trkpt><trkpt lat="38.18789095271255" lon="15.265445109247809"><ele>43.0</ele><time>2026-04-30T15:42:25.001Z</time></trkpt><trkpt lat="38.187697785594786" lon="15.265070066592095"><ele>44.0</ele><time>2026-04-30T15:42:26.001Z</time></trkpt><trkpt lat="38.187502777372" lon="15.264692772681277"><ele>45.0</ele><time>2026-04-30T15:42:27.001Z</time></trkpt><trkpt lat="38.187305683772735" lon="15.264313903855866"><ele>48.0</ele><time>2026-04-30T15:42:28.001Z</time></trkpt><trkpt lat="38.18710378250554" lon="15.263921772100641"><ele>51.0</ele><time>2026-04-30T15:42:29.001Z</time></trkpt><trkpt lat="38.18690405925485" lon="15.26353633575977"><ele>51.0</ele><time>2026-04-30T15:42:30.001Z</time></trkpt><trkpt lat="38.186711397009134" lon="15.263156767011115"><ele>51.0</ele><time>2026-04-30T15:42:31.001Z</time></trkpt><trkpt lat="38.186527779581446" lon="15.262807839075355"><ele>50.0</ele><time>2026-04-30T15:42:32.001Z</time></trkpt><trkpt lat="38.186358693038116" lon="15.262483895742696"><ele>49.0</ele><time>2026-04-30T15:42:33.001Z</time></trkpt><trkpt lat="38.186191009090166" lon="15.262158854397084"><ele>49.0</ele><time>2026-04-30T15:42:34.001Z</time></trkpt><trkpt lat="38.18602996374282" lon="15.261833876193645"><ele>49.0</ele><time>2026-04-30T15:42:35.001Z</time></trkpt><trkpt lat="38.185852241495304" lon="15.261503909918474"><ele>49.0</ele><time>2026-04-30T15:42:36.001Z</time></trkpt><trkpt lat="38.1856975125138" lon="15.261191848083126"><ele>49.0</ele><time>2026-04-30T15:42:37.001Z</time></trkpt><trkpt lat="38.1855294265698" lon="15.260869218424856"><ele>48.5</ele><time>2026-04-30T15:42:38.001Z</time></trkpt><trkpt lat="38.185359118007355" lon="15.26054502261189"><ele>48.0</ele><time>2026-04-30T15:42:39.001Z</time></trkpt><trkpt lat="38.185199025429206" lon="15.260224278204628"><ele>48.0</ele><time>2026-04-30T15:42:40.001Z</time></trkpt><trkpt lat="38.18503818370969" lon="15.259885174549886"><ele>48.0</ele><time>2026-04-30T15:42:41.001Z</time></trkpt><trkpt lat="38.18488197414442" lon="15.259546070924365"><ele>48.0</ele><time>2026-04-30T15:42:42.001Z</time></trkpt><trkpt lat="38.18472793556749" lon="15.259213995787938"><ele>48.0</ele><time>2026-04-30T15:42:43.001Z</time></trkpt><trkpt lat="38.18457855234418" lon="15.258880180596023"><ele>48.0</ele><time>2026-04-30T15:42:44.001Z</time></trkpt><trkpt lat="38.18443298581755" lon="15.258540232451292"><ele>48.0</ele><time>2026-04-30T15:42:45.001Z</time></trkpt><trkpt lat="38.18428455184129" lon="15.25818534429022"><ele>47.5</ele><time>2026-04-30T15:42:46.001Z</time></trkpt><trkpt lat="38.18413721703727" lon="15.257828234867299"><ele>47.0</ele><time>2026-04-30T15:42:47.001Z</time></trkpt><trkpt lat="38.18398882151577" lon="15.25746638925744"><ele>47.5</ele><time>2026-04-30T15:42:48.001Z</time></trkpt><trkpt lat="38.183838080887476" lon="15.257094900316767"><ele>48.0</ele><time>2026-04-30T15:42:49.001Z</time></trkpt><trkpt lat="38.18368789292397" lon="15.256712410243445"><ele>48.5</ele><time>2026-04-30T15:42:50.001Z</time></trkpt><trkpt lat="38.183534043353035" lon="15.25632175729109"><ele>49.0</ele><time>2026-04-30T15:42:51.001Z</time></trkpt><trkpt lat="38.18338403360338" lon="15.25593480147498"><ele>48.0</ele><time>2026-04-30T15:42:52.001Z</time></trkpt><trkpt lat="38.18322991950527" lon="15.255541380166735"><ele>47.0</ele><time>2026-04-30T15:42:53.001Z</time></trkpt><trkpt lat="38.18307127539772" lon="15.255135015771488"><ele>45.5</ele><time>2026-04-30T15:42:54.001Z</time></trkpt><trkpt lat="38.18290302958311" lon="15.254712312269888"><ele>44.0</ele><time>2026-04-30T15:42:55.001Z</time></trkpt><trkpt lat="38.18271603346317" lon="15.254269004793551"><ele>44.0</ele><time>2026-04-30T15:42:56.001Z</time></trkpt><trkpt lat="38.18254659186352" lon="15.253817078304458"><ele>44.0</ele><time>2026-04-30T15:42:57.001Z</time></trkpt><trkpt lat="38.1823690683685" lon="15.2533757620156"><ele>44.0</ele><time>2026-04-30T15:42:58.001Z</time></trkpt><trkpt lat="38.18219607548722" lon="15.252923812705136"><ele>44.0</ele><time>2026-04-30T15:42:59.001Z</time></trkpt><trkpt lat="38.18201666933698" lon="15.2524671227198"><ele>42.5</ele><time>2026-04-30T15:43:00.001Z</time></trkpt><trkpt lat="38.18183835746971" lon="15.252012271023741"><ele>41.0</ele><time>2026-04-30T15:43:01.001Z</time></trkpt><trkpt lat="38.18166221671329" lon="15.251562722133597"><ele>42.0</ele><time>2026-04-30T15:43:02.001Z</time></trkpt><trkpt lat="38.181496646146506" lon="15.251121443554633"><ele>43.0</ele><time>2026-04-30T15:43:03.001Z</time></trkpt><trkpt lat="38.18131985402798" lon="15.25070277976434"><ele>43.0</ele><time>2026-04-30T15:43:04.001Z</time></trkpt><trkpt lat="38.18115612830951" lon="15.250284281645705"><ele>43.0</ele><time>2026-04-30T15:43:05.001Z</time></trkpt><trkpt lat="38.18098730976378" lon="15.249864133633036"><ele>43.5</ele><time>2026-04-30T15:43:06.001Z</time></trkpt><trkpt lat="38.18081434126846" lon="15.249447572732462"><ele>44.0</ele><time>2026-04-30T15:43:07.001Z</time></trkpt><trkpt lat="38.18063604494043" lon="15.249031838018457"><ele>44.5</ele><time>2026-04-30T15:43:08.001Z</time></trkpt><trkpt lat="38.18045525908395" lon="15.248635919156687"><ele>45.0</ele><time>2026-04-30T15:43:09.001Z</time></trkpt><trkpt lat="38.180268836452655" lon="15.248247578009611"><ele>44.5</ele><time>2026-04-30T15:43:10.001Z</time></trkpt><trkpt lat="38.18007129812194" lon="15.24787169382016"><ele>44.0</ele><time>2026-04-30T15:43:11.001Z</time></trkpt><trkpt lat="38.17987799286446" lon="15.247509343600782"><ele>45.5</ele><time>2026-04-30T15:43:12.001Z</time></trkpt><trkpt lat="38.17967177986865" lon="15.24714987487332"><ele>47.0</ele><time>2026-04-30T15:43:13.001Z</time></trkpt><trkpt lat="38.179457546328315" lon="15.246799622675981"><ele>45.5</ele><time>2026-04-30T15:43:14.001Z</time></trkpt><trkpt lat="38.1792393152934" lon="15.24645047480431"><ele>44.0</ele><time>2026-04-30T15:43:15.001Z</time></trkpt><trkpt lat="38.17901430095059" lon="15.246105934918589"><ele>44.0</ele><time>2026-04-30T15:43:16.001Z</time></trkpt><trkpt lat="38.17878817740724" lon="15.245774915585406"><ele>44.0</ele><time>2026-04-30T15:43:17.001Z</time></trkpt><trkpt lat="38.178548597743344" lon="15.245447052685178"><ele>43.5</ele><time>2026-04-30T15:43:18.001Z</time></trkpt><trkpt lat="38.17831187940633" lon="15.245124084914156"><ele>43.0</ele><time>2026-04-30T15:43:19.001Z</time></trkpt><trkpt lat="38.17807563995232" lon="15.244802933164081"><ele>43.0</ele><time>2026-04-30T15:43:20.001Z</time></trkpt><trkpt lat="38.177846188339785" lon="15.244481749142999"><ele>43.0</ele><time>2026-04-30T15:43:21.001Z</time></trkpt><trkpt lat="38.17763137328751" lon="15.24415776233982"><ele>42.5</ele><time>2026-04-30T15:43:22.001Z</time></trkpt><trkpt lat="38.177437676198146" lon="15.243842682933682"><ele>42.0</ele><time>2026-04-30T15:43:23.001Z</time></trkpt><trkpt lat="38.17725836629149" lon="15.243526185772113"><ele>41.5</ele><time>2026-04-30T15:43:24.001Z</time></trkpt><trkpt lat="38.17710281180666" lon="15.243210117388605"><ele>41.0</ele><time>2026-04-30T15:43:25.001Z</time></trkpt><trkpt lat="38.17696190927385" lon="15.242882329763557"><ele>41.0</ele><time>2026-04-30T15:43:26.001Z</time></trkpt><trkpt lat="38.17683655537109" lon="15.242544498701507"><ele>41.0</ele><time>2026-04-30T15:43:27.001Z</time></trkpt><trkpt lat="38.17671775225402" lon="15.242194530060523"><ele>41.0</ele><time>2026-04-30T15:43:28.001Z</time></trkpt><trkpt lat="38.176608479524106" lon="15.24183885194505"><ele>41.0</ele><time>2026-04-30T15:43:29.001Z</time></trkpt><trkpt lat="38.176501041198925" lon="15.241470461739079"><ele>42.0</ele><time>2026-04-30T15:43:30.001Z</time></trkpt><trkpt lat="38.17639575653356" lon="15.241104616378138"><ele>43.0</ele><time>2026-04-30T15:43:31.001Z</time></trkpt><trkpt lat="38.17629074462729" lon="15.240746322470967"><ele>42.5</ele><time>2026-04-30T15:43:32.001Z</time></trkpt><trkpt lat="38.17618334306908" lon="15.240395581522783"><ele>42.0</ele><time>2026-04-30T15:43:33.001Z</time></trkpt><trkpt lat="38.17606700464338" lon="15.240052485595854"><ele>41.0</ele><time>2026-04-30T15:43:34Z</time></trkpt><trkpt lat="38.175935532216066" lon="15.239716709520998"><ele>40.0</ele><time>2026-04-30T15:43:35Z</time></trkpt><trkpt lat="38.17578840119747" lon="15.239385616180996"><ele>42.0</ele><time>2026-04-30T15:43:36Z</time></trkpt><trkpt lat="38.17563078581818" lon="15.239063042199597"><ele>44.0</ele><time>2026-04-30T15:43:37Z</time></trkpt><trkpt lat="38.175465156677646" lon="15.238747473897757"><ele>44.0</ele><time>2026-04-30T15:43:38Z</time></trkpt><trkpt lat="38.175288859708225" lon="15.238432984560987"><ele>44.0</ele><time>2026-04-30T15:43:39Z</time></trkpt><trkpt lat="38.17510849513765" lon="15.238122199993738"><ele>43.0</ele><time>2026-04-30T15:43:40Z</time></trkpt><trkpt lat="38.174926571578034" lon="15.237800171141796"><ele>42.0</ele><time>2026-04-30T15:43:41Z</time></trkpt><trkpt lat="38.17475086094615" lon="15.237480662646536"><ele>41.5</ele><time>2026-04-30T15:43:42Z</time></trkpt><trkpt lat="38.17455537109238" lon="15.237125653541488"><ele>41.0</ele><time>2026-04-30T15:43:43Z</time></trkpt><trkpt lat="38.1743750415747" lon="15.236797627482861"><ele>41.0</ele><time>2026-04-30T15:43:44Z</time></trkpt><trkpt lat="38.17420623194637" lon="15.236483429631273"><ele>41.0</ele><time>2026-04-30T15:43:45Z</time></trkpt><trkpt lat="38.17401636556889" lon="15.236140163480078"><ele>40.5</ele><time>2026-04-30T15:43:46Z</time></trkpt><trkpt lat="38.17384487011137" lon="15.235827471339125"><ele>40.0</ele><time>2026-04-30T15:43:47Z</time></trkpt><trkpt lat="38.17365585995868" lon="15.235490923674018"><ele>38.5</ele><time>2026-04-30T15:43:48Z</time></trkpt><trkpt lat="38.173475653555286" lon="15.235162826505222"><ele>37.0</ele><time>2026-04-30T15:43:49Z</time></trkpt><trkpt lat="38.173304057575194" lon="15.234847837097549"><ele>37.0</ele><time>2026-04-30T15:43:50Z</time></trkpt><trkpt lat="38.17311182970422" lon="15.234501314933087"><ele>37.0</ele><time>2026-04-30T15:43:51Z</time></trkpt><trkpt lat="38.17293113906412" lon="15.234161999608176"><ele>38.0</ele><time>2026-04-30T15:43:52Z</time></trkpt><trkpt lat="38.17275957884654" lon="15.233820294057987"><ele>39.0</ele><time>2026-04-30T15:43:53Z</time></trkpt><trkpt lat="38.17259477846357" lon="15.23347363243334"><ele>37.5</ele><time>2026-04-30T15:43:54Z</time></trkpt><trkpt lat="38.17244059999038" lon="15.23312102845107"><ele>36.0</ele><time>2026-04-30T15:43:55Z</time></trkpt><trkpt lat="38.17229461270066" lon="15.232767317265564"><ele>35.5</ele><time>2026-04-30T15:43:56Z</time></trkpt><trkpt lat="38.17216198462508" lon="15.232409751436984"><ele>35.0</ele><time>2026-04-30T15:43:57Z</time></trkpt><trkpt lat="38.172037662421005" lon="15.232046178247037"><ele>34.5</ele><time>2026-04-30T15:43:58Z</time></trkpt><trkpt lat="38.17192093552699" lon="15.231673178525298"><ele>34.0</ele><time>2026-04-30T15:43:59Z</time></trkpt><trkpt lat="38.17181071069969" lon="15.231304780744752"><ele>34.0</ele><time>2026-04-30T15:44:00Z</time></trkpt><trkpt lat="38.171712835469805" lon="15.23093180584663"><ele>34.0</ele><time>2026-04-30T15:44:01Z</time></trkpt><trkpt lat="38.17162085961964" lon="15.230553431015004"><ele>33.5</ele><time>2026-04-30T15:44:02Z</time></trkpt><trkpt lat="38.17153096221581" lon="15.230180492928028"><ele>33.0</ele><time>2026-04-30T15:44:03Z</time></trkpt><trkpt lat="38.1714510160541" lon="15.22980501738839"><ele>32.5</ele><time>2026-04-30T15:44:04Z</time></trkpt><trkpt lat="38.17136034946905" lon="15.229437458536873"><ele>32.0</ele><time>2026-04-30T15:44:05Z</time></trkpt><trkpt lat="38.17127049313055" lon="15.22906098161273"><ele>33.0</ele><time>2026-04-30T15:44:06Z</time></trkpt><trkpt lat="38.17117179643584" lon="15.22868539421085"><ele>34.0</ele><time>2026-04-30T15:44:07Z</time></trkpt><trkpt lat="38.171069438664944" lon="15.228315016465208"><ele>32.5</ele><time>2026-04-30T15:44:08Z</time></trkpt><trkpt lat="38.17096091096852" lon="15.22795257275923"><ele>31.0</ele><time>2026-04-30T15:44:09Z</time></trkpt><trkpt lat="38.17084997084729" lon="15.227597646013347"><ele>30.5</ele><time>2026-04-30T15:44:10Z</time></trkpt><trkpt lat="38.17073258463778" lon="15.227240152131586"><ele>30.0</ele><time>2026-04-30T15:44:11Z</time></trkpt><trkpt lat="38.170621369618566" lon="15.226890344940585"><ele>30.0</ele><time>2026-04-30T15:44:12Z</time></trkpt><trkpt lat="38.17050471090847" lon="15.226538378418857"><ele>30.0</ele><time>2026-04-30T15:44:13Z</time></trkpt><trkpt lat="38.170389719773716" lon="15.226188987265754"><ele>30.0</ele><time>2026-04-30T15:44:14Z</time></trkpt><trkpt lat="38.170276113365475" lon="15.22583692314924"><ele>30.0</ele><time>2026-04-30T15:44:15Z</time></trkpt><trkpt lat="38.17015951400839" lon="15.22548178471469"><ele>28.5</ele><time>2026-04-30T15:44:16Z</time></trkpt><trkpt lat="38.17004205324357" lon="15.225125831926345"><ele>27.0</ele><time>2026-04-30T15:44:17Z</time></trkpt><trkpt lat="38.169924896436015" lon="15.224770149796763"><ele>26.0</ele><time>2026-04-30T15:44:18Z</time></trkpt><trkpt lat="38.16980407190631" lon="15.224412014613959"><ele>25.0</ele><time>2026-04-30T15:44:19Z</time></trkpt><trkpt lat="38.16968743996348" lon="15.224051504438343"><ele>25.0</ele><time>2026-04-30T15:44:20Z</time></trkpt><trkpt lat="38.16957263680292" lon="15.223694098121403"><ele>25.0</ele><time>2026-04-30T15:44:21Z</time></trkpt><trkpt lat="38.16945446468381" lon="15.223340876827246"><ele>25.5</ele><time>2026-04-30T15:44:22Z</time></trkpt><trkpt lat="38.169336564776046" lon="15.222987317121797"><ele>26.0</ele><time>2026-04-30T15:44:23Z</time></trkpt><trkpt lat="38.16922024626306" lon="15.222628498925117"><ele>25.0</ele><time>2026-04-30T15:44:24Z</time></trkpt><trkpt lat="38.16910482215662" lon="15.222267140820986"><ele>24.0</ele><time>2026-04-30T15:44:25Z</time></trkpt><trkpt lat="38.16899334284215" lon="15.221910814976868"><ele>24.0</ele><time>2026-04-30T15:44:26Z</time></trkpt><trkpt lat="38.16887502140123" lon="15.221543859449525"><ele>24.0</ele><time>2026-04-30T15:44:27Z</time></trkpt><trkpt lat="38.168756837976765" lon="15.221181185490826"><ele>23.5</ele><time>2026-04-30T15:44:28Z</time></trkpt><trkpt lat="38.16863811365599" lon="15.2208215655005"><ele>23.0</ele><time>2026-04-30T15:44:29Z</time></trkpt><trkpt lat="38.16851912620252" lon="15.220467546232605"><ele>23.0</ele><time>2026-04-30T15:44:30Z</time></trkpt><trkpt lat="38.16840219170212" lon="15.220112058296573"><ele>23.0</ele><time>2026-04-30T15:44:31Z</time></trkpt><trkpt lat="38.16828675383493" lon="15.219754044573907"><ele>22.0</ele><time>2026-04-30T15:44:32Z</time></trkpt><trkpt lat="38.16816990550894" lon="15.219388005593325"><ele>21.0</ele><time>2026-04-30T15:44:33Z</time></trkpt><trkpt lat="38.16805324447029" lon="15.219020415911727"><ele>20.5</ele><time>2026-04-30T15:44:34Z</time></trkpt><trkpt lat="38.167930285015366" lon="15.218652669849766"><ele>20.0</ele><time>2026-04-30T15:44:35Z</time></trkpt><trkpt lat="38.167812563226796" lon="15.218292444422662"><ele>20.5</ele><time>2026-04-30T15:44:36Z</time></trkpt><trkpt lat="38.16769350766776" lon="15.217932011511053"><ele>21.0</ele><time>2026-04-30T15:44:37Z</time></trkpt><trkpt lat="38.16757531010525" lon="15.217571738604866"><ele>21.0</ele><time>2026-04-30T15:44:38Z</time></trkpt><trkpt lat="38.16745775305066" lon="15.217214040103642"><ele>21.0</ele><time>2026-04-30T15:44:39Z</time></trkpt><trkpt lat="38.1673330649007" lon="15.216851650246369"><ele>22.5</ele><time>2026-04-30T15:44:40Z</time></trkpt><trkpt lat="38.16720419153011" lon="15.216485152213709"><ele>24.0</ele><time>2026-04-30T15:44:41Z</time></trkpt><trkpt lat="38.16707571112399" lon="15.216129152923815"><ele>24.0</ele><time>2026-04-30T15:44:42Z</time></trkpt><trkpt lat="38.166935400424485" lon="15.215764017748047"><ele>24.0</ele><time>2026-04-30T15:44:43Z</time></trkpt><trkpt lat="38.166793847761305" lon="15.21541187238066"><ele>22.0</ele><time>2026-04-30T15:44:44Z</time></trkpt><trkpt lat="38.16664898903336" lon="15.215069777158934"><ele>20.0</ele><time>2026-04-30T15:44:45Z</time></trkpt><trkpt lat="38.1665049883187" lon="15.21472412040898"><ele>20.0</ele><time>2026-04-30T15:44:46Z</time></trkpt><trkpt lat="38.1663410782204" lon="15.214383939747815"><ele>20.0</ele><time>2026-04-30T15:44:47Z</time></trkpt><trkpt lat="38.16616221769082" lon="15.214032851933126"><ele>20.0</ele><time>2026-04-30T15:44:48Z</time></trkpt><trkpt lat="38.16596848798364" lon="15.213656483797918"><ele>20.0</ele><time>2026-04-30T15:44:49Z</time></trkpt><trkpt lat="38.16576918056176" lon="15.213264241693363"><ele>20.0</ele><time>2026-04-30T15:44:50Z</time></trkpt><trkpt lat="38.16558432615589" lon="15.212862422280317"><ele>20.0</ele><time>2026-04-30T15:44:51Z</time></trkpt><trkpt lat="38.16540415804798" lon="15.212458477270363"><ele>20.0</ele><time>2026-04-30T15:44:52Z</time></trkpt><trkpt lat="38.16522507044182" lon="15.212065625633112"><ele>20.0</ele><time>2026-04-30T15:44:53Z</time></trkpt><trkpt lat="38.16505985267633" lon="15.211682493272873"><ele>20.5</ele><time>2026-04-30T15:44:54Z</time></trkpt><trkpt lat="38.16491313544609" lon="15.211295484835704"><ele>21.0</ele><time>2026-04-30T15:44:55Z</time></trkpt><trkpt lat="38.16478524669843" lon="15.210908077179468"><ele>21.5</ele><time>2026-04-30T15:44:56Z</time></trkpt><trkpt lat="38.16467175740235" lon="15.210507535451148"><ele>22.0</ele><time>2026-04-30T15:44:57Z</time></trkpt><trkpt lat="38.164563368052704" lon="15.210102865902419"><ele>20.5</ele><time>2026-04-30T15:44:58Z</time></trkpt><trkpt lat="38.16445853357791" lon="15.209699836859778"><ele>19.0</ele><time>2026-04-30T15:44:59Z</time></trkpt><trkpt lat="38.16437838216355" lon="15.209290954251284"><ele>18.0</ele><time>2026-04-30T15:45:00Z</time></trkpt><trkpt lat="38.16430808214945" lon="15.208893163724012"><ele>17.0</ele><time>2026-04-30T15:45:01Z</time></trkpt><trkpt lat="38.16424223389739" lon="15.208472431395887"><ele>17.5</ele><time>2026-04-30T15:45:02Z</time></trkpt><trkpt lat="38.164189481377164" lon="15.208061139758385"><ele>18.0</ele><time>2026-04-30T15:45:03Z</time></trkpt><trkpt lat="38.16414515916303" lon="15.207649121658315"><ele>18.5</ele><time>2026-04-30T15:45:04Z</time></trkpt><trkpt lat="38.1641050785135" lon="15.207224767106815"><ele>19.0</ele><time>2026-04-30T15:45:05Z</time></trkpt><trkpt lat="38.16406090938394" lon="15.206776621998909"><ele>18.0</ele><time>2026-04-30T15:45:06Z</time></trkpt><trkpt lat="38.164018827186645" lon="15.206337812615931"><ele>17.0</ele><time>2026-04-30T15:45:07.001Z</time></trkpt><trkpt lat="38.16397874746763" lon="15.205899724393552"><ele>17.5</ele><time>2026-04-30T15:45:08.001Z</time></trkpt><trkpt lat="38.163948670876806" lon="15.205467187115865"><ele>18.0</ele><time>2026-04-30T15:45:09.001Z</time></trkpt><trkpt lat="38.16392579443757" lon="15.205044226087788"><ele>18.0</ele><time>2026-04-30T15:45:10.001Z</time></trkpt><trkpt lat="38.16389797007954" lon="15.204640982146065"><ele>18.0</ele><time>2026-04-30T15:45:11.001Z</time></trkpt><trkpt lat="38.16386337657244" lon="15.204239186825742"><ele>17.0</ele><time>2026-04-30T15:45:12.001Z</time></trkpt><trkpt lat="38.16382025977525" lon="15.203839698638667"><ele>16.0</ele><time>2026-04-30T15:45:13.001Z</time></trkpt><trkpt lat="38.16376509352965" lon="15.20345187197868"><ele>16.0</ele><time>2026-04-30T15:45:14.001Z</time></trkpt><trkpt lat="38.163694021063485" lon="15.203070896295863"><ele>16.0</ele><time>2026-04-30T15:45:15.001Z</time></trkpt><trkpt lat="38.16361385116808" lon="15.202680355108791"><ele>16.5</ele><time>2026-04-30T15:45:16.001Z</time></trkpt><trkpt lat="38.16352115536425" lon="15.202306902304809"><ele>17.0</ele><time>2026-04-30T15:45:17.001Z</time></trkpt><trkpt lat="38.16341294475684" lon="15.201920294272835"><ele>17.0</ele><time>2026-04-30T15:45:18.001Z</time></trkpt><trkpt lat="38.16329928197234" lon="15.20154197412354"><ele>17.0</ele><time>2026-04-30T15:45:19.001Z</time></trkpt><trkpt lat="38.163176025335396" lon="15.201171865027748"><ele>18.0</ele><time>2026-04-30T15:45:20.001Z</time></trkpt><trkpt lat="38.16305317944831" lon="15.200840939099455"><ele>19.0</ele><time>2026-04-30T15:45:21.001Z</time></trkpt><trkpt lat="38.16292606988966" lon="15.200526202862259"><ele>19.0</ele><time>2026-04-30T15:45:22.001Z</time></trkpt><trkpt lat="38.162800057587745" lon="15.20022895301469"><ele>19.0</ele><time>2026-04-30T15:45:23.001Z</time></trkpt><trkpt lat="38.162658630967556" lon="15.19991693375808"><ele>18.0</ele><time>2026-04-30T15:45:24.001Z</time></trkpt><trkpt lat="38.162505488910334" lon="15.199612439987565"><ele>17.0</ele><time>2026-04-30T15:45:25.001Z</time></trkpt><trkpt lat="38.16233628834819" lon="15.199293369563463"><ele>17.5</ele><time>2026-04-30T15:45:26.001Z</time></trkpt><trkpt lat="38.162155286954764" lon="15.198983472803665"><ele>18.0</ele><time>2026-04-30T15:45:27.001Z</time></trkpt><trkpt lat="38.16195704878534" lon="15.198650441257815"><ele>18.0</ele><time>2026-04-30T15:45:28.001Z</time></trkpt><trkpt lat="38.16175211312476" lon="15.198303127916347"><ele>18.0</ele><time>2026-04-30T15:45:29.001Z</time></trkpt><trkpt lat="38.161545684540826" lon="15.197943499523003"><ele>16.5</ele><time>2026-04-30T15:45:30.001Z</time></trkpt><trkpt lat="38.16133592895588" lon="15.1975788296027"><ele>15.0</ele><time>2026-04-30T15:45:31.001Z</time></trkpt><trkpt lat="38.16113237154304" lon="15.197216362468122"><ele>14.5</ele><time>2026-04-30T15:45:32.001Z</time></trkpt><trkpt lat="38.16092953697631" lon="15.196855062565632"><ele>14.0</ele><time>2026-04-30T15:45:33.001Z</time></trkpt><trkpt lat="38.1607303925551" lon="15.196489942061318"><ele>14.5</ele><time>2026-04-30T15:45:34.001Z</time></trkpt><trkpt lat="38.16054033201997" lon="15.19611756785951"><ele>15.0</ele><time>2026-04-30T15:45:35.001Z</time></trkpt><trkpt lat="38.16035092563675" lon="15.195738552871884"><ele>14.5</ele><time>2026-04-30T15:45:36.001Z</time></trkpt><trkpt lat="38.16016170286751" lon="15.195354431033792"><ele>14.0</ele><time>2026-04-30T15:45:37.001Z</time></trkpt><trkpt lat="38.15997266669703" lon="15.194972576366961"><ele>14.0</ele><time>2026-04-30T15:45:38.001Z</time></trkpt><trkpt lat="38.159791163590974" lon="15.194587264936981"><ele>14.0</ele><time>2026-04-30T15:45:39.001Z</time></trkpt><trkpt lat="38.15961672853997" lon="15.194203696344033"><ele>13.5</ele><time>2026-04-30T15:45:39.999Z</time></trkpt><trkpt lat="38.1594336052199" lon="15.193824724704697"><ele>13.0</ele><time>2026-04-30T15:45:40.999Z</time></trkpt><trkpt lat="38.15925005228904" lon="15.193462527588991"><ele>13.0</ele><time>2026-04-30T15:45:41.999Z</time></trkpt><trkpt lat="38.15906028275621" lon="15.1931014394784"><ele>13.0</ele><time>2026-04-30T15:45:42.999Z</time></trkpt><trkpt lat="38.15886775221015" lon="15.192752238830813"><ele>13.0</ele><time>2026-04-30T15:45:43.999Z</time></trkpt><trkpt lat="38.15867136089862" lon="15.19238696487046"><ele>13.0</ele><time>2026-04-30T15:45:44.999Z</time></trkpt><trkpt lat="38.15847471501524" lon="15.192027799843174"><ele>13.0</ele><time>2026-04-30T15:45:45.999Z</time></trkpt><trkpt lat="38.15827925610224" lon="15.191667145250253"><ele>13.0</ele><time>2026-04-30T15:45:46.999Z</time></trkpt><trkpt lat="38.15808297114127" lon="15.191302377658772"><ele>13.0</ele><time>2026-04-30T15:45:47.999Z</time></trkpt><trkpt lat="38.15789324594052" lon="15.190952097893073"><ele>13.0</ele><time>2026-04-30T15:45:48.999Z</time></trkpt><trkpt lat="38.15770418764846" lon="15.190603766161367"><ele>13.0</ele><time>2026-04-30T15:45:49.999Z</time></trkpt><trkpt lat="38.157513994170515" lon="15.190253839076467"><ele>13.0</ele><time>2026-04-30T15:45:50.999Z</time></trkpt><trkpt lat="38.15732259268123" lon="15.189902317485707"><ele>12.0</ele><time>2026-04-30T15:45:51.999Z</time></trkpt><trkpt lat="38.15713432714786" lon="15.189552855711373"><ele>11.0</ele><time>2026-04-30T15:45:52.999Z</time></trkpt><trkpt lat="38.15694516621456" lon="15.189206713651908"><ele>10.5</ele><time>2026-04-30T15:45:53.999Z</time></trkpt><trkpt lat="38.15675688572544" lon="15.188864021005003"><ele>10.0</ele><time>2026-04-30T15:45:54.999Z</time></trkpt><trkpt lat="38.15657059766509" lon="15.188523997976898"><ele>11.5</ele><time>2026-04-30T15:45:55.999Z</time></trkpt><trkpt lat="38.1563858157073" lon="15.18817821594361"><ele>13.0</ele><time>2026-04-30T15:45:56.999Z</time></trkpt><trkpt lat="38.15620324712569" lon="15.187837346149639"><ele>13.0</ele><time>2026-04-30T15:45:57.999Z</time></trkpt><trkpt lat="38.156016159850246" lon="15.187487405617894"><ele>13.0</ele><time>2026-04-30T15:45:58.999Z</time></trkpt><trkpt lat="38.155828461116094" lon="15.187142284039865"><ele>12.0</ele><time>2026-04-30T15:45:59.999Z</time></trkpt><trkpt lat="38.155641649153175" lon="15.18679900602578"><ele>11.0</ele><time>2026-04-30T15:46:00.999Z</time></trkpt><trkpt lat="38.1554546970747" lon="15.186455973522394"><ele>11.0</ele><time>2026-04-30T15:46:01.999Z</time></trkpt><trkpt lat="38.1552613930069" lon="15.186111897845066"><ele>11.0</ele><time>2026-04-30T15:46:02.999Z</time></trkpt><trkpt lat="38.1550819508743" lon="15.185763763916773"><ele>11.0</ele><time>2026-04-30T15:46:03.999Z</time></trkpt><trkpt lat="38.154895617686925" lon="15.18542129700403"><ele>11.0</ele><time>2026-04-30T15:46:04.999Z</time></trkpt><trkpt lat="38.15471287953185" lon="15.185074355456877"><ele>10.0</ele><time>2026-04-30T15:46:05.999Z</time></trkpt><trkpt lat="38.154532027458316" lon="15.18472234857194"><ele>9.0</ele><time>2026-04-30T15:46:06.999Z</time></trkpt><trkpt lat="38.154361882475584" lon="15.184366502254855"><ele>8.5</ele><time>2026-04-30T15:46:07.999Z</time></trkpt><trkpt lat="38.1541983116854" lon="15.183999863403589"><ele>8.0</ele><time>2026-04-30T15:46:08.999Z</time></trkpt><trkpt lat="38.15403438577292" lon="15.183645265103015"><ele>9.0</ele><time>2026-04-30T15:46:09.999Z</time></trkpt><trkpt lat="38.15387300098461" lon="15.183283846369116"><ele>10.0</ele><time>2026-04-30T15:46:10.999Z</time></trkpt><trkpt lat="38.153708630033236" lon="15.182921870896395"><ele>10.0</ele><time>2026-04-30T15:46:11.999Z</time></trkpt><trkpt lat="38.15353923593262" lon="15.182558651942472"><ele>10.0</ele><time>2026-04-30T15:46:12.999Z</time></trkpt><trkpt lat="38.15336694659658" lon="15.182201805186248"><ele>10.0</ele><time>2026-04-30T15:46:13.999Z</time></trkpt><trkpt lat="38.15319197217265" lon="15.181852546427585"><ele>10.0</ele><time>2026-04-30T15:46:14.999Z</time></trkpt><trkpt lat="38.15300860667483" lon="15.18150386125784"><ele>10.0</ele><time>2026-04-30T15:46:15.999Z</time></trkpt><trkpt lat="38.152821787350945" lon="15.181162816076439"><ele>10.0</ele><time>2026-04-30T15:46:16.999Z</time></trkpt><trkpt lat="38.15263182426367" lon="15.180827679746674"><ele>10.5</ele><time>2026-04-30T15:46:18Z</time></trkpt><trkpt lat="38.152440842421925" lon="15.180499423741217"><ele>11.0</ele><time>2026-04-30T15:46:19Z</time></trkpt><trkpt lat="38.15224940645092" lon="15.180171701702536"><ele>10.5</ele><time>2026-04-30T15:46:20Z</time></trkpt><trkpt lat="38.15205807006191" lon="15.179841017298584"><ele>10.0</ele><time>2026-04-30T15:46:21Z</time></trkpt><trkpt lat="38.15186893544732" lon="15.1795142749732"><ele>10.0</ele><time>2026-04-30T15:46:22Z</time></trkpt><trkpt lat="38.15168157471072" lon="15.17918408132404"><ele>10.0</ele><time>2026-04-30T15:46:23Z</time></trkpt><trkpt lat="38.15149513371846" lon="15.178855419612738"><ele>10.5</ele><time>2026-04-30T15:46:24Z</time></trkpt><trkpt lat="38.15131353846352" lon="15.178527289511036"><ele>11.0</ele><time>2026-04-30T15:46:25Z</time></trkpt><trkpt lat="38.15113338390086" lon="15.178188484138392"><ele>11.5</ele><time>2026-04-30T15:46:26Z</time></trkpt><trkpt lat="38.150965196054365" lon="15.177841438023478"><ele>12.0</ele><time>2026-04-30T15:46:27Z</time></trkpt><trkpt lat="38.1507991820305" lon="15.177490789465587"><ele>11.5</ele><time>2026-04-30T15:46:28Z</time></trkpt><trkpt lat="38.150639895912775" lon="15.177136544186716"><ele>11.0</ele><time>2026-04-30T15:46:29Z</time></trkpt><trkpt lat="38.15048258558423" lon="15.176777027011031"><ele>11.0</ele><time>2026-04-30T15:46:30Z</time></trkpt><trkpt lat="38.15032719037112" lon="15.17641788208743"><ele>11.0</ele><time>2026-04-30T15:46:31Z</time></trkpt><trkpt lat="38.15017227304784" lon="15.176058876289828"><ele>11.0</ele><time>2026-04-30T15:46:32Z</time></trkpt><trkpt lat="38.15001471196684" lon="15.175702348903608"><ele>11.0</ele><time>2026-04-30T15:46:33Z</time></trkpt><trkpt lat="38.14985272060915" lon="15.175339920847208"><ele>12.0</ele><time>2026-04-30T15:46:34Z</time></trkpt><trkpt lat="38.149689872568956" lon="15.174982613119584"><ele>13.0</ele><time>2026-04-30T15:46:35Z</time></trkpt><trkpt lat="38.14952494545617" lon="15.174629240002599"><ele>13.0</ele><time>2026-04-30T15:46:36Z</time></trkpt><trkpt lat="38.14935391590363" lon="15.174270766375168"><ele>13.0</ele><time>2026-04-30T15:46:37Z</time></trkpt><trkpt lat="38.1491774036618" lon="15.173912948334122"><ele>12.5</ele><time>2026-04-30T15:46:38Z</time></trkpt><trkpt lat="38.14899904888775" lon="15.173561945492406"><ele>12.0</ele><time>2026-04-30T15:46:39Z</time></trkpt><trkpt lat="38.14881754193002" lon="15.173214020456838"><ele>12.0</ele><time>2026-04-30T15:46:40Z</time></trkpt><trkpt lat="38.14863033275449" lon="15.172874093638278"><ele>12.0</ele><time>2026-04-30T15:46:41Z</time></trkpt><trkpt lat="38.148440604562516" lon="15.172521005882249"><ele>12.0</ele><time>2026-04-30T15:46:42Z</time></trkpt><trkpt lat="38.14823940695907" lon="15.172159015037911"><ele>12.0</ele><time>2026-04-30T15:46:43Z</time></trkpt><trkpt lat="38.14803690472467" lon="15.171811112005427"><ele>12.0</ele><time>2026-04-30T15:46:44Z</time></trkpt><trkpt lat="38.147831234869415" lon="15.171467220788855"><ele>12.0</ele><time>2026-04-30T15:46:45Z</time></trkpt><trkpt lat="38.14762050325391" lon="15.171125631409904"><ele>12.0</ele><time>2026-04-30T15:46:46Z</time></trkpt><trkpt lat="38.14740208092501" lon="15.170774507494494"><ele>12.0</ele><time>2026-04-30T15:46:47Z</time></trkpt><trkpt lat="38.147180998323435" lon="15.170425042843407"><ele>12.5</ele><time>2026-04-30T15:46:48Z</time></trkpt><trkpt lat="38.1469597120819" lon="15.170078756862264"><ele>13.0</ele><time>2026-04-30T15:46:49Z</time></trkpt><trkpt lat="38.146738427390474" lon="15.169736491738286"><ele>12.5</ele><time>2026-04-30T15:46:50Z</time></trkpt><trkpt lat="38.146518017673266" lon="15.16939481943815"><ele>12.0</ele><time>2026-04-30T15:46:51Z</time></trkpt><trkpt lat="38.146300566890105" lon="15.169056087251764"><ele>12.0</ele><time>2026-04-30T15:46:52Z</time></trkpt><trkpt lat="38.146085259109746" lon="15.168720894799046"><ele>12.0</ele><time>2026-04-30T15:46:53Z</time></trkpt><trkpt lat="38.14587322955333" lon="15.16838933440243"><ele>13.0</ele><time>2026-04-30T15:46:54Z</time></trkpt><trkpt lat="38.145663450330524" lon="15.168059883224995"><ele>14.0</ele><time>2026-04-30T15:46:55Z</time></trkpt><trkpt lat="38.14545288436396" lon="15.167726420347655"><ele>14.0</ele><time>2026-04-30T15:46:56Z</time></trkpt><trkpt lat="38.14524598963958" lon="15.16739280389247"><ele>14.0</ele><time>2026-04-30T15:46:57Z</time></trkpt><trkpt lat="38.14503866973628" lon="15.167059262441521"><ele>13.0</ele><time>2026-04-30T15:46:58Z</time></trkpt><trkpt lat="38.14483671527365" lon="15.166715584090918"><ele>12.0</ele><time>2026-04-30T15:46:59Z</time></trkpt><trkpt lat="38.14463557401592" lon="15.1663614629302"><ele>11.5</ele><time>2026-04-30T15:47:00Z</time></trkpt><trkpt lat="38.14443624086361" lon="15.165989734103167"><ele>11.0</ele><time>2026-04-30T15:47:01Z</time></trkpt><trkpt lat="38.144242506490734" lon="15.165616588930764"><ele>10.5</ele><time>2026-04-30T15:47:02Z</time></trkpt><trkpt lat="38.14405171589823" lon="15.1652659003364"><ele>10.0</ele><time>2026-04-30T15:47:03Z</time></trkpt><trkpt lat="38.14386773452366" lon="15.164913573100081"><ele>10.5</ele><time>2026-04-30T15:47:04Z</time></trkpt><trkpt lat="38.143686243129565" lon="15.164553520360968"><ele>11.0</ele><time>2026-04-30T15:47:05Z</time></trkpt><trkpt lat="38.14350748342473" lon="15.164186285965467"><ele>11.0</ele><time>2026-04-30T15:47:06Z</time></trkpt><trkpt lat="38.143333160978116" lon="15.16381663606034"><ele>11.0</ele><time>2026-04-30T15:47:07Z</time></trkpt><trkpt lat="38.14316132752805" lon="15.163443885035706"><ele>9.5</ele><time>2026-04-30T15:47:08Z</time></trkpt><trkpt lat="38.14299492031029" lon="15.163073405822775"><ele>8.0</ele><time>2026-04-30T15:47:09Z</time></trkpt><trkpt lat="38.14282764043129" lon="15.16269855029699"><ele>9.0</ele><time>2026-04-30T15:47:10Z</time></trkpt><trkpt lat="38.142659528948386" lon="15.162324793546716"><ele>10.0</ele><time>2026-04-30T15:47:11Z</time></trkpt><trkpt lat="38.14249079178673" lon="15.16195258802149"><ele>10.0</ele><time>2026-04-30T15:47:12Z</time></trkpt><trkpt lat="38.14231367331296" lon="15.16157688155526"><ele>10.0</ele><time>2026-04-30T15:47:13Z</time></trkpt><trkpt lat="38.142126593386514" lon="15.161190431271182"><ele>9.5</ele><time>2026-04-30T15:47:14Z</time></trkpt><trkpt lat="38.141940675931636" lon="15.160789806694368"><ele>9.0</ele><time>2026-04-30T15:47:15Z</time></trkpt><trkpt lat="38.14176504366563" lon="15.160398407250117"><ele>9.0</ele><time>2026-04-30T15:47:16Z</time></trkpt><trkpt lat="38.14158749548879" lon="15.160006322676834"><ele>9.0</ele><time>2026-04-30T15:47:17Z</time></trkpt><trkpt lat="38.141411851066074" lon="15.15961233426336"><ele>8.5</ele><time>2026-04-30T15:47:18Z</time></trkpt><trkpt lat="38.1412345979585" lon="15.159212190666896"><ele>8.0</ele><time>2026-04-30T15:47:19Z</time></trkpt><trkpt lat="38.141055995584416" lon="15.15882579092261"><ele>8.0</ele><time>2026-04-30T15:47:20Z</time></trkpt><trkpt lat="38.14087631714559" lon="15.1584264266479"><ele>8.0</ele><time>2026-04-30T15:47:21Z</time></trkpt><trkpt lat="38.140698305665445" lon="15.158026251619633"><ele>8.0</ele><time>2026-04-30T15:47:22Z</time></trkpt><trkpt lat="38.14051732061042" lon="15.157617318186482"><ele>8.0</ele><time>2026-04-30T15:47:23Z</time></trkpt><trkpt lat="38.14034124986258" lon="15.15722110202107"><ele>9.0</ele><time>2026-04-30T15:47:24Z</time></trkpt><trkpt lat="38.140167340023744" lon="15.156821569097852"><ele>10.0</ele><time>2026-04-30T15:47:25Z</time></trkpt><trkpt lat="38.139993801343614" lon="15.156416959632223"><ele>9.5</ele><time>2026-04-30T15:47:26Z</time></trkpt><trkpt lat="38.13981779760848" lon="15.1560227829122"><ele>9.0</ele><time>2026-04-30T15:47:27Z</time></trkpt><trkpt lat="38.13964582569589" lon="15.155625221471732"><ele>8.5</ele><time>2026-04-30T15:47:28Z</time></trkpt><trkpt lat="38.13948026915586" lon="15.15523294743714"><ele>8.0</ele><time>2026-04-30T15:47:29Z</time></trkpt><trkpt lat="38.13930875013811" lon="15.154858067050647"><ele>8.0</ele><time>2026-04-30T15:47:30Z</time></trkpt><trkpt lat="38.139143962318236" lon="15.154490878090373"><ele>8.0</ele><time>2026-04-30T15:47:31Z</time></trkpt><trkpt lat="38.13897809096846" lon="15.154124912134273"><ele>8.0</ele><time>2026-04-30T15:47:32Z</time></trkpt><trkpt lat="38.13881373685476" lon="15.153750015324837"><ele>8.0</ele><time>2026-04-30T15:47:33Z</time></trkpt><trkpt lat="38.1386445218033" lon="15.153368209512694"><ele>9.0</ele><time>2026-04-30T15:47:34Z</time></trkpt><trkpt lat="38.138471572233605" lon="15.15299914311603"><ele>10.0</ele><time>2026-04-30T15:47:35Z</time></trkpt><trkpt lat="38.13828418965849" lon="15.15261664494569"><ele>8.5</ele><time>2026-04-30T15:47:36Z</time></trkpt><trkpt lat="38.13809085230341" lon="15.152211184808552"><ele>7.0</ele><time>2026-04-30T15:47:37.001Z</time></trkpt><trkpt lat="38.13789429932384" lon="15.15177827014948"><ele>7.5</ele><time>2026-04-30T15:47:38.001Z</time></trkpt><trkpt lat="38.13769594565663" lon="15.15133790256034"><ele>8.0</ele><time>2026-04-30T15:47:39.001Z</time></trkpt><trkpt lat="38.137466639341866" lon="15.150873082772819"><ele>8.0</ele><time>2026-04-30T15:47:40.001Z</time></trkpt><trkpt lat="38.13730758602097" lon="15.150460199682186"><ele>8.0</ele><time>2026-04-30T15:47:41.001Z</time></trkpt><trkpt lat="38.137111472708185" lon="15.15001815313835"><ele>8.0</ele><time>2026-04-30T15:47:42.001Z</time></trkpt><trkpt lat="38.1369210624065" lon="15.149570864868322"><ele>8.0</ele><time>2026-04-30T15:47:43.001Z</time></trkpt><trkpt lat="38.13673209968136" lon="15.149129899870795"><ele>8.0</ele><time>2026-04-30T15:47:44.001Z</time></trkpt><trkpt lat="38.1365412718382" lon="15.14869154556968"><ele>8.0</ele><time>2026-04-30T15:47:45.001Z</time></trkpt><trkpt lat="38.13647935582881" lon="15.1481716652232"><ele>8.0</ele><time>2026-04-30T15:47:45.999Z</time></trkpt><trkpt lat="38.13628743381189" lon="15.147744729783305"><ele>8.0</ele><time>2026-04-30T15:47:46.999Z</time></trkpt><trkpt lat="38.1361141463367" lon="15.147334922981429"><ele>8.0</ele><time>2026-04-30T15:47:47.999Z</time></trkpt><trkpt lat="38.135944357249365" lon="15.146926647400003"><ele>8.0</ele><time>2026-04-30T15:47:48.999Z</time></trkpt><trkpt lat="38.13578276200409" lon="15.146534914530882"><ele>7.0</ele><time>2026-04-30T15:47:49.999Z</time></trkpt><trkpt lat="38.1356330852326" lon="15.14614427706103"><ele>6.0</ele><time>2026-04-30T15:47:50.999Z</time></trkpt><trkpt lat="38.135480703764344" lon="15.145754584841262"><ele>6.5</ele><time>2026-04-30T15:47:51.999Z</time></trkpt><trkpt lat="38.13534521363441" lon="15.145372797110689"><ele>7.0</ele><time>2026-04-30T15:47:52.999Z</time></trkpt><trkpt lat="38.1352154445037" lon="15.144975270409475"><ele>7.5</ele><time>2026-04-30T15:47:53.999Z</time></trkpt><trkpt lat="38.13508745907316" lon="15.144581044321784"><ele>8.0</ele><time>2026-04-30T15:47:54.999Z</time></trkpt><trkpt lat="38.134965890730925" lon="15.144191869697762"><ele>8.0</ele><time>2026-04-30T15:47:55.999Z</time></trkpt><trkpt lat="38.13484987375107" lon="15.143797522450768"><ele>8.0</ele><time>2026-04-30T15:47:56.999Z</time></trkpt><trkpt lat="38.13475020387851" lon="15.143387860746364"><ele>8.5</ele><time>2026-04-30T15:47:57.999Z</time></trkpt><trkpt lat="38.134647792909966" lon="15.142966188060573"><ele>9.0</ele><time>2026-04-30T15:47:58.999Z</time></trkpt><trkpt lat="38.134552085003435" lon="15.142558287914184"><ele>9.5</ele><time>2026-04-30T15:47:59.999Z</time></trkpt><trkpt lat="38.1344601206844" lon="15.142136928157328"><ele>10.0</ele><time>2026-04-30T15:48:00.999Z</time></trkpt><trkpt lat="38.13436009116267" lon="15.141703090283594"><ele>10.5</ele><time>2026-04-30T15:48:01.999Z</time></trkpt><trkpt lat="38.13426300370977" lon="15.141288658252837"><ele>11.0</ele><time>2026-04-30T15:48:02.999Z</time></trkpt><trkpt lat="38.13416014046721" lon="15.140849329243018"><ele>11.5</ele><time>2026-04-30T15:48:03.999Z</time></trkpt><trkpt lat="38.134046599125455" lon="15.140416360100437"><ele>12.0</ele><time>2026-04-30T15:48:04.999Z</time></trkpt><trkpt lat="38.13396727417043" lon="15.140021982054263"><ele>12.0</ele><time>2026-04-30T15:48:05.999Z</time></trkpt><trkpt lat="38.133923466476745" lon="15.139588700553153"><ele>12.0</ele><time>2026-04-30T15:48:06.999Z</time></trkpt><trkpt lat="38.13354355598508" lon="15.139210656403053"><ele>12.5</ele><time>2026-04-30T15:48:07.999Z</time></trkpt><trkpt lat="38.13342378249913" lon="15.138798901420794"><ele>13.0</ele><time>2026-04-30T15:48:08.999Z</time></trkpt><trkpt lat="38.13329789404728" lon="15.138391355443162"><ele>13.5</ele><time>2026-04-30T15:48:09.999Z</time></trkpt><trkpt lat="38.13316497226628" lon="15.137993589319693"><ele>14.0</ele><time>2026-04-30T15:48:10.999Z</time></trkpt><trkpt lat="38.13302552618482" lon="15.137599488946876"><ele>14.0</ele><time>2026-04-30T15:48:11.999Z</time></trkpt><trkpt lat="38.1328823428471" lon="15.13721393090969"><ele>14.0</ele><time>2026-04-30T15:48:12.999Z</time></trkpt><trkpt lat="38.132740009180466" lon="15.13683478660459"><ele>13.0</ele><time>2026-04-30T15:48:13.999Z</time></trkpt><trkpt lat="38.13260116827146" lon="15.136479584563851"><ele>12.0</ele><time>2026-04-30T15:48:14.999Z</time></trkpt><trkpt lat="38.13245648982684" lon="15.136131777142799"><ele>11.5</ele><time>2026-04-30T15:48:15.999Z</time></trkpt><trkpt lat="38.13231172867859" lon="15.135785443581758"><ele>11.0</ele><time>2026-04-30T15:48:16.999Z</time></trkpt><trkpt lat="38.132166509830085" lon="15.135471656290056"><ele>11.0</ele><time>2026-04-30T15:48:17.999Z</time></trkpt><trkpt lat="38.13201033291153" lon="15.135145243500382"><ele>11.0</ele><time>2026-04-30T15:48:18.999Z</time></trkpt><trkpt lat="38.131853266343086" lon="15.134822831905502"><ele>12.0</ele><time>2026-04-30T15:48:19.999Z</time></trkpt><trkpt lat="38.131691907196235" lon="15.134506481524967"><ele>13.0</ele><time>2026-04-30T15:48:20.999Z</time></trkpt><trkpt lat="38.13152778454989" lon="15.13419014036443"><ele>13.5</ele><time>2026-04-30T15:48:21.999Z</time></trkpt><trkpt lat="38.131352421071604" lon="15.133873852735531"><ele>14.0</ele><time>2026-04-30T15:48:22.999Z</time></trkpt><trkpt lat="38.13116109625668" lon="15.133561856320343"><ele>14.0</ele><time>2026-04-30T15:48:23.999Z</time></trkpt><trkpt lat="38.13095300022787" lon="15.133228237211286"><ele>14.0</ele><time>2026-04-30T15:48:24.999Z</time></trkpt><trkpt lat="38.13073086687058" lon="15.132872622670753"><ele>13.5</ele><time>2026-04-30T15:48:26Z</time></trkpt><trkpt lat="38.13051158166069" lon="15.132495121334545"><ele>13.0</ele><time>2026-04-30T15:48:27Z</time></trkpt><trkpt lat="38.13028353172579" lon="15.132116803474842"><ele>12.5</ele><time>2026-04-30T15:48:28Z</time></trkpt><trkpt lat="38.130057017169854" lon="15.131733968771641"><ele>12.0</ele><time>2026-04-30T15:48:29Z</time></trkpt><trkpt lat="38.12983078214098" lon="15.131350210105166"><ele>13.0</ele><time>2026-04-30T15:48:30Z</time></trkpt><trkpt lat="38.12960007184839" lon="15.130960263194217"><ele>14.0</ele><time>2026-04-30T15:48:31Z</time></trkpt><trkpt lat="38.129370326554266" lon="15.130570479942206"><ele>14.0</ele><time>2026-04-30T15:48:32Z</time></trkpt><trkpt lat="38.1291395757961" lon="15.130179315119541"><ele>14.0</ele><time>2026-04-30T15:48:33Z</time></trkpt><trkpt lat="38.12890692518616" lon="15.129779374093296"><ele>13.0</ele><time>2026-04-30T15:48:34Z</time></trkpt><trkpt lat="38.128682087868654" lon="15.129380105597269"><ele>12.0</ele><time>2026-04-30T15:48:35Z</time></trkpt><trkpt lat="38.128461434948946" lon="15.12898762157927"><ele>12.0</ele><time>2026-04-30T15:48:36Z</time></trkpt><trkpt lat="38.12823962810804" lon="15.1286084653092"><ele>12.0</ele><time>2026-04-30T15:48:37Z</time></trkpt><trkpt lat="38.12801743550278" lon="15.12823688406738"><ele>11.5</ele><time>2026-04-30T15:48:38Z</time></trkpt><trkpt lat="38.12780182753934" lon="15.127871730926463"><ele>11.0</ele><time>2026-04-30T15:48:39Z</time></trkpt><trkpt lat="38.12758897728191" lon="15.12751214265256"><ele>11.0</ele><time>2026-04-30T15:48:40Z</time></trkpt><trkpt lat="38.127375546236216" lon="15.12714627890346"><ele>11.0</ele><time>2026-04-30T15:48:41Z</time></trkpt><trkpt lat="38.12715964860553" lon="15.126786417588496"><ele>10.5</ele><time>2026-04-30T15:48:42Z</time></trkpt><trkpt lat="38.12694278195863" lon="15.126428445768509"><ele>10.0</ele><time>2026-04-30T15:48:43Z</time></trkpt><trkpt lat="38.12673018908711" lon="15.126069214851869"><ele>10.5</ele><time>2026-04-30T15:48:44Z</time></trkpt><trkpt lat="38.12651714514112" lon="15.125705083733905"><ele>11.0</ele><time>2026-04-30T15:48:45Z</time></trkpt><trkpt lat="38.126305520359445" lon="15.125353429232597"><ele>11.0</ele><time>2026-04-30T15:48:46Z</time></trkpt><trkpt lat="38.12609547617086" lon="15.1249987749146"><ele>11.0</ele><time>2026-04-30T15:48:47Z</time></trkpt><trkpt lat="38.1258846671597" lon="15.1246433904683"><ele>11.0</ele><time>2026-04-30T15:48:48Z</time></trkpt><trkpt lat="38.125670887390704" lon="15.124285322251371"><ele>11.0</ele><time>2026-04-30T15:48:49Z</time></trkpt><trkpt lat="38.12545834389971" lon="15.12392400980562"><ele>10.0</ele><time>2026-04-30T15:48:50Z</time></trkpt><trkpt lat="38.125244591556125" lon="15.123568188195373"><ele>9.0</ele><time>2026-04-30T15:48:51Z</time></trkpt><trkpt lat="38.12503335388203" lon="15.123209055854877"><ele>9.5</ele><time>2026-04-30T15:48:52Z</time></trkpt><trkpt lat="38.12482265921278" lon="15.122855619103754"><ele>10.0</ele><time>2026-04-30T15:48:53Z</time></trkpt><trkpt lat="38.124612497521795" lon="15.12249537645901"><ele>10.5</ele><time>2026-04-30T15:48:54Z</time></trkpt><trkpt lat="38.124405308350454" lon="15.12214293390521"><ele>11.0</ele><time>2026-04-30T15:48:55Z</time></trkpt><trkpt lat="38.12419349776748" lon="15.121783190978663"><ele>9.0</ele><time>2026-04-30T15:48:56Z</time></trkpt><trkpt lat="38.12397812791057" lon="15.12142956486257"><ele>7.0</ele><time>2026-04-30T15:48:57Z</time></trkpt><trkpt lat="38.123766498734334" lon="15.121074528629643"><ele>7.5</ele><time>2026-04-30T15:48:58Z</time></trkpt><trkpt lat="38.123554667594135" lon="15.120718284092929"><ele>8.0</ele><time>2026-04-30T15:48:59Z</time></trkpt><trkpt lat="38.12334073357894" lon="15.120357909399754"><ele>7.5</ele><time>2026-04-30T15:49:00Z</time></trkpt><trkpt lat="38.123124424591296" lon="15.119997302893696"><ele>7.0</ele><time>2026-04-30T15:49:01Z</time></trkpt><trkpt lat="38.12290847613608" lon="15.1196369404861"><ele>7.0</ele><time>2026-04-30T15:49:02Z</time></trkpt><trkpt lat="38.122696235367805" lon="15.119280947677908"><ele>7.0</ele><time>2026-04-30T15:49:03Z</time></trkpt><trkpt lat="38.12248100701811" lon="15.118938280619277"><ele>6.5</ele><time>2026-04-30T15:49:04Z</time></trkpt><trkpt lat="38.1222602310189" lon="15.11859390554826"><ele>6.0</ele><time>2026-04-30T15:49:05Z</time></trkpt><trkpt lat="38.12203794398691" lon="15.118255709104996"><ele>6.0</ele><time>2026-04-30T15:49:06Z</time></trkpt><trkpt lat="38.12181278843044" lon="15.117920700079472"><ele>6.0</ele><time>2026-04-30T15:49:07Z</time></trkpt><trkpt lat="38.121590594597734" lon="15.1175893757666"><ele>6.0</ele><time>2026-04-30T15:49:08Z</time></trkpt><trkpt lat="38.12136109848625" lon="15.117265714843699"><ele>6.0</ele><time>2026-04-30T15:49:09Z</time></trkpt><trkpt lat="38.12113493966212" lon="15.116943251295227"><ele>6.0</ele><time>2026-04-30T15:49:10Z</time></trkpt><trkpt lat="38.120908760122276" lon="15.116617687021387"><ele>6.0</ele><time>2026-04-30T15:49:11Z</time></trkpt><trkpt lat="38.12068210490445" lon="15.116296229418545"><ele>6.5</ele><time>2026-04-30T15:49:12Z</time></trkpt><trkpt lat="38.12044817167458" lon="15.11596358161104"><ele>7.0</ele><time>2026-04-30T15:49:13Z</time></trkpt><trkpt lat="38.12020065974517" lon="15.115610174958135"><ele>7.0</ele><time>2026-04-30T15:49:14Z</time></trkpt><trkpt lat="38.11995319029331" lon="15.11525849624544"><ele>7.0</ele><time>2026-04-30T15:49:15Z</time></trkpt><trkpt lat="38.11972682734157" lon="15.114931051465156"><ele>7.5</ele><time>2026-04-30T15:49:16Z</time></trkpt><trkpt lat="38.11952323915271" lon="15.114627411310206"><ele>8.0</ele><time>2026-04-30T15:49:17Z</time></trkpt><trkpt lat="38.11931284639102" lon="15.114321618409106"><ele>7.5</ele><time>2026-04-30T15:49:18Z</time></trkpt><trkpt lat="38.119106699545526" lon="15.114020198379865"><ele>7.0</ele><time>2026-04-30T15:49:19Z</time></trkpt><trkpt lat="38.118901297642296" lon="15.113723515140157"><ele>7.0</ele><time>2026-04-30T15:49:20Z</time></trkpt><trkpt lat="38.11869468624913" lon="15.113418689551029"><ele>7.0</ele><time>2026-04-30T15:49:21Z</time></trkpt><trkpt lat="38.11849375419934" lon="15.113111952512288"><ele>7.5</ele><time>2026-04-30T15:49:22Z</time></trkpt><trkpt lat="38.11829150995042" lon="15.112800231059058"><ele>8.0</ele><time>2026-04-30T15:49:23Z</time></trkpt><trkpt lat="38.118087807706345" lon="15.112486702539696"><ele>7.5</ele><time>2026-04-30T15:49:24Z</time></trkpt><trkpt lat="38.117883705374794" lon="15.112178997071789"><ele>7.0</ele><time>2026-04-30T15:49:25Z</time></trkpt><trkpt lat="38.11767649542858" lon="15.111875837591032"><ele>7.0</ele><time>2026-04-30T15:49:26Z</time></trkpt><trkpt lat="38.11746693541449" lon="15.111577468020192"><ele>7.0</ele><time>2026-04-30T15:49:27Z</time></trkpt><trkpt lat="38.11725940302647" lon="15.111270282945132"><ele>8.0</ele><time>2026-04-30T15:49:28Z</time></trkpt><trkpt lat="38.11705345426084" lon="15.11096741707858"><ele>9.0</ele><time>2026-04-30T15:49:29Z</time></trkpt><trkpt lat="38.116858623626804" lon="15.110667722880942"><ele>9.0</ele><time>2026-04-30T15:49:30Z</time></trkpt><trkpt lat="38.116669825078034" lon="15.110360058777697"><ele>9.0</ele><time>2026-04-30T15:49:31Z</time></trkpt><trkpt lat="38.11649874054939" lon="15.110051946711097"><ele>8.0</ele><time>2026-04-30T15:49:32.001Z</time></trkpt><trkpt lat="38.116330807522125" lon="15.109732215822948"><ele>7.0</ele><time>2026-04-30T15:49:33.001Z</time></trkpt><trkpt lat="38.11617502859247" lon="15.109411330121256"><ele>7.0</ele><time>2026-04-30T15:49:34.001Z</time></trkpt><trkpt lat="38.11602779301753" lon="15.109087113950784"><ele>7.0</ele><time>2026-04-30T15:49:35.001Z</time></trkpt><trkpt lat="38.11588699178587" lon="15.10875461429017"><ele>7.5</ele><time>2026-04-30T15:49:36.001Z</time></trkpt><trkpt lat="38.11574988004799" lon="15.108416880852928"><ele>8.0</ele><time>2026-04-30T15:49:37.001Z</time></trkpt><trkpt lat="38.11561685804999" lon="15.108068840920286"><ele>8.0</ele><time>2026-04-30T15:49:38.001Z</time></trkpt><trkpt lat="38.11549586853096" lon="15.10771907451275"><ele>8.0</ele><time>2026-04-30T15:49:39.001Z</time></trkpt><trkpt lat="38.11538633145608" lon="15.107355388017176"><ele>8.5</ele><time>2026-04-30T15:49:40.001Z</time></trkpt><trkpt lat="38.11529261601462" lon="15.106987357489027"><ele>9.0</ele><time>2026-04-30T15:49:41.001Z</time></trkpt><trkpt lat="38.11521158558309" lon="15.106616988286127"><ele>9.0</ele><time>2026-04-30T15:49:42.001Z</time></trkpt><trkpt lat="38.11513722870049" lon="15.106241048038877"><ele>9.0</ele><time>2026-04-30T15:49:43.001Z</time></trkpt><trkpt lat="38.11507038780333" lon="15.1058530997881"><ele>9.0</ele><time>2026-04-30T15:49:44.001Z</time></trkpt><trkpt lat="38.11501262801662" lon="15.10546920372196"><ele>9.0</ele><time>2026-04-30T15:49:45.001Z</time></trkpt><trkpt lat="38.114967108130855" lon="15.105067415945797"><ele>8.5</ele><time>2026-04-30T15:49:46.001Z</time></trkpt><trkpt lat="38.11492916875882" lon="15.104671416499203"><ele>8.0</ele><time>2026-04-30T15:49:47.001Z</time></trkpt><trkpt lat="38.11489564214555" lon="15.10426824022043"><ele>8.5</ele><time>2026-04-30T15:49:48.001Z</time></trkpt><trkpt lat="38.114863510087005" lon="15.103867799546576"><ele>9.0</ele><time>2026-04-30T15:49:49.001Z</time></trkpt><trkpt lat="38.11481934988823" lon="15.103474252839353"><ele>8.5</ele><time>2026-04-30T15:49:50.001Z</time></trkpt><trkpt lat="38.11477528046856" lon="15.103073881414243"><ele>8.0</ele><time>2026-04-30T15:49:51.001Z</time></trkpt><trkpt lat="38.1147318227898" lon="15.102680408973832"><ele>8.5</ele><time>2026-04-30T15:49:51.999Z</time></trkpt><trkpt lat="38.11468860113843" lon="15.10228801714986"><ele>9.0</ele><time>2026-04-30T15:49:52.999Z</time></trkpt><trkpt lat="38.114641447054666" lon="15.101894570587207"><ele>9.0</ele><time>2026-04-30T15:49:53.999Z</time></trkpt><trkpt lat="38.11458927907669" lon="15.101495808982426"><ele>9.0</ele><time>2026-04-30T15:49:54.999Z</time></trkpt><trkpt lat="38.114530179991576" lon="15.10107260850385"><ele>8.5</ele><time>2026-04-30T15:49:55.999Z</time></trkpt><trkpt lat="38.11447784850677" lon="15.100651786345104"><ele>8.0</ele><time>2026-04-30T15:49:56.999Z</time></trkpt><trkpt lat="38.114430086509195" lon="15.100202082245591"><ele>8.5</ele><time>2026-04-30T15:49:57.999Z</time></trkpt><trkpt lat="38.114374951232094" lon="15.099762590147067"><ele>9.0</ele><time>2026-04-30T15:49:58.999Z</time></trkpt><trkpt lat="38.11433545580126" lon="15.099323263008486"><ele>9.5</ele><time>2026-04-30T15:49:59.999Z</time></trkpt><trkpt lat="38.114287667775315" lon="15.098883740203863"><ele>10.0</ele><time>2026-04-30T15:50:00.999Z</time></trkpt><trkpt lat="38.11423284152168" lon="15.098440882700773"><ele>11.5</ele><time>2026-04-30T15:50:01.999Z</time></trkpt><trkpt lat="38.114179873644794" lon="15.09799926864616"><ele>13.0</ele><time>2026-04-30T15:50:02.999Z</time></trkpt><trkpt lat="38.114140094921936" lon="15.097579545453904"><ele>13.0</ele><time>2026-04-30T15:50:03.999Z</time></trkpt><trkpt lat="38.114091479891684" lon="15.097148216469362"><ele>13.0</ele><time>2026-04-30T15:50:04.999Z</time></trkpt><trkpt lat="38.11404031346193" lon="15.09669060888461"><ele>21.5</ele><time>2026-04-30T15:50:05.999Z</time></trkpt><trkpt lat="38.113990134116136" lon="15.09623761764509"><ele>30.0</ele><time>2026-04-30T15:50:06.999Z</time></trkpt><trkpt lat="38.11393794466429" lon="15.095774675453777"><ele>24.5</ele><time>2026-04-30T15:50:07.999Z</time></trkpt><trkpt lat="38.11388789586758" lon="15.095317638912697"><ele>19.0</ele><time>2026-04-30T15:50:08.999Z</time></trkpt><trkpt lat="38.11384343390259" lon="15.094865630408988"><ele>15.0</ele><time>2026-04-30T15:50:09.999Z</time></trkpt><trkpt lat="38.11380430794193" lon="15.094410974203667"><ele>11.0</ele><time>2026-04-30T15:50:10.999Z</time></trkpt><trkpt lat="38.11377215142057" lon="15.093971539128793"><ele>11.0</ele><time>2026-04-30T15:50:11.999Z</time></trkpt><trkpt lat="38.11374807964994" lon="15.093530486649875"><ele>11.0</ele><time>2026-04-30T15:50:12.999Z</time></trkpt><trkpt lat="38.11372503474761" lon="15.093092429340233"><ele>11.0</ele><time>2026-04-30T15:50:13.999Z</time></trkpt><trkpt lat="38.11370936323904" lon="15.092648794713543"><ele>11.0</ele><time>2026-04-30T15:50:14.999Z</time></trkpt><trkpt lat="38.11369828380026" lon="15.092224889126884"><ele>12.0</ele><time>2026-04-30T15:50:15.999Z</time></trkpt><trkpt lat="38.11369468004747" lon="15.091798259654416"><ele>13.0</ele><time>2026-04-30T15:50:16.999Z</time></trkpt><trkpt lat="38.11369633742778" lon="15.091376826240595"><ele>13.0</ele><time>2026-04-30T15:50:18Z</time></trkpt><trkpt lat="38.11370290075495" lon="15.090960737977104"><ele>13.0</ele><time>2026-04-30T15:50:19Z</time></trkpt><trkpt lat="38.11371597565232" lon="15.090547032904984"><ele>14.0</ele><time>2026-04-30T15:50:20Z</time></trkpt><trkpt lat="38.11373400685548" lon="15.090141461502668"><ele>15.0</ele><time>2026-04-30T15:50:21Z</time></trkpt><trkpt lat="38.11375655781054" lon="15.089735154292201"><ele>18.0</ele><time>2026-04-30T15:50:22Z</time></trkpt><trkpt lat="38.11377813641734" lon="15.089344772388552"><ele>21.0</ele><time>2026-04-30T15:50:23Z</time></trkpt><trkpt lat="38.113800621839424" lon="15.088955518347277"><ele>21.5</ele><time>2026-04-30T15:50:24Z</time></trkpt><trkpt lat="38.11382129045823" lon="15.088577777616647"><ele>22.0</ele><time>2026-04-30T15:50:25Z</time></trkpt><trkpt lat="38.11384322547901" lon="15.08819544221089"><ele>20.5</ele><time>2026-04-30T15:50:26Z</time></trkpt><trkpt lat="38.113858499018285" lon="15.087828874258001"><ele>19.0</ele><time>2026-04-30T15:50:27Z</time></trkpt><trkpt lat="38.113882210126924" lon="15.087462421140383"><ele>16.5</ele><time>2026-04-30T15:50:28Z</time></trkpt><trkpt lat="38.113905619054435" lon="15.087121489968148"><ele>14.0</ele><time>2026-04-30T15:50:29Z</time></trkpt><trkpt lat="38.1139251014929" lon="15.086797992282937"><ele>14.0</ele><time>2026-04-30T15:50:30Z</time></trkpt><trkpt lat="38.113939014505675" lon="15.086473946754243"><ele>14.0</ele><time>2026-04-30T15:50:31Z</time></trkpt><trkpt lat="38.11395426006125" lon="15.086149462849594"><ele>14.0</ele><time>2026-04-30T15:50:32Z</time></trkpt><trkpt lat="38.11397226794431" lon="15.085815494193684"><ele>14.0</ele><time>2026-04-30T15:50:33Z</time></trkpt><trkpt lat="38.113987051961" lon="15.085480953630645"><ele>14.0</ele><time>2026-04-30T15:50:34Z</time></trkpt><trkpt lat="38.114003569628785" lon="15.085148149080938"><ele>14.0</ele><time>2026-04-30T15:50:35Z</time></trkpt><trkpt lat="38.11402170207394" lon="15.084827074843604"><ele>14.0</ele><time>2026-04-30T15:50:36Z</time></trkpt><trkpt lat="38.11404198929918" lon="15.084492602133679"><ele>14.0</ele><time>2026-04-30T15:50:37Z</time></trkpt><trkpt lat="38.114064890297776" lon="15.084165084777606"><ele>13.0</ele><time>2026-04-30T15:50:38Z</time></trkpt><trkpt lat="38.11408454467672" lon="15.083839004144911"><ele>12.0</ele><time>2026-04-30T15:50:39Z</time></trkpt><trkpt lat="38.114099816774896" lon="15.083528945561124"><ele>11.0</ele><time>2026-04-30T15:50:40Z</time></trkpt><trkpt lat="38.114103078952866" lon="15.083207384757378"><ele>10.0</ele><time>2026-04-30T15:50:41Z</time></trkpt><trkpt lat="38.114104931228205" lon="15.082898217397487"><ele>10.0</ele><time>2026-04-30T15:50:42Z</time></trkpt><trkpt lat="38.11410440561692" lon="15.08258449945843"><ele>10.0</ele><time>2026-04-30T15:50:43Z</time></trkpt><trkpt lat="38.11409931692634" lon="15.082275195441435"><ele>9.5</ele><time>2026-04-30T15:50:44Z</time></trkpt><trkpt lat="38.11408835414362" lon="15.08196512543381"><ele>9.0</ele><time>2026-04-30T15:50:45Z</time></trkpt><trkpt lat="38.114073170880694" lon="15.081655809648986"><ele>16.0</ele><time>2026-04-30T15:50:46Z</time></trkpt><trkpt lat="38.11405377364027" lon="15.081340313929156"><ele>23.0</ele><time>2026-04-30T15:50:47Z</time></trkpt><trkpt lat="38.11403257562384" lon="15.081036147573695"><ele>22.5</ele><time>2026-04-30T15:50:48Z</time></trkpt><trkpt lat="38.113999022633216" lon="15.080721272527102"><ele>22.0</ele><time>2026-04-30T15:50:49Z</time></trkpt><trkpt lat="38.11395620165587" lon="15.080373261155026"><ele>22.0</ele><time>2026-04-30T15:50:50Z</time></trkpt><trkpt lat="38.11390596956145" lon="15.079991294397278"><ele>22.0</ele><time>2026-04-30T15:50:51Z</time></trkpt><trkpt lat="38.113856571848714" lon="15.079582745175424"><ele>20.5</ele><time>2026-04-30T15:50:52Z</time></trkpt><trkpt lat="38.11380835203606" lon="15.079143587366877"><ele>19.0</ele><time>2026-04-30T15:50:53Z</time></trkpt><trkpt lat="38.11375941614974" lon="15.078691093197932"><ele>14.5</ele><time>2026-04-30T15:50:54Z</time></trkpt><trkpt lat="38.113714567444944" lon="15.078252610086656"><ele>10.0</ele><time>2026-04-30T15:50:55Z</time></trkpt><trkpt lat="38.11367002685636" lon="15.077831653236721"><ele>9.0</ele><time>2026-04-30T15:50:56Z</time></trkpt><trkpt lat="38.113630202874894" lon="15.077405084595366"><ele>8.0</ele><time>2026-04-30T15:50:57Z</time></trkpt><trkpt lat="38.11358260045861" lon="15.07699890465323"><ele>8.0</ele><time>2026-04-30T15:50:58Z</time></trkpt><trkpt lat="38.11353860102037" lon="15.076621539629159"><ele>8.0</ele><time>2026-04-30T15:50:59Z</time></trkpt><trkpt lat="38.11350318333963" lon="15.076254911700577"><ele>8.0</ele><time>2026-04-30T15:51:00Z</time></trkpt><trkpt lat="38.1134710967343" lon="15.075950763233315"><ele>8.0</ele><time>2026-04-30T15:51:01Z</time></trkpt><trkpt lat="38.11344232458478" lon="15.07567876194164"><ele>8.0</ele><time>2026-04-30T15:51:02Z</time></trkpt><trkpt lat="38.113415345140055" lon="15.075412567810291"><ele>8.0</ele><time>2026-04-30T15:51:03Z</time></trkpt><trkpt lat="38.113396061431025" lon="15.075176459841368"><ele>8.0</ele><time>2026-04-30T15:51:04Z</time></trkpt><trkpt lat="38.113363862987015" lon="15.074963691457873"><ele>8.333333333333332</ele><time>2026-04-30T15:51:05Z</time></trkpt><trkpt lat="38.1133725597312" lon="15.074735641807303"><ele>8.666666666666666</ele><time>2026-04-30T15:51:06Z</time></trkpt><trkpt lat="38.11337618412612" lon="15.074510616366618"><ele>9.0</ele><time>2026-04-30T15:51:07Z</time></trkpt><trkpt lat="38.113395703559675" lon="15.074293904242193"><ele>10.0</ele><time>2026-04-30T15:51:08Z</time></trkpt><trkpt lat="38.113434408391555" lon="15.074084569513444"><ele>11.0</ele><time>2026-04-30T15:51:09Z</time></trkpt><trkpt lat="38.11325341325595" lon="15.073918867393981"><ele>12.0</ele><time>2026-04-30T15:51:10Z</time></trkpt><trkpt lat="38.11324086123324" lon="15.073741256292703"><ele>12.0</ele><time>2026-04-30T15:51:11Z</time></trkpt><trkpt lat="38.11324070146606" lon="15.073556988508672"><ele>12.0</ele><time>2026-04-30T15:51:12Z</time></trkpt><trkpt lat="38.11324955341977" lon="15.073384325803568"><ele>12.0</ele><time>2026-04-30T15:51:13Z</time></trkpt><trkpt lat="38.11389980514718" lon="15.073222936708472"><ele>11.333333333333334</ele><time>2026-04-30T15:51:14Z</time></trkpt><trkpt lat="38.11404683973163" lon="15.073117354509963"><ele>10.666666666666668</ele><time>2026-04-30T15:51:15.001Z</time></trkpt><trkpt lat="38.11421396633515" lon="15.073005024031508"><ele>10.0</ele><time>2026-04-30T15:51:16.001Z</time></trkpt><trkpt lat="38.114380410919836" lon="15.072878013712714"><ele>10.0</ele><time>2026-04-30T15:51:17.001Z</time></trkpt><trkpt lat="38.11453494893489" lon="15.07275325659102"><ele>10.0</ele><time>2026-04-30T15:51:18.001Z</time></trkpt><trkpt lat="38.11468072112192" lon="15.072621552736505"><ele>10.0</ele><time>2026-04-30T15:51:19.001Z</time></trkpt><trkpt lat="38.11481567570699" lon="15.072488063262856"><ele>9.75</ele><time>2026-04-30T15:51:20.001Z</time></trkpt><trkpt lat="38.11492855144305" lon="15.072350437202344"><ele>9.5</ele><time>2026-04-30T15:51:21.001Z</time></trkpt><trkpt lat="38.11501395729563" lon="15.072201651935769"><ele>9.25</ele><time>2026-04-30T15:51:22.001Z</time></trkpt><trkpt lat="38.115073530808964" lon="15.072030424425426"><ele>9.0</ele><time>2026-04-30T15:51:23.001Z</time></trkpt><trkpt lat="38.115117032431" lon="15.071867314286875"><ele>9.0</ele><time>2026-04-30T15:51:24.001Z</time></trkpt><trkpt lat="38.11517772845602" lon="15.071628500724877"><ele>9.0</ele><time>2026-04-30T15:51:26.001Z</time></trkpt><trkpt lat="38.11517941617605" lon="15.071528585882811"><ele>9.0</ele><time>2026-04-30T15:51:27.001Z</time></trkpt><trkpt lat="38.115144636493426" lon="15.071410640472925"><ele>9.0</ele><time>2026-04-30T15:51:29.001Z</time></trkpt><trkpt lat="38.11512072016251" lon="15.071333841885325"><ele>9.0</ele><time>2026-04-30T15:51:30.001Z</time></trkpt><trkpt lat="38.11508501458116" lon="15.071239892876049"><ele>9.4</ele><time>2026-04-30T15:51:31.001Z</time></trkpt><trkpt lat="38.11505945554918" lon="15.071148650569542"><ele>9.8</ele><time>2026-04-30T15:51:32.001Z</time></trkpt><trkpt lat="38.115037708122166" lon="15.071020487494113"><ele>10.200000000000001</ele><time>2026-04-30T15:51:34.001Z</time></trkpt><trkpt lat="38.1150203865523" lon="15.070877283497003"><ele>10.600000000000001</ele><time>2026-04-30T15:51:36.001Z</time></trkpt><trkpt lat="38.1149936712326" lon="15.070796974114728"><ele>11.0</ele><time>2026-04-30T15:51:37.001Z</time></trkpt><trkpt lat="38.11496608855353" lon="15.070671811875235"><ele>11.166666666666666</ele><time>2026-04-30T15:51:39.001Z</time></trkpt><trkpt lat="38.114943357084755" lon="15.070581581258347"><ele>11.333333333333332</ele><time>2026-04-30T15:51:40.001Z</time></trkpt><trkpt lat="38.11491708472651" lon="15.070489680685116"><ele>11.5</ele><time>2026-04-30T15:51:41.001Z</time></trkpt><trkpt lat="38.11489612260802" lon="15.070365385291014"><ele>11.666666666666666</ele><time>2026-04-30T15:51:42.001Z</time></trkpt><trkpt lat="38.114876797267044" lon="15.070250493170597"><ele>11.833333333333334</ele><time>2026-04-30T15:51:43.001Z</time></trkpt><trkpt lat="38.11485928340186" lon="15.070155117116487"><ele>12.0</ele><time>2026-04-30T15:51:44.001Z</time></trkpt><trkpt lat="38.11484312243893" lon="15.070026045965388"><ele>12.0</ele><time>2026-04-30T15:51:46.001Z</time></trkpt><trkpt lat="38.11486488271018" lon="15.069921679721588"><ele>12.0</ele><time>2026-04-30T15:51:50.001Z</time></trkpt><trkpt lat="38.11490114276446" lon="15.069847776432452"><ele>12.0</ele><time>2026-04-30T15:51:52.001Z</time></trkpt><trkpt lat="38.11495929687133" lon="15.069793745352564"><ele>12.0</ele><time>2026-04-30T15:51:54.001Z</time></trkpt><trkpt lat="38.115028117652216" lon="15.069757822191665"><ele>12.0</ele><time>2026-04-30T15:51:56.001Z</time></trkpt><trkpt lat="38.11512027849686" lon="15.069777178772156"><ele>12.0</ele><time>2026-04-30T15:51:58Z</time></trkpt><trkpt lat="38.11519113432118" lon="15.069799382074288"><ele>12.0</ele><time>2026-04-30T15:52:04Z</time></trkpt><trkpt lat="38.1152488679562" lon="15.069707560116022"><ele>12.0</ele><time>2026-04-30T15:52:11Z</time></trkpt><trkpt lat="38.11525983837141" lon="15.069561448983595"><ele>12.0</ele><time>2026-04-30T15:52:13Z</time></trkpt><trkpt lat="38.11523850966052" lon="15.069477286514264"><ele>12.0</ele><time>2026-04-30T15:52:15Z</time></trkpt><trkpt lat="38.11522777204347" lon="15.069388968884894"><ele>12.0</ele><time>2026-04-30T15:52:18Z</time></trkpt><trkpt lat="38.11520710030072" lon="15.069299319632918"><ele>12.0</ele><time>2026-04-30T15:52:22Z</time></trkpt><trkpt lat="38.11517047377153" lon="15.069221448701601"><ele>12.0</ele><time>2026-04-30T15:52:42Z</time></trkpt><trkpt lat="38.115094969292414" lon="15.069183374728638"><ele>12.0</ele><time>2026-04-30T15:52:44Z</time></trkpt><trkpt lat="38.115003345366496" lon="15.069179376797056"><ele>12.0</ele><time>2026-04-30T15:52:46Z</time></trkpt><trkpt lat="38.11491582798774" lon="15.069206002203375"><ele>12.0</ele><time>2026-04-30T15:52:48Z</time></trkpt><trkpt lat="38.11486853029011" lon="15.069276487583931"><ele>12.0</ele><time>2026-04-30T15:52:50Z</time></trkpt><trkpt lat="38.114800562830716" lon="15.069364819946667"><ele>12.0</ele><time>2026-04-30T15:52:54.001Z</time></trkpt><trkpt lat="38.114763578299595" lon="15.069495806194158"><ele>11.8</ele><time>2026-04-30T15:52:56.001Z</time></trkpt><trkpt lat="38.11475226264963" lon="15.069588749372215"><ele>11.6</ele><time>2026-04-30T15:52:57.001Z</time></trkpt><trkpt lat="38.114744101673075" lon="15.069693977694708"><ele>11.4</ele><time>2026-04-30T15:52:58.001Z</time></trkpt><trkpt lat="38.11475006800195" lon="15.069777438316681"><ele>11.200000000000001</ele><time>2026-04-30T15:52:59.001Z</time></trkpt><trkpt lat="38.114640286585114" lon="15.069881977195552"><ele>11.0</ele><time>2026-04-30T15:53:02.001Z</time></trkpt><trkpt lat="38.114540541000636" lon="15.069873715571878"><ele>11.0</ele><time>2026-04-30T15:53:04.001Z</time></trkpt><trkpt lat="38.114414304399475" lon="15.069870829610622"><ele>11.0</ele><time>2026-04-30T15:53:06.001Z</time></trkpt><trkpt lat="38.11435036995955" lon="15.069855869706041"><ele>11.0</ele><time>2026-04-30T15:53:07.001Z</time></trkpt><trkpt lat="38.11428823908896" lon="15.06984040053666"><ele>11.0</ele><time>2026-04-30T15:53:08.001Z</time></trkpt><trkpt lat="38.114167211371374" lon="15.069802331055302"><ele>11.0</ele><time>2026-04-30T15:53:10.001Z</time></trkpt><trkpt lat="38.114101872506325" lon="15.069739101719536"><ele>12.0</ele><time>2026-04-30T15:53:11.001Z</time></trkpt><trkpt lat="38.11404718381843" lon="15.069661764674935"><ele>13.0</ele><time>2026-04-30T15:53:12.001Z</time></trkpt><trkpt lat="38.11398531742016" lon="15.06958527945132"><ele>14.000000000000002</ele><time>2026-04-30T15:53:13.001Z</time></trkpt><trkpt lat="38.11392108803136" lon="15.069502735246498"><ele>15.0</ele><time>2026-04-30T15:53:14.001Z</time></trkpt><trkpt lat="38.11384431619328" lon="15.069420578053311"><ele>16.0</ele><time>2026-04-30T15:53:15.001Z</time></trkpt><trkpt lat="38.11376788019488" lon="15.06933059835307"><ele>16.0</ele><time>2026-04-30T15:53:16.001Z</time></trkpt><trkpt lat="38.11366560073656" lon="15.069270478268814"><ele>16.0</ele><time>2026-04-30T15:53:17.001Z</time></trkpt><trkpt lat="38.11357684135834" lon="15.069184995424969"><ele>16.0</ele><time>2026-04-30T15:53:18.001Z</time></trkpt><trkpt lat="38.11350396771175" lon="15.069106624564126"><ele>16.0</ele><time>2026-04-30T15:53:19.001Z</time></trkpt><trkpt lat="38.113411497073365" lon="15.069018922207645"><ele>16.0</ele><time>2026-04-30T15:53:20.001Z</time></trkpt><trkpt lat="38.1133038712768" lon="15.06890757728739"><ele>17.6</ele><time>2026-04-30T15:53:21.001Z</time></trkpt><trkpt lat="38.11322921350388" lon="15.068830590412484"><ele>19.200000000000003</ele><time>2026-04-30T15:53:22.001Z</time></trkpt><trkpt lat="38.11313442582558" lon="15.06874995593744"><ele>20.799999999999997</ele><time>2026-04-30T15:53:24.001Z</time></trkpt><trkpt lat="38.1130765377036" lon="15.068699784512717"><ele>22.4</ele><time>2026-04-30T15:53:26.001Z</time></trkpt><trkpt lat="38.11296029807849" lon="15.068842876340256"><ele>24.0</ele><time>2026-04-30T15:53:31.001Z</time></trkpt><trkpt lat="38.112946323142246" lon="15.068976532189048"><ele>24.0</ele><time>2026-04-30T15:53:32.001Z</time></trkpt><trkpt lat="38.11290828275528" lon="15.069102260775542"><ele>24.0</ele><time>2026-04-30T15:53:33.001Z</time></trkpt><trkpt lat="38.11288462196253" lon="15.069239160673618"><ele>24.0</ele><time>2026-04-30T15:53:34.001Z</time></trkpt><trkpt lat="38.11285937011616" lon="15.069385266832242"><ele>24.0</ele><time>2026-04-30T15:53:35.001Z</time></trkpt><trkpt lat="38.11283431237478" lon="15.069543331074126"><ele>24.25</ele><time>2026-04-30T15:53:36.001Z</time></trkpt><trkpt lat="38.1128030712163" lon="15.06970903190601"><ele>24.5</ele><time>2026-04-30T15:53:37.001Z</time></trkpt><trkpt lat="38.112765917104234" lon="15.069878920449797"><ele>24.75</ele><time>2026-04-30T15:53:38.001Z</time></trkpt><trkpt lat="38.112730610382606" lon="15.07003660785053"><ele>25.0</ele><time>2026-04-30T15:53:39.001Z</time></trkpt><trkpt lat="38.11270321224855" lon="15.070183369622157"><ele>25.2</ele><time>2026-04-30T15:53:40.001Z</time></trkpt><trkpt lat="38.112656038737676" lon="15.070301513119592"><ele>25.4</ele><time>2026-04-30T15:53:41.001Z</time></trkpt><trkpt lat="38.112592664929615" lon="15.070398980487466"><ele>25.6</ele><time>2026-04-30T15:53:42.001Z</time></trkpt><trkpt lat="38.112497371967734" lon="15.070475930111428"><ele>25.8</ele><time>2026-04-30T15:53:43.001Z</time></trkpt><trkpt lat="38.11239087589894" lon="15.070562739747773"><ele>26.0</ele><time>2026-04-30T15:53:44.001Z</time></trkpt><trkpt lat="38.1122760416626" lon="15.070654542513013"><ele>29.0</ele><time>2026-04-30T15:53:45.001Z</time></trkpt><trkpt lat="38.11215374762051" lon="15.070759419452742"><ele>32.0</ele><time>2026-04-30T15:53:46.001Z</time></trkpt><trkpt lat="38.112043812355566" lon="15.070870295626028"><ele>35.0</ele><time>2026-04-30T15:53:47.001Z</time></trkpt><trkpt lat="38.111940830353284" lon="15.071001699047272"><ele>38.0</ele><time>2026-04-30T15:53:48.001Z</time></trkpt><trkpt lat="38.111868919357086" lon="15.071150763894838"><ele>38.0</ele><time>2026-04-30T15:53:49.001Z</time></trkpt><trkpt lat="38.11180447916158" lon="15.071283109924252"><ele>38.0</ele><time>2026-04-30T15:53:50.001Z</time></trkpt><trkpt lat="38.111757895944685" lon="15.071413830734631"><ele>38.0</ele><time>2026-04-30T15:53:51.001Z</time></trkpt><trkpt lat="38.111725365032115" lon="15.071555129848461"><ele>38.0</ele><time>2026-04-30T15:53:52.001Z</time></trkpt><trkpt lat="38.11173171955041" lon="15.071691554016308"><ele>35.0</ele><time>2026-04-30T15:53:53.001Z</time></trkpt><trkpt lat="38.111753354646545" lon="15.07183966505648"><ele>32.0</ele><time>2026-04-30T15:53:54.001Z</time></trkpt><trkpt lat="38.11179328811547" lon="15.07198601626772"><ele>29.0</ele><time>2026-04-30T15:53:55.001Z</time></trkpt><trkpt lat="38.111860196829994" lon="15.072123647135953"><ele>26.0</ele><time>2026-04-30T15:53:56.001Z</time></trkpt><trkpt lat="38.11195158758496" lon="15.072242458449615"><ele>26.0</ele><time>2026-04-30T15:53:57.001Z</time></trkpt><trkpt lat="38.11203193483449" lon="15.072345764675697"><ele>26.0</ele><time>2026-04-30T15:53:58.002Z</time></trkpt><trkpt lat="38.112072524632765" lon="15.072440748945642"><ele>26.0</ele><time>2026-04-30T15:53:59.002Z</time></trkpt><trkpt lat="38.11210647500479" lon="15.072540254918964"><ele>26.0</ele><time>2026-04-30T15:54:00.002Z</time></trkpt><trkpt lat="38.11212658351861" lon="15.072649700913287"><ele>26.0</ele><time>2026-04-30T15:54:01.002Z</time></trkpt><trkpt lat="38.11214318682594" lon="15.072787228602953"><ele>25.4</ele><time>2026-04-30T15:54:02.002Z</time></trkpt><trkpt lat="38.11211674194154" lon="15.072911419278052"><ele>24.8</ele><time>2026-04-30T15:54:03.002Z</time></trkpt><trkpt lat="38.11209511804949" lon="15.073048427691722"><ele>24.2</ele><time>2026-04-30T15:54:04Z</time></trkpt><trkpt lat="38.11205605174282" lon="15.073187183267239"><ele>23.599999999999998</ele><time>2026-04-30T15:54:05Z</time></trkpt><trkpt lat="38.112015333801914" lon="15.073291505803027"><ele>23.0</ele><time>2026-04-30T15:54:06Z</time></trkpt><trkpt lat="38.11188346855309" lon="15.073451102523773"><ele>23.0</ele><time>2026-04-30T15:54:09Z</time></trkpt><trkpt lat="38.111813125763895" lon="15.073560187504615"><ele>23.0</ele><time>2026-04-30T15:54:10Z</time></trkpt><trkpt lat="38.11170420842865" lon="15.073667758179477"><ele>23.0</ele><time>2026-04-30T15:54:11Z</time></trkpt><trkpt lat="38.111593195968325" lon="15.073821246092402"><ele>23.0</ele><time>2026-04-30T15:54:12Z</time></trkpt><trkpt lat="38.11149882280076" lon="15.074004175237643"><ele>27.0</ele><time>2026-04-30T15:54:13Z</time></trkpt><trkpt lat="38.111386753558286" lon="15.074182185571773"><ele>31.0</ele><time>2026-04-30T15:54:14Z</time></trkpt><trkpt lat="38.111265516261845" lon="15.074369721601125"><ele>35.0</ele><time>2026-04-30T15:54:15Z</time></trkpt><trkpt lat="38.11114808523813" lon="15.074533907892743"><ele>35.0</ele><time>2026-04-30T15:54:16Z</time></trkpt><trkpt lat="38.1110022911326" lon="15.074662076346545"><ele>35.0</ele><time>2026-04-30T15:54:17Z</time></trkpt><trkpt lat="38.11087426783656" lon="15.07481208277997"><ele>35.0</ele><time>2026-04-30T15:54:18Z</time></trkpt><trkpt lat="38.11074320446636" lon="15.074984608388123"><ele>40.666666666666664</ele><time>2026-04-30T15:54:19Z</time></trkpt><trkpt lat="38.11059634806315" lon="15.075137431174053"><ele>46.33333333333333</ele><time>2026-04-30T15:54:20Z</time></trkpt><trkpt lat="38.110460164832105" lon="15.075312343569488"><ele>52.0</ele><time>2026-04-30T15:54:21Z</time></trkpt><trkpt lat="38.110345769080176" lon="15.075485630349856"><ele>52.0</ele><time>2026-04-30T15:54:22Z</time></trkpt><trkpt lat="38.110279149489294" lon="15.075615053253003"><ele>52.0</ele><time>2026-04-30T15:54:23Z</time></trkpt><trkpt lat="38.11019263089509" lon="15.075700557555521"><ele>52.0</ele><time>2026-04-30T15:54:24Z</time></trkpt><trkpt lat="38.11011570137087" lon="15.075787163214857"><ele>52.0</ele><time>2026-04-30T15:54:25Z</time></trkpt><trkpt lat="38.11000868331315" lon="15.075832349586706"><ele>52.0</ele><time>2026-04-30T15:54:26Z</time></trkpt><trkpt lat="38.109897603953584" lon="15.075888466319649"><ele>53.400000000000006</ele><time>2026-04-30T15:54:27Z</time></trkpt><trkpt lat="38.10979868799438" lon="15.075950513340082"><ele>54.800000000000004</ele><time>2026-04-30T15:54:28Z</time></trkpt><trkpt lat="38.10972820689988" lon="15.07602244167815"><ele>56.2</ele><time>2026-04-30T15:54:29Z</time></trkpt><trkpt lat="38.10966801273533" lon="15.076110052523633"><ele>57.6</ele><time>2026-04-30T15:54:30Z</time></trkpt><trkpt lat="38.10961162580334" lon="15.07622573608723"><ele>59.0</ele><time>2026-04-30T15:54:31Z</time></trkpt><trkpt lat="38.1095329488017" lon="15.076364854592418"><ele>59.0</ele><time>2026-04-30T15:54:32Z</time></trkpt><trkpt lat="38.10944789042733" lon="15.076516937964628"><ele>59.0</ele><time>2026-04-30T15:54:33Z</time></trkpt><trkpt lat="38.10935490218087" lon="15.076676167892295"><ele>59.0</ele><time>2026-04-30T15:54:34Z</time></trkpt><trkpt lat="38.109266967198224" lon="15.076832792402563"><ele>55.75</ele><time>2026-04-30T15:54:35Z</time></trkpt><trkpt lat="38.10920251791064" lon="15.076983208363593"><ele>52.5</ele><time>2026-04-30T15:54:36Z</time></trkpt><trkpt lat="38.10912187495139" lon="15.07711142172168"><ele>49.25</ele><time>2026-04-30T15:54:37Z</time></trkpt><trkpt lat="38.1090211401486" lon="15.077215391330869"><ele>46.0</ele><time>2026-04-30T15:54:38Z</time></trkpt><trkpt lat="38.1089374485679" lon="15.077323359301673"><ele>46.0</ele><time>2026-04-30T15:54:39Z</time></trkpt><trkpt lat="38.108883568462275" lon="15.077411614561033"><ele>46.0</ele><time>2026-04-30T15:54:40Z</time></trkpt><trkpt lat="38.10882205874899" lon="15.0774889356692"><ele>46.0</ele><time>2026-04-30T15:54:42Z</time></trkpt><trkpt lat="38.10878157583259" lon="15.07759450311194"><ele>46.0</ele><time>2026-04-30T15:54:46.001Z</time></trkpt><trkpt lat="38.108756631163274" lon="15.077686230386234"><ele>46.0</ele><time>2026-04-30T15:54:47.001Z</time></trkpt><trkpt lat="38.108736680024336" lon="15.077802216454685"><ele>46.0</ele><time>2026-04-30T15:54:48.001Z</time></trkpt><trkpt lat="38.10870153293888" lon="15.077953550900746"><ele>45.0</ele><time>2026-04-30T15:54:49.001Z</time></trkpt><trkpt lat="38.108702843678394" lon="15.078130641539518"><ele>44.0</ele><time>2026-04-30T15:54:50.001Z</time></trkpt><trkpt lat="38.10869584111851" lon="15.078329728744485"><ele>43.0</ele><time>2026-04-30T15:54:51.001Z</time></trkpt><trkpt lat="38.10866956531653" lon="15.078553405811371"><ele>46.333333333333336</ele><time>2026-04-30T15:54:52.001Z</time></trkpt><trkpt lat="38.10867447874131" lon="15.078797174561288"><ele>49.66666666666667</ele><time>2026-04-30T15:54:53.001Z</time></trkpt><trkpt lat="38.10866011037774" lon="15.079065985036406"><ele>53.0</ele><time>2026-04-30T15:54:54.001Z</time></trkpt><trkpt lat="38.10863617066429" lon="15.079311457818825"><ele>54.25</ele><time>2026-04-30T15:54:55.001Z</time></trkpt><trkpt lat="38.10863816899149" lon="15.07951229530264"><ele>55.5</ele><time>2026-04-30T15:54:56.001Z</time></trkpt><trkpt lat="38.108624472239136" lon="15.079677778840743"><ele>56.75</ele><time>2026-04-30T15:54:57.001Z</time></trkpt><trkpt lat="38.10860985254826" lon="15.079772902344676"><ele>58.0</ele><time>2026-04-30T15:54:58.001Z</time></trkpt><trkpt lat="38.108562868779586" lon="15.079862932788718"><ele>58.0</ele><time>2026-04-30T15:55:00.001Z</time></trkpt><trkpt lat="38.10845958925361" lon="15.079687346448713"><ele>58.0</ele><time>2026-04-30T15:55:05.001Z</time></trkpt><trkpt lat="38.10844188777693" lon="15.079551137363115"><ele>58.0</ele><time>2026-04-30T15:55:06.001Z</time></trkpt><trkpt lat="38.10841758300316" lon="15.079443256206982"><ele>58.0</ele><time>2026-04-30T15:55:07.001Z</time></trkpt><trkpt lat="38.10838644417704" lon="15.079316030070753"><ele>58.0</ele><time>2026-04-30T15:55:09.001Z</time></trkpt><trkpt lat="38.108314940767166" lon="15.079299153314299"><ele>58.0</ele><time>2026-04-30T15:55:11.001Z</time></trkpt><trkpt lat="38.10822463279543" lon="15.079391763558569"><ele>58.0</ele><time>2026-04-30T15:55:13.001Z</time></trkpt><trkpt lat="38.1082082239288" lon="15.079510333235206"><ele>58.0</ele><time>2026-04-30T15:55:14.001Z</time></trkpt><trkpt lat="38.108200857577074" lon="15.07964263479933"><ele>58.0</ele><time>2026-04-30T15:55:15.001Z</time></trkpt><trkpt lat="38.10819492693835" lon="15.079810066056963"><ele>62.0</ele><time>2026-04-30T15:55:16.001Z</time></trkpt><trkpt lat="38.10818944534136" lon="15.079987396811616"><ele>66.0</ele><time>2026-04-30T15:55:17.001Z</time></trkpt><trkpt lat="38.10818034935411" lon="15.080143360423852"><ele>70.0</ele><time>2026-04-30T15:55:18.001Z</time></trkpt><trkpt lat="38.108167843500425" lon="15.080251774049069"><ele>74.0</ele><time>2026-04-30T15:55:19.001Z</time></trkpt><trkpt lat="38.10813697739029" lon="15.08033571904219"><ele>78.0</ele><time>2026-04-30T15:55:20.001Z</time></trkpt><trkpt lat="38.108080420522434" lon="15.080420207207714"><ele>78.0</ele><time>2026-04-30T15:55:21.001Z</time></trkpt><trkpt lat="38.10800731885137" lon="15.080478617629222"><ele>78.0</ele><time>2026-04-30T15:55:22.001Z</time></trkpt><trkpt lat="38.10792253386235" lon="15.080545829997321"><ele>78.0</ele><time>2026-04-30T15:55:23.001Z</time></trkpt><trkpt lat="38.107813540176124" lon="15.080635404020045"><ele>78.0</ele><time>2026-04-30T15:55:24.001Z</time></trkpt><trkpt lat="38.10771883377177" lon="15.08071564407079"><ele>78.0</ele><time>2026-04-30T15:55:25.001Z</time></trkpt><trkpt lat="38.10766520435024" lon="15.08077495225144"><ele>77.83333333333333</ele><time>2026-04-30T15:55:26.001Z</time></trkpt><trkpt lat="38.1076185119511" lon="15.080838615902527"><ele>77.66666666666667</ele><time>2026-04-30T15:55:27.001Z</time></trkpt><trkpt lat="38.107580413375295" lon="15.080938979666804"><ele>77.5</ele><time>2026-04-30T15:55:28.001Z</time></trkpt><trkpt lat="38.107583391385724" lon="15.08105101131993"><ele>77.33333333333334</ele><time>2026-04-30T15:55:29.001Z</time></trkpt><trkpt lat="38.10759037902151" lon="15.081139339999728"><ele>77.16666666666667</ele><time>2026-04-30T15:55:30.001Z</time></trkpt><trkpt lat="38.1076754960854" lon="15.08126156128685"><ele>77.0</ele><time>2026-04-30T15:55:32.001Z</time></trkpt><trkpt lat="38.107742965514134" lon="15.081326611435252"><ele>77.0</ele><time>2026-04-30T15:55:33.001Z</time></trkpt><trkpt lat="38.1078369985607" lon="15.081321146967044"><ele>77.0</ele><time>2026-04-30T15:55:34.001Z</time></trkpt><trkpt lat="38.10792193848047" lon="15.081359597756045"><ele>77.0</ele><time>2026-04-30T15:55:35.001Z</time></trkpt><trkpt lat="38.10796600239888" lon="15.081429082183721"><ele>77.0</ele><time>2026-04-30T15:55:36.001Z</time></trkpt><trkpt lat="38.1079633049056" lon="15.08153354540885"><ele>77.0</ele><time>2026-04-30T15:55:39.001Z</time></trkpt><trkpt lat="38.10788802675688" lon="15.081551161109278"><ele>77.0</ele><time>2026-04-30T15:55:42.001Z</time></trkpt><trkpt lat="38.10781203545253" lon="15.081483518533068"><ele>77.0</ele><time>2026-04-30T15:55:44.001Z</time></trkpt><trkpt lat="38.107732738405964" lon="15.081505133786932"><ele>77.0</ele><time>2026-04-30T15:55:46.001Z</time></trkpt><trkpt lat="38.10763971585438" lon="15.081521679025672"><ele>77.0</ele><time>2026-04-30T15:55:48.001Z</time></trkpt><trkpt lat="38.107508325082364" lon="15.081572806470598"><ele>77.0</ele><time>2026-04-30T15:55:50.001Z</time></trkpt><trkpt lat="38.107414754195425" lon="15.08160186809725"><ele>77.0</ele><time>2026-04-30T15:55:51.001Z</time></trkpt><trkpt lat="38.10731534648102" lon="15.081623323617144"><ele>79.2</ele><time>2026-04-30T15:55:52.001Z</time></trkpt><trkpt lat="38.107209046947624" lon="15.081642947427241"><ele>81.4</ele><time>2026-04-30T15:55:53.001Z</time></trkpt><trkpt lat="38.10710495465737" lon="15.081662163760276"><ele>83.60000000000001</ele><time>2026-04-30T15:55:54.001Z</time></trkpt><trkpt lat="38.106989007574576" lon="15.081686837670556"><ele>85.80000000000001</ele><time>2026-04-30T15:55:55.001Z</time></trkpt><trkpt lat="38.10687442698975" lon="15.081709088739121"><ele>88.0</ele><time>2026-04-30T15:55:56.002Z</time></trkpt><trkpt lat="38.10676616283083" lon="15.081736197021035"><ele>88.0</ele><time>2026-04-30T15:55:57.002Z</time></trkpt><trkpt lat="38.10666328552271" lon="15.08172281557827"><ele>88.0</ele><time>2026-04-30T15:55:58.002Z</time></trkpt><trkpt lat="38.10655856766928" lon="15.081702764177729"><ele>88.0</ele><time>2026-04-30T15:55:59.002Z</time></trkpt><trkpt lat="38.10646030621882" lon="15.081678898644043"><ele>88.0</ele><time>2026-04-30T15:56:00.002Z</time></trkpt><trkpt lat="38.10636054912938" lon="15.081638224885658"><ele>88.0</ele><time>2026-04-30T15:56:01.002Z</time></trkpt><trkpt lat="38.10625187643959" lon="15.081624736610806"><ele>89.75</ele><time>2026-04-30T15:56:02.002Z</time></trkpt><trkpt lat="38.1061390639596" lon="15.08162078365482"><ele>91.5</ele><time>2026-04-30T15:56:03.002Z</time></trkpt><trkpt lat="38.10592183176527" lon="15.08160918368114"><ele>93.25</ele><time>2026-04-30T15:56:05.002Z</time></trkpt><trkpt lat="38.105823454696655" lon="15.081595675788376"><ele>95.0</ele><time>2026-04-30T15:56:06.002Z</time></trkpt><trkpt lat="38.10573942373233" lon="15.081557261389932"><ele>99.0</ele><time>2026-04-30T15:56:07.002Z</time></trkpt><trkpt lat="38.10564684502037" lon="15.081509049401383"><ele>103.0</ele><time>2026-04-30T15:56:08.002Z</time></trkpt><trkpt lat="38.105548483014275" lon="15.081454197665092"><ele>107.0</ele><time>2026-04-30T15:56:09.002Z</time></trkpt><trkpt lat="38.105436942491615" lon="15.081391656304158"><ele>111.0</ele><time>2026-04-30T15:56:10.001Z</time></trkpt><trkpt lat="38.10531789260102" lon="15.081322179904946"><ele>111.0</ele><time>2026-04-30T15:56:11.001Z</time></trkpt><trkpt lat="38.105197402177446" lon="15.081250745990454"><ele>111.0</ele><time>2026-04-30T15:56:12.001Z</time></trkpt><trkpt lat="38.10507664411201" lon="15.081177549138076"><ele>111.0</ele><time>2026-04-30T15:56:13.001Z</time></trkpt><trkpt lat="38.10497997517589" lon="15.081118953769872"><ele>111.0</ele><time>2026-04-30T15:56:14.001Z</time></trkpt><trkpt lat="38.10487128124094" lon="15.081053069538996"><ele>112.6</ele><time>2026-04-30T15:56:15.001Z</time></trkpt><trkpt lat="38.104768215439165" lon="15.080990596765298"><ele>114.19999999999999</ele><time>2026-04-30T15:56:16.001Z</time></trkpt><trkpt lat="38.104669428462564" lon="15.080942183683435"><ele>115.80000000000001</ele><time>2026-04-30T15:56:17.001Z</time></trkpt><trkpt lat="38.10459134109701" lon="15.080912088869267"><ele>117.4</ele><time>2026-04-30T15:56:18.001Z</time></trkpt><trkpt lat="38.104506527882215" lon="15.080889598943058"><ele>119.0</ele><time>2026-04-30T15:56:19.001Z</time></trkpt><trkpt lat="38.10440982052785" lon="15.080869316421223"><ele>119.0</ele><time>2026-04-30T15:56:20.001Z</time></trkpt><trkpt lat="38.10430144291894" lon="15.080818500680637"><ele>119.0</ele><time>2026-04-30T15:56:21.001Z</time></trkpt><trkpt lat="38.10420516824551" lon="15.080811236063063"><ele>119.0</ele><time>2026-04-30T15:56:22.001Z</time></trkpt><trkpt lat="38.1041249298918" lon="15.080802933421415"><ele>119.0</ele><time>2026-04-30T15:56:23Z</time></trkpt><trkpt lat="38.10404472050083" lon="15.080820064870442"><ele>119.0</ele><time>2026-04-30T15:56:24Z</time></trkpt><trkpt lat="38.10397256448656" lon="15.080849658740336"><ele>120.6</ele><time>2026-04-30T15:56:25Z</time></trkpt><trkpt lat="38.103885021686416" lon="15.080899011912337"><ele>122.2</ele><time>2026-04-30T15:56:26Z</time></trkpt><trkpt lat="38.10377974708888" lon="15.080948623793887"><ele>123.79999999999998</ele><time>2026-04-30T15:56:27Z</time></trkpt><trkpt lat="38.10367139169975" lon="15.081009719658782"><ele>125.39999999999999</ele><time>2026-04-30T15:56:28Z</time></trkpt><trkpt lat="38.103598479345" lon="15.08105849970893"><ele>127.0</ele><time>2026-04-30T15:56:29Z</time></trkpt><trkpt lat="38.10351095355942" lon="15.081129279180317"><ele>127.0</ele><time>2026-04-30T15:56:30Z</time></trkpt><trkpt lat="38.10343967242024" lon="15.081218351882036"><ele>126.99999999999999</ele><time>2026-04-30T15:56:31Z</time></trkpt><trkpt lat="38.103364671421" lon="15.081320808595448"><ele>126.99999999999999</ele><time>2026-04-30T15:56:32Z</time></trkpt><trkpt lat="38.10329714972038" lon="15.081429122477768"><ele>127.0</ele><time>2026-04-30T15:56:33Z</time></trkpt><trkpt lat="38.10324194880315" lon="15.081542492905132"><ele>127.0</ele><time>2026-04-30T15:56:34Z</time></trkpt><trkpt lat="38.10318318880997" lon="15.081635687468943"><ele>127.50000000000001</ele><time>2026-04-30T15:56:35.001Z</time></trkpt><trkpt lat="38.1031490012097" lon="15.081715415668725"><ele>128.0</ele><time>2026-04-30T15:56:36.001Z</time></trkpt><trkpt lat="38.103054478748376" lon="15.081738795289148"><ele>128.5</ele><time>2026-04-30T15:56:42.001Z</time></trkpt><trkpt lat="38.10298083425099" lon="15.081699669222255"><ele>129.0</ele><time>2026-04-30T15:56:43.001Z</time></trkpt><trkpt lat="38.102894495975875" lon="15.081659630348135"><ele>129.5</ele><time>2026-04-30T15:56:44.001Z</time></trkpt><trkpt lat="38.10279191670775" lon="15.081625353707649"><ele>130.0</ele><time>2026-04-30T15:56:45.001Z</time></trkpt><trkpt lat="38.102661853666525" lon="15.081583059863837"><ele>131.0</ele><time>2026-04-30T15:56:46.001Z</time></trkpt><trkpt lat="38.102503915747285" lon="15.081526808856216"><ele>132.0</ele><time>2026-04-30T15:56:47.001Z</time></trkpt><trkpt lat="38.102321916920054" lon="15.081463303166721"><ele>133.0</ele><time>2026-04-30T15:56:48.001Z</time></trkpt><trkpt lat="38.10213131533969" lon="15.081396516494262"><ele>136.0</ele><time>2026-04-30T15:56:49.001Z</time></trkpt><trkpt lat="38.10192939557414" lon="15.08130368356961"><ele>139.0</ele><time>2026-04-30T15:56:50.001Z</time></trkpt><trkpt lat="38.101735566111586" lon="15.08123684930129"><ele>142.0</ele><time>2026-04-30T15:56:51.001Z</time></trkpt><trkpt lat="38.10155312983159" lon="15.081187908243395"><ele>143.33333333333334</ele><time>2026-04-30T15:56:52.001Z</time></trkpt><trkpt lat="38.101373171267014" lon="15.081124668513423"><ele>144.66666666666666</ele><time>2026-04-30T15:56:53.001Z</time></trkpt><trkpt lat="38.101197753550515" lon="15.081057086764028"><ele>146.0</ele><time>2026-04-30T15:56:54.001Z</time></trkpt><trkpt lat="38.10102377189066" lon="15.080982838161075"><ele>146.0</ele><time>2026-04-30T15:56:55.001Z</time></trkpt><trkpt lat="38.100840966134975" lon="15.080904935995692"><ele>146.0</ele><time>2026-04-30T15:56:56.001Z</time></trkpt><trkpt lat="38.10066476413472" lon="15.080831311278606"><ele>146.0</ele><time>2026-04-30T15:56:57.001Z</time></trkpt><trkpt lat="38.10048611100967" lon="15.080757681229588"><ele>148.0</ele><time>2026-04-30T15:56:58.001Z</time></trkpt><trkpt lat="38.10030373207716" lon="15.080684563775197"><ele>150.0</ele><time>2026-04-30T15:56:59.001Z</time></trkpt><trkpt lat="38.100123420905454" lon="15.080616197128629"><ele>152.0</ele><time>2026-04-30T15:57:00.001Z</time></trkpt><trkpt lat="38.09994745247897" lon="15.080547018210275"><ele>150.0</ele><time>2026-04-30T15:57:01.001Z</time></trkpt><trkpt lat="38.09977108333939" lon="15.08047903690928"><ele>148.0</ele><time>2026-04-30T15:57:02.001Z</time></trkpt><trkpt lat="38.09960308578555" lon="15.080418806834542"><ele>146.0</ele><time>2026-04-30T15:57:03.001Z</time></trkpt><trkpt lat="38.09944184607706" lon="15.080351933424645"><ele>146.0</ele><time>2026-04-30T15:57:04.001Z</time></trkpt><trkpt lat="38.09928962339016" lon="15.080281766096022"><ele>146.0</ele><time>2026-04-30T15:57:05.001Z</time></trkpt><trkpt lat="38.099132059712225" lon="15.08020183059728"><ele>146.0</ele><time>2026-04-30T15:57:06.001Z</time></trkpt><trkpt lat="38.098991632581544" lon="15.08009417271129"><ele>146.5</ele><time>2026-04-30T15:57:07.001Z</time></trkpt><trkpt lat="38.09885276419354" lon="15.08000304577306"><ele>147.0</ele><time>2026-04-30T15:57:08.001Z</time></trkpt><trkpt lat="38.09872326634285" lon="15.079925596512032"><ele>147.5</ele><time>2026-04-30T15:57:09.001Z</time></trkpt><trkpt lat="38.098616937056704" lon="15.079835542693036"><ele>148.0</ele><time>2026-04-30T15:57:10.001Z</time></trkpt><trkpt lat="38.09850630673668" lon="15.07973528856541"><ele>148.0</ele><time>2026-04-30T15:57:11.001Z</time></trkpt><trkpt lat="38.098407097534206" lon="15.079620357854735"><ele>148.0</ele><time>2026-04-30T15:57:12.001Z</time></trkpt><trkpt lat="38.09831600545294" lon="15.079496753742236"><ele>148.0</ele><time>2026-04-30T15:57:13.001Z</time></trkpt><trkpt lat="38.09823287734207" lon="15.0793601368857"><ele>148.0</ele><time>2026-04-30T15:57:14.001Z</time></trkpt><trkpt lat="38.098156111793685" lon="15.079218467517146"><ele>147.5</ele><time>2026-04-30T15:57:15.001Z</time></trkpt><trkpt lat="38.09807989829416" lon="15.079071476439871"><ele>147.0</ele><time>2026-04-30T15:57:16.001Z</time></trkpt><trkpt lat="38.09800785831895" lon="15.078918094474249"><ele>146.5</ele><time>2026-04-30T15:57:17.001Z</time></trkpt><trkpt lat="38.09793619849933" lon="15.078765561625112"><ele>146.0</ele><time>2026-04-30T15:57:18.001Z</time></trkpt><trkpt lat="38.097876566344496" lon="15.078607460977304"><ele>146.0</ele><time>2026-04-30T15:57:19.001Z</time></trkpt><trkpt lat="38.09783687196894" lon="15.078452602963058"><ele>146.0</ele><time>2026-04-30T15:57:20.001Z</time></trkpt><trkpt lat="38.097808767271815" lon="15.078289269884259"><ele>146.0</ele><time>2026-04-30T15:57:21.001Z</time></trkpt><trkpt lat="38.09779051393314" lon="15.078107558667629"><ele>146.0</ele><time>2026-04-30T15:57:22.001Z</time></trkpt><trkpt lat="38.09779094077695" lon="15.077936812689238"><ele>144.75</ele><time>2026-04-30T15:57:23.001Z</time></trkpt><trkpt lat="38.097819166824586" lon="15.077759938613358"><ele>143.5</ele><time>2026-04-30T15:57:24.001Z</time></trkpt><trkpt lat="38.097852699701605" lon="15.077578674183579"><ele>142.25</ele><time>2026-04-30T15:57:25.001Z</time></trkpt><trkpt lat="38.097903085861645" lon="15.077384747040252"><ele>141.0</ele><time>2026-04-30T15:57:26.001Z</time></trkpt><trkpt lat="38.097947046768134" lon="15.07717820674168"><ele>141.0</ele><time>2026-04-30T15:57:27.001Z</time></trkpt><trkpt lat="38.09798457145585" lon="15.076961444291204"><ele>141.0</ele><time>2026-04-30T15:57:28.001Z</time></trkpt><trkpt lat="38.09801159071124" lon="15.076744807505307"><ele>141.0</ele><time>2026-04-30T15:57:29.001Z</time></trkpt><trkpt lat="38.09801699144718" lon="15.076549168526066"><ele>142.6</ele><time>2026-04-30T15:57:30.001Z</time></trkpt><trkpt lat="38.09801369806508" lon="15.076374039364298"><ele>144.2</ele><time>2026-04-30T15:57:31.001Z</time></trkpt><trkpt lat="38.098011692709406" lon="15.076220983826559"><ele>145.8</ele><time>2026-04-30T15:57:32.001Z</time></trkpt><trkpt lat="38.098014643445005" lon="15.076088923079185"><ele>147.4</ele><time>2026-04-30T15:57:33.001Z</time></trkpt><trkpt lat="38.09801690324834" lon="15.07600266362087"><ele>149.0</ele><time>2026-04-30T15:57:34.001Z</time></trkpt><trkpt lat="38.09801916971122" lon="15.075916893546657"><ele>149.0</ele><time>2026-04-30T15:57:36.001Z</time></trkpt><trkpt lat="38.09799103118949" lon="15.075772686401415"><ele>149.0</ele><time>2026-04-30T15:58:27.001Z</time></trkpt><trkpt lat="38.097978307225894" lon="15.075658576536568"><ele>149.0</ele><time>2026-04-30T15:58:28.001Z</time></trkpt><trkpt lat="38.09796668901312" lon="15.075541083542605"><ele>149.0</ele><time>2026-04-30T15:58:29.001Z</time></trkpt><trkpt lat="38.09796152310659" lon="15.075420593232446"><ele>149.0</ele><time>2026-04-30T15:58:30.001Z</time></trkpt><trkpt lat="38.09795094072917" lon="15.075275982370387"><ele>153.0</ele><time>2026-04-30T15:58:31.001Z</time></trkpt><trkpt lat="38.09793720157447" lon="15.07510931404"><ele>157.0</ele><time>2026-04-30T15:58:32.001Z</time></trkpt><trkpt lat="38.09792557312947" lon="15.07495407753839"><ele>161.0</ele><time>2026-04-30T15:58:33.001Z</time></trkpt><trkpt lat="38.097946803506545" lon="15.074853308126483"><ele>165.0</ele><time>2026-04-30T15:58:34.001Z</time></trkpt><trkpt lat="38.09798075795025" lon="15.074779520923482"><ele>169.0</ele><time>2026-04-30T15:58:35.001Z</time></trkpt><trkpt lat="38.09802788600271" lon="15.0747071443942"><ele>174.0</ele><time>2026-04-30T15:58:36Z</time></trkpt><trkpt lat="38.09811467917026" lon="15.074651493355326"><ele>179.0</ele><time>2026-04-30T15:58:37Z</time></trkpt><trkpt lat="38.09822450004851" lon="15.074608131475209"><ele>184.0</ele><time>2026-04-30T15:58:38.001Z</time></trkpt><trkpt lat="38.098325736888036" lon="15.074555420647252"><ele>189.0</ele><time>2026-04-30T15:58:39.001Z</time></trkpt><trkpt lat="38.09843491492807" lon="15.074542908403151"><ele>194.0</ele><time>2026-04-30T15:58:40.001Z</time></trkpt><trkpt lat="38.09856437507561" lon="15.074556514086874"><ele>194.0</ele><time>2026-04-30T15:58:41.001Z</time></trkpt><trkpt lat="38.09871003566386" lon="15.074569116871471"><ele>194.0</ele><time>2026-04-30T15:58:42.001Z</time></trkpt><trkpt lat="38.098856577625874" lon="15.074582832634842"><ele>194.0</ele><time>2026-04-30T15:58:43.001Z</time></trkpt><trkpt lat="38.0989887694036" lon="15.074605460072155"><ele>194.0</ele><time>2026-04-30T15:58:44.001Z</time></trkpt><trkpt lat="38.09908983010693" lon="15.074623683165385"><ele>194.39999999999998</ele><time>2026-04-30T15:58:45.001Z</time></trkpt><trkpt lat="38.09917484131287" lon="15.074618936660334"><ele>194.8</ele><time>2026-04-30T15:58:46.001Z</time></trkpt><trkpt lat="38.09923002572787" lon="15.074561199488933"><ele>195.2</ele><time>2026-04-30T15:58:47.001Z</time></trkpt><trkpt lat="38.0992794247167" lon="15.074471348729096"><ele>195.60000000000002</ele><time>2026-04-30T15:58:48.001Z</time></trkpt><trkpt lat="38.09934842163726" lon="15.074358633270743"><ele>196.0</ele><time>2026-04-30T15:58:49.001Z</time></trkpt><trkpt lat="38.09942691950136" lon="15.074265931463492"><ele>195.99999999999997</ele><time>2026-04-30T15:58:50.001Z</time></trkpt><trkpt lat="38.09951496601078" lon="15.074215004689016"><ele>196.0</ele><time>2026-04-30T15:58:51.001Z</time></trkpt><trkpt lat="38.09959249264843" lon="15.074192268285158"><ele>196.0</ele><time>2026-04-30T15:58:52.001Z</time></trkpt><trkpt lat="38.09965768030469" lon="15.074205205517641"><ele>196.0</ele><time>2026-04-30T15:58:53.001Z</time></trkpt><trkpt lat="38.09971228607821" lon="15.074257150892784"><ele>195.99999999999997</ele><time>2026-04-30T15:58:54.001Z</time></trkpt><trkpt lat="38.099763923705524" lon="15.074338848928893"><ele>196.0</ele><time>2026-04-30T15:58:55.001Z</time></trkpt><trkpt lat="38.09982638075424" lon="15.074443869206041"><ele>195.99999999999997</ele><time>2026-04-30T15:58:56.001Z</time></trkpt><trkpt lat="38.09989199367057" lon="15.074539711805135"><ele>196.0</ele><time>2026-04-30T15:58:57.001Z</time></trkpt><trkpt lat="38.09995490318924" lon="15.074602938550461"><ele>196.0</ele><time>2026-04-30T15:58:58.001Z</time></trkpt><trkpt lat="38.100028094967115" lon="15.074648709453658"><ele>196.0</ele><time>2026-04-30T15:58:59.001Z</time></trkpt><trkpt lat="38.10011217806114" lon="15.074664345317581"><ele>195.99999999999997</ele><time>2026-04-30T15:59:00.001Z</time></trkpt><trkpt lat="38.100206306692655" lon="15.074643649232746"><ele>196.0</ele><time>2026-04-30T15:59:01.001Z</time></trkpt><trkpt lat="38.10032126804825" lon="15.074574907147706"><ele>196.66666666666666</ele><time>2026-04-30T15:59:02.001Z</time></trkpt><trkpt lat="38.10044178572169" lon="15.074474638271475"><ele>197.33333333333331</ele><time>2026-04-30T15:59:03.001Z</time></trkpt><trkpt lat="38.10055970988127" lon="15.074347315563692"><ele>198.0</ele><time>2026-04-30T15:59:04.001Z</time></trkpt><trkpt lat="38.10069666285541" lon="15.07421873401263"><ele>197.0</ele><time>2026-04-30T15:59:05.001Z</time></trkpt><trkpt lat="38.10084122713576" lon="15.074118231956424"><ele>196.0</ele><time>2026-04-30T15:59:06.001Z</time></trkpt><trkpt lat="38.100960471954124" lon="15.074059227273127"><ele>195.0</ele><time>2026-04-30T15:59:07.001Z</time></trkpt><trkpt lat="38.10105572733305" lon="15.074014921526485"><ele>194.0</ele><time>2026-04-30T15:59:08.001Z</time></trkpt><trkpt lat="38.10114971915043" lon="15.07399058616327"><ele>197.79999999999998</ele><time>2026-04-30T15:59:09.001Z</time></trkpt><trkpt lat="38.101244753906606" lon="15.073933894076728"><ele>201.6</ele><time>2026-04-30T15:59:11.001Z</time></trkpt><trkpt lat="38.1012433698546" lon="15.073795144168052"><ele>205.4</ele><time>2026-04-30T15:59:13.001Z</time></trkpt><trkpt lat="38.10119615725759" lon="15.073736057643899"><ele>209.2</ele><time>2026-04-30T15:59:14.001Z</time></trkpt><trkpt lat="38.101119682048285" lon="15.073717316680362"><ele>213.0</ele><time>2026-04-30T15:59:15.001Z</time></trkpt><trkpt lat="38.101011922029244" lon="15.073727748391676"><ele>213.0</ele><time>2026-04-30T15:59:16.001Z</time></trkpt><trkpt lat="38.1008873453325" lon="15.07374470260301"><ele>213.0</ele><time>2026-04-30T15:59:17.001Z</time></trkpt><trkpt lat="38.100746625378385" lon="15.073758880408045"><ele>213.0</ele><time>2026-04-30T15:59:18.001Z</time></trkpt><trkpt lat="38.10059023119653" lon="15.073774637428546"><ele>213.0</ele><time>2026-04-30T15:59:19.001Z</time></trkpt><trkpt lat="38.10041167368041" lon="15.073768817706528"><ele>214.66666666666669</ele><time>2026-04-30T15:59:20.001Z</time></trkpt><trkpt lat="38.10022729226869" lon="15.073745555545514"><ele>216.33333333333334</ele><time>2026-04-30T15:59:21.001Z</time></trkpt><trkpt lat="38.100019302727745" lon="15.073666841128176"><ele>218.0</ele><time>2026-04-30T15:59:22.001Z</time></trkpt><trkpt lat="38.09981745315399" lon="15.073587590712979"><ele>220.0</ele><time>2026-04-30T15:59:23.001Z</time></trkpt><trkpt lat="38.09960785995935" lon="15.07353411948523"><ele>222.0</ele><time>2026-04-30T15:59:24.001Z</time></trkpt><trkpt lat="38.09939708130942" lon="15.073508976839785"><ele>224.0</ele><time>2026-04-30T15:59:25.001Z</time></trkpt><trkpt lat="38.09921419021611" lon="15.073492324982727"><ele>223.33333333333334</ele><time>2026-04-30T15:59:26.001Z</time></trkpt><trkpt lat="38.09906069399931" lon="15.073440956144958"><ele>222.66666666666669</ele><time>2026-04-30T15:59:27.001Z</time></trkpt><trkpt lat="38.09891508300446" lon="15.073400558248077"><ele>222.0</ele><time>2026-04-30T15:59:28.001Z</time></trkpt><trkpt lat="38.09877693095116" lon="15.07330615223388"><ele>228.0</ele><time>2026-04-30T15:59:29.001Z</time></trkpt><trkpt lat="38.098629522259316" lon="15.073197582208966"><ele>234.0</ele><time>2026-04-30T15:59:30.001Z</time></trkpt><trkpt lat="38.098497514129924" lon="15.073111656977993"><ele>240.0</ele><time>2026-04-30T15:59:31.001Z</time></trkpt><trkpt lat="38.09837460208089" lon="15.073089554388474"><ele>246.0</ele><time>2026-04-30T15:59:32.001Z</time></trkpt><trkpt lat="38.0982451404353" lon="15.07310498945367"><ele>246.0</ele><time>2026-04-30T15:59:33.001Z</time></trkpt><trkpt lat="38.098121229050996" lon="15.073154509284452"><ele>246.0</ele><time>2026-04-30T15:59:34.001Z</time></trkpt><trkpt lat="38.09799785546389" lon="15.073233280414717"><ele>246.0</ele><time>2026-04-30T15:59:35.001Z</time></trkpt><trkpt lat="38.097877325538676" lon="15.07330045594092"><ele>246.0</ele><time>2026-04-30T15:59:36.001Z</time></trkpt><trkpt lat="38.09777547775782" lon="15.07333802141391"><ele>246.0</ele><time>2026-04-30T15:59:37.001Z</time></trkpt><trkpt lat="38.09768623670956" lon="15.073347859712669"><ele>246.00000000000003</ele><time>2026-04-30T15:59:38.001Z</time></trkpt><trkpt lat="38.097576178411266" lon="15.073292933583186"><ele>246.00000000000003</ele><time>2026-04-30T15:59:40.001Z</time></trkpt><trkpt lat="38.09753097873631" lon="15.073209002985765"><ele>246.0</ele><time>2026-04-30T15:59:41.001Z</time></trkpt><trkpt lat="38.097477111441904" lon="15.073104092629695"><ele>246.0</ele><time>2026-04-30T15:59:42.001Z</time></trkpt><trkpt lat="38.097406993744976" lon="15.072965599311802"><ele>242.25</ele><time>2026-04-30T15:59:43.001Z</time></trkpt><trkpt lat="38.09731042966504" lon="15.072850428667708"><ele>238.5</ele><time>2026-04-30T15:59:44.001Z</time></trkpt><trkpt lat="38.09719032327441" lon="15.072778283565237"><ele>234.75</ele><time>2026-04-30T15:59:45.001Z</time></trkpt><trkpt lat="38.097056663067896" lon="15.0727259333594"><ele>231.0</ele><time>2026-04-30T15:59:46.001Z</time></trkpt><trkpt lat="38.09691609926457" lon="15.072660054948694"><ele>231.0</ele><time>2026-04-30T15:59:47.001Z</time></trkpt><trkpt lat="38.096797217799015" lon="15.072571750185784"><ele>231.0</ele><time>2026-04-30T15:59:48.001Z</time></trkpt><trkpt lat="38.09669766267855" lon="15.07250424629102"><ele>231.0</ele><time>2026-04-30T15:59:49.001Z</time></trkpt><trkpt lat="38.09663998395418" lon="15.07238358290843"><ele>231.0</ele><time>2026-04-30T15:59:50.001Z</time></trkpt><trkpt lat="38.09658461982363" lon="15.072227622196706"><ele>233.75</ele><time>2026-04-30T15:59:51.001Z</time></trkpt><trkpt lat="38.0965073451587" lon="15.072074719908462"><ele>236.5</ele><time>2026-04-30T15:59:52.001Z</time></trkpt><trkpt lat="38.09640291236185" lon="15.071973743582546"><ele>239.25</ele><time>2026-04-30T15:59:53.001Z</time></trkpt><trkpt lat="38.09628186863649" lon="15.071912100686019"><ele>242.0</ele><time>2026-04-30T15:59:54.001Z</time></trkpt><trkpt lat="38.09614788302469" lon="15.071822133189762"><ele>242.0</ele><time>2026-04-30T15:59:55.001Z</time></trkpt><trkpt lat="38.09601783359523" lon="15.07171678324708"><ele>242.0</ele><time>2026-04-30T15:59:56.001Z</time></trkpt><trkpt lat="38.09588797579856" lon="15.071589353155165"><ele>242.0</ele><time>2026-04-30T15:59:57.001Z</time></trkpt><trkpt lat="38.09577697121472" lon="15.071510111840972"><ele>242.0</ele><time>2026-04-30T15:59:58.001Z</time></trkpt><trkpt lat="38.095704115918124" lon="15.071449938979669"><ele>245.83333333333334</ele><time>2026-04-30T15:59:59.001Z</time></trkpt><trkpt lat="38.095641308821705" lon="15.071405695992134"><ele>249.66666666666669</ele><time>2026-04-30T16:00:00.001Z</time></trkpt><trkpt lat="38.09559016765006" lon="15.07132455594372"><ele>253.5</ele><time>2026-04-30T16:00:02.001Z</time></trkpt><trkpt lat="38.0956043088888" lon="15.07123562175291"><ele>257.3333333333333</ele><time>2026-04-30T16:00:04.001Z</time></trkpt><trkpt lat="38.09570131031994" lon="15.07121976506255"><ele>261.16666666666663</ele><time>2026-04-30T16:00:06.001Z</time></trkpt><trkpt lat="38.095748654490635" lon="15.071285687162177"><ele>265.0</ele><time>2026-04-30T16:00:07.001Z</time></trkpt><trkpt lat="38.095828693919614" lon="15.071339875225005"><ele>269.0</ele><time>2026-04-30T16:00:08.001Z</time></trkpt><trkpt lat="38.09593793485538" lon="15.071435326465263"><ele>273.0</ele><time>2026-04-30T16:00:09.001Z</time></trkpt><trkpt lat="38.096045525427584" lon="15.071550234093914"><ele>277.0</ele><time>2026-04-30T16:00:10.001Z</time></trkpt><trkpt lat="38.096191381352696" lon="15.071637690404637"><ele>281.0</ele><time>2026-04-30T16:00:11.001Z</time></trkpt><trkpt lat="38.0962873409821" lon="15.071683169777078"><ele>283.25</ele><time>2026-04-30T16:00:12.001Z</time></trkpt><trkpt lat="38.09637583061757" lon="15.0716760317015"><ele>285.5</ele><time>2026-04-30T16:00:13.001Z</time></trkpt><trkpt lat="38.09647585463706" lon="15.071634651643953"><ele>287.75</ele><time>2026-04-30T16:00:14.001Z</time></trkpt><trkpt lat="38.096613427037134" lon="15.071587969027314"><ele>290.0</ele><time>2026-04-30T16:00:15.001Z</time></trkpt><trkpt lat="38.09675784979896" lon="15.071553499452104"><ele>290.0</ele><time>2026-04-30T16:00:16.001Z</time></trkpt><trkpt lat="38.09688895166891" lon="15.071527919002156"><ele>290.0</ele><time>2026-04-30T16:00:17.002Z</time></trkpt><trkpt lat="38.09700682279435" lon="15.071525788777704"><ele>290.0</ele><time>2026-04-30T16:00:18.002Z</time></trkpt><trkpt lat="38.097110677821" lon="15.07160248505666"><ele>290.0</ele><time>2026-04-30T16:00:19.002Z</time></trkpt><trkpt lat="38.09722823434945" lon="15.071681294838031"><ele>284.0</ele><time>2026-04-30T16:00:20.002Z</time></trkpt><trkpt lat="38.09737343370792" lon="15.071774016624959"><ele>278.0</ele><time>2026-04-30T16:00:21.002Z</time></trkpt><trkpt lat="38.09752159497073" lon="15.07188639957116"><ele>272.0</ele><time>2026-04-30T16:00:22.001Z</time></trkpt><trkpt lat="38.09766399332461" lon="15.07199383355133"><ele>272.0</ele><time>2026-04-30T16:00:23.001Z</time></trkpt><trkpt lat="38.097784368764074" lon="15.072077903057805"><ele>272.0</ele><time>2026-04-30T16:00:24.001Z</time></trkpt><trkpt lat="38.09790727516569" lon="15.072114622044538"><ele>272.0</ele><time>2026-04-30T16:00:25.001Z</time></trkpt><trkpt lat="38.098047940006396" lon="15.072106882508594"><ele>272.0</ele><time>2026-04-30T16:00:26.001Z</time></trkpt><trkpt lat="38.09820984141197" lon="15.072078805010186"><ele>275.6666666666667</ele><time>2026-04-30T16:00:27.001Z</time></trkpt><trkpt lat="38.098387895245054" lon="15.072060884157324"><ele>279.3333333333333</ele><time>2026-04-30T16:00:28.001Z</time></trkpt><trkpt lat="38.0985682825463" lon="15.072036476131549"><ele>283.0</ele><time>2026-04-30T16:00:29.001Z</time></trkpt><trkpt lat="38.098700273118496" lon="15.072008543615599"><ele>283.0</ele><time>2026-04-30T16:00:30.001Z</time></trkpt><trkpt lat="38.0988208805413" lon="15.071973351041985"><ele>283.0</ele><time>2026-04-30T16:00:31.001Z</time></trkpt><trkpt lat="38.09893062006098" lon="15.07189430898555"><ele>283.0</ele><time>2026-04-30T16:00:32.001Z</time></trkpt><trkpt lat="38.09902566752563" lon="15.071785942588397"><ele>283.0</ele><time>2026-04-30T16:00:33.001Z</time></trkpt><trkpt lat="38.099097704487676" lon="15.071645763360987"><ele>282.75</ele><time>2026-04-30T16:00:34.001Z</time></trkpt><trkpt lat="38.09914737767712" lon="15.07151521430871"><ele>282.5</ele><time>2026-04-30T16:00:35.001Z</time></trkpt><trkpt lat="38.099170141138444" lon="15.071360300141446"><ele>282.25</ele><time>2026-04-30T16:00:36.001Z</time></trkpt><trkpt lat="38.09915675247086" lon="15.071199603455732"><ele>282.0</ele><time>2026-04-30T16:00:37.001Z</time></trkpt><trkpt lat="38.09911713091588" lon="15.07104150104471"><ele>288.3333333333333</ele><time>2026-04-30T16:00:38.001Z</time></trkpt><trkpt lat="38.09904624130102" lon="15.0708698059179"><ele>294.66666666666663</ele><time>2026-04-30T16:00:39.001Z</time></trkpt><trkpt lat="38.09897930474009" lon="15.070671728814393"><ele>301.0</ele><time>2026-04-30T16:00:40Z</time></trkpt><trkpt lat="38.098927793015065" lon="15.070455210200208"><ele>304.3333333333333</ele><time>2026-04-30T16:00:41Z</time></trkpt><trkpt lat="38.09884756629982" lon="15.070252886664518"><ele>307.6666666666667</ele><time>2026-04-30T16:00:42Z</time></trkpt><trkpt lat="38.09878934322753" lon="15.070069445107883"><ele>311.0</ele><time>2026-04-30T16:00:43Z</time></trkpt><trkpt lat="38.09874344327808" lon="15.069924814482485"><ele>314.0</ele><time>2026-04-30T16:00:44Z</time></trkpt><trkpt lat="38.09871281047237" lon="15.069796987190749"><ele>317.0</ele><time>2026-04-30T16:00:45Z</time></trkpt><trkpt lat="38.09870568125058" lon="15.069671164467517"><ele>320.0</ele><time>2026-04-30T16:00:46Z</time></trkpt><trkpt lat="38.09871583745193" lon="15.069552200636696"><ele>323.0</ele><time>2026-04-30T16:00:47Z</time></trkpt><trkpt lat="38.09875222192909" lon="15.06944460538064"><ele>326.0</ele><time>2026-04-30T16:00:48Z</time></trkpt><trkpt lat="38.09881240273972" lon="15.06935000666979"><ele>326.0</ele><time>2026-04-30T16:00:49Z</time></trkpt><trkpt lat="38.09890299692629" lon="15.069287646017546"><ele>326.0</ele><time>2026-04-30T16:00:50Z</time></trkpt><trkpt lat="38.09900910163231" lon="15.069261307497943"><ele>326.0</ele><time>2026-04-30T16:00:51Z</time></trkpt><trkpt lat="38.09913158690254" lon="15.069252024677906"><ele>326.0</ele><time>2026-04-30T16:00:52Z</time></trkpt><trkpt lat="38.09928188815101" lon="15.069253922951704"><ele>321.5</ele><time>2026-04-30T16:00:53Z</time></trkpt><trkpt lat="38.09942866093094" lon="15.06924328682041"><ele>317.0</ele><time>2026-04-30T16:00:54Z</time></trkpt><trkpt lat="38.09954354327439" lon="15.06923666531155"><ele>312.5</ele><time>2026-04-30T16:00:55Z</time></trkpt><trkpt lat="38.099655333309805" lon="15.069203587815402"><ele>308.0</ele><time>2026-04-30T16:00:56Z</time></trkpt><trkpt lat="38.09973247603205" lon="15.069134881634442"><ele>313.25</ele><time>2026-04-30T16:00:57.001Z</time></trkpt><trkpt lat="38.09977555762403" lon="15.06902291301297"><ele>318.5</ele><time>2026-04-30T16:00:58.001Z</time></trkpt><trkpt lat="38.09979483416064" lon="15.068878048431548"><ele>323.75</ele><time>2026-04-30T16:00:59.001Z</time></trkpt><trkpt lat="38.099801304248295" lon="15.068720759912994"><ele>329.0</ele><time>2026-04-30T16:01:00.001Z</time></trkpt><trkpt lat="38.09981932365723" lon="15.068530563805655"><ele>329.0</ele><time>2026-04-30T16:01:01.001Z</time></trkpt><trkpt lat="38.099863586146164" lon="15.068327784791707"><ele>329.0</ele><time>2026-04-30T16:01:02.001Z</time></trkpt><trkpt lat="38.09990381261106" lon="15.068128006192092"><ele>329.0</ele><time>2026-04-30T16:01:03.001Z</time></trkpt><trkpt lat="38.09993716429948" lon="15.06796561815423"><ele>328.79999999999995</ele><time>2026-04-30T16:01:04.001Z</time></trkpt><trkpt lat="38.09993919774069" lon="15.06784810458574"><ele>328.59999999999997</ele><time>2026-04-30T16:01:05.001Z</time></trkpt><trkpt lat="38.09991016662465" lon="15.067740475831888"><ele>328.4</ele><time>2026-04-30T16:01:06.001Z</time></trkpt><trkpt lat="38.09984044990703" lon="15.067664254448529"><ele>328.2</ele><time>2026-04-30T16:01:07.001Z</time></trkpt><trkpt lat="38.09973935051299" lon="15.067628872221047"><ele>328.0</ele><time>2026-04-30T16:01:08.001Z</time></trkpt><trkpt lat="38.09960927523494" lon="15.067588449158183"><ele>328.0</ele><time>2026-04-30T16:01:09.001Z</time></trkpt><trkpt lat="38.0994679969443" lon="15.067524978786519"><ele>328.0</ele><time>2026-04-30T16:01:10.001Z</time></trkpt><trkpt lat="38.099327053171095" lon="15.067438147666435"><ele>328.0</ele><time>2026-04-30T16:01:11.001Z</time></trkpt><trkpt lat="38.09921172255454" lon="15.067290259334383"><ele>329.0</ele><time>2026-04-30T16:01:12.001Z</time></trkpt><trkpt lat="38.09908838674555" lon="15.06712921293196"><ele>330.0</ele><time>2026-04-30T16:01:13.001Z</time></trkpt><trkpt lat="38.098993789045146" lon="15.06692794243919"><ele>331.0</ele><time>2026-04-30T16:01:14.001Z</time></trkpt><trkpt lat="38.09893454136494" lon="15.066787306512236"><ele>331.0</ele><time>2026-04-30T16:01:15.001Z</time></trkpt><trkpt lat="38.09889735056868" lon="15.0667038469182"><ele>331.0</ele><time>2026-04-30T16:01:16.001Z</time></trkpt><trkpt lat="38.098789350411195" lon="15.066664122550309"><ele>331.0</ele><time>2026-04-30T16:01:18.001Z</time></trkpt><trkpt lat="38.09873416656177" lon="15.066724226125153"><ele>331.0</ele><time>2026-04-30T16:01:19.001Z</time></trkpt><trkpt lat="38.09870599434961" lon="15.066914798555587"><ele>331.0</ele><time>2026-04-30T16:01:21.001Z</time></trkpt><trkpt lat="38.09873665502312" lon="15.067043004981993"><ele>331.0</ele><time>2026-04-30T16:01:22.001Z</time></trkpt><trkpt lat="38.09879735985309" lon="15.067191576274285"><ele>331.0</ele><time>2026-04-30T16:01:23.001Z</time></trkpt><trkpt lat="38.09884456806629" lon="15.067349679877704"><ele>331.0</ele><time>2026-04-30T16:01:24.001Z</time></trkpt><trkpt lat="38.098853267140036" lon="15.067493309495628"><ele>331.0</ele><time>2026-04-30T16:01:25.001Z</time></trkpt><trkpt lat="38.0988465339548" lon="15.06761606865875"><ele>336.0</ele><time>2026-04-30T16:01:26.001Z</time></trkpt><trkpt lat="38.0988093139517" lon="15.067734164171792"><ele>341.0</ele><time>2026-04-30T16:01:27.001Z</time></trkpt><trkpt lat="38.09873485220068" lon="15.067839681651476"><ele>346.0</ele><time>2026-04-30T16:01:28.001Z</time></trkpt><trkpt lat="38.098640307911126" lon="15.067924625115026"><ele>351.0</ele><time>2026-04-30T16:01:29.001Z</time></trkpt><trkpt lat="38.09852803467555" lon="15.068000640475717"><ele>351.0</ele><time>2026-04-30T16:01:30.001Z</time></trkpt><trkpt lat="38.09839961736171" lon="15.068070308485547"><ele>351.0</ele><time>2026-04-30T16:01:31.001Z</time></trkpt><trkpt lat="38.09827039205738" lon="15.068103408451583"><ele>351.0</ele><time>2026-04-30T16:01:32.001Z</time></trkpt><trkpt lat="38.098153318309386" lon="15.068106624985415"><ele>351.0</ele><time>2026-04-30T16:01:33.001Z</time></trkpt><trkpt lat="38.098016691493875" lon="15.068084463392891"><ele>350.6666666666667</ele><time>2026-04-30T16:01:34.001Z</time></trkpt><trkpt lat="38.09783765315253" lon="15.068053368894804"><ele>350.33333333333337</ele><time>2026-04-30T16:01:35.001Z</time></trkpt><trkpt lat="38.097650320702904" lon="15.068024006255605"><ele>350.0</ele><time>2026-04-30T16:01:36.001Z</time></trkpt><trkpt lat="38.097461055127326" lon="15.068019397875945"><ele>353.33333333333337</ele><time>2026-04-30T16:01:37.001Z</time></trkpt><trkpt lat="38.09729933557145" lon="15.0680103714707"><ele>356.6666666666667</ele><time>2026-04-30T16:01:38.001Z</time></trkpt><trkpt lat="38.09714288993369" lon="15.068011653372556"><ele>360.0</ele><time>2026-04-30T16:01:39.001Z</time></trkpt><trkpt lat="38.09699382219529" lon="15.068046020696126"><ele>360.0</ele><time>2026-04-30T16:01:40.001Z</time></trkpt><trkpt lat="38.09683864579901" lon="15.068110861328657"><ele>360.0</ele><time>2026-04-30T16:01:41.001Z</time></trkpt><trkpt lat="38.096704875012556" lon="15.068160340858844"><ele>360.0</ele><time>2026-04-30T16:01:42.001Z</time></trkpt><trkpt lat="38.09661144760547" lon="15.068161127121705"><ele>360.0</ele><time>2026-04-30T16:01:43.001Z</time></trkpt><trkpt lat="38.096485037749694" lon="15.068152041591151"><ele>363.8</ele><time>2026-04-30T16:01:44.001Z</time></trkpt><trkpt lat="38.09639654726104" lon="15.06814112307362"><ele>367.6</ele><time>2026-04-30T16:01:45.001Z</time></trkpt><trkpt lat="38.096304708883636" lon="15.068120401534832"><ele>371.4</ele><time>2026-04-30T16:01:46.001Z</time></trkpt><trkpt lat="38.096240550078605" lon="15.068087592068835"><ele>375.2</ele><time>2026-04-30T16:01:47.001Z</time></trkpt><trkpt lat="38.096190978442124" lon="15.067991881083103"><ele>379.0</ele><time>2026-04-30T16:01:48.001Z</time></trkpt><trkpt lat="38.096187752631494" lon="15.067848220081823"><ele>379.0</ele><time>2026-04-30T16:01:49.001Z</time></trkpt><trkpt lat="38.09614500731237" lon="15.067675299931455"><ele>379.0</ele><time>2026-04-30T16:01:50.001Z</time></trkpt><trkpt lat="38.09608349426154" lon="15.067502466854178"><ele>379.0</ele><time>2026-04-30T16:01:51.001Z</time></trkpt><trkpt lat="38.09601038513329" lon="15.067307692707304"><ele>378.66666666666663</ele><time>2026-04-30T16:01:52.001Z</time></trkpt><trkpt lat="38.09589851542484" lon="15.067106043054588"><ele>378.3333333333333</ele><time>2026-04-30T16:01:53.001Z</time></trkpt><trkpt lat="38.09578566359589" lon="15.066892431692636"><ele>378.0</ele><time>2026-04-30T16:01:54.001Z</time></trkpt><trkpt lat="38.09567010305246" lon="15.066666375784473"><ele>385.0</ele><time>2026-04-30T16:01:55.001Z</time></trkpt><trkpt lat="38.09555102745027" lon="15.066440248785472"><ele>392.0</ele><time>2026-04-30T16:01:56.001Z</time></trkpt><trkpt lat="38.095430241965644" lon="15.066223601513007"><ele>399.0</ele><time>2026-04-30T16:01:57.001Z</time></trkpt><trkpt lat="38.09530732623313" lon="15.066020574206142"><ele>399.0</ele><time>2026-04-30T16:01:58.001Z</time></trkpt><trkpt lat="38.095205282194236" lon="15.065840233185453"><ele>399.0</ele><time>2026-04-30T16:01:59.001Z</time></trkpt><trkpt lat="38.095150769342304" lon="15.065652447584663"><ele>399.0</ele><time>2026-04-30T16:02:00.001Z</time></trkpt><trkpt lat="38.0951009834791" lon="15.065509763877136"><ele>399.79999999999995</ele><time>2026-04-30T16:02:01.001Z</time></trkpt><trkpt lat="38.09507179171853" lon="15.065393035499019"><ele>400.59999999999997</ele><time>2026-04-30T16:02:02.001Z</time></trkpt><trkpt lat="38.09507167498549" lon="15.065261847474309"><ele>401.4</ele><time>2026-04-30T16:02:03.001Z</time></trkpt><trkpt lat="38.095089567689435" lon="15.065113034750981"><ele>402.2</ele><time>2026-04-30T16:02:04.001Z</time></trkpt><trkpt lat="38.0951282450718" lon="15.064979745426045"><ele>403.0</ele><time>2026-04-30T16:02:05.001Z</time></trkpt><trkpt lat="38.09518552743289" lon="15.064849285605431"><ele>400.1666666666667</ele><time>2026-04-30T16:02:06.001Z</time></trkpt><trkpt lat="38.0952764169072" lon="15.064729769723355"><ele>397.33333333333337</ele><time>2026-04-30T16:02:07.001Z</time></trkpt><trkpt lat="38.09532896472728" lon="15.064638191010832"><ele>394.5</ele><time>2026-04-30T16:02:08.001Z</time></trkpt><trkpt lat="38.095346059958466" lon="15.06455571811457"><ele>391.66666666666663</ele><time>2026-04-30T16:02:09.001Z</time></trkpt><trkpt lat="38.09532407697875" lon="15.06447230710875"><ele>388.8333333333333</ele><time>2026-04-30T16:02:10.001Z</time></trkpt><trkpt lat="38.09526295308824" lon="15.064398865777148"><ele>386.0</ele><time>2026-04-30T16:02:11.001Z</time></trkpt><trkpt lat="38.09516838137184" lon="15.06433055971178"><ele>386.0</ele><time>2026-04-30T16:02:12.001Z</time></trkpt><trkpt lat="38.09505289604919" lon="15.064285605151342"><ele>386.0</ele><time>2026-04-30T16:02:13.001Z</time></trkpt><trkpt lat="38.09492251818293" lon="15.064264311033972"><ele>386.0</ele><time>2026-04-30T16:02:14.001Z</time></trkpt><trkpt lat="38.094774697728006" lon="15.064286134877909"><ele>386.0</ele><time>2026-04-30T16:02:15.001Z</time></trkpt><trkpt lat="38.09463002754202" lon="15.064293230829948"><ele>394.0</ele><time>2026-04-30T16:02:16.001Z</time></trkpt><trkpt lat="38.09449744763998" lon="15.064282421127167"><ele>402.0</ele><time>2026-04-30T16:02:17.001Z</time></trkpt><trkpt lat="38.094351207010064" lon="15.064244136404612"><ele>410.0</ele><time>2026-04-30T16:02:18.001Z</time></trkpt><trkpt lat="38.09418867341849" lon="15.064174231366566"><ele>407.5</ele><time>2026-04-30T16:02:19.001Z</time></trkpt><trkpt lat="38.09402365013523" lon="15.06410107281867"><ele>405.0</ele><time>2026-04-30T16:02:20.001Z</time></trkpt><trkpt lat="38.09388227046763" lon="15.064041129903542"><ele>402.5</ele><time>2026-04-30T16:02:21.001Z</time></trkpt><trkpt lat="38.09377393156647" lon="15.063977422165124"><ele>400.0</ele><time>2026-04-30T16:02:22.001Z</time></trkpt><trkpt lat="38.093654648949965" lon="15.063943904594208"><ele>400.0</ele><time>2026-04-30T16:02:23.001Z</time></trkpt><trkpt lat="38.093528646953544" lon="15.063943168414411"><ele>400.0</ele><time>2026-04-30T16:02:24.001Z</time></trkpt><trkpt lat="38.09337387299557" lon="15.063949661098105"><ele>400.0</ele><time>2026-04-30T16:02:25.001Z</time></trkpt><trkpt lat="38.09323113898216" lon="15.063940622169161"><ele>400.0</ele><time>2026-04-30T16:02:26.001Z</time></trkpt><trkpt lat="38.09308672730121" lon="15.06389430284108"><ele>404.33333333333337</ele><time>2026-04-30T16:02:27.001Z</time></trkpt><trkpt lat="38.09293228307742" lon="15.063822331394316"><ele>408.66666666666663</ele><time>2026-04-30T16:02:28.001Z</time></trkpt><trkpt lat="38.09276400087098" lon="15.063793311927007"><ele>413.0</ele><time>2026-04-30T16:02:29.001Z</time></trkpt><trkpt lat="38.092584635448475" lon="15.063826945968067"><ele>416.3333333333333</ele><time>2026-04-30T16:02:30.001Z</time></trkpt><trkpt lat="38.09239111038948" lon="15.063793920541006"><ele>419.66666666666663</ele><time>2026-04-30T16:02:31.001Z</time></trkpt><trkpt lat="38.09221858667769" lon="15.063752231104905"><ele>423.0</ele><time>2026-04-30T16:02:32.001Z</time></trkpt><trkpt lat="38.09206090752634" lon="15.063689655250139"><ele>423.0</ele><time>2026-04-30T16:02:33.001Z</time></trkpt><trkpt lat="38.09193776382937" lon="15.0636586998444"><ele>423.0</ele><time>2026-04-30T16:02:34.001Z</time></trkpt><trkpt lat="38.09180687755362" lon="15.063641275442336"><ele>423.0</ele><time>2026-04-30T16:02:35.001Z</time></trkpt><trkpt lat="38.09164170914841" lon="15.063665315333482"><ele>423.0</ele><time>2026-04-30T16:02:36.001Z</time></trkpt><trkpt lat="38.09144421546351" lon="15.063665702760607"><ele>424.66666666666663</ele><time>2026-04-30T16:02:37.001Z</time></trkpt><trkpt lat="38.091236123794815" lon="15.063692119739077"><ele>426.3333333333333</ele><time>2026-04-30T16:02:38.001Z</time></trkpt><trkpt lat="38.09102231852829" lon="15.06371061902642"><ele>428.0</ele><time>2026-04-30T16:02:39.001Z</time></trkpt><trkpt lat="38.09079985375303" lon="15.063722773595309"><ele>431.0</ele><time>2026-04-30T16:02:40Z</time></trkpt><trkpt lat="38.090597389850345" lon="15.063728648455312"><ele>434.0</ele><time>2026-04-30T16:02:41Z</time></trkpt><trkpt lat="38.090423812535" lon="15.0637336851169"><ele>437.0</ele><time>2026-04-30T16:02:42Z</time></trkpt><trkpt lat="38.0902652544822" lon="15.06372686813838"><ele>437.0</ele><time>2026-04-30T16:02:43Z</time></trkpt><trkpt lat="38.09011747005944" lon="15.063696745446755"><ele>437.0</ele><time>2026-04-30T16:02:44Z</time></trkpt><trkpt lat="38.08995913106428" lon="15.063669516999042"><ele>437.0</ele><time>2026-04-30T16:02:45Z</time></trkpt><trkpt lat="38.08980455600132" lon="15.063636355066116"><ele>439.5</ele><time>2026-04-30T16:02:46Z</time></trkpt><trkpt lat="38.08966675693012" lon="15.063584260058942"><ele>442.0</ele><time>2026-04-30T16:02:47Z</time></trkpt><trkpt lat="38.08952192305857" lon="15.063534578016727"><ele>444.5</ele><time>2026-04-30T16:02:48Z</time></trkpt><trkpt lat="38.08939543803276" lon="15.063467015973162"><ele>447.0</ele><time>2026-04-30T16:02:49Z</time></trkpt><trkpt lat="38.089260044028094" lon="15.063450739018213"><ele>447.0</ele><time>2026-04-30T16:02:50Z</time></trkpt><trkpt lat="38.089112328534334" lon="15.06346481598858"><ele>447.0</ele><time>2026-04-30T16:02:51Z</time></trkpt><trkpt lat="38.08895090074717" lon="15.063490647790243"><ele>447.0</ele><time>2026-04-30T16:02:52Z</time></trkpt><trkpt lat="38.08879707438627" lon="15.063442241300963"><ele>448.33333333333337</ele><time>2026-04-30T16:02:53Z</time></trkpt><trkpt lat="38.08863909074731" lon="15.063401568995623"><ele>449.6666666666667</ele><time>2026-04-30T16:02:54Z</time></trkpt><trkpt lat="38.088483412373876" lon="15.06334429974514"><ele>451.0</ele><time>2026-04-30T16:02:55Z</time></trkpt><trkpt lat="38.08834188187673" lon="15.063270767891167"><ele>452.6666666666667</ele><time>2026-04-30T16:02:56Z</time></trkpt><trkpt lat="38.08819041502731" lon="15.063164781353002"><ele>454.33333333333337</ele><time>2026-04-30T16:02:57Z</time></trkpt><trkpt lat="38.08800404685812" lon="15.06302770086556"><ele>456.0</ele><time>2026-04-30T16:02:58Z</time></trkpt><trkpt lat="38.087796416162355" lon="15.062885730588116"><ele>456.0</ele><time>2026-04-30T16:02:59Z</time></trkpt><trkpt lat="38.08757770928075" lon="15.062738653879174"><ele>456.0</ele><time>2026-04-30T16:03:00Z</time></trkpt><trkpt lat="38.08738055581366" lon="15.06259251597034"><ele>457.66666666666663</ele><time>2026-04-30T16:03:01Z</time></trkpt><trkpt lat="38.087205129940344" lon="15.062485097013113"><ele>459.3333333333333</ele><time>2026-04-30T16:03:02Z</time></trkpt><trkpt lat="38.08703936555606" lon="15.06235539562948"><ele>461.0</ele><time>2026-04-30T16:03:03Z</time></trkpt><trkpt lat="38.08689162324343" lon="15.062254051990388"><ele>463.66666666666663</ele><time>2026-04-30T16:03:04Z</time></trkpt><trkpt lat="38.086715644867766" lon="15.062128545008855"><ele>466.33333333333337</ele><time>2026-04-30T16:03:05Z</time></trkpt><trkpt lat="38.086542022375376" lon="15.061992129441059"><ele>469.0</ele><time>2026-04-30T16:03:06Z</time></trkpt><trkpt lat="38.08638164980764" lon="15.061906966318505"><ele>475.0</ele><time>2026-04-30T16:03:07Z</time></trkpt><trkpt lat="38.08624985477765" lon="15.061813513691181"><ele>481.0</ele><time>2026-04-30T16:03:08Z</time></trkpt><trkpt lat="38.086137879771606" lon="15.061717285241803"><ele>487.0</ele><time>2026-04-30T16:03:09Z</time></trkpt><trkpt lat="38.08604336349768" lon="15.061614729197906"><ele>493.0</ele><time>2026-04-30T16:03:10Z</time></trkpt><trkpt lat="38.08596479992532" lon="15.061487856393889"><ele>493.75</ele><time>2026-04-30T16:03:11Z</time></trkpt><trkpt lat="38.08591859037184" lon="15.06133200586397"><ele>494.5</ele><time>2026-04-30T16:03:12Z</time></trkpt><trkpt lat="38.08587908349805" lon="15.06116383899292"><ele>495.25</ele><time>2026-04-30T16:03:13Z</time></trkpt><trkpt lat="38.085852451414596" lon="15.060972444191394"><ele>496.0</ele><time>2026-04-30T16:03:14Z</time></trkpt><trkpt lat="38.085813453425644" lon="15.060774430593963"><ele>499.75</ele><time>2026-04-30T16:03:15Z</time></trkpt><trkpt lat="38.085773992931514" lon="15.060581198554967"><ele>503.5</ele><time>2026-04-30T16:03:16Z</time></trkpt><trkpt lat="38.085739897661824" lon="15.060404302825667"><ele>507.25</ele><time>2026-04-30T16:03:17Z</time></trkpt><trkpt lat="38.08568778507445" lon="15.060263557428522"><ele>511.0</ele><time>2026-04-30T16:03:18Z</time></trkpt><trkpt lat="38.08562404282835" lon="15.06014389126212"><ele>512.8333333333334</ele><time>2026-04-30T16:03:19Z</time></trkpt><trkpt lat="38.08554628713667" lon="15.0600710569947"><ele>514.6666666666667</ele><time>2026-04-30T16:03:20Z</time></trkpt><trkpt lat="38.085473919278016" lon="15.060043238827742"><ele>516.5</ele><time>2026-04-30T16:03:21Z</time></trkpt><trkpt lat="38.08540918977489" lon="15.060071810922524"><ele>518.3333333333334</ele><time>2026-04-30T16:03:22Z</time></trkpt><trkpt lat="38.085342015720485" lon="15.060120591783205"><ele>520.1666666666666</ele><time>2026-04-30T16:03:23Z</time></trkpt><trkpt lat="38.0853242392656" lon="15.060238839292547"><ele>522.0</ele><time>2026-04-30T16:03:24Z</time></trkpt><trkpt lat="38.08533015756872" lon="15.06035859992675"><ele>522.0</ele><time>2026-04-30T16:03:25Z</time></trkpt><trkpt lat="38.08536136544868" lon="15.060487165723352"><ele>522.0</ele><time>2026-04-30T16:03:26Z</time></trkpt><trkpt lat="38.0854154702017" lon="15.06062986602759"><ele>522.0</ele><time>2026-04-30T16:03:27Z</time></trkpt><trkpt lat="38.08548383445053" lon="15.060788082639656"><ele>522.0</ele><time>2026-04-30T16:03:28Z</time></trkpt><trkpt lat="38.08552248925802" lon="15.06095574219383"><ele>523.25</ele><time>2026-04-30T16:03:29Z</time></trkpt><trkpt lat="38.085543225011016" lon="15.061083443507991"><ele>524.5</ele><time>2026-04-30T16:03:30Z</time></trkpt><trkpt lat="38.08553619881996" lon="15.061217379379093"><ele>525.75</ele><time>2026-04-30T16:03:31Z</time></trkpt><trkpt lat="38.085501540319214" lon="15.061374491517759"><ele>527.0</ele><time>2026-04-30T16:03:32Z</time></trkpt><trkpt lat="38.085440408944166" lon="15.061500468185963"><ele>525.25</ele><time>2026-04-30T16:03:33Z</time></trkpt><trkpt lat="38.085364390547355" lon="15.061619528509235"><ele>523.5</ele><time>2026-04-30T16:03:34Z</time></trkpt><trkpt lat="38.085258680638546" lon="15.061745787737978"><ele>521.75</ele><time>2026-04-30T16:03:35Z</time></trkpt><trkpt lat="38.085140170508694" lon="15.061860499575621"><ele>520.0</ele><time>2026-04-30T16:03:36Z</time></trkpt><trkpt lat="38.085031447394805" lon="15.061944032589555"><ele>520.0</ele><time>2026-04-30T16:03:37Z</time></trkpt><trkpt lat="38.084944774471715" lon="15.061994941140181"><ele>520.0</ele><time>2026-04-30T16:03:38Z</time></trkpt><trkpt lat="38.084876212993244" lon="15.06201695997119"><ele>520.0</ele><time>2026-04-30T16:03:39Z</time></trkpt><trkpt lat="38.08480656445215" lon="15.062028048696105"><ele>520.0</ele><time>2026-04-30T16:03:40Z</time></trkpt><trkpt lat="38.08473507948755" lon="15.0619814921992"><ele>520.0</ele><time>2026-04-30T16:03:41Z</time></trkpt><trkpt lat="38.084689674153815" lon="15.061870754781761"><ele>520.0</ele><time>2026-04-30T16:03:42Z</time></trkpt><trkpt lat="38.0846174851037" lon="15.061751365678452"><ele>521.75</ele><time>2026-04-30T16:03:43Z</time></trkpt><trkpt lat="38.08454657293355" lon="15.061592830475169"><ele>523.5</ele><time>2026-04-30T16:03:44Z</time></trkpt><trkpt lat="38.08445035945162" lon="15.061478613828788"><ele>525.25</ele><time>2026-04-30T16:03:45Z</time></trkpt><trkpt lat="38.08432686766329" lon="15.061400936932982"><ele>527.0</ele><time>2026-04-30T16:03:46Z</time></trkpt><trkpt lat="38.08422504427996" lon="15.061341500942161"><ele>527.0</ele><time>2026-04-30T16:03:47Z</time></trkpt><trkpt lat="38.08417029471384" lon="15.061295715912655"><ele>527.0</ele><time>2026-04-30T16:03:48Z</time></trkpt><trkpt lat="38.08415818861734" lon="15.061127728192188"><ele>527.0</ele><time>2026-04-30T16:03:50Z</time></trkpt><trkpt lat="38.08420215607518" lon="15.061015262942904"><ele>527.0</ele><time>2026-04-30T16:03:51Z</time></trkpt><trkpt lat="38.0842869947827" lon="15.060899971624568"><ele>527.0</ele><time>2026-04-30T16:03:52Z</time></trkpt><trkpt lat="38.08436166016026" lon="15.060772808051064"><ele>528.2</ele><time>2026-04-30T16:03:53Z</time></trkpt><trkpt lat="38.08439395871775" lon="15.060658792911498"><ele>529.4000000000001</ele><time>2026-04-30T16:03:54Z</time></trkpt><trkpt lat="38.08438815096873" lon="15.060548530797643"><ele>530.5999999999999</ele><time>2026-04-30T16:03:55Z</time></trkpt><trkpt lat="38.08433983560684" lon="15.060443868495229"><ele>531.8</ele><time>2026-04-30T16:03:56Z</time></trkpt><trkpt lat="38.08425886292649" lon="15.060359548884179"><ele>533.0</ele><time>2026-04-30T16:03:57Z</time></trkpt><trkpt lat="38.084158373807796" lon="15.060284821407262"><ele>531.75</ele><time>2026-04-30T16:03:58Z</time></trkpt><trkpt lat="38.084066488549894" lon="15.060197923372698"><ele>530.5</ele><time>2026-04-30T16:03:59.001Z</time></trkpt><trkpt lat="38.08395934714158" lon="15.06009938001612"><ele>529.25</ele><time>2026-04-30T16:04:00.001Z</time></trkpt><trkpt lat="38.0838481439776" lon="15.060019075991425"><ele>528.0</ele><time>2026-04-30T16:04:01.001Z</time></trkpt><trkpt lat="38.0837260605684" lon="15.059969550653932"><ele>529.6</ele><time>2026-04-30T16:04:02.001Z</time></trkpt><trkpt lat="38.08360059957045" lon="15.05993665521282"><ele>531.1999999999999</ele><time>2026-04-30T16:04:03.001Z</time></trkpt><trkpt lat="38.08349410516018" lon="15.059918532353299"><ele>532.8</ele><time>2026-04-30T16:04:04.001Z</time></trkpt><trkpt lat="38.08341123180238" lon="15.059878940179345"><ele>534.4</ele><time>2026-04-30T16:04:05.001Z</time></trkpt><trkpt lat="38.08332687086753" lon="15.059809333139116"><ele>536.0</ele><time>2026-04-30T16:04:06.001Z</time></trkpt><trkpt lat="38.08324662515293" lon="15.059719745327651"><ele>536.0</ele><time>2026-04-30T16:04:07.001Z</time></trkpt><trkpt lat="38.083172896611025" lon="15.059623489336438"><ele>536.0</ele><time>2026-04-30T16:04:08.001Z</time></trkpt><trkpt lat="38.08311827927721" lon="15.059526316734292"><ele>536.0</ele><time>2026-04-30T16:04:09.001Z</time></trkpt><trkpt lat="38.083097689635714" lon="15.059396649083215"><ele>536.0</ele><time>2026-04-30T16:04:10.001Z</time></trkpt><trkpt lat="38.08308819957167" lon="15.059228961091213"><ele>536.0</ele><time>2026-04-30T16:04:11.001Z</time></trkpt><trkpt lat="38.08306879228525" lon="15.05904704897938"><ele>539.75</ele><time>2026-04-30T16:04:12.001Z</time></trkpt><trkpt lat="38.08302982159563" lon="15.058877219667268"><ele>543.5</ele><time>2026-04-30T16:04:13.001Z</time></trkpt><trkpt lat="38.08295706255159" lon="15.058732654352802"><ele>547.25</ele><time>2026-04-30T16:04:14.001Z</time></trkpt><trkpt lat="38.082854126097196" lon="15.058610350378766"><ele>551.0</ele><time>2026-04-30T16:04:15.001Z</time></trkpt><trkpt lat="38.08274318455834" lon="15.058500846488174"><ele>551.0</ele><time>2026-04-30T16:04:16.001Z</time></trkpt><trkpt lat="38.08263216028038" lon="15.058390095607727"><ele>551.0</ele><time>2026-04-30T16:04:17.001Z</time></trkpt><trkpt lat="38.082516235306684" lon="15.058282588473217"><ele>551.0</ele><time>2026-04-30T16:04:18.001Z</time></trkpt><trkpt lat="38.08238958798249" lon="15.058174627068226"><ele>551.0</ele><time>2026-04-30T16:04:19.001Z</time></trkpt><trkpt lat="38.08226747111104" lon="15.058056492938737"><ele>553.3333333333333</ele><time>2026-04-30T16:04:20.001Z</time></trkpt><trkpt lat="38.08214652714664" lon="15.057920232541642"><ele>555.6666666666666</ele><time>2026-04-30T16:04:21.001Z</time></trkpt><trkpt lat="38.082035024470336" lon="15.057770659497416"><ele>558.0</ele><time>2026-04-30T16:04:22.001Z</time></trkpt><trkpt lat="38.08191585290696" lon="15.05760921554928"><ele>556.3333333333334</ele><time>2026-04-30T16:04:23.001Z</time></trkpt><trkpt lat="38.08177948002433" lon="15.057451066614217"><ele>554.6666666666667</ele><time>2026-04-30T16:04:24.001Z</time></trkpt><trkpt lat="38.081619380721904" lon="15.057284740579941"><ele>553.0</ele><time>2026-04-30T16:04:25.001Z</time></trkpt><trkpt lat="38.08146353472626" lon="15.057124009486145"><ele>552.6666666666667</ele><time>2026-04-30T16:04:26.001Z</time></trkpt><trkpt lat="38.081314037852856" lon="15.056972376772825"><ele>552.3333333333334</ele><time>2026-04-30T16:04:27.001Z</time></trkpt><trkpt lat="38.08119352707033" lon="15.056824821637383"><ele>552.0</ele><time>2026-04-30T16:04:28.001Z</time></trkpt><trkpt lat="38.08107990548832" lon="15.056711446738566"><ele>550.25</ele><time>2026-04-30T16:04:29.001Z</time></trkpt><trkpt lat="38.08097625167235" lon="15.05659955523546"><ele>548.5</ele><time>2026-04-30T16:04:30.001Z</time></trkpt><trkpt lat="38.08088717987234" lon="15.056479443899793"><ele>546.75</ele><time>2026-04-30T16:04:31.001Z</time></trkpt><trkpt lat="38.08082453274937" lon="15.056327116116616"><ele>545.0</ele><time>2026-04-30T16:04:32.001Z</time></trkpt><trkpt lat="38.080763599671656" lon="15.056169932595198"><ele>545.0</ele><time>2026-04-30T16:04:33.001Z</time></trkpt><trkpt lat="38.080706713438204" lon="15.056043650430395"><ele>545.0</ele><time>2026-04-30T16:04:34Z</time></trkpt><trkpt lat="38.08059672957419" lon="15.055960411539706"><ele>545.0</ele><time>2026-04-30T16:04:35Z</time></trkpt><trkpt lat="38.08046434532467" lon="15.055889640691472"><ele>545.0</ele><time>2026-04-30T16:04:36Z</time></trkpt><trkpt lat="38.08032140937488" lon="15.05582345080321"><ele>543.5</ele><time>2026-04-30T16:04:37Z</time></trkpt><trkpt lat="38.080186371292726" lon="15.055752370861374"><ele>542.0</ele><time>2026-04-30T16:04:38Z</time></trkpt><trkpt lat="38.08006378486773" lon="15.055704965712339"><ele>540.5</ele><time>2026-04-30T16:04:39Z</time></trkpt><trkpt lat="38.07994576771788" lon="15.055681478084196"><ele>539.0</ele><time>2026-04-30T16:04:40Z</time></trkpt><trkpt lat="38.079803440668435" lon="15.055675704243276"><ele>537.3333333333333</ele><time>2026-04-30T16:04:41Z</time></trkpt><trkpt lat="38.079648596759206" lon="15.05565927054242"><ele>535.6666666666666</ele><time>2026-04-30T16:04:42Z</time></trkpt><trkpt lat="38.07947961905546" lon="15.055657936674654"><ele>534.0</ele><time>2026-04-30T16:04:43Z</time></trkpt><trkpt lat="38.07930096632071" lon="15.055656526434465"><ele>534.0</ele><time>2026-04-30T16:04:44Z</time></trkpt><trkpt lat="38.07911290798354" lon="15.055671376554983"><ele>534.0</ele><time>2026-04-30T16:04:45Z</time></trkpt><trkpt lat="38.07891473994481" lon="15.055669136228753"><ele>534.0</ele><time>2026-04-30T16:04:46Z</time></trkpt><trkpt lat="38.078708456938706" lon="15.055665417429509"><ele>535.0</ele><time>2026-04-30T16:04:47Z</time></trkpt><trkpt lat="38.07848531919194" lon="15.05566450214353"><ele>536.0</ele><time>2026-04-30T16:04:48Z</time></trkpt><trkpt lat="38.0782674360229" lon="15.055661942382606"><ele>537.0</ele><time>2026-04-30T16:04:49Z</time></trkpt><trkpt lat="38.078084498943355" lon="15.055655113093533"><ele>538.6666666666666</ele><time>2026-04-30T16:04:50Z</time></trkpt><trkpt lat="38.07792070299798" lon="15.055654488300219"><ele>540.3333333333333</ele><time>2026-04-30T16:04:51Z</time></trkpt><trkpt lat="38.07776757349718" lon="15.055677481635113"><ele>542.0</ele><time>2026-04-30T16:04:52Z</time></trkpt><trkpt lat="38.07762522154456" lon="15.055722147154839"><ele>539.0</ele><time>2026-04-30T16:04:53Z</time></trkpt><trkpt lat="38.077480343537346" lon="15.055801775331195"><ele>536.0</ele><time>2026-04-30T16:04:54Z</time></trkpt><trkpt lat="38.07734693941986" lon="15.055894141698214"><ele>533.0</ele><time>2026-04-30T16:04:55Z</time></trkpt><trkpt lat="38.077227164244036" lon="15.055942120031826"><ele>530.0</ele><time>2026-04-30T16:04:56Z</time></trkpt><trkpt lat="38.07711222131505" lon="15.05597419894368"><ele>529.0</ele><time>2026-04-30T16:04:57Z</time></trkpt><trkpt lat="38.076978841459564" lon="15.055972647769947"><ele>528.0</ele><time>2026-04-30T16:04:58Z</time></trkpt><trkpt lat="38.07683719158233" lon="15.055945006620428"><ele>527.0</ele><time>2026-04-30T16:04:59Z</time></trkpt><trkpt lat="38.07669703147976" lon="15.05588325619704"><ele>526.0</ele><time>2026-04-30T16:05:00Z</time></trkpt><trkpt lat="38.076572823080554" lon="15.055794832259103"><ele>524.3333333333334</ele><time>2026-04-30T16:05:01Z</time></trkpt><trkpt lat="38.07642245455139" lon="15.055683177506003"><ele>522.6666666666666</ele><time>2026-04-30T16:05:02Z</time></trkpt><trkpt lat="38.07624793087231" lon="15.055578738870992"><ele>521.0</ele><time>2026-04-30T16:05:03Z</time></trkpt><trkpt lat="38.07608416503796" lon="15.055452226705926"><ele>521.0</ele><time>2026-04-30T16:05:04Z</time></trkpt><trkpt lat="38.075946481262584" lon="15.055343107927317"><ele>521.0</ele><time>2026-04-30T16:05:05Z</time></trkpt><trkpt lat="38.07582769694708" lon="15.055249449245716"><ele>521.0</ele><time>2026-04-30T16:05:06Z</time></trkpt><trkpt lat="38.075718840054996" lon="15.055167831934623"><ele>521.0</ele><time>2026-04-30T16:05:07Z</time></trkpt><trkpt lat="38.07563291578528" lon="15.055104556734806"><ele>517.25</ele><time>2026-04-30T16:05:08Z</time></trkpt><trkpt lat="38.0755451012896" lon="15.055066346413442"><ele>513.5</ele><time>2026-04-30T16:05:09Z</time></trkpt><trkpt lat="38.07542141839706" lon="15.055063699528187"><ele>509.75</ele><time>2026-04-30T16:05:10Z</time></trkpt><trkpt lat="38.075279052702385" lon="15.0551022789912"><ele>506.0</ele><time>2026-04-30T16:05:11Z</time></trkpt><trkpt lat="38.07512146931449" lon="15.055156027289835"><ele>506.0</ele><time>2026-04-30T16:05:12Z</time></trkpt><trkpt lat="38.07494873423538" lon="15.055134863189052"><ele>506.0</ele><time>2026-04-30T16:05:13Z</time></trkpt><trkpt lat="38.07477062663766" lon="15.055100726124051"><ele>506.0</ele><time>2026-04-30T16:05:14Z</time></trkpt><trkpt lat="38.0746273593423" lon="15.055068459425701"><ele>502.0</ele><time>2026-04-30T16:05:15Z</time></trkpt><trkpt lat="38.07449113634063" lon="15.055037779245811"><ele>498.0</ele><time>2026-04-30T16:05:16Z</time></trkpt><trkpt lat="38.07433236946346" lon="15.055008176701355"><ele>494.0</ele><time>2026-04-30T16:05:17Z</time></trkpt><trkpt lat="38.07415310787715" lon="15.05498183299544"><ele>492.0</ele><time>2026-04-30T16:05:18Z</time></trkpt><trkpt lat="38.0739615101323" lon="15.054963295688191"><ele>490.0</ele><time>2026-04-30T16:05:19Z</time></trkpt><trkpt lat="38.07375902986685" lon="15.054955422835693"><ele>488.0</ele><time>2026-04-30T16:05:20Z</time></trkpt><trkpt lat="38.07355598223427" lon="15.054948044704282"><ele>486.66666666666663</ele><time>2026-04-30T16:05:21Z</time></trkpt><trkpt lat="38.07334757231436" lon="15.054948578742568"><ele>485.33333333333337</ele><time>2026-04-30T16:05:22Z</time></trkpt><trkpt lat="38.07315104195498" lon="15.054937531532044"><ele>484.0</ele><time>2026-04-30T16:05:23Z</time></trkpt><trkpt lat="38.072953405604075" lon="15.054915414965343"><ele>483.33333333333337</ele><time>2026-04-30T16:05:24Z</time></trkpt><trkpt lat="38.07275718265691" lon="15.054888092264749"><ele>482.66666666666663</ele><time>2026-04-30T16:05:25Z</time></trkpt><trkpt lat="38.07255765054313" lon="15.054848220698457"><ele>482.0</ele><time>2026-04-30T16:05:26Z</time></trkpt><trkpt lat="38.07236709799506" lon="15.054808855827003"><ele>483.66666666666663</ele><time>2026-04-30T16:05:27Z</time></trkpt><trkpt lat="38.07219818173526" lon="15.054807673677137"><ele>485.33333333333337</ele><time>2026-04-30T16:05:28Z</time></trkpt><trkpt lat="38.072041854836755" lon="15.05480631560154"><ele>487.0</ele><time>2026-04-30T16:05:29Z</time></trkpt><trkpt lat="38.0718863459702" lon="15.054827216900431"><ele>487.0</ele><time>2026-04-30T16:05:30.001Z</time></trkpt><trkpt lat="38.071748271000345" lon="15.054821751908994"><ele>487.0</ele><time>2026-04-30T16:05:31.001Z</time></trkpt><trkpt lat="38.07160083503602" lon="15.054810066234294"><ele>487.0</ele><time>2026-04-30T16:05:32.001Z</time></trkpt><trkpt lat="38.07143121761289" lon="15.054797580628533"><ele>489.5</ele><time>2026-04-30T16:05:33.001Z</time></trkpt><trkpt lat="38.0712885796927" lon="15.05478708102927"><ele>492.0</ele><time>2026-04-30T16:05:34.001Z</time></trkpt><trkpt lat="38.07116543292305" lon="15.054781344041833"><ele>494.5</ele><time>2026-04-30T16:05:35.001Z</time></trkpt><trkpt lat="38.07104138033317" lon="15.054782913509872"><ele>497.0</ele><time>2026-04-30T16:05:36.001Z</time></trkpt><trkpt lat="38.07090888529489" lon="15.054798786779577"><ele>502.3333333333333</ele><time>2026-04-30T16:05:37.001Z</time></trkpt><trkpt lat="38.070746743316626" lon="15.05483149894707"><ele>507.66666666666663</ele><time>2026-04-30T16:05:38.001Z</time></trkpt><trkpt lat="38.0705916740045" lon="15.054856157127057"><ele>513.0</ele><time>2026-04-30T16:05:39.001Z</time></trkpt><trkpt lat="38.07044992384057" lon="15.054865145330242"><ele>513.0</ele><time>2026-04-30T16:05:40.001Z</time></trkpt><trkpt lat="38.07031203929091" lon="15.05484075414618"><ele>513.0</ele><time>2026-04-30T16:05:41.001Z</time></trkpt><trkpt lat="38.07015715098103" lon="15.054802810828463"><ele>513.0</ele><time>2026-04-30T16:05:42.001Z</time></trkpt><trkpt lat="38.06998165303675" lon="15.054770799220742"><ele>516.0</ele><time>2026-04-30T16:05:43.001Z</time></trkpt><trkpt lat="38.06983703689036" lon="15.054719297043643"><ele>519.0</ele><time>2026-04-30T16:05:44.001Z</time></trkpt><trkpt lat="38.06971768504114" lon="15.054695715892386"><ele>522.0</ele><time>2026-04-30T16:05:45.001Z</time></trkpt><trkpt lat="38.06963052198535" lon="15.054702855618944"><ele>525.0</ele><time>2026-04-30T16:05:46.001Z</time></trkpt><trkpt lat="38.06955806072393" lon="15.054695418256548"><ele>528.0</ele><time>2026-04-30T16:05:48.001Z</time></trkpt><trkpt lat="38.06948125091356" lon="15.05472107846183"><ele>528.0</ele><time>2026-04-30T16:05:50.001Z</time></trkpt><trkpt lat="38.06942098643959" lon="15.054764841056622"><ele>528.0</ele><time>2026-04-30T16:05:51.001Z</time></trkpt><trkpt lat="38.06933041820094" lon="15.054825943436365"><ele>528.0</ele><time>2026-04-30T16:05:52.001Z</time></trkpt><trkpt lat="38.06921737730912" lon="15.054900216888562"><ele>528.0</ele><time>2026-04-30T16:05:53.001Z</time></trkpt><trkpt lat="38.069094815699295" lon="15.054979412224977"><ele>528.0</ele><time>2026-04-30T16:05:54.001Z</time></trkpt><trkpt lat="38.06896257321944" lon="15.055060695576355"><ele>527.5</ele><time>2026-04-30T16:05:55.001Z</time></trkpt><trkpt lat="38.06882724772997" lon="15.055143744173192"><ele>527.0</ele><time>2026-04-30T16:05:56.001Z</time></trkpt><trkpt lat="38.068708220338365" lon="15.055244933486215"><ele>526.5</ele><time>2026-04-30T16:05:57.001Z</time></trkpt><trkpt lat="38.06858952522228" lon="15.055338051199444"><ele>526.0</ele><time>2026-04-30T16:05:58.001Z</time></trkpt><trkpt lat="38.0685039182237" lon="15.055478120184565"><ele>526.0</ele><time>2026-04-30T16:05:59.001Z</time></trkpt><trkpt lat="38.06842939978125" lon="15.055646407194281"><ele>526.0</ele><time>2026-04-30T16:06:00.001Z</time></trkpt><trkpt lat="38.06835939048789" lon="15.055820855011513"><ele>526.0</ele><time>2026-04-30T16:06:01.001Z</time></trkpt><trkpt lat="38.06830343975157" lon="15.05594983493997"><ele>526.0</ele><time>2026-04-30T16:06:02.001Z</time></trkpt><trkpt lat="38.0682305101535" lon="15.056033709320355"><ele>522.25</ele><time>2026-04-30T16:06:03.001Z</time></trkpt><trkpt lat="38.06813599402949" lon="15.056111547950934"><ele>518.5</ele><time>2026-04-30T16:06:04.001Z</time></trkpt><trkpt lat="38.068018185230216" lon="15.056184695645575"><ele>514.75</ele><time>2026-04-30T16:06:05.001Z</time></trkpt><trkpt lat="38.06786734871807" lon="15.056270664291825"><ele>511.0</ele><time>2026-04-30T16:06:06.001Z</time></trkpt><trkpt lat="38.067707257303944" lon="15.056370080146515"><ele>511.0</ele><time>2026-04-30T16:06:07.001Z</time></trkpt><trkpt lat="38.06754850963951" lon="15.056479263288946"><ele>511.0</ele><time>2026-04-30T16:06:08.001Z</time></trkpt><trkpt lat="38.0674184939555" lon="15.056580059952601"><ele>511.0</ele><time>2026-04-30T16:06:09.001Z</time></trkpt><trkpt lat="38.0673126081405" lon="15.056655906656031"><ele>507.6</ele><time>2026-04-30T16:06:10.001Z</time></trkpt><trkpt lat="38.067228913869926" lon="15.056703212813904"><ele>504.20000000000005</ele><time>2026-04-30T16:06:11.001Z</time></trkpt><trkpt lat="38.06714382950565" lon="15.056726346738717"><ele>500.79999999999995</ele><time>2026-04-30T16:06:12.001Z</time></trkpt><trkpt lat="38.067054294911586" lon="15.056722119140916"><ele>497.4</ele><time>2026-04-30T16:06:13.001Z</time></trkpt><trkpt lat="38.066942048256124" lon="15.056703191720004"><ele>494.0</ele><time>2026-04-30T16:06:14.001Z</time></trkpt><trkpt lat="38.066806007020915" lon="15.056684066298292"><ele>494.0</ele><time>2026-04-30T16:06:15.001Z</time></trkpt><trkpt lat="38.06666387900653" lon="15.056670549527507"><ele>494.0</ele><time>2026-04-30T16:06:16.001Z</time></trkpt><trkpt lat="38.06652153982522" lon="15.056706991433588"><ele>494.0</ele><time>2026-04-30T16:06:17.001Z</time></trkpt><trkpt lat="38.06638446858056" lon="15.056737208861158"><ele>494.0</ele><time>2026-04-30T16:06:18.001Z</time></trkpt><trkpt lat="38.066215974994066" lon="15.05676025627876"><ele>492.3333333333333</ele><time>2026-04-30T16:06:19.001Z</time></trkpt><trkpt lat="38.06602349236209" lon="15.05681488522544"><ele>490.66666666666663</ele><time>2026-04-30T16:06:20.001Z</time></trkpt><trkpt lat="38.06585211383039" lon="15.056866524431088"><ele>489.0</ele><time>2026-04-30T16:06:21.001Z</time></trkpt><trkpt lat="38.06568678732435" lon="15.056913988774033"><ele>486.0</ele><time>2026-04-30T16:06:22.001Z</time></trkpt><trkpt lat="38.06552888096475" lon="15.056952862851503"><ele>483.0</ele><time>2026-04-30T16:06:23.001Z</time></trkpt><trkpt lat="38.065367190070916" lon="15.056998824533935"><ele>480.0</ele><time>2026-04-30T16:06:24.001Z</time></trkpt><trkpt lat="38.065218966078824" lon="15.057020061298953"><ele>480.0</ele><time>2026-04-30T16:06:25.001Z</time></trkpt><trkpt lat="38.065041046815296" lon="15.057000625919166"><ele>480.0</ele><time>2026-04-30T16:06:26.001Z</time></trkpt><trkpt lat="38.064895030471355" lon="15.057028348503135"><ele>480.0</ele><time>2026-04-30T16:06:27.001Z</time></trkpt><trkpt lat="38.06470026765607" lon="15.057042480531102"><ele>477.33333333333337</ele><time>2026-04-30T16:06:28.001Z</time></trkpt><trkpt lat="38.06449711536608" lon="15.057056819927773"><ele>474.6666666666667</ele><time>2026-04-30T16:06:29.001Z</time></trkpt><trkpt lat="38.06429878054524" lon="15.057068403195686"><ele>472.0</ele><time>2026-04-30T16:06:30.001Z</time></trkpt><trkpt lat="38.06412151444296" lon="15.057076916407489"><ele>471.6666666666667</ele><time>2026-04-30T16:06:31.001Z</time></trkpt><trkpt lat="38.06395634998856" lon="15.057089843119433"><ele>471.33333333333337</ele><time>2026-04-30T16:06:32.001Z</time></trkpt><trkpt lat="38.063794193151324" lon="15.057139835891194"><ele>471.0</ele><time>2026-04-30T16:06:33.001Z</time></trkpt><trkpt lat="38.06363080496425" lon="15.057177862994418"><ele>471.0</ele><time>2026-04-30T16:06:34.001Z</time></trkpt><trkpt lat="38.06346123447103" lon="15.057238823318123"><ele>471.0</ele><time>2026-04-30T16:06:35.001Z</time></trkpt><trkpt lat="38.06327640494504" lon="15.057324917951918"><ele>471.0</ele><time>2026-04-30T16:06:36.001Z</time></trkpt><trkpt lat="38.06307365083857" lon="15.05741690482089"><ele>471.66666666666663</ele><time>2026-04-30T16:06:37.001Z</time></trkpt><trkpt lat="38.06286470437538" lon="15.0574841738997"><ele>472.3333333333333</ele><time>2026-04-30T16:06:38.001Z</time></trkpt><trkpt lat="38.06268865741653" lon="15.057557489080466"><ele>473.0</ele><time>2026-04-30T16:06:39.001Z</time></trkpt><trkpt lat="38.06255927156039" lon="15.057610961776934"><ele>475.0</ele><time>2026-04-30T16:06:40.001Z</time></trkpt><trkpt lat="38.06242989520435" lon="15.057664430649751"><ele>477.0</ele><time>2026-04-30T16:06:41.001Z</time></trkpt><trkpt lat="38.06230173310308" lon="15.057715494732449"><ele>479.0</ele><time>2026-04-30T16:06:42.001Z</time></trkpt><trkpt lat="38.06216311917112" lon="15.057756963467927"><ele>481.0</ele><time>2026-04-30T16:06:43.001Z</time></trkpt><trkpt lat="38.062014959938416" lon="15.057780719520178"><ele>481.0</ele><time>2026-04-30T16:06:44.001Z</time></trkpt><trkpt lat="38.06186158775752" lon="15.057793988755035"><ele>481.0</ele><time>2026-04-30T16:06:45.001Z</time></trkpt><trkpt lat="38.06169940571321" lon="15.057799260424044"><ele>481.0</ele><time>2026-04-30T16:06:46.001Z</time></trkpt><trkpt lat="38.06152874416131" lon="15.057802954419865"><ele>484.0</ele><time>2026-04-30T16:06:47.001Z</time></trkpt><trkpt lat="38.0613726035292" lon="15.057810533784567"><ele>487.0</ele><time>2026-04-30T16:06:48Z</time></trkpt><trkpt lat="38.061252676356204" lon="15.057804172416592"><ele>490.0</ele><time>2026-04-30T16:06:49Z</time></trkpt><trkpt lat="38.061129159295966" lon="15.057780887299579"><ele>493.0</ele><time>2026-04-30T16:06:50Z</time></trkpt><trkpt lat="38.06100545745773" lon="15.057751439891547"><ele>493.0</ele><time>2026-04-30T16:06:51Z</time></trkpt><trkpt lat="38.060875127828936" lon="15.057664827530557"><ele>493.0</ele><time>2026-04-30T16:06:52Z</time></trkpt><trkpt lat="38.0607652087354" lon="15.057557056608742"><ele>493.0</ele><time>2026-04-30T16:06:53Z</time></trkpt><trkpt lat="38.06065746707712" lon="15.057435106090091"><ele>493.0</ele><time>2026-04-30T16:06:54Z</time></trkpt><trkpt lat="38.06054096117324" lon="15.057347201313009"><ele>494.0</ele><time>2026-04-30T16:06:55Z</time></trkpt><trkpt lat="38.060429656322285" lon="15.057315992707665"><ele>495.0</ele><time>2026-04-30T16:06:56Z</time></trkpt><trkpt lat="38.06031117523523" lon="15.057328850416567"><ele>496.0</ele><time>2026-04-30T16:06:57Z</time></trkpt><trkpt lat="38.06019553952308" lon="15.057353781990056"><ele>497.0</ele><time>2026-04-30T16:06:58Z</time></trkpt><trkpt lat="38.060083672466405" lon="15.057421905881718"><ele>500.3333333333333</ele><time>2026-04-30T16:06:59Z</time></trkpt><trkpt lat="38.05997662594336" lon="15.057524210081658"><ele>503.66666666666663</ele><time>2026-04-30T16:07:00Z</time></trkpt><trkpt lat="38.059851922950344" lon="15.057639130905734"><ele>507.0</ele><time>2026-04-30T16:07:01Z</time></trkpt><trkpt lat="38.059723185497326" lon="15.057772482474617"><ele>508.0</ele><time>2026-04-30T16:07:02Z</time></trkpt><trkpt lat="38.05960346339024" lon="15.057897171858894"><ele>509.0</ele><time>2026-04-30T16:07:03Z</time></trkpt><trkpt lat="38.05947502749242" lon="15.058030936535758"><ele>510.0</ele><time>2026-04-30T16:07:04Z</time></trkpt><trkpt lat="38.0593395224444" lon="15.05816762058269"><ele>510.0</ele><time>2026-04-30T16:07:05Z</time></trkpt><trkpt lat="38.05924209085014" lon="15.058263654535523"><ele>510.0</ele><time>2026-04-30T16:07:06Z</time></trkpt><trkpt lat="38.05915602991419" lon="15.058356735337869"><ele>510.0</ele><time>2026-04-30T16:07:07Z</time></trkpt><trkpt lat="38.05908267636317" lon="15.058445281936581"><ele>510.0</ele><time>2026-04-30T16:07:08Z</time></trkpt><trkpt lat="38.05903679660369" lon="15.058534483031812"><ele>510.0</ele><time>2026-04-30T16:07:09Z</time></trkpt><trkpt lat="38.05896366046819" lon="15.058603949682642"><ele>511.6666666666667</ele><time>2026-04-30T16:07:11Z</time></trkpt><trkpt lat="38.05891261965012" lon="15.058664885130867"><ele>513.3333333333334</ele><time>2026-04-30T16:07:21Z</time></trkpt><trkpt lat="38.0588762361722" lon="15.058733645999892"><ele>515.0</ele><time>2026-04-30T16:07:24Z</time></trkpt><trkpt lat="38.0588399988654" lon="15.058666888116564"><ele>516.6666666666667</ele><time>2026-04-30T16:07:36.001Z</time></trkpt><trkpt lat="38.058899801492124" lon="15.058609050123433"><ele>518.3333333333334</ele><time>2026-04-30T16:07:41.001Z</time></trkpt><trkpt lat="38.05883837269618" lon="15.058526841775013"><ele>520.0</ele><time>2026-04-30T16:07:42.001Z</time></trkpt><trkpt lat="38.05871813940171" lon="15.058430617417562"><ele>520.0</ele><time>2026-04-30T16:07:44.001Z</time></trkpt><trkpt lat="38.05863863098438" lon="15.058355559835645"><ele>520.0</ele><time>2026-04-30T16:07:45.001Z</time></trkpt><trkpt lat="38.0585694192405" lon="15.058256849807552"><ele>520.0</ele><time>2026-04-30T16:07:46.001Z</time></trkpt><trkpt lat="38.05848923764464" lon="15.05816606217699"><ele>520.0</ele><time>2026-04-30T16:07:47.001Z</time></trkpt><trkpt lat="38.058398099982014" lon="15.058077054486558"><ele>520.0</ele><time>2026-04-30T16:07:48.001Z</time></trkpt><trkpt lat="38.05832811572272" lon="15.057952489259252"><ele>523.6666666666667</ele><time>2026-04-30T16:07:49.001Z</time></trkpt><trkpt lat="38.05828447431865" lon="15.0577999456302"><ele>527.3333333333334</ele><time>2026-04-30T16:07:50.001Z</time></trkpt><trkpt lat="38.058199570409435" lon="15.057637720069419"><ele>531.0</ele><time>2026-04-30T16:07:51.001Z</time></trkpt><trkpt lat="38.05811574350243" lon="15.057445705193224"><ele>531.0</ele><time>2026-04-30T16:07:52.001Z</time></trkpt><trkpt lat="38.05802885593339" lon="15.057236414160563"><ele>531.0</ele><time>2026-04-30T16:07:53.001Z</time></trkpt><trkpt lat="38.057952677065835" lon="15.057062532360282"><ele>531.0</ele><time>2026-04-30T16:07:54.001Z</time></trkpt><trkpt lat="38.05789675335028" lon="15.056908611961434"><ele>531.0</ele><time>2026-04-30T16:07:55.001Z</time></trkpt><trkpt lat="38.05787618548429" lon="15.05674226349552"><ele>531.0</ele><time>2026-04-30T16:07:56.001Z</time></trkpt><trkpt lat="38.05782685640629" lon="15.056559222503093"><ele>531.0</ele><time>2026-04-30T16:07:57.001Z</time></trkpt><trkpt lat="38.05779666726779" lon="15.056345829184163"><ele>531.0</ele><time>2026-04-30T16:07:58.001Z</time></trkpt><trkpt lat="38.0577656096491" lon="15.056148185718856"><ele>531.0</ele><time>2026-04-30T16:07:59.001Z</time></trkpt><trkpt lat="38.05774189451686" lon="15.056005528693134"><ele>531.0</ele><time>2026-04-30T16:08:00.001Z</time></trkpt><trkpt lat="38.057709337755334" lon="15.055882685631355"><ele>531.0</ele><time>2026-04-30T16:08:01.001Z</time></trkpt><trkpt lat="38.057669622163594" lon="15.055789121179103"><ele>531.0</ele><time>2026-04-30T16:08:02.001Z</time></trkpt><trkpt lat="38.05761238773158" lon="15.05570132074992"><ele>531.0</ele><time>2026-04-30T16:08:03.001Z</time></trkpt><trkpt lat="38.05753738973462" lon="15.055607403111145"><ele>531.0</ele><time>2026-04-30T16:08:04.001Z</time></trkpt><trkpt lat="38.057451083255536" lon="15.055522356720658"><ele>531.0</ele><time>2026-04-30T16:08:05.001Z</time></trkpt><trkpt lat="38.05734850269058" lon="15.05543562238341"><ele>531.0</ele><time>2026-04-30T16:08:06.001Z</time></trkpt><trkpt lat="38.057259978594594" lon="15.055350474032295"><ele>531.0</ele><time>2026-04-30T16:08:07.001Z</time></trkpt><trkpt lat="38.057165106174494" lon="15.055256321354213"><ele>531.0</ele><time>2026-04-30T16:08:08.001Z</time></trkpt><trkpt lat="38.05705008694293" lon="15.055147358152016"><ele>531.0</ele><time>2026-04-30T16:08:09.001Z</time></trkpt><trkpt lat="38.056952177882096" lon="15.055044361606972"><ele>531.0</ele><time>2026-04-30T16:08:10.001Z</time></trkpt><trkpt lat="38.05686419853311" lon="15.0549574769908"><ele>530.4</ele><time>2026-04-30T16:08:11.001Z</time></trkpt><trkpt lat="38.05678613480545" lon="15.054897004261054"><ele>529.8</ele><time>2026-04-30T16:08:12.001Z</time></trkpt><trkpt lat="38.05668716093245" lon="15.054849199972722"><ele>529.1999999999999</ele><time>2026-04-30T16:08:13.001Z</time></trkpt><trkpt lat="38.05657019162596" lon="15.054791190580865"><ele>528.6</ele><time>2026-04-30T16:08:14.001Z</time></trkpt><trkpt lat="38.056479095994284" lon="15.054759331210729"><ele>528.0</ele><time>2026-04-30T16:08:15.001Z</time></trkpt><trkpt lat="38.05638957358463" lon="15.054720120248243"><ele>528.0</ele><time>2026-04-30T16:08:16.001Z</time></trkpt><trkpt lat="38.056326598861766" lon="15.054638059597872"><ele>528.0</ele><time>2026-04-30T16:08:17.001Z</time></trkpt><trkpt lat="38.05629148894634" lon="15.054533006666997"><ele>528.0</ele><time>2026-04-30T16:08:18.001Z</time></trkpt><trkpt lat="38.056266023424904" lon="15.054419335775831"><ele>528.0</ele><time>2026-04-30T16:08:19.001Z</time></trkpt><trkpt lat="38.05623475267537" lon="15.054311808376294"><ele>528.0</ele><time>2026-04-30T16:08:20.001Z</time></trkpt><trkpt lat="38.05616274408909" lon="15.054191490496413"><ele>526.8</ele><time>2026-04-30T16:08:21.001Z</time></trkpt><trkpt lat="38.05609460556347" lon="15.054096465566861"><ele>525.5999999999999</ele><time>2026-04-30T16:08:22.001Z</time></trkpt><trkpt lat="38.05601095993449" lon="15.054004569556835"><ele>524.4000000000001</ele><time>2026-04-30T16:08:23.001Z</time></trkpt><trkpt lat="38.055920558497185" lon="15.05392102959705"><ele>523.2</ele><time>2026-04-30T16:08:24.001Z</time></trkpt><trkpt lat="38.0558131492113" lon="15.05384195085945"><ele>522.0</ele><time>2026-04-30T16:08:25.001Z</time></trkpt><trkpt lat="38.055693492007" lon="15.05375826897413"><ele>522.0</ele><time>2026-04-30T16:08:26.001Z</time></trkpt><trkpt lat="38.055573878811195" lon="15.053626531791336"><ele>522.0</ele><time>2026-04-30T16:08:27.001Z</time></trkpt><trkpt lat="38.05543093312625" lon="15.05352637650469"><ele>522.0</ele><time>2026-04-30T16:08:28.001Z</time></trkpt><trkpt lat="38.055322882119334" lon="15.053426046179768"><ele>522.0</ele><time>2026-04-30T16:08:29.001Z</time></trkpt><trkpt lat="38.05522614781877" lon="15.053349057669232"><ele>522.0</ele><time>2026-04-30T16:08:30.001Z</time></trkpt><trkpt lat="38.0551272353621" lon="15.053288033106197"><ele>522.0</ele><time>2026-04-30T16:08:31.001Z</time></trkpt><trkpt lat="38.05502647441641" lon="15.053224405376106"><ele>522.0</ele><time>2026-04-30T16:08:32.001Z</time></trkpt><trkpt lat="38.05492327928732" lon="15.053191652713705"><ele>522.0</ele><time>2026-04-30T16:08:33.001Z</time></trkpt><trkpt lat="38.054797403816366" lon="15.05317823524824"><ele>521.3333333333334</ele><time>2026-04-30T16:08:35.001Z</time></trkpt><trkpt lat="38.0547210692777" lon="15.053140707419896"><ele>520.6666666666666</ele><time>2026-04-30T16:08:37.001Z</time></trkpt><trkpt lat="38.054658178210126" lon="15.053082812401243"><ele>520.0</ele><time>2026-04-30T16:08:38.001Z</time></trkpt><trkpt lat="38.05460192408241" lon="15.0530043479031"><ele>519.3333333333333</ele><time>2026-04-30T16:08:39.001Z</time></trkpt><trkpt lat="38.05451963897853" lon="15.052957277095818"><ele>518.6666666666666</ele><time>2026-04-30T16:08:40.001Z</time></trkpt><trkpt lat="38.05444950182693" lon="15.052925974867213"><ele>518.0</ele><time>2026-04-30T16:08:41.001Z</time></trkpt><trkpt lat="38.05435707147059" lon="15.052886217372174"><ele>518.0</ele><time>2026-04-30T16:08:43.001Z</time></trkpt><trkpt lat="38.05436596520346" lon="15.05275513685606"><ele>518.0</ele><time>2026-04-30T16:08:45.001Z</time></trkpt><trkpt lat="38.05441682737726" lon="15.052663208232103"><ele>518.0</ele><time>2026-04-30T16:08:46.001Z</time></trkpt><trkpt lat="38.05448519782815" lon="15.05256801732023"><ele>518.0</ele><time>2026-04-30T16:08:47.001Z</time></trkpt><trkpt lat="38.05455764889944" lon="15.05246890630829"><ele>518.0</ele><time>2026-04-30T16:08:48.001Z</time></trkpt><trkpt lat="38.0546385051677" lon="15.052353385994527"><ele>517.6666666666666</ele><time>2026-04-30T16:08:49.001Z</time></trkpt><trkpt lat="38.054710115604124" lon="15.05224639937483"><ele>517.3333333333333</ele><time>2026-04-30T16:08:50.001Z</time></trkpt><trkpt lat="38.05477596453555" lon="15.052146888891482"><ele>517.0</ele><time>2026-04-30T16:08:51.001Z</time></trkpt><trkpt lat="38.05482632186795" lon="15.05207214067479"><ele>516.6666666666666</ele><time>2026-04-30T16:08:52.001Z</time></trkpt><trkpt lat="38.05487727611478" lon="15.052003980208546"><ele>516.3333333333334</ele><time>2026-04-30T16:08:53.001Z</time></trkpt><trkpt lat="38.054916780393086" lon="15.051913266570528"><ele>516.0</ele><time>2026-04-30T16:08:54.001Z</time></trkpt><trkpt lat="38.05493247227078" lon="15.051810865104134"><ele>516.0</ele><time>2026-04-30T16:08:55.001Z</time></trkpt><trkpt lat="38.05493772739074" lon="15.051699032887793"><ele>516.0</ele><time>2026-04-30T16:08:56.001Z</time></trkpt><trkpt lat="38.05492930967305" lon="15.051593235440109"><ele>516.0</ele><time>2026-04-30T16:08:57.001Z</time></trkpt><trkpt lat="38.054907601858886" lon="15.051491542647312"><ele>516.0</ele><time>2026-04-30T16:08:58.001Z</time></trkpt><trkpt lat="38.054871632627375" lon="15.051393426183859"><ele>516.0</ele><time>2026-04-30T16:08:59.001Z</time></trkpt><trkpt lat="38.05482537152817" lon="15.051283777291012"><ele>516.0</ele><time>2026-04-30T16:09:00.001Z</time></trkpt><trkpt lat="38.05477496089677" lon="15.05115590213867"><ele>518.5</ele><time>2026-04-30T16:09:01.001Z</time></trkpt><trkpt lat="38.054709535275876" lon="15.051000639834967"><ele>521.0</ele><time>2026-04-30T16:09:02.001Z</time></trkpt><trkpt lat="38.05463220635556" lon="15.050830619912027"><ele>523.5</ele><time>2026-04-30T16:09:03.001Z</time></trkpt><trkpt lat="38.054568875604254" lon="15.05066683578493"><ele>526.0</ele><time>2026-04-30T16:09:04Z</time></trkpt><trkpt lat="38.05450189401399" lon="15.050481055085298"><ele>530.3333333333334</ele><time>2026-04-30T16:09:05Z</time></trkpt><trkpt lat="38.05444560813906" lon="15.050288528403389"><ele>534.6666666666666</ele><time>2026-04-30T16:09:06Z</time></trkpt><trkpt lat="38.054396061506736" lon="15.050093315019893"><ele>539.0</ele><time>2026-04-30T16:09:07Z</time></trkpt><trkpt lat="38.05435454219484" lon="15.049893241280976"><ele>543.3333333333333</ele><time>2026-04-30T16:09:08Z</time></trkpt><trkpt lat="38.054302922678986" lon="15.049694594746946"><ele>547.6666666666666</ele><time>2026-04-30T16:09:09Z</time></trkpt><trkpt lat="38.05423789706288" lon="15.049509144824759"><ele>552.0</ele><time>2026-04-30T16:09:10Z</time></trkpt><trkpt lat="38.0541492377358" lon="15.049318899532029"><ele>553.3333333333334</ele><time>2026-04-30T16:09:11Z</time></trkpt><trkpt lat="38.05405184934349" lon="15.04911624119376"><ele>554.6666666666667</ele><time>2026-04-30T16:09:12Z</time></trkpt><trkpt lat="38.0539705591507" lon="15.048945269558063"><ele>556.0</ele><time>2026-04-30T16:09:13Z</time></trkpt><trkpt lat="38.05390626457062" lon="15.048815628958348"><ele>556.0</ele><time>2026-04-30T16:09:14Z</time></trkpt><trkpt lat="38.05386238371953" lon="15.048709529068391"><ele>556.0</ele><time>2026-04-30T16:09:15Z</time></trkpt><trkpt lat="38.053839042951545" lon="15.048604686021314"><ele>556.0</ele><time>2026-04-30T16:09:16Z</time></trkpt><trkpt lat="38.053834249162115" lon="15.048481890737834"><ele>556.0</ele><time>2026-04-30T16:09:17Z</time></trkpt><trkpt lat="38.053854714188866" lon="15.048340576763618"><ele>556.0</ele><time>2026-04-30T16:09:18Z</time></trkpt><trkpt lat="38.053894632336096" lon="15.048209125010938"><ele>559.25</ele><time>2026-04-30T16:09:19Z</time></trkpt><trkpt lat="38.05395134882797" lon="15.04809582778542"><ele>562.5</ele><time>2026-04-30T16:09:20Z</time></trkpt><trkpt lat="38.05403579688764" lon="15.047996810893903"><ele>565.75</ele><time>2026-04-30T16:09:21Z</time></trkpt><trkpt lat="38.05413019670581" lon="15.047908491296766"><ele>569.0</ele><time>2026-04-30T16:09:22Z</time></trkpt><trkpt lat="38.054212378263976" lon="15.047809312903892"><ele>570.2</ele><time>2026-04-30T16:09:23Z</time></trkpt><trkpt lat="38.05425851610674" lon="15.047684537640395"><ele>571.4</ele><time>2026-04-30T16:09:24Z</time></trkpt><trkpt lat="38.05429928021324" lon="15.047546744861501"><ele>572.6</ele><time>2026-04-30T16:09:25Z</time></trkpt><trkpt lat="38.05432209334978" lon="15.047418722243705"><ele>573.8</ele><time>2026-04-30T16:09:26Z</time></trkpt><trkpt lat="38.0543265603686" lon="15.047312817802613"><ele>575.0</ele><time>2026-04-30T16:09:27Z</time></trkpt><trkpt lat="38.05430544590935" lon="15.047216014827379"><ele>576.6</ele><time>2026-04-30T16:09:28Z</time></trkpt><trkpt lat="38.054268763001325" lon="15.047102388294414"><ele>578.2</ele><time>2026-04-30T16:09:29Z</time></trkpt><trkpt lat="38.05422330787314" lon="15.047012860107918"><ele>579.8</ele><time>2026-04-30T16:09:30Z</time></trkpt><trkpt lat="38.05414996322566" lon="15.046947265599936"><ele>581.4</ele><time>2026-04-30T16:09:31Z</time></trkpt><trkpt lat="38.05406121917537" lon="15.046889744875251"><ele>583.0</ele><time>2026-04-30T16:09:32Z</time></trkpt><trkpt lat="38.053961181080254" lon="15.046847078717564"><ele>583.0</ele><time>2026-04-30T16:09:33Z</time></trkpt><trkpt lat="38.053847848125585" lon="15.046825344425473"><ele>583.0</ele><time>2026-04-30T16:09:34Z</time></trkpt><trkpt lat="38.053705961045175" lon="15.046824773490714"><ele>583.0</ele><time>2026-04-30T16:09:35Z</time></trkpt><trkpt lat="38.053562516726274" lon="15.046813390043175"><ele>583.0</ele><time>2026-04-30T16:09:36Z</time></trkpt><trkpt lat="38.053403737192355" lon="15.04675933615788"><ele>585.5</ele><time>2026-04-30T16:09:37Z</time></trkpt><trkpt lat="38.05324813715472" lon="15.046712704629442"><ele>588.0</ele><time>2026-04-30T16:09:38Z</time></trkpt><trkpt lat="38.05312527399989" lon="15.046680478331686"><ele>590.5</ele><time>2026-04-30T16:09:39Z</time></trkpt><trkpt lat="38.05301535545115" lon="15.046657732786297"><ele>593.0</ele><time>2026-04-30T16:09:40Z</time></trkpt><trkpt lat="38.052896279482155" lon="15.04668883280771"><ele>593.0</ele><time>2026-04-30T16:09:41Z</time></trkpt><trkpt lat="38.052754138656425" lon="15.046731459921931"><ele>593.0</ele><time>2026-04-30T16:09:42Z</time></trkpt><trkpt lat="38.05260074852071" lon="15.046776979527321"><ele>593.0</ele><time>2026-04-30T16:09:43Z</time></trkpt><trkpt lat="38.05244776128129" lon="15.046801824543184"><ele>593.25</ele><time>2026-04-30T16:09:44Z</time></trkpt><trkpt lat="38.05227991085043" lon="15.046831834227474"><ele>593.5</ele><time>2026-04-30T16:09:45Z</time></trkpt><trkpt lat="38.05213430915239" lon="15.046811248802797"><ele>593.75</ele><time>2026-04-30T16:09:46Z</time></trkpt><trkpt lat="38.052040707526665" lon="15.046825611996438"><ele>594.0</ele><time>2026-04-30T16:09:47Z</time></trkpt><trkpt lat="38.05195250599764" lon="15.04680346180693"><ele>594.0</ele><time>2026-04-30T16:09:48Z</time></trkpt><trkpt lat="38.05186713129295" lon="15.04676327468444"><ele>594.0</ele><time>2026-04-30T16:09:49Z</time></trkpt><trkpt lat="38.05179837789177" lon="15.046698272893929"><ele>594.0</ele><time>2026-04-30T16:09:50Z</time></trkpt><trkpt lat="38.05174495240623" lon="15.046608046942394"><ele>594.0</ele><time>2026-04-30T16:09:51.001Z</time></trkpt><trkpt lat="38.051721710261525" lon="15.046481089674282"><ele>594.0</ele><time>2026-04-30T16:09:52.001Z</time></trkpt><trkpt lat="38.05172591044579" lon="15.046376893844483"><ele>598.0</ele><time>2026-04-30T16:09:53.001Z</time></trkpt><trkpt lat="38.05175593587204" lon="15.046288103743208"><ele>602.0</ele><time>2026-04-30T16:09:54.001Z</time></trkpt><trkpt lat="38.05180851566109" lon="15.046201820936199"><ele>606.0</ele><time>2026-04-30T16:09:55.001Z</time></trkpt><trkpt lat="38.05188431045062" lon="15.046113304688953"><ele>610.0</ele><time>2026-04-30T16:09:56.001Z</time></trkpt><trkpt lat="38.05199052547498" lon="15.046014576808354"><ele>614.0</ele><time>2026-04-30T16:09:57.001Z</time></trkpt><trkpt lat="38.05212101893194" lon="15.04592506114843"><ele>614.0</ele><time>2026-04-30T16:09:58.001Z</time></trkpt><trkpt lat="38.05225255094835" lon="15.045810209760331"><ele>614.0</ele><time>2026-04-30T16:09:59.001Z</time></trkpt><trkpt lat="38.052374657732685" lon="15.045704642848932"><ele>614.0</ele><time>2026-04-30T16:10:00.001Z</time></trkpt><trkpt lat="38.05250578027542" lon="15.04559218291881"><ele>615.4</ele><time>2026-04-30T16:10:01.001Z</time></trkpt><trkpt lat="38.05261873452614" lon="15.045510897641742"><ele>616.8</ele><time>2026-04-30T16:10:02.001Z</time></trkpt><trkpt lat="38.052692976721715" lon="15.045416697712295"><ele>618.2</ele><time>2026-04-30T16:10:03.001Z</time></trkpt><trkpt lat="38.052752554581396" lon="15.04534571476593"><ele>619.6</ele><time>2026-04-30T16:10:04.001Z</time></trkpt><trkpt lat="38.05278761260019" lon="15.045241043405852"><ele>621.0</ele><time>2026-04-30T16:10:05.001Z</time></trkpt><trkpt lat="38.052787201469904" lon="15.045140294003957"><ele>621.0</ele><time>2026-04-30T16:10:06.001Z</time></trkpt><trkpt lat="38.052762540638774" lon="15.045038675256471"><ele>621.0</ele><time>2026-04-30T16:10:07.001Z</time></trkpt><trkpt lat="38.05271412589982" lon="15.04495413987385"><ele>621.0</ele><time>2026-04-30T16:10:08.001Z</time></trkpt><trkpt lat="38.05264398083021" lon="15.044893653652363"><ele>621.0</ele><time>2026-04-30T16:10:09.001Z</time></trkpt><trkpt lat="38.0525544231025" lon="15.044862079983378"><ele>621.0</ele><time>2026-04-30T16:10:10.001Z</time></trkpt><trkpt lat="38.052447778992416" lon="15.044844313887246"><ele>630.25</ele><time>2026-04-30T16:10:11.001Z</time></trkpt><trkpt lat="38.05233653376317" lon="15.044821732618574"><ele>639.5</ele><time>2026-04-30T16:10:12.001Z</time></trkpt><trkpt lat="38.0522169343898" lon="15.044801816603869"><ele>648.75</ele><time>2026-04-30T16:10:13.001Z</time></trkpt><trkpt lat="38.05211549141463" lon="15.044805770861005"><ele>658.0</ele><time>2026-04-30T16:10:14.001Z</time></trkpt><trkpt lat="38.05198302254766" lon="15.044873840946247"><ele>658.0</ele><time>2026-04-30T16:10:15.001Z</time></trkpt><trkpt lat="38.051848618347236" lon="15.044934226615544"><ele>658.0</ele><time>2026-04-30T16:10:16.001Z</time></trkpt><trkpt lat="38.051710254487965" lon="15.045025582241731"><ele>658.0</ele><time>2026-04-30T16:10:17.001Z</time></trkpt><trkpt lat="38.051574026171046" lon="15.045121931320974"><ele>655.0</ele><time>2026-04-30T16:10:18.001Z</time></trkpt><trkpt lat="38.051459435359824" lon="15.045197835541865"><ele>652.0</ele><time>2026-04-30T16:10:19.001Z</time></trkpt><trkpt lat="38.05135838132039" lon="15.045245224018027"><ele>649.0</ele><time>2026-04-30T16:10:20.001Z</time></trkpt><trkpt lat="38.051261978304325" lon="15.045276234649563"><ele>646.0</ele><time>2026-04-30T16:10:21.001Z</time></trkpt><trkpt lat="38.051154166443325" lon="15.04527712379429"><ele>643.0</ele><time>2026-04-30T16:10:22.001Z</time></trkpt><trkpt lat="38.051027396412586" lon="15.045248258604154"><ele>643.0</ele><time>2026-04-30T16:10:23.001Z</time></trkpt><trkpt lat="38.05089265300609" lon="15.045214424489942"><ele>643.0</ele><time>2026-04-30T16:10:24.001Z</time></trkpt><trkpt lat="38.05076546670427" lon="15.045160132374717"><ele>643.0</ele><time>2026-04-30T16:10:25.001Z</time></trkpt><trkpt lat="38.05062188105417" lon="15.0450786820068"><ele>643.0</ele><time>2026-04-30T16:10:26.001Z</time></trkpt><trkpt lat="38.050452236848535" lon="15.0449969003444"><ele>650.3333333333334</ele><time>2026-04-30T16:10:27.001Z</time></trkpt><trkpt lat="38.05027463289452" lon="15.044881900735374"><ele>657.6666666666666</ele><time>2026-04-30T16:10:28.001Z</time></trkpt><trkpt lat="38.05010516903126" lon="15.044760644365986"><ele>665.0</ele><time>2026-04-30T16:10:29.001Z</time></trkpt><trkpt lat="38.049967987237395" lon="15.044673152096443"><ele>664.75</ele><time>2026-04-30T16:10:30.001Z</time></trkpt><trkpt lat="38.04985290273993" lon="15.044598218430014"><ele>664.5</ele><time>2026-04-30T16:10:31.001Z</time></trkpt><trkpt lat="38.04975125659857" lon="15.044528234161564"><ele>664.25</ele><time>2026-04-30T16:10:32.001Z</time></trkpt><trkpt lat="38.049656251328436" lon="15.044443818862423"><ele>664.0</ele><time>2026-04-30T16:10:33.001Z</time></trkpt><trkpt lat="38.04954006973559" lon="15.044340289332471"><ele>664.0</ele><time>2026-04-30T16:10:34.001Z</time></trkpt><trkpt lat="38.049426559388074" lon="15.044181073509382"><ele>664.0</ele><time>2026-04-30T16:10:35.001Z</time></trkpt><trkpt lat="38.04932695434565" lon="15.044050498603767"><ele>664.0</ele><time>2026-04-30T16:10:36.001Z</time></trkpt><trkpt lat="38.049248091094434" lon="15.043961076796156"><ele>664.0</ele><time>2026-04-30T16:10:37.001Z</time></trkpt><trkpt lat="38.049162378602844" lon="15.04389569888078"><ele>670.2</ele><time>2026-04-30T16:10:38.001Z</time></trkpt><trkpt lat="38.04906103343622" lon="15.043869077101537"><ele>676.4000000000001</ele><time>2026-04-30T16:10:39.001Z</time></trkpt><trkpt lat="38.048961472784825" lon="15.043875247404968"><ele>682.6</ele><time>2026-04-30T16:10:40.001Z</time></trkpt><trkpt lat="38.04886606546052" lon="15.0439138188975"><ele>688.8</ele><time>2026-04-30T16:10:41.001Z</time></trkpt><trkpt lat="38.04877918476032" lon="15.043983567345666"><ele>695.0</ele><time>2026-04-30T16:10:42.001Z</time></trkpt><trkpt lat="38.048714200622406" lon="15.044072435560823"><ele>692.0</ele><time>2026-04-30T16:10:43.001Z</time></trkpt><trkpt lat="38.048664812336206" lon="15.044184541811994"><ele>689.0</ele><time>2026-04-30T16:10:44.001Z</time></trkpt><trkpt lat="38.04865080794557" lon="15.044303336141168"><ele>686.0</ele><time>2026-04-30T16:10:45.001Z</time></trkpt><trkpt lat="38.04863155720415" lon="15.044454471017184"><ele>683.0</ele><time>2026-04-30T16:10:46.001Z</time></trkpt><trkpt lat="38.04862517175902" lon="15.04463989907061"><ele>683.0</ele><time>2026-04-30T16:10:47.001Z</time></trkpt><trkpt lat="38.0486177921384" lon="15.044797974264963"><ele>683.0</ele><time>2026-04-30T16:10:48.001Z</time></trkpt><trkpt lat="38.04860286446826" lon="15.044924213942766"><ele>683.0</ele><time>2026-04-30T16:10:49.001Z</time></trkpt><trkpt lat="38.04857052035777" lon="15.045032688935585"><ele>683.0</ele><time>2026-04-30T16:10:50.001Z</time></trkpt><trkpt lat="38.04851651634637" lon="15.045127640058546"><ele>683.0</ele><time>2026-04-30T16:10:51.001Z</time></trkpt><trkpt lat="38.0484354514895" lon="15.045216735412732"><ele>682.8</ele><time>2026-04-30T16:10:52Z</time></trkpt><trkpt lat="38.04834074825211" lon="15.045299271802888"><ele>682.5999999999999</ele><time>2026-04-30T16:10:53Z</time></trkpt><trkpt lat="38.048252569830275" lon="15.045343068862909"><ele>682.4000000000001</ele><time>2026-04-30T16:10:54Z</time></trkpt><trkpt lat="38.04814621061041" lon="15.045343221739037"><ele>682.2</ele><time>2026-04-30T16:10:55Z</time></trkpt><trkpt lat="38.048034130515695" lon="15.045331952109226"><ele>682.0</ele><time>2026-04-30T16:10:56Z</time></trkpt><trkpt lat="38.04792611207281" lon="15.045293052674625"><ele>682.0</ele><time>2026-04-30T16:10:57Z</time></trkpt><trkpt lat="38.04782209595238" lon="15.045280131545967"><ele>682.0</ele><time>2026-04-30T16:10:58Z</time></trkpt><trkpt lat="38.0477438371313" lon="15.045264546496767"><ele>682.0</ele><time>2026-04-30T16:10:59Z</time></trkpt><trkpt lat="38.04772866754461" lon="15.044913294670954"><ele>685.75</ele><time>2026-04-30T16:11:00Z</time></trkpt><trkpt lat="38.04772602099196" lon="15.044774593712399"><ele>689.5</ele><time>2026-04-30T16:11:01Z</time></trkpt><trkpt lat="38.04773548501904" lon="15.044606631478468"><ele>693.25</ele><time>2026-04-30T16:11:02Z</time></trkpt><trkpt lat="38.04775035812808" lon="15.044424629317604"><ele>697.0</ele><time>2026-04-30T16:11:03Z</time></trkpt><trkpt lat="38.04775894717742" lon="15.04425150275266"><ele>700.75</ele><time>2026-04-30T16:11:04Z</time></trkpt><trkpt lat="38.04774828355252" lon="15.04411507457027"><ele>704.5</ele><time>2026-04-30T16:11:05Z</time></trkpt><trkpt lat="38.04771270531892" lon="15.044006551255917"><ele>708.25</ele><time>2026-04-30T16:11:06Z</time></trkpt><trkpt lat="38.0475706511781" lon="15.043831633656115"><ele>712.0</ele><time>2026-04-30T16:11:08Z</time></trkpt><trkpt lat="38.047471916411176" lon="15.043789188809885"><ele>712.5</ele><time>2026-04-30T16:11:09Z</time></trkpt><trkpt lat="38.04736929804683" lon="15.04378548123635"><ele>713.0</ele><time>2026-04-30T16:11:10Z</time></trkpt><trkpt lat="38.04728126119494" lon="15.04379795392454"><ele>713.5</ele><time>2026-04-30T16:11:11Z</time></trkpt><trkpt lat="38.04713649310889" lon="15.043876851473113"><ele>714.0</ele><time>2026-04-30T16:11:12Z</time></trkpt><trkpt lat="38.04701822641327" lon="15.043886035248741"><ele>714.0</ele><time>2026-04-30T16:11:13Z</time></trkpt><trkpt lat="38.04691285716413" lon="15.04386859142051"><ele>714.0</ele><time>2026-04-30T16:11:15Z</time></trkpt><trkpt lat="38.04684108422474" lon="15.04385377312579"><ele>714.0</ele><time>2026-04-30T16:11:16Z</time></trkpt><trkpt lat="38.046771213432336" lon="15.043773726888894"><ele>714.0</ele><time>2026-04-30T16:11:17Z</time></trkpt><trkpt lat="38.046689570881625" lon="15.043687024585719"><ele>714.0</ele><time>2026-04-30T16:11:18Z</time></trkpt><trkpt lat="38.04661791191737" lon="15.043580045550696"><ele>713.25</ele><time>2026-04-30T16:11:19Z</time></trkpt><trkpt lat="38.046548056654984" lon="15.043426415590353"><ele>712.5</ele><time>2026-04-30T16:11:20Z</time></trkpt><trkpt lat="38.046472765878775" lon="15.04327376782121"><ele>711.75</ele><time>2026-04-30T16:11:21Z</time></trkpt><trkpt lat="38.046402941941416" lon="15.04314116987088"><ele>711.0</ele><time>2026-04-30T16:11:22Z</time></trkpt><trkpt lat="38.0463058750367" lon="15.043055946031302"><ele>715.0</ele><time>2026-04-30T16:11:23Z</time></trkpt><trkpt lat="38.04618065472028" lon="15.043006946859418"><ele>719.0</ele><time>2026-04-30T16:11:24Z</time></trkpt><trkpt lat="38.046044582772005" lon="15.04295624418942"><ele>723.0</ele><time>2026-04-30T16:11:25Z</time></trkpt><trkpt lat="38.04590643985367" lon="15.042876662802527"><ele>727.0</ele><time>2026-04-30T16:11:26Z</time></trkpt><trkpt lat="38.045772555334786" lon="15.042797012679419"><ele>727.0</ele><time>2026-04-30T16:11:27Z</time></trkpt><trkpt lat="38.04567094565248" lon="15.042721732976531"><ele>727.0</ele><time>2026-04-30T16:11:28Z</time></trkpt><trkpt lat="38.0455781791739" lon="15.042647296079112"><ele>727.0</ele><time>2026-04-30T16:11:29Z</time></trkpt><trkpt lat="38.04548065829799" lon="15.042567375781065"><ele>727.0</ele><time>2026-04-30T16:11:30Z</time></trkpt><trkpt lat="38.04540261064021" lon="15.042464244907308"><ele>727.0</ele><time>2026-04-30T16:11:32Z</time></trkpt><trkpt lat="38.045360031271215" lon="15.042391550775012"><ele>727.0</ele><time>2026-04-30T16:11:33Z</time></trkpt><trkpt lat="38.045318628914586" lon="15.042322497169234"><ele>727.0</ele><time>2026-04-30T16:11:34Z</time></trkpt><trkpt lat="38.045299826902934" lon="15.042201714669286"><ele>727.0</ele><time>2026-04-30T16:11:36Z</time></trkpt><trkpt lat="38.04528934255469" lon="15.0420958551469"><ele>727.0</ele><time>2026-04-30T16:11:43Z</time></trkpt><trkpt lat="38.045211691143535" lon="15.042084956194847"><ele>727.0</ele><time>2026-04-30T16:11:44Z</time></trkpt><trkpt lat="38.045136339929385" lon="15.042062702933775"><ele>727.0</ele><time>2026-04-30T16:11:46Z</time></trkpt><trkpt lat="38.04505428620628" lon="15.042050077449192"><ele>727.0</ele><time>2026-04-30T16:11:50Z</time></trkpt><trkpt lat="38.04499379383425" lon="15.041937434195754"><ele>727.0</ele><time>2026-04-30T16:11:51Z</time></trkpt><trkpt lat="38.04492879691769" lon="15.041856715198703"><ele>727.0</ele><time>2026-04-30T16:11:52Z</time></trkpt><trkpt lat="38.04485805179068" lon="15.041798401696548"><ele>727.0</ele><time>2026-04-30T16:11:53Z</time></trkpt><trkpt lat="38.04477965014085" lon="15.041691691256933"><ele>725.6</ele><time>2026-04-30T16:11:54Z</time></trkpt><trkpt lat="38.0447027729533" lon="15.04159824841894"><ele>724.2</ele><time>2026-04-30T16:11:55Z</time></trkpt><trkpt lat="38.04461927811129" lon="15.041515996393535"><ele>722.8</ele><time>2026-04-30T16:11:56Z</time></trkpt><trkpt lat="38.04452448047151" lon="15.041454454566647"><ele>721.4</ele><time>2026-04-30T16:11:57Z</time></trkpt><trkpt lat="38.044413699805915" lon="15.041424957746225"><ele>720.0</ele><time>2026-04-30T16:11:58Z</time></trkpt><trkpt lat="38.04430451214547" lon="15.041419652439345"><ele>720.0</ele><time>2026-04-30T16:11:59Z</time></trkpt><trkpt lat="38.04418767874721" lon="15.041448252571946"><ele>720.0</ele><time>2026-04-30T16:12:00Z</time></trkpt><trkpt lat="38.04406461901676" lon="15.041447568670883"><ele>720.0</ele><time>2026-04-30T16:12:01Z</time></trkpt><trkpt lat="38.04393810252337" lon="15.04146006498068"><ele>720.0</ele><time>2026-04-30T16:12:02Z</time></trkpt><trkpt lat="38.043825972064774" lon="15.041440240365636"><ele>722.0</ele><time>2026-04-30T16:12:03Z</time></trkpt><trkpt lat="38.043711391352105" lon="15.041376481594783"><ele>724.0</ele><time>2026-04-30T16:12:04Z</time></trkpt><trkpt lat="38.04359087522833" lon="15.041265796400797"><ele>726.0</ele><time>2026-04-30T16:12:05Z</time></trkpt><trkpt lat="38.04348015843017" lon="15.04114489154149"><ele>728.0</ele><time>2026-04-30T16:12:06Z</time></trkpt><trkpt lat="38.04336987556496" lon="15.04104501753782"><ele>727.5</ele><time>2026-04-30T16:12:07Z</time></trkpt><trkpt lat="38.0432577017274" lon="15.040933346383854"><ele>727.0</ele><time>2026-04-30T16:12:08Z</time></trkpt><trkpt lat="38.04313494737994" lon="15.040861600386867"><ele>726.5</ele><time>2026-04-30T16:12:09Z</time></trkpt><trkpt lat="38.04300759518427" lon="15.040814690370944"><ele>726.0</ele><time>2026-04-30T16:12:10Z</time></trkpt><trkpt lat="38.04286508912525" lon="15.040784568674248"><ele>726.0</ele><time>2026-04-30T16:12:11Z</time></trkpt><trkpt lat="38.04272051518727" lon="15.04073994666747"><ele>726.0</ele><time>2026-04-30T16:12:12Z</time></trkpt><trkpt lat="38.04259745465345" lon="15.040700802004286"><ele>726.0</ele><time>2026-04-30T16:12:13Z</time></trkpt><trkpt lat="38.042497876126184" lon="15.040634506629592"><ele>726.0</ele><time>2026-04-30T16:12:14Z</time></trkpt><trkpt lat="38.04238980891002" lon="15.040523466939263"><ele>726.75</ele><time>2026-04-30T16:12:15Z</time></trkpt><trkpt lat="38.04227886597141" lon="15.04041123459772"><ele>727.5</ele><time>2026-04-30T16:12:16Z</time></trkpt><trkpt lat="38.0421722620383" lon="15.040270076215124"><ele>728.25</ele><time>2026-04-30T16:12:17Z</time></trkpt><trkpt lat="38.04205174622076" lon="15.040157591899423"><ele>729.0</ele><time>2026-04-30T16:12:18Z</time></trkpt><trkpt lat="38.04192608245291" lon="15.040043511236899"><ele>729.0</ele><time>2026-04-30T16:12:19Z</time></trkpt><trkpt lat="38.041745753169124" lon="15.039973564125757"><ele>729.0</ele><time>2026-04-30T16:12:20Z</time></trkpt><trkpt lat="38.04157461040756" lon="15.03987754245878"><ele>729.0</ele><time>2026-04-30T16:12:21Z</time></trkpt><trkpt lat="38.04140845303375" lon="15.0397774489164"><ele>727.0</ele><time>2026-04-30T16:12:22Z</time></trkpt><trkpt lat="38.04123593231176" lon="15.03968441841116"><ele>725.0</ele><time>2026-04-30T16:12:23Z</time></trkpt><trkpt lat="38.04105362075834" lon="15.039596246613328"><ele>723.0</ele><time>2026-04-30T16:12:24Z</time></trkpt><trkpt lat="38.04086756708405" lon="15.03952604394692"><ele>726.6666666666666</ele><time>2026-04-30T16:12:25Z</time></trkpt><trkpt lat="38.04068893541015" lon="15.039475449270565"><ele>730.3333333333333</ele><time>2026-04-30T16:12:26Z</time></trkpt><trkpt lat="38.04052527423845" lon="15.039439567969398"><ele>734.0</ele><time>2026-04-30T16:12:27Z</time></trkpt><trkpt lat="38.0403764161738" lon="15.039411134944404"><ele>734.0</ele><time>2026-04-30T16:12:28Z</time></trkpt><trkpt lat="38.040237881214736" lon="15.039387766746234"><ele>734.0</ele><time>2026-04-30T16:12:29Z</time></trkpt><trkpt lat="38.04011290446327" lon="15.039348013427977"><ele>734.0</ele><time>2026-04-30T16:12:30Z</time></trkpt><trkpt lat="38.04001122847869" lon="15.03931046525105"><ele>734.0</ele><time>2026-04-30T16:12:31Z</time></trkpt><trkpt lat="38.0399240018084" lon="15.039252974396044"><ele>736.75</ele><time>2026-04-30T16:12:32Z</time></trkpt><trkpt lat="38.039839155921335" lon="15.039164989867336"><ele>739.5</ele><time>2026-04-30T16:12:33Z</time></trkpt><trkpt lat="38.039777120050914" lon="15.039046586218333"><ele>742.25</ele><time>2026-04-30T16:12:34Z</time></trkpt><trkpt lat="38.0397385462594" lon="15.03888744590875"><ele>745.0</ele><time>2026-04-30T16:12:35Z</time></trkpt><trkpt lat="38.03971187865146" lon="15.038702546179183"><ele>745.75</ele><time>2026-04-30T16:12:36Z</time></trkpt><trkpt lat="38.03968448366191" lon="15.038495572665475"><ele>746.5</ele><time>2026-04-30T16:12:37Z</time></trkpt><trkpt lat="38.039648767633366" lon="15.03833424110569"><ele>747.25</ele><time>2026-04-30T16:12:38Z</time></trkpt><trkpt lat="38.039639747000045" lon="15.038188274114239"><ele>748.0</ele><time>2026-04-30T16:12:39Z</time></trkpt><trkpt lat="38.039623262906524" lon="15.038059894155138"><ele>750.5999999999999</ele><time>2026-04-30T16:12:40Z</time></trkpt><trkpt lat="38.03960323034819" lon="15.037953731503503"><ele>753.1999999999999</ele><time>2026-04-30T16:12:41Z</time></trkpt><trkpt lat="38.0395902841404" lon="15.037848540621233"><ele>755.8</ele><time>2026-04-30T16:12:42Z</time></trkpt><trkpt lat="38.03957178259854" lon="15.037725668019888"><ele>758.4</ele><time>2026-04-30T16:12:43Z</time></trkpt><trkpt lat="38.039562842998016" lon="15.037591658279597"><ele>761.0</ele><time>2026-04-30T16:12:44Z</time></trkpt><trkpt lat="38.0395927957312" lon="15.037448431564348"><ele>763.5</ele><time>2026-04-30T16:12:45Z</time></trkpt><trkpt lat="38.03965206582718" lon="15.037338132061924"><ele>766.0</ele><time>2026-04-30T16:12:46Z</time></trkpt><trkpt lat="38.039709573221124" lon="15.037235690950236"><ele>768.5</ele><time>2026-04-30T16:12:47Z</time></trkpt><trkpt lat="38.0398286149558" lon="15.03719300921221"><ele>771.0</ele><time>2026-04-30T16:12:48Z</time></trkpt><trkpt lat="38.039950049696984" lon="15.037154355010399"><ele>768.0</ele><time>2026-04-30T16:12:49Z</time></trkpt><trkpt lat="38.040086801070686" lon="15.037130639696022"><ele>765.0</ele><time>2026-04-30T16:12:50Z</time></trkpt><trkpt lat="38.0402234583642" lon="15.03712285467475"><ele>762.0</ele><time>2026-04-30T16:12:51Z</time></trkpt><trkpt lat="38.040336120743746" lon="15.037094090032"><ele>759.0</ele><time>2026-04-30T16:12:52Z</time></trkpt><trkpt lat="38.04043441684229" lon="15.037070428825471"><ele>759.0</ele><time>2026-04-30T16:12:53Z</time></trkpt><trkpt lat="38.04052204500419" lon="15.036997833541681"><ele>759.0</ele><time>2026-04-30T16:12:54Z</time></trkpt><trkpt lat="38.0406002795963" lon="15.036886898770778"><ele>759.0</ele><time>2026-04-30T16:12:55Z</time></trkpt><trkpt lat="38.0406447698223" lon="15.036755157228994"><ele>759.0</ele><time>2026-04-30T16:12:56Z</time></trkpt><trkpt lat="38.040689082397726" lon="15.03658087006675"><ele>759.6666666666666</ele><time>2026-04-30T16:12:57Z</time></trkpt><trkpt lat="38.040736561412174" lon="15.036370536775014"><ele>760.3333333333333</ele><time>2026-04-30T16:12:58Z</time></trkpt><trkpt lat="38.04078746147887" lon="15.036165496475302"><ele>761.0</ele><time>2026-04-30T16:12:59Z</time></trkpt><trkpt lat="38.04084032417553" lon="15.035977404279995"><ele>759.4</ele><time>2026-04-30T16:13:00Z</time></trkpt><trkpt lat="38.040871299169275" lon="15.03582447771456"><ele>757.8</ele><time>2026-04-30T16:13:01Z</time></trkpt><trkpt lat="38.04085968775438" lon="15.03570411703572"><ele>756.1999999999999</ele><time>2026-04-30T16:13:02Z</time></trkpt><trkpt lat="38.04081639368544" lon="15.035577856213905"><ele>754.5999999999999</ele><time>2026-04-30T16:13:03Z</time></trkpt><trkpt lat="38.04074611557815" lon="15.035460856169255"><ele>753.0</ele><time>2026-04-30T16:13:04Z</time></trkpt><trkpt lat="38.040658729304845" lon="15.035366766013622"><ele>753.0</ele><time>2026-04-30T16:13:05Z</time></trkpt><trkpt lat="38.040548843559186" lon="15.035299308832714"><ele>753.0</ele><time>2026-04-30T16:13:06Z</time></trkpt><trkpt lat="38.040450069761164" lon="15.035209717522298"><ele>753.0</ele><time>2026-04-30T16:13:07Z</time></trkpt><trkpt lat="38.040267545605644" lon="15.035287224093144"><ele>753.0</ele><time>2026-04-30T16:13:08Z</time></trkpt><trkpt lat="38.040095964334" lon="15.035314948174289"><ele>754.3333333333334</ele><time>2026-04-30T16:13:09Z</time></trkpt><trkpt lat="38.03992389101106" lon="15.035338932066164"><ele>755.6666666666667</ele><time>2026-04-30T16:13:10Z</time></trkpt><trkpt lat="38.039777304924684" lon="15.035364395114"><ele>757.0</ele><time>2026-04-30T16:13:11Z</time></trkpt><trkpt lat="38.0396348127223" lon="15.035344139556173"><ele>757.0</ele><time>2026-04-30T16:13:12Z</time></trkpt><trkpt lat="38.039492205716556" lon="15.035348809792008"><ele>757.0</ele><time>2026-04-30T16:13:13Z</time></trkpt><trkpt lat="38.039328668482426" lon="15.035353973979745"><ele>757.0</ele><time>2026-04-30T16:13:14Z</time></trkpt><trkpt lat="38.03915537748885" lon="15.035359277128748"><ele>758.0</ele><time>2026-04-30T16:13:15Z</time></trkpt><trkpt lat="38.03897829536286" lon="15.03536469629564"><ele>759.0</ele><time>2026-04-30T16:13:16Z</time></trkpt><trkpt lat="38.038795562892325" lon="15.035369963150398"><ele>760.0</ele><time>2026-04-30T16:13:17Z</time></trkpt><trkpt lat="38.03859968664567" lon="15.035374110753112"><ele>760.0</ele><time>2026-04-30T16:13:18Z</time></trkpt><trkpt lat="38.03839890679073" lon="15.03537977067634"><ele>760.0</ele><time>2026-04-30T16:13:19Z</time></trkpt><trkpt lat="38.03820225523837" lon="15.035405940249987"><ele>760.0</ele><time>2026-04-30T16:13:20Z</time></trkpt><trkpt lat="38.038000492842144" lon="15.035403556824958"><ele>760.3333333333334</ele><time>2026-04-30T16:13:21Z</time></trkpt><trkpt lat="38.03781284121034" lon="15.035410644954942"><ele>760.6666666666666</ele><time>2026-04-30T16:13:22Z</time></trkpt><trkpt lat="38.03766057019174" lon="15.035412610214367"><ele>761.0</ele><time>2026-04-30T16:13:23Z</time></trkpt><trkpt lat="38.037521003157366" lon="15.035425481617049"><ele>763.75</ele><time>2026-04-30T16:13:24Z</time></trkpt><trkpt lat="38.037382259069666" lon="15.035462915887695"><ele>766.5</ele><time>2026-04-30T16:13:25Z</time></trkpt><trkpt lat="38.03724542522842" lon="15.03551846505956"><ele>769.25</ele><time>2026-04-30T16:13:26Z</time></trkpt><trkpt lat="38.0371254412578" lon="15.035549216364602"><ele>772.0</ele><time>2026-04-30T16:13:27Z</time></trkpt><trkpt lat="38.03702329910162" lon="15.035555641189303"><ele>772.0</ele><time>2026-04-30T16:13:28Z</time></trkpt><trkpt lat="38.03693079730082" lon="15.035549126253121"><ele>772.0</ele><time>2026-04-30T16:13:29Z</time></trkpt><trkpt lat="38.03685900494944" lon="15.035467864534228"><ele>772.0</ele><time>2026-04-30T16:13:30Z</time></trkpt><trkpt lat="38.03679326355425" lon="15.035359797192356"><ele>772.0</ele><time>2026-04-30T16:13:31Z</time></trkpt><trkpt lat="38.0367097864913" lon="15.035210166910188"><ele>772.0</ele><time>2026-04-30T16:13:32Z</time></trkpt><trkpt lat="38.03660344203866" lon="15.035054368048772"><ele>772.3333333333333</ele><time>2026-04-30T16:13:33Z</time></trkpt><trkpt lat="38.03650310077684" lon="15.034904767797686"><ele>772.6666666666667</ele><time>2026-04-30T16:13:34Z</time></trkpt><trkpt lat="38.03638088009483" lon="15.034795443258623"><ele>773.0</ele><time>2026-04-30T16:13:35Z</time></trkpt><trkpt lat="38.03623538127274" lon="15.034733899923546"><ele>773.0</ele><time>2026-04-30T16:13:36Z</time></trkpt><trkpt lat="38.0360669775027" lon="15.034682754234332"><ele>773.0</ele><time>2026-04-30T16:13:37Z</time></trkpt><trkpt lat="38.03592664274032" lon="15.034593607910322"><ele>773.0</ele><time>2026-04-30T16:13:38Z</time></trkpt><trkpt lat="38.03582043808024" lon="15.034475141697026"><ele>771.6666666666667</ele><time>2026-04-30T16:13:39Z</time></trkpt><trkpt lat="38.03569817771012" lon="15.034323039793708"><ele>770.3333333333333</ele><time>2026-04-30T16:13:40Z</time></trkpt><trkpt lat="38.0355697817664" lon="15.034197739215594"><ele>769.0</ele><time>2026-04-30T16:13:41Z</time></trkpt><trkpt lat="38.03545590541735" lon="15.034098080048324"><ele>769.0</ele><time>2026-04-30T16:13:42Z</time></trkpt><trkpt lat="38.035337099236635" lon="15.034033753147954"><ele>769.0</ele><time>2026-04-30T16:13:43Z</time></trkpt><trkpt lat="38.03520988888151" lon="15.034005103882567"><ele>769.0</ele><time>2026-04-30T16:13:44Z</time></trkpt><trkpt lat="38.03507515507475" lon="15.034015340742144"><ele>769.0</ele><time>2026-04-30T16:13:45Z</time></trkpt><trkpt lat="38.03492628125722" lon="15.034059524216621"><ele>771.6666666666666</ele><time>2026-04-30T16:13:46Z</time></trkpt><trkpt lat="38.0347528201136" lon="15.034093275792255"><ele>774.3333333333333</ele><time>2026-04-30T16:13:47Z</time></trkpt><trkpt lat="38.03456600158659" lon="15.034132484650836"><ele>777.0</ele><time>2026-04-30T16:13:48Z</time></trkpt><trkpt lat="38.03437270921431" lon="15.034126601632378"><ele>777.0</ele><time>2026-04-30T16:13:49Z</time></trkpt><trkpt lat="38.0341712434583" lon="15.034107924932098"><ele>777.0</ele><time>2026-04-30T16:13:50Z</time></trkpt><trkpt lat="38.03394080805051" lon="15.034083364241933"><ele>777.0</ele><time>2026-04-30T16:13:51Z</time></trkpt><trkpt lat="38.03372700463355" lon="15.03407699365454"><ele>779.3333333333333</ele><time>2026-04-30T16:13:52Z</time></trkpt><trkpt lat="38.033541527263594" lon="15.034059618715956"><ele>781.6666666666666</ele><time>2026-04-30T16:13:53Z</time></trkpt><trkpt lat="38.03336975198424" lon="15.034040276608081"><ele>784.0</ele><time>2026-04-30T16:13:54Z</time></trkpt><trkpt lat="38.033206937433334" lon="15.034019029947865"><ele>784.5</ele><time>2026-04-30T16:13:55Z</time></trkpt><trkpt lat="38.03305796249368" lon="15.034006179617357"><ele>785.0</ele><time>2026-04-30T16:13:56Z</time></trkpt><trkpt lat="38.03291876801629" lon="15.034014930397076"><ele>785.5</ele><time>2026-04-30T16:13:57Z</time></trkpt><trkpt lat="38.032798660515795" lon="15.03404543270177"><ele>786.0</ele><time>2026-04-30T16:13:58Z</time></trkpt><trkpt lat="38.03270581392618" lon="15.034101705060888"><ele>787.25</ele><time>2026-04-30T16:13:59Z</time></trkpt><trkpt lat="38.032637809332414" lon="15.034205243087184"><ele>788.5</ele><time>2026-04-30T16:14:00Z</time></trkpt><trkpt lat="38.032552088042216" lon="15.03433587411441"><ele>789.75</ele><time>2026-04-30T16:14:01Z</time></trkpt><trkpt lat="38.03244667401383" lon="15.03439226299209"><ele>791.0</ele><time>2026-04-30T16:14:02Z</time></trkpt><trkpt lat="38.03233488729013" lon="15.034400627851792"><ele>791.3333333333334</ele><time>2026-04-30T16:14:03Z</time></trkpt><trkpt lat="38.03219238122561" lon="15.034417690331056"><ele>791.6666666666667</ele><time>2026-04-30T16:14:04Z</time></trkpt><trkpt lat="38.032011104839576" lon="15.034449124953596"><ele>792.0</ele><time>2026-04-30T16:14:05Z</time></trkpt><trkpt lat="38.0318358896615" lon="15.03446924929475"><ele>792.0</ele><time>2026-04-30T16:14:06Z</time></trkpt><trkpt lat="38.03166737336204" lon="15.034527535414858"><ele>792.0</ele><time>2026-04-30T16:14:07Z</time></trkpt><trkpt lat="38.0315054741046" lon="15.034619029686283"><ele>792.0</ele><time>2026-04-30T16:14:08Z</time></trkpt><trkpt lat="38.031356647376235" lon="15.034695825755634"><ele>793.4000000000001</ele><time>2026-04-30T16:14:09Z</time></trkpt><trkpt lat="38.03124277804686" lon="15.034763091035165"><ele>794.8000000000001</ele><time>2026-04-30T16:14:10Z</time></trkpt><trkpt lat="38.03115551709869" lon="15.034806055100727"><ele>796.2</ele><time>2026-04-30T16:14:11Z</time></trkpt><trkpt lat="38.03108219773082" lon="15.034836543322907"><ele>797.6</ele><time>2026-04-30T16:14:12Z</time></trkpt><trkpt lat="38.031003064798526" lon="15.034789190253678"><ele>799.0</ele><time>2026-04-30T16:14:13Z</time></trkpt><trkpt lat="38.03092023460762" lon="15.03470263620639"><ele>799.0</ele><time>2026-04-30T16:14:14Z</time></trkpt><trkpt lat="38.030854353480336" lon="15.03456777121602"><ele>799.0</ele><time>2026-04-30T16:14:15Z</time></trkpt><trkpt lat="38.03077447272287" lon="15.034439005412043"><ele>799.0</ele><time>2026-04-30T16:14:16Z</time></trkpt><trkpt lat="38.030657884540204" lon="15.034365189539038"><ele>799.0</ele><time>2026-04-30T16:14:17Z</time></trkpt><trkpt lat="38.03052273990248" lon="15.03432881724915"><ele>800.8000000000001</ele><time>2026-04-30T16:14:18Z</time></trkpt><trkpt lat="38.03043713582724" lon="15.034256653553824"><ele>802.6</ele><time>2026-04-30T16:14:19Z</time></trkpt><trkpt lat="38.030383701654365" lon="15.034202468384375"><ele>804.4</ele><time>2026-04-30T16:14:20Z</time></trkpt><trkpt lat="38.0303611953207" lon="15.034094366295943"><ele>806.2</ele><time>2026-04-30T16:14:21Z</time></trkpt><trkpt lat="38.03035609662049" lon="15.03395376900427"><ele>808.0</ele><time>2026-04-30T16:14:22Z</time></trkpt><trkpt lat="38.030425699676734" lon="15.033830337149436"><ele>808.0</ele><time>2026-04-30T16:14:23Z</time></trkpt><trkpt lat="38.03048335325855" lon="15.03368339384872"><ele>808.0</ele><time>2026-04-30T16:14:24Z</time></trkpt><trkpt lat="38.030547849737964" lon="15.03352832722244"><ele>808.0</ele><time>2026-04-30T16:14:25Z</time></trkpt><trkpt lat="38.03058288683943" lon="15.033377639829514"><ele>808.0</ele><time>2026-04-30T16:14:26Z</time></trkpt><trkpt lat="38.03060095311881" lon="15.033261286667779"><ele>805.5</ele><time>2026-04-30T16:14:27Z</time></trkpt><trkpt lat="38.03058405181902" lon="15.033127167186144"><ele>803.0</ele><time>2026-04-30T16:14:28Z</time></trkpt><trkpt lat="38.030529080368" lon="15.032992370778171"><ele>800.5</ele><time>2026-04-30T16:14:29Z</time></trkpt><trkpt lat="38.030433956715015" lon="15.032888916090892"><ele>798.0</ele><time>2026-04-30T16:14:30Z</time></trkpt><trkpt lat="38.030306872599546" lon="15.032812508389958"><ele>798.0</ele><time>2026-04-30T16:14:31Z</time></trkpt><trkpt lat="38.030152058846994" lon="15.032746694873083"><ele>798.0</ele><time>2026-04-30T16:14:32Z</time></trkpt><trkpt lat="38.029986720506244" lon="15.03268829228413"><ele>798.0</ele><time>2026-04-30T16:14:33Z</time></trkpt><trkpt lat="38.029820748140544" lon="15.032652783686432"><ele>800.25</ele><time>2026-04-30T16:14:34Z</time></trkpt><trkpt lat="38.029680158875045" lon="15.032593137452437"><ele>802.5</ele><time>2026-04-30T16:14:35Z</time></trkpt><trkpt lat="38.029568115443375" lon="15.032537045377518"><ele>804.75</ele><time>2026-04-30T16:14:36Z</time></trkpt><trkpt lat="38.029511593497844" lon="15.03244775212766"><ele>807.0</ele><time>2026-04-30T16:14:37Z</time></trkpt><trkpt lat="38.02944530875265" lon="15.032365920996728"><ele>807.25</ele><time>2026-04-30T16:14:38Z</time></trkpt><trkpt lat="38.02943845422858" lon="15.032261177270447"><ele>807.5</ele><time>2026-04-30T16:14:39Z</time></trkpt><trkpt lat="38.029389441188236" lon="15.032095623748571"><ele>807.75</ele><time>2026-04-30T16:14:40Z</time></trkpt><trkpt lat="38.02946921174245" lon="15.031950542661734"><ele>808.0</ele><time>2026-04-30T16:14:41Z</time></trkpt><trkpt lat="38.02950568050514" lon="15.031749275525357"><ele>808.0</ele><time>2026-04-30T16:14:42Z</time></trkpt><trkpt lat="38.029563708323906" lon="15.031544230601549"><ele>808.0</ele><time>2026-04-30T16:14:43Z</time></trkpt><trkpt lat="38.02961930732251" lon="15.031331812893272"><ele>808.0</ele><time>2026-04-30T16:14:44Z</time></trkpt><trkpt lat="38.02968318179115" lon="15.031091291674123"><ele>808.0</ele><time>2026-04-30T16:14:45Z</time></trkpt><trkpt lat="38.02975921030075" lon="15.03082069096515"><ele>808.0</ele><time>2026-04-30T16:14:46Z</time></trkpt><trkpt lat="38.02982449647992" lon="15.030555909149028"><ele>808.0</ele><time>2026-04-30T16:14:47Z</time></trkpt><trkpt lat="38.02988485236551" lon="15.030310740828483"><ele>809.75</ele><time>2026-04-30T16:14:48Z</time></trkpt><trkpt lat="38.02994266651318" lon="15.030100345735653"><ele>811.5</ele><time>2026-04-30T16:14:49Z</time></trkpt><trkpt lat="38.029987478369264" lon="15.02993028540834"><ele>813.25</ele><time>2026-04-30T16:14:50Z</time></trkpt><trkpt lat="38.03001937598146" lon="15.0297918778876"><ele>815.0</ele><time>2026-04-30T16:14:51Z</time></trkpt><trkpt lat="38.030023723367165" lon="15.029677412209764"><ele>814.2</ele><time>2026-04-30T16:14:52Z</time></trkpt><trkpt lat="38.02999001756692" lon="15.029566421393758"><ele>813.4</ele><time>2026-04-30T16:14:53Z</time></trkpt><trkpt lat="38.029917081646204" lon="15.029464762693243"><ele>812.5999999999999</ele><time>2026-04-30T16:14:54Z</time></trkpt><trkpt lat="38.02980952788635" lon="15.029388757893479"><ele>811.8</ele><time>2026-04-30T16:14:55Z</time></trkpt><trkpt lat="38.02970834110026" lon="15.029323352404035"><ele>811.0</ele><time>2026-04-30T16:14:56Z</time></trkpt><trkpt lat="38.02953443947755" lon="15.029232827008663"><ele>809.5</ele><time>2026-04-30T16:14:57Z</time></trkpt><trkpt lat="38.02942007166035" lon="15.02913042207421"><ele>808.0</ele><time>2026-04-30T16:14:58Z</time></trkpt><trkpt lat="38.029344443144204" lon="15.029034872320649"><ele>806.5</ele><time>2026-04-30T16:14:59Z</time></trkpt><trkpt lat="38.029330906371776" lon="15.028909673152718"><ele>805.0</ele><time>2026-04-30T16:15:00Z</time></trkpt><trkpt lat="38.02930182515173" lon="15.028731092800824"><ele>805.0</ele><time>2026-04-30T16:15:01Z</time></trkpt><trkpt lat="38.029268396159964" lon="15.028504839747763"><ele>805.0</ele><time>2026-04-30T16:15:02Z</time></trkpt><trkpt lat="38.02923897472489" lon="15.028310296628657"><ele>805.0</ele><time>2026-04-30T16:15:03Z</time></trkpt><trkpt lat="38.02923355711179" lon="15.02816742179006"><ele>811.0</ele><time>2026-04-30T16:15:04Z</time></trkpt><trkpt lat="38.029246440434896" lon="15.028038225456523"><ele>817.0</ele><time>2026-04-30T16:15:05Z</time></trkpt><trkpt lat="38.02930654146266" lon="15.027920397611485"><ele>823.0</ele><time>2026-04-30T16:15:06Z</time></trkpt><trkpt lat="38.02938682096784" lon="15.027779954011178"><ele>829.0</ele><time>2026-04-30T16:15:07Z</time></trkpt><trkpt lat="38.02947261248677" lon="15.027584935463612"><ele>838.6666666666666</ele><time>2026-04-30T16:15:08Z</time></trkpt><trkpt lat="38.029613416143576" lon="15.027405035156805"><ele>848.3333333333333</ele><time>2026-04-30T16:15:09Z</time></trkpt><trkpt lat="38.02973282388455" lon="15.027262850566148"><ele>858.0</ele><time>2026-04-30T16:15:10Z</time></trkpt><trkpt lat="38.029846036826335" lon="15.027125431263638"><ele>858.0</ele><time>2026-04-30T16:15:11Z</time></trkpt><trkpt lat="38.02995284405498" lon="15.026996734024479"><ele>858.0</ele><time>2026-04-30T16:15:12Z</time></trkpt><trkpt lat="38.03003720661175" lon="15.026794153194322"><ele>858.0</ele><time>2026-04-30T16:15:13Z</time></trkpt><trkpt lat="38.030123661762936" lon="15.026553902053221"><ele>844.6666666666667</ele><time>2026-04-30T16:15:14Z</time></trkpt><trkpt lat="38.030206864875254" lon="15.026340577494736"><ele>831.3333333333334</ele><time>2026-04-30T16:15:15Z</time></trkpt><trkpt lat="38.0302747377066" lon="15.026168540985772"><ele>818.0</ele><time>2026-04-30T16:15:16Z</time></trkpt><trkpt lat="38.03031553112944" lon="15.02602653644391"><ele>818.0</ele><time>2026-04-30T16:15:17Z</time></trkpt><trkpt lat="38.030337385691844" lon="15.02588319518945"><ele>818.0</ele><time>2026-04-30T16:15:18Z</time></trkpt><trkpt lat="38.03034705646064" lon="15.02569664202453"><ele>818.0</ele><time>2026-04-30T16:15:19Z</time></trkpt><trkpt lat="38.030337664898106" lon="15.025481427779825"><ele>818.0</ele><time>2026-04-30T16:15:20Z</time></trkpt><trkpt lat="38.030321400906864" lon="15.025262333814915"><ele>820.0</ele><time>2026-04-30T16:15:21Z</time></trkpt><trkpt lat="38.03034513632112" lon="15.025073541846155"><ele>822.0</ele><time>2026-04-30T16:15:22Z</time></trkpt><trkpt lat="38.03040120408958" lon="15.024902274098103"><ele>824.0</ele><time>2026-04-30T16:15:23Z</time></trkpt><trkpt lat="38.0304793192312" lon="15.024696216683882"><ele>823.75</ele><time>2026-04-30T16:15:24Z</time></trkpt><trkpt lat="38.03052800437612" lon="15.024490504751519"><ele>823.5</ele><time>2026-04-30T16:15:25Z</time></trkpt><trkpt lat="38.03056637707523" lon="15.024319593691406"><ele>823.25</ele><time>2026-04-30T16:15:26Z</time></trkpt><trkpt lat="38.03056502599353" lon="15.024170891237556"><ele>823.0</ele><time>2026-04-30T16:15:27Z</time></trkpt><trkpt lat="38.03052353899927" lon="15.024010414425653"><ele>823.0</ele><time>2026-04-30T16:15:28Z</time></trkpt><trkpt lat="38.03044503600974" lon="15.023846386236391"><ele>823.0</ele><time>2026-04-30T16:15:29Z</time></trkpt><trkpt lat="38.03034155808975" lon="15.023652773137028"><ele>823.0</ele><time>2026-04-30T16:15:30Z</time></trkpt><trkpt lat="38.03024485638359" lon="15.02345684487606"><ele>823.75</ele><time>2026-04-30T16:15:31Z</time></trkpt><trkpt lat="38.03018079219727" lon="15.023300214412561"><ele>824.5</ele><time>2026-04-30T16:15:32Z</time></trkpt><trkpt lat="38.03016658939119" lon="15.023185063765546"><ele>825.25</ele><time>2026-04-30T16:15:33Z</time></trkpt><trkpt lat="38.030146008170355" lon="15.023060501365553"><ele>826.0</ele><time>2026-04-30T16:15:34Z</time></trkpt><trkpt lat="38.030204457973596" lon="15.022907717864136"><ele>826.0</ele><time>2026-04-30T16:15:35Z</time></trkpt><trkpt lat="38.030241401765686" lon="15.022709166676885"><ele>826.0</ele><time>2026-04-30T16:15:36Z</time></trkpt><trkpt lat="38.03028743119607" lon="15.022495946623465"><ele>826.0</ele><time>2026-04-30T16:15:37Z</time></trkpt><trkpt lat="38.03030401490711" lon="15.022315445750433"><ele>824.75</ele><time>2026-04-30T16:15:38Z</time></trkpt><trkpt lat="38.030320392752856" lon="15.022154014708244"><ele>823.5</ele><time>2026-04-30T16:15:39Z</time></trkpt><trkpt lat="38.0302728356636" lon="15.022017006215528"><ele>822.25</ele><time>2026-04-30T16:15:40Z</time></trkpt><trkpt lat="38.030194350509795" lon="15.021850950446392"><ele>821.0</ele><time>2026-04-30T16:15:41Z</time></trkpt><trkpt lat="38.03009302433368" lon="15.021654202842008"><ele>819.0</ele><time>2026-04-30T16:15:42Z</time></trkpt><trkpt lat="38.03000710678544" lon="15.021472294324386"><ele>817.0</ele><time>2026-04-30T16:15:43Z</time></trkpt><trkpt lat="38.029936359619896" lon="15.021342524816225"><ele>815.0</ele><time>2026-04-30T16:15:44Z</time></trkpt><trkpt lat="38.02987162670875" lon="15.021244755996833"><ele>813.0</ele><time>2026-04-30T16:15:45Z</time></trkpt><trkpt lat="38.02978952884355" lon="15.021160805038116"><ele>813.0</ele><time>2026-04-30T16:15:46Z</time></trkpt><trkpt lat="38.029668783605004" lon="15.0211316247512"><ele>813.0</ele><time>2026-04-30T16:15:47Z</time></trkpt><trkpt lat="38.02952000450965" lon="15.021133621089131"><ele>813.0</ele><time>2026-04-30T16:15:48Z</time></trkpt><trkpt lat="38.029348513589234" lon="15.021135144449673"><ele>813.0</ele><time>2026-04-30T16:15:49Z</time></trkpt><trkpt lat="38.02917876002912" lon="15.021103592195546"><ele>815.0</ele><time>2026-04-30T16:15:50Z</time></trkpt><trkpt lat="38.029016277457615" lon="15.021048216197935"><ele>817.0</ele><time>2026-04-30T16:15:51Z</time></trkpt><trkpt lat="38.02889957205546" lon="15.021026103294275"><ele>819.0</ele><time>2026-04-30T16:15:52Z</time></trkpt><trkpt lat="38.02880263313464" lon="15.02101268435657"><ele>821.0</ele><time>2026-04-30T16:15:53Z</time></trkpt><trkpt lat="38.02869086151161" lon="15.021079507956056"><ele>821.0</ele><time>2026-04-30T16:15:54Z</time></trkpt><trkpt lat="38.02854669501237" lon="15.021183260851277"><ele>821.0</ele><time>2026-04-30T16:15:55Z</time></trkpt><trkpt lat="38.02838034728736" lon="15.021236631708922"><ele>821.0</ele><time>2026-04-30T16:15:56Z</time></trkpt><trkpt lat="38.02819490757837" lon="15.021281475399359"><ele>826.0</ele><time>2026-04-30T16:15:57Z</time></trkpt><trkpt lat="38.02802180280197" lon="15.02130734028261"><ele>831.0</ele><time>2026-04-30T16:15:58Z</time></trkpt><trkpt lat="38.02783666160715" lon="15.021359083131992"><ele>836.0</ele><time>2026-04-30T16:15:59Z</time></trkpt><trkpt lat="38.027666225030146" lon="15.021472056049424"><ele>836.0</ele><time>2026-04-30T16:16:00Z</time></trkpt><trkpt lat="38.0275343868366" lon="15.021559833585002"><ele>836.0</ele><time>2026-04-30T16:16:01Z</time></trkpt><trkpt lat="38.027451810265404" lon="15.021625264329499"><ele>836.0</ele><time>2026-04-30T16:16:02Z</time></trkpt><trkpt lat="38.027369412111895" lon="15.021623259830497"><ele>836.0</ele><time>2026-04-30T16:16:03Z</time></trkpt><trkpt lat="38.02729167324759" lon="15.021611036164154"><ele>836.0</ele><time>2026-04-30T16:16:04Z</time></trkpt><trkpt lat="38.02722285260104" lon="15.02156319386353"><ele>839.8</ele><time>2026-04-30T16:16:05Z</time></trkpt><trkpt lat="38.027179605796924" lon="15.021444033286784"><ele>843.5999999999999</ele><time>2026-04-30T16:16:06Z</time></trkpt><trkpt lat="38.02718497129085" lon="15.021316928211352"><ele>847.4</ele><time>2026-04-30T16:16:07Z</time></trkpt><trkpt lat="38.027210288969094" lon="15.021189187823959"><ele>851.2</ele><time>2026-04-30T16:16:08Z</time></trkpt><trkpt lat="38.02724286525689" lon="15.021031618754423"><ele>855.0</ele><time>2026-04-30T16:16:09Z</time></trkpt><trkpt lat="38.0272697112417" lon="15.020818135214045"><ele>860.6666666666667</ele><time>2026-04-30T16:16:10Z</time></trkpt><trkpt lat="38.027304375896286" lon="15.02057035262582"><ele>866.3333333333334</ele><time>2026-04-30T16:16:11Z</time></trkpt><trkpt lat="38.02734960975776" lon="15.020334326594712"><ele>872.0</ele><time>2026-04-30T16:16:12Z</time></trkpt><trkpt lat="38.02738694075067" lon="15.02012017731929"><ele>869.25</ele><time>2026-04-30T16:16:13Z</time></trkpt><trkpt lat="38.02740796528358" lon="15.019946486180295"><ele>866.5</ele><time>2026-04-30T16:16:14Z</time></trkpt><trkpt lat="38.02743336944276" lon="15.01980360253108"><ele>863.75</ele><time>2026-04-30T16:16:15Z</time></trkpt><trkpt lat="38.02749273845789" lon="15.01967548933685"><ele>861.0</ele><time>2026-04-30T16:16:16Z</time></trkpt><trkpt lat="38.02759183946234" lon="15.019530585627566"><ele>861.0</ele><time>2026-04-30T16:16:17Z</time></trkpt><trkpt lat="38.02770556790757" lon="15.019370908230213"><ele>861.0</ele><time>2026-04-30T16:16:18Z</time></trkpt><trkpt lat="38.02780569880582" lon="15.0192275578641"><ele>861.0</ele><time>2026-04-30T16:16:19Z</time></trkpt><trkpt lat="38.027884974724195" lon="15.019086646207525"><ele>861.75</ele><time>2026-04-30T16:16:20Z</time></trkpt><trkpt lat="38.02794578935808" lon="15.018952606827284"><ele>862.5</ele><time>2026-04-30T16:16:21Z</time></trkpt><trkpt lat="38.02798534827943" lon="15.018821493587621"><ele>863.25</ele><time>2026-04-30T16:16:22Z</time></trkpt><trkpt lat="38.02798760084444" lon="15.018652863393163"><ele>864.0</ele><time>2026-04-30T16:16:23Z</time></trkpt><trkpt lat="38.02795467359821" lon="15.018476980809321"><ele>858.6666666666667</ele><time>2026-04-30T16:16:24Z</time></trkpt><trkpt lat="38.02789591198002" lon="15.018302353282882"><ele>853.3333333333334</ele><time>2026-04-30T16:16:25Z</time></trkpt><trkpt lat="38.02782275990437" lon="15.01812399667162"><ele>848.0</ele><time>2026-04-30T16:16:26Z</time></trkpt><trkpt lat="38.027712316518134" lon="15.017934012270777"><ele>848.0</ele><time>2026-04-30T16:16:27Z</time></trkpt><trkpt lat="38.027593962027424" lon="15.01775316079998"><ele>848.0</ele><time>2026-04-30T16:16:28Z</time></trkpt><trkpt lat="38.027489222347704" lon="15.017578186343913"><ele>848.0</ele><time>2026-04-30T16:16:29Z</time></trkpt><trkpt lat="38.027370839631686" lon="15.017418895836162"><ele>847.0</ele><time>2026-04-30T16:16:30Z</time></trkpt><trkpt lat="38.027230947780346" lon="15.017278504381771"><ele>846.0</ele><time>2026-04-30T16:16:31Z</time></trkpt><trkpt lat="38.027101912818914" lon="15.017163758632156"><ele>845.0</ele><time>2026-04-30T16:16:32Z</time></trkpt><trkpt lat="38.026985942928626" lon="15.017065315949303"><ele>845.0</ele><time>2026-04-30T16:16:33Z</time></trkpt><trkpt lat="38.026888172407354" lon="15.016973525153807"><ele>845.0</ele><time>2026-04-30T16:16:34Z</time></trkpt><trkpt lat="38.0267924616754" lon="15.016915356448713"><ele>845.0</ele><time>2026-04-30T16:16:35Z</time></trkpt><trkpt lat="38.026686403781575" lon="15.016883331008795"><ele>845.0</ele><time>2026-04-30T16:16:36Z</time></trkpt><trkpt lat="38.02657468549448" lon="15.016899812395428"><ele>845.0</ele><time>2026-04-30T16:16:37Z</time></trkpt><trkpt lat="38.02643501283052" lon="15.016944440037676"><ele>844.3333333333334</ele><time>2026-04-30T16:16:38Z</time></trkpt><trkpt lat="38.02626847314468" lon="15.017003834300253"><ele>843.6666666666667</ele><time>2026-04-30T16:16:39Z</time></trkpt><trkpt lat="38.02606554918558" lon="15.017056464977673"><ele>843.0</ele><time>2026-04-30T16:16:40Z</time></trkpt><trkpt lat="38.02589387978284" lon="15.017111980996622"><ele>847.5</ele><time>2026-04-30T16:16:41Z</time></trkpt><trkpt lat="38.02576099211038" lon="15.017180393695138"><ele>852.0</ele><time>2026-04-30T16:16:42Z</time></trkpt><trkpt lat="38.02563695643706" lon="15.017225739828024"><ele>856.5</ele><time>2026-04-30T16:16:43Z</time></trkpt><trkpt lat="38.02552835351519" lon="15.017277619604531"><ele>861.0</ele><time>2026-04-30T16:16:44Z</time></trkpt><trkpt lat="38.025434004700635" lon="15.01731249139814"><ele>861.0</ele><time>2026-04-30T16:16:45Z</time></trkpt><trkpt lat="38.02535828944346" lon="15.0173417445981"><ele>861.0</ele><time>2026-04-30T16:16:46Z</time></trkpt><trkpt lat="38.02529579751023" lon="15.01735462657521"><ele>861.0</ele><time>2026-04-30T16:16:47Z</time></trkpt><trkpt lat="38.02518195778512" lon="15.017303608302674"><ele>861.0</ele><time>2026-04-30T16:16:49Z</time></trkpt><trkpt lat="38.02514941932884" lon="15.017211592427268"><ele>861.0</ele><time>2026-04-30T16:16:51Z</time></trkpt><trkpt lat="38.0250892808149" lon="15.017177909636386"><ele>861.0</ele><time>2026-04-30T16:16:53Z</time></trkpt><trkpt lat="38.02500406635344" lon="15.017205895657664"><ele>861.0</ele><time>2026-04-30T16:16:55Z</time></trkpt><trkpt lat="38.024972566205754" lon="15.017298547451146"><ele>879.0</ele><time>2026-04-30T16:17:09Z</time></trkpt><trkpt lat="38.025104726572806" lon="15.017328676882366"><ele>861.0</ele><time>2026-04-30T16:17:12Z</time></trkpt><trkpt lat="38.02520679573741" lon="15.01737382230218"><ele>861.0</ele><time>2026-04-30T16:17:14Z</time></trkpt><trkpt lat="38.02526107403155" lon="15.017469873984341"><ele>861.0</ele><time>2026-04-30T16:17:16Z</time></trkpt></trkseg></trk></gpx>